<?xml version="1.0" encoding="UTF-8"?>
<gpx version="1.1" creator="https://www.youtrack.es" xsi:schemaLocation="http://www.topografix.com/GPX/1/1 http://www.topografix.com/GPX/1/1/gpx.xsd http://www.garmin.com/xmlschemas/GpxExtensions/v3 http://www.garmin.com/xmlschemas/GpxExtensionsv3.xsd http://www.garmin.com/xmlschemas/TrackPointExtension/v1 http://www.garmin.com/xmlschemas/TrackPointExtensionv1.xsd" xmlns:gpxtpx="http://www.garmin.com/xmlschemas/TrackPointExtension/v1" xmlns:gpxx="http://www.garmin.com/xmlschemas/GpxExtensions/v3" xmlns:xsi="http://www.w3.org/2001/XMLSchema-instance">
  <metadata>
    <author>
      <name>FRANCISCO NOVO</name>
      <email id="franovo2" domain="gmail.com"/>
    </author>
    <link href="https://www.youtrack.es">
      <text>YouTrack.es</text>
    </link>
    <time>2026-05-09T03:37:40Z</time>
  </metadata>
  <trk>
    <src>https://www.youtrack.es</src>
    <link href="https://www.youtrack.es/ruta/4575-190316-penedo-do-galo">
      <text>YouTrack.es</text>
    </link>
    <trkseg>
      <trkpt lat="43.666958" lon="-7.592686">
        <ele>136</ele>
        <time>2019-03-16T15:59:37.000Z</time>
      </trkpt>
      <trkpt lat="43.666615" lon="-7.59273">
        <ele>80</ele>
        <time>2019-03-16T15:59:46.000Z</time>
      </trkpt>
      <trkpt lat="43.666564" lon="-7.592757">
        <ele>77</ele>
        <time>2019-03-16T15:59:48.000Z</time>
      </trkpt>
      <trkpt lat="43.666514" lon="-7.592793">
        <ele>76</ele>
        <time>2019-03-16T15:59:50.000Z</time>
      </trkpt>
      <trkpt lat="43.666467" lon="-7.592822">
        <ele>77</ele>
        <time>2019-03-16T15:59:54.000Z</time>
      </trkpt>
      <trkpt lat="43.66641" lon="-7.59288">
        <ele>77</ele>
        <time>2019-03-16T15:59:59.000Z</time>
      </trkpt>
      <trkpt lat="43.666354" lon="-7.59294">
        <ele>77</ele>
        <time>2019-03-16T16:00:01.000Z</time>
      </trkpt>
      <trkpt lat="43.666324" lon="-7.592995">
        <ele>78</ele>
        <time>2019-03-16T16:00:05.000Z</time>
      </trkpt>
      <trkpt lat="43.666268" lon="-7.593105">
        <ele>79</ele>
        <time>2019-03-16T16:00:09.000Z</time>
      </trkpt>
      <trkpt lat="43.666216" lon="-7.593223">
        <ele>79</ele>
        <time>2019-03-16T16:00:12.000Z</time>
      </trkpt>
      <trkpt lat="43.666018" lon="-7.593562">
        <ele>82</ele>
        <time>2019-03-16T16:00:20.000Z</time>
      </trkpt>
      <trkpt lat="43.665994" lon="-7.593659">
        <ele>80</ele>
        <time>2019-03-16T16:00:23.000Z</time>
      </trkpt>
      <trkpt lat="43.665979" lon="-7.593718">
        <ele>79</ele>
        <time>2019-03-16T16:00:25.000Z</time>
      </trkpt>
      <trkpt lat="43.665947" lon="-7.593838">
        <ele>78</ele>
        <time>2019-03-16T16:00:28.000Z</time>
      </trkpt>
      <trkpt lat="43.665918" lon="-7.59393">
        <ele>77</ele>
        <time>2019-03-16T16:00:30.000Z</time>
      </trkpt>
      <trkpt lat="43.665884" lon="-7.594042">
        <ele>75</ele>
        <time>2019-03-16T16:00:33.000Z</time>
      </trkpt>
      <trkpt lat="43.665838" lon="-7.594098">
        <ele>75</ele>
        <time>2019-03-16T16:00:35.000Z</time>
      </trkpt>
      <trkpt lat="43.665776" lon="-7.59413">
        <ele>73</ele>
        <time>2019-03-16T16:00:37.000Z</time>
      </trkpt>
      <trkpt lat="43.665691" lon="-7.594168">
        <ele>72</ele>
        <time>2019-03-16T16:00:40.000Z</time>
      </trkpt>
      <trkpt lat="43.665633" lon="-7.59419">
        <ele>71</ele>
        <time>2019-03-16T16:00:42.000Z</time>
      </trkpt>
      <trkpt lat="43.66556" lon="-7.59422">
        <ele>70</ele>
        <time>2019-03-16T16:00:45.000Z</time>
      </trkpt>
      <trkpt lat="43.665517" lon="-7.594248">
        <ele>69</ele>
        <time>2019-03-16T16:00:48.000Z</time>
      </trkpt>
      <trkpt lat="43.665459" lon="-7.594273">
        <ele>69</ele>
        <time>2019-03-16T16:00:51.000Z</time>
      </trkpt>
      <trkpt lat="43.665393" lon="-7.594296">
        <ele>69</ele>
        <time>2019-03-16T16:00:53.000Z</time>
      </trkpt>
      <trkpt lat="43.665333" lon="-7.594312">
        <ele>68</ele>
        <time>2019-03-16T16:00:55.000Z</time>
      </trkpt>
      <trkpt lat="43.665241" lon="-7.594331">
        <ele>69</ele>
        <time>2019-03-16T16:00:58.000Z</time>
      </trkpt>
      <trkpt lat="43.66518" lon="-7.594344">
        <ele>68</ele>
        <time>2019-03-16T16:01:00.000Z</time>
      </trkpt>
      <trkpt lat="43.665107" lon="-7.594367">
        <ele>68</ele>
        <time>2019-03-16T16:01:03.000Z</time>
      </trkpt>
      <trkpt lat="43.665027" lon="-7.594388">
        <ele>68</ele>
        <time>2019-03-16T16:01:06.000Z</time>
      </trkpt>
      <trkpt lat="43.66494" lon="-7.594418">
        <ele>68</ele>
        <time>2019-03-16T16:01:09.000Z</time>
      </trkpt>
      <trkpt lat="43.664872" lon="-7.594443">
        <ele>68</ele>
        <time>2019-03-16T16:01:11.000Z</time>
      </trkpt>
      <trkpt lat="43.664778" lon="-7.594473">
        <ele>67</ele>
        <time>2019-03-16T16:01:14.000Z</time>
      </trkpt>
      <trkpt lat="43.664716" lon="-7.594491">
        <ele>67</ele>
        <time>2019-03-16T16:01:16.000Z</time>
      </trkpt>
      <trkpt lat="43.66467" lon="-7.594504">
        <ele>67</ele>
        <time>2019-03-16T16:01:18.000Z</time>
      </trkpt>
      <trkpt lat="43.664592" lon="-7.594495">
        <ele>67</ele>
        <time>2019-03-16T16:01:22.000Z</time>
      </trkpt>
      <trkpt lat="43.664542" lon="-7.594452">
        <ele>67</ele>
        <time>2019-03-16T16:01:25.000Z</time>
      </trkpt>
      <trkpt lat="43.664499" lon="-7.594408">
        <ele>67</ele>
        <time>2019-03-16T16:01:27.000Z</time>
      </trkpt>
      <trkpt lat="43.66444" lon="-7.594326">
        <ele>67</ele>
        <time>2019-03-16T16:01:31.000Z</time>
      </trkpt>
      <trkpt lat="43.664381" lon="-7.594282">
        <ele>67</ele>
        <time>2019-03-16T16:01:34.000Z</time>
      </trkpt>
      <trkpt lat="43.664321" lon="-7.594264">
        <ele>67</ele>
        <time>2019-03-16T16:01:37.000Z</time>
      </trkpt>
      <trkpt lat="43.664241" lon="-7.594235">
        <ele>67</ele>
        <time>2019-03-16T16:01:40.000Z</time>
      </trkpt>
      <trkpt lat="43.664163" lon="-7.594218">
        <ele>68</ele>
        <time>2019-03-16T16:01:43.000Z</time>
      </trkpt>
      <trkpt lat="43.664107" lon="-7.594218">
        <ele>68</ele>
        <time>2019-03-16T16:01:46.000Z</time>
      </trkpt>
      <trkpt lat="43.664059" lon="-7.59422">
        <ele>68</ele>
        <time>2019-03-16T16:01:49.000Z</time>
      </trkpt>
      <trkpt lat="43.664018" lon="-7.594165">
        <ele>70</ele>
        <time>2019-03-16T16:01:53.000Z</time>
      </trkpt>
      <trkpt lat="43.663993" lon="-7.594081">
        <ele>72</ele>
        <time>2019-03-16T16:01:57.000Z</time>
      </trkpt>
      <trkpt lat="43.663981" lon="-7.594014">
        <ele>74</ele>
        <time>2019-03-16T16:02:00.000Z</time>
      </trkpt>
      <trkpt lat="43.663975" lon="-7.593944">
        <ele>76</ele>
        <time>2019-03-16T16:02:03.000Z</time>
      </trkpt>
      <trkpt lat="43.663974" lon="-7.593846">
        <ele>76</ele>
        <time>2019-03-16T16:02:06.000Z</time>
      </trkpt>
      <trkpt lat="43.663976" lon="-7.593728">
        <ele>76</ele>
        <time>2019-03-16T16:02:09.000Z</time>
      </trkpt>
      <trkpt lat="43.663922" lon="-7.593663">
        <ele>77</ele>
        <time>2019-03-16T16:02:13.000Z</time>
      </trkpt>
      <trkpt lat="43.663854" lon="-7.593627">
        <ele>78</ele>
        <time>2019-03-16T16:02:16.000Z</time>
      </trkpt>
      <trkpt lat="43.663819" lon="-7.593559">
        <ele>79</ele>
        <time>2019-03-16T16:02:20.000Z</time>
      </trkpt>
      <trkpt lat="43.663806" lon="-7.593496">
        <ele>81</ele>
        <time>2019-03-16T16:02:25.000Z</time>
      </trkpt>
      <trkpt lat="43.663794" lon="-7.593416">
        <ele>82</ele>
        <time>2019-03-16T16:02:29.000Z</time>
      </trkpt>
      <trkpt lat="43.66379" lon="-7.593328">
        <ele>83</ele>
        <time>2019-03-16T16:02:32.000Z</time>
      </trkpt>
      <trkpt lat="43.663782" lon="-7.593254">
        <ele>83</ele>
        <time>2019-03-16T16:02:34.000Z</time>
      </trkpt>
      <trkpt lat="43.663774" lon="-7.593192">
        <ele>82</ele>
        <time>2019-03-16T16:02:36.000Z</time>
      </trkpt>
      <trkpt lat="43.663781" lon="-7.593082">
        <ele>84</ele>
        <time>2019-03-16T16:02:40.000Z</time>
      </trkpt>
      <trkpt lat="43.663818" lon="-7.593018">
        <ele>85</ele>
        <time>2019-03-16T16:02:43.000Z</time>
      </trkpt>
      <trkpt lat="43.663857" lon="-7.592976">
        <ele>85</ele>
        <time>2019-03-16T16:02:45.000Z</time>
      </trkpt>
      <trkpt lat="43.663915" lon="-7.592912">
        <ele>85</ele>
        <time>2019-03-16T16:02:48.000Z</time>
      </trkpt>
      <trkpt lat="43.663971" lon="-7.592834">
        <ele>86</ele>
        <time>2019-03-16T16:02:52.000Z</time>
      </trkpt>
      <trkpt lat="43.664006" lon="-7.592782">
        <ele>85</ele>
        <time>2019-03-16T16:02:54.000Z</time>
      </trkpt>
      <trkpt lat="43.664057" lon="-7.592713">
        <ele>85</ele>
        <time>2019-03-16T16:02:57.000Z</time>
      </trkpt>
      <trkpt lat="43.664103" lon="-7.592646">
        <ele>86</ele>
        <time>2019-03-16T16:03:00.000Z</time>
      </trkpt>
      <trkpt lat="43.664179" lon="-7.592561">
        <ele>86</ele>
        <time>2019-03-16T16:03:04.000Z</time>
      </trkpt>
      <trkpt lat="43.664226" lon="-7.592517">
        <ele>86</ele>
        <time>2019-03-16T16:03:06.000Z</time>
      </trkpt>
      <trkpt lat="43.664267" lon="-7.592471">
        <ele>86</ele>
        <time>2019-03-16T16:03:08.000Z</time>
      </trkpt>
      <trkpt lat="43.664327" lon="-7.592407">
        <ele>86</ele>
        <time>2019-03-16T16:03:11.000Z</time>
      </trkpt>
      <trkpt lat="43.664389" lon="-7.592332">
        <ele>88</ele>
        <time>2019-03-16T16:03:15.000Z</time>
      </trkpt>
      <trkpt lat="43.664434" lon="-7.592253">
        <ele>88</ele>
        <time>2019-03-16T16:03:18.000Z</time>
      </trkpt>
      <trkpt lat="43.66446" lon="-7.592154">
        <ele>89</ele>
        <time>2019-03-16T16:03:21.000Z</time>
      </trkpt>
      <trkpt lat="43.664469" lon="-7.592088">
        <ele>90</ele>
        <time>2019-03-16T16:03:23.000Z</time>
      </trkpt>
      <trkpt lat="43.664474" lon="-7.59199">
        <ele>89</ele>
        <time>2019-03-16T16:03:26.000Z</time>
      </trkpt>
      <trkpt lat="43.664478" lon="-7.591926">
        <ele>89</ele>
        <time>2019-03-16T16:03:28.000Z</time>
      </trkpt>
      <trkpt lat="43.664484" lon="-7.591861">
        <ele>90</ele>
        <time>2019-03-16T16:03:30.000Z</time>
      </trkpt>
      <trkpt lat="43.664499" lon="-7.591751">
        <ele>89</ele>
        <time>2019-03-16T16:03:33.000Z</time>
      </trkpt>
      <trkpt lat="43.664528" lon="-7.59164">
        <ele>90</ele>
        <time>2019-03-16T16:03:36.000Z</time>
      </trkpt>
      <trkpt lat="43.664551" lon="-7.59154">
        <ele>91</ele>
        <time>2019-03-16T16:03:39.000Z</time>
      </trkpt>
      <trkpt lat="43.664569" lon="-7.591424">
        <ele>92</ele>
        <time>2019-03-16T16:03:43.000Z</time>
      </trkpt>
      <trkpt lat="43.664578" lon="-7.591354">
        <ele>93</ele>
        <time>2019-03-16T16:03:45.000Z</time>
      </trkpt>
      <trkpt lat="43.664588" lon="-7.59128">
        <ele>93</ele>
        <time>2019-03-16T16:03:47.000Z</time>
      </trkpt>
      <trkpt lat="43.664596" lon="-7.591207">
        <ele>94</ele>
        <time>2019-03-16T16:03:49.000Z</time>
      </trkpt>
      <trkpt lat="43.664603" lon="-7.591134">
        <ele>94</ele>
        <time>2019-03-16T16:03:51.000Z</time>
      </trkpt>
      <trkpt lat="43.664614" lon="-7.59106">
        <ele>95</ele>
        <time>2019-03-16T16:03:53.000Z</time>
      </trkpt>
      <trkpt lat="43.664623" lon="-7.590997">
        <ele>95</ele>
        <time>2019-03-16T16:03:55.000Z</time>
      </trkpt>
      <trkpt lat="43.664629" lon="-7.59093">
        <ele>95</ele>
        <time>2019-03-16T16:03:57.000Z</time>
      </trkpt>
      <trkpt lat="43.664635" lon="-7.590825">
        <ele>95</ele>
        <time>2019-03-16T16:04:00.000Z</time>
      </trkpt>
      <trkpt lat="43.664647" lon="-7.590723">
        <ele>96</ele>
        <time>2019-03-16T16:04:03.000Z</time>
      </trkpt>
      <trkpt lat="43.664648" lon="-7.590653">
        <ele>96</ele>
        <time>2019-03-16T16:04:05.000Z</time>
      </trkpt>
      <trkpt lat="43.664652" lon="-7.590584">
        <ele>97</ele>
        <time>2019-03-16T16:04:07.000Z</time>
      </trkpt>
      <trkpt lat="43.664661" lon="-7.590517">
        <ele>98</ele>
        <time>2019-03-16T16:04:09.000Z</time>
      </trkpt>
      <trkpt lat="43.664678" lon="-7.590428">
        <ele>98</ele>
        <time>2019-03-16T16:04:12.000Z</time>
      </trkpt>
      <trkpt lat="43.664706" lon="-7.590315">
        <ele>99</ele>
        <time>2019-03-16T16:04:16.000Z</time>
      </trkpt>
      <trkpt lat="43.664732" lon="-7.590237">
        <ele>101</ele>
        <time>2019-03-16T16:04:19.000Z</time>
      </trkpt>
      <trkpt lat="43.664766" lon="-7.590127">
        <ele>102</ele>
        <time>2019-03-16T16:04:23.000Z</time>
      </trkpt>
      <trkpt lat="43.664785" lon="-7.590048">
        <ele>103</ele>
        <time>2019-03-16T16:04:26.000Z</time>
      </trkpt>
      <trkpt lat="43.664803" lon="-7.589949">
        <ele>105</ele>
        <time>2019-03-16T16:04:30.000Z</time>
      </trkpt>
      <trkpt lat="43.664827" lon="-7.589846">
        <ele>106</ele>
        <time>2019-03-16T16:04:34.000Z</time>
      </trkpt>
      <trkpt lat="43.664852" lon="-7.589756">
        <ele>107</ele>
        <time>2019-03-16T16:04:37.000Z</time>
      </trkpt>
      <trkpt lat="43.664876" lon="-7.589667">
        <ele>108</ele>
        <time>2019-03-16T16:04:40.000Z</time>
      </trkpt>
      <trkpt lat="43.664902" lon="-7.589564">
        <ele>109</ele>
        <time>2019-03-16T16:04:44.000Z</time>
      </trkpt>
      <trkpt lat="43.664929" lon="-7.589484">
        <ele>110</ele>
        <time>2019-03-16T16:04:47.000Z</time>
      </trkpt>
      <trkpt lat="43.664954" lon="-7.589382">
        <ele>112</ele>
        <time>2019-03-16T16:04:51.000Z</time>
      </trkpt>
      <trkpt lat="43.664979" lon="-7.589304">
        <ele>113</ele>
        <time>2019-03-16T16:04:54.000Z</time>
      </trkpt>
      <trkpt lat="43.665004" lon="-7.589232">
        <ele>114</ele>
        <time>2019-03-16T16:04:57.000Z</time>
      </trkpt>
      <trkpt lat="43.665034" lon="-7.589124">
        <ele>116</ele>
        <time>2019-03-16T16:05:01.000Z</time>
      </trkpt>
      <trkpt lat="43.665056" lon="-7.589045">
        <ele>117</ele>
        <time>2019-03-16T16:05:04.000Z</time>
      </trkpt>
      <trkpt lat="43.665081" lon="-7.588965">
        <ele>118</ele>
        <time>2019-03-16T16:05:07.000Z</time>
      </trkpt>
      <trkpt lat="43.66511" lon="-7.588885">
        <ele>119</ele>
        <time>2019-03-16T16:05:10.000Z</time>
      </trkpt>
      <trkpt lat="43.665154" lon="-7.588784">
        <ele>120</ele>
        <time>2019-03-16T16:05:14.000Z</time>
      </trkpt>
      <trkpt lat="43.665177" lon="-7.588727">
        <ele>120</ele>
        <time>2019-03-16T16:05:16.000Z</time>
      </trkpt>
      <trkpt lat="43.665198" lon="-7.588652">
        <ele>121</ele>
        <time>2019-03-16T16:05:19.000Z</time>
      </trkpt>
      <trkpt lat="43.665223" lon="-7.588568">
        <ele>122</ele>
        <time>2019-03-16T16:05:22.000Z</time>
      </trkpt>
      <trkpt lat="43.665248" lon="-7.588481">
        <ele>122</ele>
        <time>2019-03-16T16:05:25.000Z</time>
      </trkpt>
      <trkpt lat="43.665262" lon="-7.588421">
        <ele>123</ele>
        <time>2019-03-16T16:05:27.000Z</time>
      </trkpt>
      <trkpt lat="43.665283" lon="-7.588322">
        <ele>124</ele>
        <time>2019-03-16T16:05:30.000Z</time>
      </trkpt>
      <trkpt lat="43.665304" lon="-7.588227">
        <ele>124</ele>
        <time>2019-03-16T16:05:33.000Z</time>
      </trkpt>
      <trkpt lat="43.665324" lon="-7.588111">
        <ele>125</ele>
        <time>2019-03-16T16:05:37.000Z</time>
      </trkpt>
      <trkpt lat="43.665338" lon="-7.58805">
        <ele>125</ele>
        <time>2019-03-16T16:05:39.000Z</time>
      </trkpt>
      <trkpt lat="43.665349" lon="-7.587988">
        <ele>126</ele>
        <time>2019-03-16T16:05:41.000Z</time>
      </trkpt>
      <trkpt lat="43.665376" lon="-7.587921">
        <ele>127</ele>
        <time>2019-03-16T16:05:43.000Z</time>
      </trkpt>
      <trkpt lat="43.665423" lon="-7.587813">
        <ele>128</ele>
        <time>2019-03-16T16:05:46.000Z</time>
      </trkpt>
      <trkpt lat="43.665451" lon="-7.587705">
        <ele>128</ele>
        <time>2019-03-16T16:05:49.000Z</time>
      </trkpt>
      <trkpt lat="43.66547" lon="-7.58763">
        <ele>129</ele>
        <time>2019-03-16T16:05:51.000Z</time>
      </trkpt>
      <trkpt lat="43.665495" lon="-7.587546">
        <ele>130</ele>
        <time>2019-03-16T16:05:54.000Z</time>
      </trkpt>
      <trkpt lat="43.66552" lon="-7.58742">
        <ele>130</ele>
        <time>2019-03-16T16:05:58.000Z</time>
      </trkpt>
      <trkpt lat="43.665534" lon="-7.587358">
        <ele>131</ele>
        <time>2019-03-16T16:06:00.000Z</time>
      </trkpt>
      <trkpt lat="43.665553" lon="-7.587266">
        <ele>132</ele>
        <time>2019-03-16T16:06:03.000Z</time>
      </trkpt>
      <trkpt lat="43.665569" lon="-7.587199">
        <ele>132</ele>
        <time>2019-03-16T16:06:05.000Z</time>
      </trkpt>
      <trkpt lat="43.665587" lon="-7.587133">
        <ele>132</ele>
        <time>2019-03-16T16:06:07.000Z</time>
      </trkpt>
      <trkpt lat="43.665601" lon="-7.587067">
        <ele>133</ele>
        <time>2019-03-16T16:06:09.000Z</time>
      </trkpt>
      <trkpt lat="43.665622" lon="-7.587012">
        <ele>133</ele>
        <time>2019-03-16T16:06:11.000Z</time>
      </trkpt>
      <trkpt lat="43.665644" lon="-7.586946">
        <ele>133</ele>
        <time>2019-03-16T16:06:13.000Z</time>
      </trkpt>
      <trkpt lat="43.665662" lon="-7.586889">
        <ele>133</ele>
        <time>2019-03-16T16:06:15.000Z</time>
      </trkpt>
      <trkpt lat="43.665699" lon="-7.586792">
        <ele>133</ele>
        <time>2019-03-16T16:06:18.000Z</time>
      </trkpt>
      <trkpt lat="43.665736" lon="-7.586634">
        <ele>135</ele>
        <time>2019-03-16T16:07:36.000Z</time>
      </trkpt>
      <trkpt lat="43.665765" lon="-7.586578">
        <ele>136</ele>
        <time>2019-03-16T16:07:38.000Z</time>
      </trkpt>
      <trkpt lat="43.665798" lon="-7.586499">
        <ele>136</ele>
        <time>2019-03-16T16:07:41.000Z</time>
      </trkpt>
      <trkpt lat="43.665828" lon="-7.586402">
        <ele>137</ele>
        <time>2019-03-16T16:07:45.000Z</time>
      </trkpt>
      <trkpt lat="43.66585" lon="-7.58632">
        <ele>138</ele>
        <time>2019-03-16T16:07:48.000Z</time>
      </trkpt>
      <trkpt lat="43.665876" lon="-7.586238">
        <ele>139</ele>
        <time>2019-03-16T16:07:51.000Z</time>
      </trkpt>
      <trkpt lat="43.665915" lon="-7.586168">
        <ele>139</ele>
        <time>2019-03-16T16:07:54.000Z</time>
      </trkpt>
      <trkpt lat="43.66594" lon="-7.586114">
        <ele>139</ele>
        <time>2019-03-16T16:07:56.000Z</time>
      </trkpt>
      <trkpt lat="43.665966" lon="-7.586049">
        <ele>140</ele>
        <time>2019-03-16T16:07:58.000Z</time>
      </trkpt>
      <trkpt lat="43.665997" lon="-7.585949">
        <ele>141</ele>
        <time>2019-03-16T16:08:02.000Z</time>
      </trkpt>
      <trkpt lat="43.66602" lon="-7.585866">
        <ele>142</ele>
        <time>2019-03-16T16:08:05.000Z</time>
      </trkpt>
      <trkpt lat="43.666039" lon="-7.585805">
        <ele>142</ele>
        <time>2019-03-16T16:08:07.000Z</time>
      </trkpt>
      <trkpt lat="43.666058" lon="-7.585741">
        <ele>143</ele>
        <time>2019-03-16T16:08:09.000Z</time>
      </trkpt>
      <trkpt lat="43.666097" lon="-7.58564">
        <ele>144</ele>
        <time>2019-03-16T16:08:13.000Z</time>
      </trkpt>
      <trkpt lat="43.666125" lon="-7.585561">
        <ele>145</ele>
        <time>2019-03-16T16:08:16.000Z</time>
      </trkpt>
      <trkpt lat="43.666151" lon="-7.585498">
        <ele>146</ele>
        <time>2019-03-16T16:08:18.000Z</time>
      </trkpt>
      <trkpt lat="43.666158" lon="-7.585419">
        <ele>147</ele>
        <time>2019-03-16T16:08:21.000Z</time>
      </trkpt>
      <trkpt lat="43.666142" lon="-7.585318">
        <ele>148</ele>
        <time>2019-03-16T16:08:25.000Z</time>
      </trkpt>
      <trkpt lat="43.666102" lon="-7.585235">
        <ele>149</ele>
        <time>2019-03-16T16:08:29.000Z</time>
      </trkpt>
      <trkpt lat="43.66606" lon="-7.585172">
        <ele>151</ele>
        <time>2019-03-16T16:08:32.000Z</time>
      </trkpt>
      <trkpt lat="43.666008" lon="-7.585131">
        <ele>151</ele>
        <time>2019-03-16T16:08:35.000Z</time>
      </trkpt>
      <trkpt lat="43.665951" lon="-7.585122">
        <ele>152</ele>
        <time>2019-03-16T16:08:38.000Z</time>
      </trkpt>
      <trkpt lat="43.665898" lon="-7.585143">
        <ele>153</ele>
        <time>2019-03-16T16:08:41.000Z</time>
      </trkpt>
      <trkpt lat="43.665857" lon="-7.585169">
        <ele>152</ele>
        <time>2019-03-16T16:08:43.000Z</time>
      </trkpt>
      <trkpt lat="43.665779" lon="-7.58523">
        <ele>153</ele>
        <time>2019-03-16T16:08:47.000Z</time>
      </trkpt>
      <trkpt lat="43.665719" lon="-7.585278">
        <ele>154</ele>
        <time>2019-03-16T16:08:50.000Z</time>
      </trkpt>
      <trkpt lat="43.665661" lon="-7.585336">
        <ele>155</ele>
        <time>2019-03-16T16:08:53.000Z</time>
      </trkpt>
      <trkpt lat="43.665614" lon="-7.585393">
        <ele>156</ele>
        <time>2019-03-16T16:08:56.000Z</time>
      </trkpt>
      <trkpt lat="43.665558" lon="-7.585452">
        <ele>157</ele>
        <time>2019-03-16T16:08:59.000Z</time>
      </trkpt>
      <trkpt lat="43.665508" lon="-7.585515">
        <ele>158</ele>
        <time>2019-03-16T16:09:02.000Z</time>
      </trkpt>
      <trkpt lat="43.665447" lon="-7.585598">
        <ele>159</ele>
        <time>2019-03-16T16:09:06.000Z</time>
      </trkpt>
      <trkpt lat="43.665395" lon="-7.585652">
        <ele>161</ele>
        <time>2019-03-16T16:09:09.000Z</time>
      </trkpt>
      <trkpt lat="43.665328" lon="-7.585725">
        <ele>162</ele>
        <time>2019-03-16T16:09:13.000Z</time>
      </trkpt>
      <trkpt lat="43.665279" lon="-7.58578">
        <ele>163</ele>
        <time>2019-03-16T16:09:16.000Z</time>
      </trkpt>
      <trkpt lat="43.665229" lon="-7.585833">
        <ele>164</ele>
        <time>2019-03-16T16:09:19.000Z</time>
      </trkpt>
      <trkpt lat="43.665184" lon="-7.585887">
        <ele>165</ele>
        <time>2019-03-16T16:09:22.000Z</time>
      </trkpt>
      <trkpt lat="43.665133" lon="-7.58594">
        <ele>166</ele>
        <time>2019-03-16T16:09:25.000Z</time>
      </trkpt>
      <trkpt lat="43.665073" lon="-7.586024">
        <ele>168</ele>
        <time>2019-03-16T16:09:29.000Z</time>
      </trkpt>
      <trkpt lat="43.66503" lon="-7.586084">
        <ele>168</ele>
        <time>2019-03-16T16:09:32.000Z</time>
      </trkpt>
      <trkpt lat="43.66499" lon="-7.586138">
        <ele>171</ele>
        <time>2019-03-16T16:09:35.000Z</time>
      </trkpt>
      <trkpt lat="43.664948" lon="-7.586197">
        <ele>172</ele>
        <time>2019-03-16T16:09:38.000Z</time>
      </trkpt>
      <trkpt lat="43.664912" lon="-7.586253">
        <ele>174</ele>
        <time>2019-03-16T16:09:41.000Z</time>
      </trkpt>
      <trkpt lat="43.66487" lon="-7.586349">
        <ele>175</ele>
        <time>2019-03-16T16:09:45.000Z</time>
      </trkpt>
      <trkpt lat="43.664834" lon="-7.58643">
        <ele>176</ele>
        <time>2019-03-16T16:09:48.000Z</time>
      </trkpt>
      <trkpt lat="43.664807" lon="-7.586483">
        <ele>176</ele>
        <time>2019-03-16T16:09:50.000Z</time>
      </trkpt>
      <trkpt lat="43.66477" lon="-7.586561">
        <ele>177</ele>
        <time>2019-03-16T16:09:53.000Z</time>
      </trkpt>
      <trkpt lat="43.664736" lon="-7.586628">
        <ele>178</ele>
        <time>2019-03-16T16:09:56.000Z</time>
      </trkpt>
      <trkpt lat="43.664698" lon="-7.586706">
        <ele>179</ele>
        <time>2019-03-16T16:09:59.000Z</time>
      </trkpt>
      <trkpt lat="43.664649" lon="-7.586796">
        <ele>180</ele>
        <time>2019-03-16T16:10:03.000Z</time>
      </trkpt>
      <trkpt lat="43.664608" lon="-7.586866">
        <ele>181</ele>
        <time>2019-03-16T16:10:06.000Z</time>
      </trkpt>
      <trkpt lat="43.664552" lon="-7.586955">
        <ele>182</ele>
        <time>2019-03-16T16:10:10.000Z</time>
      </trkpt>
      <trkpt lat="43.6645" lon="-7.58705">
        <ele>184</ele>
        <time>2019-03-16T16:10:14.000Z</time>
      </trkpt>
      <trkpt lat="43.664457" lon="-7.587109">
        <ele>185</ele>
        <time>2019-03-16T16:10:17.000Z</time>
      </trkpt>
      <trkpt lat="43.664416" lon="-7.587155">
        <ele>185</ele>
        <time>2019-03-16T16:10:19.000Z</time>
      </trkpt>
      <trkpt lat="43.664362" lon="-7.5872">
        <ele>186</ele>
        <time>2019-03-16T16:10:22.000Z</time>
      </trkpt>
      <trkpt lat="43.664286" lon="-7.587226">
        <ele>187</ele>
        <time>2019-03-16T16:10:26.000Z</time>
      </trkpt>
      <trkpt lat="43.664227" lon="-7.587214">
        <ele>187</ele>
        <time>2019-03-16T16:10:29.000Z</time>
      </trkpt>
      <trkpt lat="43.664139" lon="-7.587157">
        <ele>188</ele>
        <time>2019-03-16T16:10:33.000Z</time>
      </trkpt>
      <trkpt lat="43.664067" lon="-7.587086">
        <ele>190</ele>
        <time>2019-03-16T16:10:37.000Z</time>
      </trkpt>
      <trkpt lat="43.664023" lon="-7.587025">
        <ele>192</ele>
        <time>2019-03-16T16:10:40.000Z</time>
      </trkpt>
      <trkpt lat="43.663986" lon="-7.586959">
        <ele>193</ele>
        <time>2019-03-16T16:10:43.000Z</time>
      </trkpt>
      <trkpt lat="43.663955" lon="-7.586889">
        <ele>194</ele>
        <time>2019-03-16T16:10:46.000Z</time>
      </trkpt>
      <trkpt lat="43.6639" lon="-7.586794">
        <ele>195</ele>
        <time>2019-03-16T16:10:50.000Z</time>
      </trkpt>
      <trkpt lat="43.663869" lon="-7.586745">
        <ele>196</ele>
        <time>2019-03-16T16:10:52.000Z</time>
      </trkpt>
      <trkpt lat="43.663827" lon="-7.586653">
        <ele>197</ele>
        <time>2019-03-16T16:10:56.000Z</time>
      </trkpt>
      <trkpt lat="43.663804" lon="-7.586579">
        <ele>198</ele>
        <time>2019-03-16T16:10:59.000Z</time>
      </trkpt>
      <trkpt lat="43.663783" lon="-7.586513">
        <ele>199</ele>
        <time>2019-03-16T16:11:02.000Z</time>
      </trkpt>
      <trkpt lat="43.663754" lon="-7.586444">
        <ele>200</ele>
        <time>2019-03-16T16:11:05.000Z</time>
      </trkpt>
      <trkpt lat="43.66371" lon="-7.586357">
        <ele>202</ele>
        <time>2019-03-16T16:11:09.000Z</time>
      </trkpt>
      <trkpt lat="43.66367" lon="-7.586294">
        <ele>205</ele>
        <time>2019-03-16T16:11:12.000Z</time>
      </trkpt>
      <trkpt lat="43.663636" lon="-7.586237">
        <ele>208</ele>
        <time>2019-03-16T16:11:15.000Z</time>
      </trkpt>
      <trkpt lat="43.663597" lon="-7.586161">
        <ele>210</ele>
        <time>2019-03-16T16:11:18.000Z</time>
      </trkpt>
      <trkpt lat="43.663569" lon="-7.586106">
        <ele>210</ele>
        <time>2019-03-16T16:11:20.000Z</time>
      </trkpt>
      <trkpt lat="43.663528" lon="-7.58603">
        <ele>211</ele>
        <time>2019-03-16T16:11:23.000Z</time>
      </trkpt>
      <trkpt lat="43.663487" lon="-7.58597">
        <ele>212</ele>
        <time>2019-03-16T16:11:26.000Z</time>
      </trkpt>
      <trkpt lat="43.663426" lon="-7.58589">
        <ele>215</ele>
        <time>2019-03-16T16:11:30.000Z</time>
      </trkpt>
      <trkpt lat="43.663378" lon="-7.585825">
        <ele>216</ele>
        <time>2019-03-16T16:11:33.000Z</time>
      </trkpt>
      <trkpt lat="43.66333" lon="-7.585761">
        <ele>218</ele>
        <time>2019-03-16T16:11:36.000Z</time>
      </trkpt>
      <trkpt lat="43.663253" lon="-7.585688">
        <ele>219</ele>
        <time>2019-03-16T16:11:40.000Z</time>
      </trkpt>
      <trkpt lat="43.663202" lon="-7.585633">
        <ele>220</ele>
        <time>2019-03-16T16:11:43.000Z</time>
      </trkpt>
      <trkpt lat="43.663153" lon="-7.585559">
        <ele>222</ele>
        <time>2019-03-16T16:11:47.000Z</time>
      </trkpt>
      <trkpt lat="43.663105" lon="-7.585494">
        <ele>222</ele>
        <time>2019-03-16T16:11:50.000Z</time>
      </trkpt>
      <trkpt lat="43.66307" lon="-7.585447">
        <ele>223</ele>
        <time>2019-03-16T16:11:52.000Z</time>
      </trkpt>
      <trkpt lat="43.663034" lon="-7.585394">
        <ele>224</ele>
        <time>2019-03-16T16:11:54.000Z</time>
      </trkpt>
      <trkpt lat="43.663002" lon="-7.585344">
        <ele>223</ele>
        <time>2019-03-16T16:11:56.000Z</time>
      </trkpt>
      <trkpt lat="43.662966" lon="-7.585274">
        <ele>222</ele>
        <time>2019-03-16T16:11:59.000Z</time>
      </trkpt>
      <trkpt lat="43.662942" lon="-7.585213">
        <ele>223</ele>
        <time>2019-03-16T16:12:01.000Z</time>
      </trkpt>
      <trkpt lat="43.66292" lon="-7.585153">
        <ele>224</ele>
        <time>2019-03-16T16:12:03.000Z</time>
      </trkpt>
      <trkpt lat="43.662892" lon="-7.585064">
        <ele>225</ele>
        <time>2019-03-16T16:12:06.000Z</time>
      </trkpt>
      <trkpt lat="43.66289" lon="-7.584969">
        <ele>226</ele>
        <time>2019-03-16T16:12:09.000Z</time>
      </trkpt>
      <trkpt lat="43.662912" lon="-7.584866">
        <ele>227</ele>
        <time>2019-03-16T16:12:12.000Z</time>
      </trkpt>
      <trkpt lat="43.662925" lon="-7.584796">
        <ele>227</ele>
        <time>2019-03-16T16:12:14.000Z</time>
      </trkpt>
      <trkpt lat="43.662933" lon="-7.584709">
        <ele>227</ele>
        <time>2019-03-16T16:12:17.000Z</time>
      </trkpt>
      <trkpt lat="43.662924" lon="-7.584636">
        <ele>229</ele>
        <time>2019-03-16T16:12:19.000Z</time>
      </trkpt>
      <trkpt lat="43.662886" lon="-7.584526">
        <ele>230</ele>
        <time>2019-03-16T16:12:22.000Z</time>
      </trkpt>
      <trkpt lat="43.662857" lon="-7.584462">
        <ele>231</ele>
        <time>2019-03-16T16:12:24.000Z</time>
      </trkpt>
      <trkpt lat="43.662815" lon="-7.584396">
        <ele>231</ele>
        <time>2019-03-16T16:12:26.000Z</time>
      </trkpt>
      <trkpt lat="43.662774" lon="-7.584338">
        <ele>231</ele>
        <time>2019-03-16T16:12:28.000Z</time>
      </trkpt>
      <trkpt lat="43.662736" lon="-7.584289">
        <ele>230</ele>
        <time>2019-03-16T16:12:30.000Z</time>
      </trkpt>
      <trkpt lat="43.662676" lon="-7.584225">
        <ele>230</ele>
        <time>2019-03-16T16:12:33.000Z</time>
      </trkpt>
      <trkpt lat="43.662632" lon="-7.584184">
        <ele>230</ele>
        <time>2019-03-16T16:12:35.000Z</time>
      </trkpt>
      <trkpt lat="43.662579" lon="-7.584143">
        <ele>230</ele>
        <time>2019-03-16T16:12:37.000Z</time>
      </trkpt>
      <trkpt lat="43.662534" lon="-7.584104">
        <ele>232</ele>
        <time>2019-03-16T16:12:39.000Z</time>
      </trkpt>
      <trkpt lat="43.662473" lon="-7.584052">
        <ele>232</ele>
        <time>2019-03-16T16:12:41.000Z</time>
      </trkpt>
      <trkpt lat="43.662427" lon="-7.58402">
        <ele>231</ele>
        <time>2019-03-16T16:12:43.000Z</time>
      </trkpt>
      <trkpt lat="43.662375" lon="-7.583978">
        <ele>230</ele>
        <time>2019-03-16T16:12:45.000Z</time>
      </trkpt>
      <trkpt lat="43.662322" lon="-7.583922">
        <ele>231</ele>
        <time>2019-03-16T16:12:48.000Z</time>
      </trkpt>
      <trkpt lat="43.662263" lon="-7.583847">
        <ele>232</ele>
        <time>2019-03-16T16:12:51.000Z</time>
      </trkpt>
      <trkpt lat="43.662238" lon="-7.583795">
        <ele>231</ele>
        <time>2019-03-16T16:12:53.000Z</time>
      </trkpt>
      <trkpt lat="43.662211" lon="-7.583731">
        <ele>232</ele>
        <time>2019-03-16T16:12:55.000Z</time>
      </trkpt>
      <trkpt lat="43.662173" lon="-7.583639">
        <ele>233</ele>
        <time>2019-03-16T16:12:58.000Z</time>
      </trkpt>
      <trkpt lat="43.662142" lon="-7.583578">
        <ele>234</ele>
        <time>2019-03-16T16:13:00.000Z</time>
      </trkpt>
      <trkpt lat="43.66212" lon="-7.583521">
        <ele>234</ele>
        <time>2019-03-16T16:13:02.000Z</time>
      </trkpt>
      <trkpt lat="43.662095" lon="-7.583455">
        <ele>235</ele>
        <time>2019-03-16T16:13:04.000Z</time>
      </trkpt>
      <trkpt lat="43.662064" lon="-7.58339">
        <ele>235</ele>
        <time>2019-03-16T16:13:06.000Z</time>
      </trkpt>
      <trkpt lat="43.66204" lon="-7.583334">
        <ele>235</ele>
        <time>2019-03-16T16:13:08.000Z</time>
      </trkpt>
      <trkpt lat="43.662003" lon="-7.583268">
        <ele>234</ele>
        <time>2019-03-16T16:13:10.000Z</time>
      </trkpt>
      <trkpt lat="43.661946" lon="-7.583187">
        <ele>235</ele>
        <time>2019-03-16T16:13:13.000Z</time>
      </trkpt>
      <trkpt lat="43.661892" lon="-7.583112">
        <ele>236</ele>
        <time>2019-03-16T16:13:16.000Z</time>
      </trkpt>
      <trkpt lat="43.661853" lon="-7.583058">
        <ele>236</ele>
        <time>2019-03-16T16:13:18.000Z</time>
      </trkpt>
      <trkpt lat="43.661809" lon="-7.583">
        <ele>236</ele>
        <time>2019-03-16T16:13:20.000Z</time>
      </trkpt>
      <trkpt lat="43.661752" lon="-7.58293">
        <ele>237</ele>
        <time>2019-03-16T16:13:23.000Z</time>
      </trkpt>
      <trkpt lat="43.661694" lon="-7.582835">
        <ele>236</ele>
        <time>2019-03-16T16:13:27.000Z</time>
      </trkpt>
      <trkpt lat="43.661648" lon="-7.582766">
        <ele>237</ele>
        <time>2019-03-16T16:13:30.000Z</time>
      </trkpt>
      <trkpt lat="43.66161" lon="-7.582709">
        <ele>238</ele>
        <time>2019-03-16T16:13:32.000Z</time>
      </trkpt>
      <trkpt lat="43.661569" lon="-7.582647">
        <ele>239</ele>
        <time>2019-03-16T16:13:34.000Z</time>
      </trkpt>
      <trkpt lat="43.66153" lon="-7.58259">
        <ele>239</ele>
        <time>2019-03-16T16:13:36.000Z</time>
      </trkpt>
      <trkpt lat="43.661497" lon="-7.58253">
        <ele>239</ele>
        <time>2019-03-16T16:13:38.000Z</time>
      </trkpt>
      <trkpt lat="43.661443" lon="-7.582449">
        <ele>239</ele>
        <time>2019-03-16T16:13:41.000Z</time>
      </trkpt>
      <trkpt lat="43.661405" lon="-7.582408">
        <ele>240</ele>
        <time>2019-03-16T16:13:43.000Z</time>
      </trkpt>
      <trkpt lat="43.661356" lon="-7.582352">
        <ele>241</ele>
        <time>2019-03-16T16:13:46.000Z</time>
      </trkpt>
      <trkpt lat="43.6613" lon="-7.58228">
        <ele>240</ele>
        <time>2019-03-16T16:13:49.000Z</time>
      </trkpt>
      <trkpt lat="43.661244" lon="-7.582195">
        <ele>240</ele>
        <time>2019-03-16T16:13:52.000Z</time>
      </trkpt>
      <trkpt lat="43.661204" lon="-7.582128">
        <ele>240</ele>
        <time>2019-03-16T16:13:55.000Z</time>
      </trkpt>
      <trkpt lat="43.661173" lon="-7.582074">
        <ele>241</ele>
        <time>2019-03-16T16:13:57.000Z</time>
      </trkpt>
      <trkpt lat="43.661141" lon="-7.581996">
        <ele>242</ele>
        <time>2019-03-16T16:14:00.000Z</time>
      </trkpt>
      <trkpt lat="43.661102" lon="-7.581874">
        <ele>242</ele>
        <time>2019-03-16T16:14:03.000Z</time>
      </trkpt>
      <trkpt lat="43.661079" lon="-7.581797">
        <ele>242</ele>
        <time>2019-03-16T16:14:05.000Z</time>
      </trkpt>
      <trkpt lat="43.661058" lon="-7.581738">
        <ele>243</ele>
        <time>2019-03-16T16:14:07.000Z</time>
      </trkpt>
      <trkpt lat="43.661042" lon="-7.581674">
        <ele>243</ele>
        <time>2019-03-16T16:14:09.000Z</time>
      </trkpt>
      <trkpt lat="43.661019" lon="-7.581618">
        <ele>244</ele>
        <time>2019-03-16T16:14:11.000Z</time>
      </trkpt>
      <trkpt lat="43.660979" lon="-7.581544">
        <ele>245</ele>
        <time>2019-03-16T16:14:14.000Z</time>
      </trkpt>
      <trkpt lat="43.660924" lon="-7.581447">
        <ele>246</ele>
        <time>2019-03-16T16:14:18.000Z</time>
      </trkpt>
      <trkpt lat="43.660868" lon="-7.581368">
        <ele>247</ele>
        <time>2019-03-16T16:14:21.000Z</time>
      </trkpt>
      <trkpt lat="43.660801" lon="-7.581278">
        <ele>248</ele>
        <time>2019-03-16T16:14:25.000Z</time>
      </trkpt>
      <trkpt lat="43.66077" lon="-7.581231">
        <ele>249</ele>
        <time>2019-03-16T16:14:27.000Z</time>
      </trkpt>
      <trkpt lat="43.66074" lon="-7.58118">
        <ele>248</ele>
        <time>2019-03-16T16:14:29.000Z</time>
      </trkpt>
      <trkpt lat="43.660695" lon="-7.581093">
        <ele>250</ele>
        <time>2019-03-16T16:14:33.000Z</time>
      </trkpt>
      <trkpt lat="43.660666" lon="-7.581011">
        <ele>252</ele>
        <time>2019-03-16T16:14:36.000Z</time>
      </trkpt>
      <trkpt lat="43.660636" lon="-7.580923">
        <ele>252</ele>
        <time>2019-03-16T16:14:39.000Z</time>
      </trkpt>
      <trkpt lat="43.660618" lon="-7.580865">
        <ele>253</ele>
        <time>2019-03-16T16:14:41.000Z</time>
      </trkpt>
      <trkpt lat="43.660601" lon="-7.580804">
        <ele>254</ele>
        <time>2019-03-16T16:14:43.000Z</time>
      </trkpt>
      <trkpt lat="43.660588" lon="-7.580738">
        <ele>254</ele>
        <time>2019-03-16T16:14:45.000Z</time>
      </trkpt>
      <trkpt lat="43.660567" lon="-7.580683">
        <ele>255</ele>
        <time>2019-03-16T16:14:47.000Z</time>
      </trkpt>
      <trkpt lat="43.660548" lon="-7.580594">
        <ele>256</ele>
        <time>2019-03-16T16:14:50.000Z</time>
      </trkpt>
      <trkpt lat="43.66053" lon="-7.5805">
        <ele>256</ele>
        <time>2019-03-16T16:14:53.000Z</time>
      </trkpt>
      <trkpt lat="43.660508" lon="-7.580437">
        <ele>257</ele>
        <time>2019-03-16T16:14:55.000Z</time>
      </trkpt>
      <trkpt lat="43.660484" lon="-7.58034">
        <ele>257</ele>
        <time>2019-03-16T16:14:58.000Z</time>
      </trkpt>
      <trkpt lat="43.660472" lon="-7.580266">
        <ele>257</ele>
        <time>2019-03-16T16:15:00.000Z</time>
      </trkpt>
      <trkpt lat="43.660457" lon="-7.580196">
        <ele>258</ele>
        <time>2019-03-16T16:15:02.000Z</time>
      </trkpt>
      <trkpt lat="43.660438" lon="-7.580127">
        <ele>259</ele>
        <time>2019-03-16T16:15:04.000Z</time>
      </trkpt>
      <trkpt lat="43.660416" lon="-7.580063">
        <ele>259</ele>
        <time>2019-03-16T16:15:06.000Z</time>
      </trkpt>
      <trkpt lat="43.660383" lon="-7.579968">
        <ele>258</ele>
        <time>2019-03-16T16:15:09.000Z</time>
      </trkpt>
      <trkpt lat="43.660355" lon="-7.579882">
        <ele>259</ele>
        <time>2019-03-16T16:15:12.000Z</time>
      </trkpt>
      <trkpt lat="43.660338" lon="-7.57982">
        <ele>259</ele>
        <time>2019-03-16T16:15:14.000Z</time>
      </trkpt>
      <trkpt lat="43.660322" lon="-7.579753">
        <ele>259</ele>
        <time>2019-03-16T16:15:16.000Z</time>
      </trkpt>
      <trkpt lat="43.660302" lon="-7.579646">
        <ele>261</ele>
        <time>2019-03-16T16:15:19.000Z</time>
      </trkpt>
      <trkpt lat="43.660286" lon="-7.579585">
        <ele>263</ele>
        <time>2019-03-16T16:15:21.000Z</time>
      </trkpt>
      <trkpt lat="43.660268" lon="-7.579527">
        <ele>263</ele>
        <time>2019-03-16T16:15:23.000Z</time>
      </trkpt>
      <trkpt lat="43.660245" lon="-7.579464">
        <ele>263</ele>
        <time>2019-03-16T16:15:25.000Z</time>
      </trkpt>
      <trkpt lat="43.660223" lon="-7.57939">
        <ele>264</ele>
        <time>2019-03-16T16:15:27.000Z</time>
      </trkpt>
      <trkpt lat="43.660201" lon="-7.579316">
        <ele>264</ele>
        <time>2019-03-16T16:15:29.000Z</time>
      </trkpt>
      <trkpt lat="43.660184" lon="-7.579246">
        <ele>265</ele>
        <time>2019-03-16T16:15:31.000Z</time>
      </trkpt>
      <trkpt lat="43.660161" lon="-7.579179">
        <ele>265</ele>
        <time>2019-03-16T16:15:33.000Z</time>
      </trkpt>
      <trkpt lat="43.66013" lon="-7.579078">
        <ele>265</ele>
        <time>2019-03-16T16:15:36.000Z</time>
      </trkpt>
      <trkpt lat="43.660103" lon="-7.57899">
        <ele>265</ele>
        <time>2019-03-16T16:15:39.000Z</time>
      </trkpt>
      <trkpt lat="43.660089" lon="-7.578916">
        <ele>265</ele>
        <time>2019-03-16T16:15:41.000Z</time>
      </trkpt>
      <trkpt lat="43.660072" lon="-7.578791">
        <ele>264</ele>
        <time>2019-03-16T16:15:44.000Z</time>
      </trkpt>
      <trkpt lat="43.660056" lon="-7.578702">
        <ele>266</ele>
        <time>2019-03-16T16:15:47.000Z</time>
      </trkpt>
      <trkpt lat="43.660043" lon="-7.578636">
        <ele>267</ele>
        <time>2019-03-16T16:15:49.000Z</time>
      </trkpt>
      <trkpt lat="43.66004" lon="-7.578564">
        <ele>268</ele>
        <time>2019-03-16T16:15:51.000Z</time>
      </trkpt>
      <trkpt lat="43.660039" lon="-7.57848">
        <ele>268</ele>
        <time>2019-03-16T16:15:53.000Z</time>
      </trkpt>
      <trkpt lat="43.660033" lon="-7.578402">
        <ele>269</ele>
        <time>2019-03-16T16:15:55.000Z</time>
      </trkpt>
      <trkpt lat="43.660029" lon="-7.578333">
        <ele>269</ele>
        <time>2019-03-16T16:15:57.000Z</time>
      </trkpt>
      <trkpt lat="43.660007" lon="-7.578214">
        <ele>271</ele>
        <time>2019-03-16T16:16:01.000Z</time>
      </trkpt>
      <trkpt lat="43.659989" lon="-7.578141">
        <ele>271</ele>
        <time>2019-03-16T16:16:03.000Z</time>
      </trkpt>
      <trkpt lat="43.659968" lon="-7.578066">
        <ele>272</ele>
        <time>2019-03-16T16:16:05.000Z</time>
      </trkpt>
      <trkpt lat="43.659938" lon="-7.577994">
        <ele>270</ele>
        <time>2019-03-16T16:16:07.000Z</time>
      </trkpt>
      <trkpt lat="43.659898" lon="-7.577922">
        <ele>271</ele>
        <time>2019-03-16T16:16:09.000Z</time>
      </trkpt>
      <trkpt lat="43.65984" lon="-7.577822">
        <ele>272</ele>
        <time>2019-03-16T16:16:12.000Z</time>
      </trkpt>
      <trkpt lat="43.659785" lon="-7.577732">
        <ele>273</ele>
        <time>2019-03-16T16:16:15.000Z</time>
      </trkpt>
      <trkpt lat="43.659755" lon="-7.577666">
        <ele>273</ele>
        <time>2019-03-16T16:16:17.000Z</time>
      </trkpt>
      <trkpt lat="43.659717" lon="-7.577584">
        <ele>273</ele>
        <time>2019-03-16T16:16:19.000Z</time>
      </trkpt>
      <trkpt lat="43.659676" lon="-7.577507">
        <ele>273</ele>
        <time>2019-03-16T16:16:22.000Z</time>
      </trkpt>
      <trkpt lat="43.659645" lon="-7.57745">
        <ele>273</ele>
        <time>2019-03-16T16:16:24.000Z</time>
      </trkpt>
      <trkpt lat="43.659603" lon="-7.577356">
        <ele>273</ele>
        <time>2019-03-16T16:16:27.000Z</time>
      </trkpt>
      <trkpt lat="43.659563" lon="-7.577268">
        <ele>274</ele>
        <time>2019-03-16T16:16:30.000Z</time>
      </trkpt>
      <trkpt lat="43.659527" lon="-7.577164">
        <ele>274</ele>
        <time>2019-03-16T16:16:33.000Z</time>
      </trkpt>
      <trkpt lat="43.659498" lon="-7.577099">
        <ele>274</ele>
        <time>2019-03-16T16:16:35.000Z</time>
      </trkpt>
      <trkpt lat="43.659467" lon="-7.577032">
        <ele>274</ele>
        <time>2019-03-16T16:16:37.000Z</time>
      </trkpt>
      <trkpt lat="43.659438" lon="-7.576966">
        <ele>273</ele>
        <time>2019-03-16T16:16:39.000Z</time>
      </trkpt>
      <trkpt lat="43.659413" lon="-7.576889">
        <ele>273</ele>
        <time>2019-03-16T16:16:41.000Z</time>
      </trkpt>
      <trkpt lat="43.659395" lon="-7.57681">
        <ele>273</ele>
        <time>2019-03-16T16:16:43.000Z</time>
      </trkpt>
      <trkpt lat="43.659379" lon="-7.576707">
        <ele>272</ele>
        <time>2019-03-16T16:16:46.000Z</time>
      </trkpt>
      <trkpt lat="43.659372" lon="-7.576597">
        <ele>272</ele>
        <time>2019-03-16T16:16:49.000Z</time>
      </trkpt>
      <trkpt lat="43.659369" lon="-7.576521">
        <ele>272</ele>
        <time>2019-03-16T16:16:51.000Z</time>
      </trkpt>
      <trkpt lat="43.659371" lon="-7.576453">
        <ele>272</ele>
        <time>2019-03-16T16:16:53.000Z</time>
      </trkpt>
      <trkpt lat="43.659384" lon="-7.576379">
        <ele>272</ele>
        <time>2019-03-16T16:16:55.000Z</time>
      </trkpt>
      <trkpt lat="43.6594" lon="-7.576312">
        <ele>272</ele>
        <time>2019-03-16T16:16:57.000Z</time>
      </trkpt>
      <trkpt lat="43.659424" lon="-7.576218">
        <ele>273</ele>
        <time>2019-03-16T16:17:00.000Z</time>
      </trkpt>
      <trkpt lat="43.659445" lon="-7.57611">
        <ele>273</ele>
        <time>2019-03-16T16:17:03.000Z</time>
      </trkpt>
      <trkpt lat="43.659438" lon="-7.576021">
        <ele>272</ele>
        <time>2019-03-16T16:17:06.000Z</time>
      </trkpt>
      <trkpt lat="43.659402" lon="-7.575924">
        <ele>272</ele>
        <time>2019-03-16T16:17:09.000Z</time>
      </trkpt>
      <trkpt lat="43.659371" lon="-7.575865">
        <ele>271</ele>
        <time>2019-03-16T16:17:11.000Z</time>
      </trkpt>
      <trkpt lat="43.659333" lon="-7.575808">
        <ele>272</ele>
        <time>2019-03-16T16:17:13.000Z</time>
      </trkpt>
      <trkpt lat="43.659297" lon="-7.575758">
        <ele>271</ele>
        <time>2019-03-16T16:17:15.000Z</time>
      </trkpt>
      <trkpt lat="43.659243" lon="-7.57569">
        <ele>271</ele>
        <time>2019-03-16T16:17:18.000Z</time>
      </trkpt>
      <trkpt lat="43.659199" lon="-7.575644">
        <ele>271</ele>
        <time>2019-03-16T16:17:20.000Z</time>
      </trkpt>
      <trkpt lat="43.659155" lon="-7.575603">
        <ele>271</ele>
        <time>2019-03-16T16:17:22.000Z</time>
      </trkpt>
      <trkpt lat="43.659112" lon="-7.575561">
        <ele>272</ele>
        <time>2019-03-16T16:17:24.000Z</time>
      </trkpt>
      <trkpt lat="43.659066" lon="-7.575516">
        <ele>272</ele>
        <time>2019-03-16T16:17:26.000Z</time>
      </trkpt>
      <trkpt lat="43.659024" lon="-7.57547">
        <ele>273</ele>
        <time>2019-03-16T16:17:28.000Z</time>
      </trkpt>
      <trkpt lat="43.658982" lon="-7.575427">
        <ele>273</ele>
        <time>2019-03-16T16:17:30.000Z</time>
      </trkpt>
      <trkpt lat="43.658941" lon="-7.575389">
        <ele>274</ele>
        <time>2019-03-16T16:17:32.000Z</time>
      </trkpt>
      <trkpt lat="43.65887" lon="-7.575332">
        <ele>276</ele>
        <time>2019-03-16T16:17:36.000Z</time>
      </trkpt>
      <trkpt lat="43.658812" lon="-7.575283">
        <ele>277</ele>
        <time>2019-03-16T16:17:39.000Z</time>
      </trkpt>
      <trkpt lat="43.658772" lon="-7.575252">
        <ele>277</ele>
        <time>2019-03-16T16:17:41.000Z</time>
      </trkpt>
      <trkpt lat="43.658729" lon="-7.575217">
        <ele>278</ele>
        <time>2019-03-16T16:17:43.000Z</time>
      </trkpt>
      <trkpt lat="43.658686" lon="-7.575188">
        <ele>278</ele>
        <time>2019-03-16T16:17:45.000Z</time>
      </trkpt>
      <trkpt lat="43.65864" lon="-7.575158">
        <ele>278</ele>
        <time>2019-03-16T16:17:47.000Z</time>
      </trkpt>
      <trkpt lat="43.658585" lon="-7.575127">
        <ele>279</ele>
        <time>2019-03-16T16:17:49.000Z</time>
      </trkpt>
      <trkpt lat="43.658542" lon="-7.575102">
        <ele>280</ele>
        <time>2019-03-16T16:17:51.000Z</time>
      </trkpt>
      <trkpt lat="43.658483" lon="-7.575066">
        <ele>281</ele>
        <time>2019-03-16T16:17:54.000Z</time>
      </trkpt>
      <trkpt lat="43.658429" lon="-7.575015">
        <ele>281</ele>
        <time>2019-03-16T16:17:57.000Z</time>
      </trkpt>
      <trkpt lat="43.658351" lon="-7.574963">
        <ele>281</ele>
        <time>2019-03-16T16:18:01.000Z</time>
      </trkpt>
      <trkpt lat="43.658306" lon="-7.574931">
        <ele>282</ele>
        <time>2019-03-16T16:18:03.000Z</time>
      </trkpt>
      <trkpt lat="43.658238" lon="-7.574888">
        <ele>282</ele>
        <time>2019-03-16T16:18:06.000Z</time>
      </trkpt>
      <trkpt lat="43.658198" lon="-7.574854">
        <ele>283</ele>
        <time>2019-03-16T16:18:08.000Z</time>
      </trkpt>
      <trkpt lat="43.658145" lon="-7.5748">
        <ele>283</ele>
        <time>2019-03-16T16:18:11.000Z</time>
      </trkpt>
      <trkpt lat="43.658078" lon="-7.574726">
        <ele>285</ele>
        <time>2019-03-16T16:18:15.000Z</time>
      </trkpt>
      <trkpt lat="43.658019" lon="-7.57466">
        <ele>286</ele>
        <time>2019-03-16T16:18:19.000Z</time>
      </trkpt>
      <trkpt lat="43.657978" lon="-7.574608">
        <ele>288</ele>
        <time>2019-03-16T16:18:23.000Z</time>
      </trkpt>
      <trkpt lat="43.657942" lon="-7.574556">
        <ele>289</ele>
        <time>2019-03-16T16:18:26.000Z</time>
      </trkpt>
      <trkpt lat="43.657922" lon="-7.574487">
        <ele>291</ele>
        <time>2019-03-16T16:18:29.000Z</time>
      </trkpt>
      <trkpt lat="43.657932" lon="-7.574418">
        <ele>292</ele>
        <time>2019-03-16T16:18:32.000Z</time>
      </trkpt>
      <trkpt lat="43.657992" lon="-7.574373">
        <ele>292</ele>
        <time>2019-03-16T16:18:37.000Z</time>
      </trkpt>
      <trkpt lat="43.658064" lon="-7.574375">
        <ele>295</ele>
        <time>2019-03-16T16:18:41.000Z</time>
      </trkpt>
      <trkpt lat="43.658112" lon="-7.574378">
        <ele>297</ele>
        <time>2019-03-16T16:18:44.000Z</time>
      </trkpt>
      <trkpt lat="43.658169" lon="-7.574394">
        <ele>297</ele>
        <time>2019-03-16T16:18:47.000Z</time>
      </trkpt>
      <trkpt lat="43.658233" lon="-7.574404">
        <ele>298</ele>
        <time>2019-03-16T16:18:50.000Z</time>
      </trkpt>
      <trkpt lat="43.6583" lon="-7.574415">
        <ele>300</ele>
        <time>2019-03-16T16:18:53.000Z</time>
      </trkpt>
      <trkpt lat="43.658358" lon="-7.57442">
        <ele>301</ele>
        <time>2019-03-16T16:18:56.000Z</time>
      </trkpt>
      <trkpt lat="43.658415" lon="-7.574424">
        <ele>301</ele>
        <time>2019-03-16T16:18:59.000Z</time>
      </trkpt>
      <trkpt lat="43.658488" lon="-7.574429">
        <ele>300</ele>
        <time>2019-03-16T16:19:03.000Z</time>
      </trkpt>
      <trkpt lat="43.658544" lon="-7.574437">
        <ele>302</ele>
        <time>2019-03-16T16:19:06.000Z</time>
      </trkpt>
      <trkpt lat="43.658592" lon="-7.574441">
        <ele>303</ele>
        <time>2019-03-16T16:19:09.000Z</time>
      </trkpt>
      <trkpt lat="43.658648" lon="-7.574432">
        <ele>304</ele>
        <time>2019-03-16T16:19:12.000Z</time>
      </trkpt>
      <trkpt lat="43.65871" lon="-7.574416">
        <ele>305</ele>
        <time>2019-03-16T16:19:15.000Z</time>
      </trkpt>
      <trkpt lat="43.658778" lon="-7.574403">
        <ele>305</ele>
        <time>2019-03-16T16:19:18.000Z</time>
      </trkpt>
      <trkpt lat="43.658838" lon="-7.574404">
        <ele>307</ele>
        <time>2019-03-16T16:19:21.000Z</time>
      </trkpt>
      <trkpt lat="43.658902" lon="-7.574409">
        <ele>307</ele>
        <time>2019-03-16T16:19:25.000Z</time>
      </trkpt>
      <trkpt lat="43.658987" lon="-7.574406">
        <ele>308</ele>
        <time>2019-03-16T16:19:29.000Z</time>
      </trkpt>
      <trkpt lat="43.659048" lon="-7.574393">
        <ele>310</ele>
        <time>2019-03-16T16:19:32.000Z</time>
      </trkpt>
      <trkpt lat="43.659096" lon="-7.574386">
        <ele>310</ele>
        <time>2019-03-16T16:19:34.000Z</time>
      </trkpt>
      <trkpt lat="43.659178" lon="-7.574377">
        <ele>311</ele>
        <time>2019-03-16T16:19:38.000Z</time>
      </trkpt>
      <trkpt lat="43.659236" lon="-7.574371">
        <ele>313</ele>
        <time>2019-03-16T16:19:41.000Z</time>
      </trkpt>
      <trkpt lat="43.659305" lon="-7.574362">
        <ele>314</ele>
        <time>2019-03-16T16:19:44.000Z</time>
      </trkpt>
      <trkpt lat="43.659363" lon="-7.574357">
        <ele>315</ele>
        <time>2019-03-16T16:19:47.000Z</time>
      </trkpt>
      <trkpt lat="43.659437" lon="-7.574349">
        <ele>317</ele>
        <time>2019-03-16T16:19:51.000Z</time>
      </trkpt>
      <trkpt lat="43.659509" lon="-7.574351">
        <ele>319</ele>
        <time>2019-03-16T16:19:55.000Z</time>
      </trkpt>
      <trkpt lat="43.659569" lon="-7.574342">
        <ele>320</ele>
        <time>2019-03-16T16:19:58.000Z</time>
      </trkpt>
      <trkpt lat="43.659632" lon="-7.574327">
        <ele>321</ele>
        <time>2019-03-16T16:20:01.000Z</time>
      </trkpt>
      <trkpt lat="43.659689" lon="-7.574304">
        <ele>322</ele>
        <time>2019-03-16T16:20:04.000Z</time>
      </trkpt>
      <trkpt lat="43.659748" lon="-7.574271">
        <ele>322</ele>
        <time>2019-03-16T16:20:07.000Z</time>
      </trkpt>
      <trkpt lat="43.659818" lon="-7.574204">
        <ele>323</ele>
        <time>2019-03-16T16:20:11.000Z</time>
      </trkpt>
      <trkpt lat="43.659862" lon="-7.574156">
        <ele>324</ele>
        <time>2019-03-16T16:20:14.000Z</time>
      </trkpt>
      <trkpt lat="43.659913" lon="-7.574109">
        <ele>324</ele>
        <time>2019-03-16T16:20:17.000Z</time>
      </trkpt>
      <trkpt lat="43.659982" lon="-7.574055">
        <ele>325</ele>
        <time>2019-03-16T16:20:21.000Z</time>
      </trkpt>
      <trkpt lat="43.66005" lon="-7.573997">
        <ele>327</ele>
        <time>2019-03-16T16:20:25.000Z</time>
      </trkpt>
      <trkpt lat="43.66012" lon="-7.573928">
        <ele>328</ele>
        <time>2019-03-16T16:20:29.000Z</time>
      </trkpt>
      <trkpt lat="43.660173" lon="-7.573876">
        <ele>329</ele>
        <time>2019-03-16T16:20:32.000Z</time>
      </trkpt>
      <trkpt lat="43.660239" lon="-7.573805">
        <ele>330</ele>
        <time>2019-03-16T16:20:36.000Z</time>
      </trkpt>
      <trkpt lat="43.660278" lon="-7.573771">
        <ele>330</ele>
        <time>2019-03-16T16:20:38.000Z</time>
      </trkpt>
      <trkpt lat="43.660323" lon="-7.573728">
        <ele>330</ele>
        <time>2019-03-16T16:20:40.000Z</time>
      </trkpt>
      <trkpt lat="43.660364" lon="-7.5737">
        <ele>331</ele>
        <time>2019-03-16T16:20:42.000Z</time>
      </trkpt>
      <trkpt lat="43.660407" lon="-7.573644">
        <ele>331</ele>
        <time>2019-03-16T16:20:45.000Z</time>
      </trkpt>
      <trkpt lat="43.660443" lon="-7.573606">
        <ele>332</ele>
        <time>2019-03-16T16:20:47.000Z</time>
      </trkpt>
      <trkpt lat="43.660479" lon="-7.573565">
        <ele>332</ele>
        <time>2019-03-16T16:20:49.000Z</time>
      </trkpt>
      <trkpt lat="43.660511" lon="-7.573519">
        <ele>332</ele>
        <time>2019-03-16T16:20:51.000Z</time>
      </trkpt>
      <trkpt lat="43.660542" lon="-7.573468">
        <ele>333</ele>
        <time>2019-03-16T16:20:53.000Z</time>
      </trkpt>
      <trkpt lat="43.660591" lon="-7.57339">
        <ele>334</ele>
        <time>2019-03-16T16:20:57.000Z</time>
      </trkpt>
      <trkpt lat="43.660644" lon="-7.57331">
        <ele>336</ele>
        <time>2019-03-16T16:21:01.000Z</time>
      </trkpt>
      <trkpt lat="43.660684" lon="-7.573252">
        <ele>337</ele>
        <time>2019-03-16T16:21:04.000Z</time>
      </trkpt>
      <trkpt lat="43.660729" lon="-7.573168">
        <ele>337</ele>
        <time>2019-03-16T16:21:08.000Z</time>
      </trkpt>
      <trkpt lat="43.660784" lon="-7.573084">
        <ele>339</ele>
        <time>2019-03-16T16:21:12.000Z</time>
      </trkpt>
      <trkpt lat="43.660834" lon="-7.573022">
        <ele>340</ele>
        <time>2019-03-16T16:21:15.000Z</time>
      </trkpt>
      <trkpt lat="43.660868" lon="-7.572975">
        <ele>341</ele>
        <time>2019-03-16T16:21:17.000Z</time>
      </trkpt>
      <trkpt lat="43.66091" lon="-7.572919">
        <ele>342</ele>
        <time>2019-03-16T16:21:20.000Z</time>
      </trkpt>
      <trkpt lat="43.660948" lon="-7.572869">
        <ele>343</ele>
        <time>2019-03-16T16:21:23.000Z</time>
      </trkpt>
      <trkpt lat="43.660987" lon="-7.572811">
        <ele>344</ele>
        <time>2019-03-16T16:21:26.000Z</time>
      </trkpt>
      <trkpt lat="43.661024" lon="-7.572747">
        <ele>345</ele>
        <time>2019-03-16T16:21:29.000Z</time>
      </trkpt>
      <trkpt lat="43.661057" lon="-7.572682">
        <ele>346</ele>
        <time>2019-03-16T16:21:32.000Z</time>
      </trkpt>
      <trkpt lat="43.661095" lon="-7.572623">
        <ele>347</ele>
        <time>2019-03-16T16:21:35.000Z</time>
      </trkpt>
      <trkpt lat="43.661142" lon="-7.57256">
        <ele>348</ele>
        <time>2019-03-16T16:21:38.000Z</time>
      </trkpt>
      <trkpt lat="43.661171" lon="-7.572512">
        <ele>349</ele>
        <time>2019-03-16T16:21:40.000Z</time>
      </trkpt>
      <trkpt lat="43.661212" lon="-7.572437">
        <ele>350</ele>
        <time>2019-03-16T16:21:43.000Z</time>
      </trkpt>
      <trkpt lat="43.661242" lon="-7.572388">
        <ele>351</ele>
        <time>2019-03-16T16:21:45.000Z</time>
      </trkpt>
      <trkpt lat="43.66128" lon="-7.572318">
        <ele>352</ele>
        <time>2019-03-16T16:21:48.000Z</time>
      </trkpt>
      <trkpt lat="43.661336" lon="-7.572228">
        <ele>353</ele>
        <time>2019-03-16T16:21:52.000Z</time>
      </trkpt>
      <trkpt lat="43.661383" lon="-7.572161">
        <ele>355</ele>
        <time>2019-03-16T16:21:55.000Z</time>
      </trkpt>
      <trkpt lat="43.661428" lon="-7.572088">
        <ele>356</ele>
        <time>2019-03-16T16:21:58.000Z</time>
      </trkpt>
      <trkpt lat="43.661482" lon="-7.571987">
        <ele>357</ele>
        <time>2019-03-16T16:22:02.000Z</time>
      </trkpt>
      <trkpt lat="43.661537" lon="-7.571891">
        <ele>359</ele>
        <time>2019-03-16T16:22:06.000Z</time>
      </trkpt>
      <trkpt lat="43.661581" lon="-7.57183">
        <ele>360</ele>
        <time>2019-03-16T16:22:09.000Z</time>
      </trkpt>
      <trkpt lat="43.661611" lon="-7.571761">
        <ele>361</ele>
        <time>2019-03-16T16:22:11.000Z</time>
      </trkpt>
      <trkpt lat="43.661641" lon="-7.571706">
        <ele>361</ele>
        <time>2019-03-16T16:22:13.000Z</time>
      </trkpt>
      <trkpt lat="43.661681" lon="-7.57164">
        <ele>363</ele>
        <time>2019-03-16T16:22:16.000Z</time>
      </trkpt>
      <trkpt lat="43.661719" lon="-7.571584">
        <ele>364</ele>
        <time>2019-03-16T16:22:19.000Z</time>
      </trkpt>
      <trkpt lat="43.661742" lon="-7.571526">
        <ele>366</ele>
        <time>2019-03-16T16:22:22.000Z</time>
      </trkpt>
      <trkpt lat="43.661772" lon="-7.571461">
        <ele>366</ele>
        <time>2019-03-16T16:22:25.000Z</time>
      </trkpt>
      <trkpt lat="43.661801" lon="-7.571407">
        <ele>368</ele>
        <time>2019-03-16T16:22:28.000Z</time>
      </trkpt>
      <trkpt lat="43.661832" lon="-7.571348">
        <ele>368</ele>
        <time>2019-03-16T16:22:30.000Z</time>
      </trkpt>
      <trkpt lat="43.661859" lon="-7.571276">
        <ele>370</ele>
        <time>2019-03-16T16:22:33.000Z</time>
      </trkpt>
      <trkpt lat="43.661901" lon="-7.571196">
        <ele>371</ele>
        <time>2019-03-16T16:22:36.000Z</time>
      </trkpt>
      <trkpt lat="43.661928" lon="-7.571103">
        <ele>372</ele>
        <time>2019-03-16T16:22:39.000Z</time>
      </trkpt>
      <trkpt lat="43.661951" lon="-7.571049">
        <ele>372</ele>
        <time>2019-03-16T16:22:41.000Z</time>
      </trkpt>
      <trkpt lat="43.66202" lon="-7.570957">
        <ele>373</ele>
        <time>2019-03-16T16:22:45.000Z</time>
      </trkpt>
      <trkpt lat="43.662087" lon="-7.570917">
        <ele>374</ele>
        <time>2019-03-16T16:22:48.000Z</time>
      </trkpt>
      <trkpt lat="43.662148" lon="-7.570868">
        <ele>374</ele>
        <time>2019-03-16T16:22:51.000Z</time>
      </trkpt>
      <trkpt lat="43.662192" lon="-7.570842">
        <ele>374</ele>
        <time>2019-03-16T16:22:53.000Z</time>
      </trkpt>
      <trkpt lat="43.662238" lon="-7.570807">
        <ele>374</ele>
        <time>2019-03-16T16:22:55.000Z</time>
      </trkpt>
      <trkpt lat="43.662299" lon="-7.570771">
        <ele>375</ele>
        <time>2019-03-16T16:22:58.000Z</time>
      </trkpt>
      <trkpt lat="43.662334" lon="-7.570727">
        <ele>375</ele>
        <time>2019-03-16T16:23:00.000Z</time>
      </trkpt>
      <trkpt lat="43.662418" lon="-7.570686">
        <ele>375</ele>
        <time>2019-03-16T16:23:04.000Z</time>
      </trkpt>
      <trkpt lat="43.662483" lon="-7.570655">
        <ele>376</ele>
        <time>2019-03-16T16:23:07.000Z</time>
      </trkpt>
      <trkpt lat="43.66255" lon="-7.570664">
        <ele>377</ele>
        <time>2019-03-16T16:23:10.000Z</time>
      </trkpt>
      <trkpt lat="43.662614" lon="-7.570693">
        <ele>378</ele>
        <time>2019-03-16T16:23:13.000Z</time>
      </trkpt>
      <trkpt lat="43.662668" lon="-7.57074">
        <ele>377</ele>
        <time>2019-03-16T16:23:16.000Z</time>
      </trkpt>
      <trkpt lat="43.662716" lon="-7.570804">
        <ele>378</ele>
        <time>2019-03-16T16:23:19.000Z</time>
      </trkpt>
      <trkpt lat="43.662764" lon="-7.570865">
        <ele>378</ele>
        <time>2019-03-16T16:23:22.000Z</time>
      </trkpt>
      <trkpt lat="43.662836" lon="-7.570864">
        <ele>380</ele>
        <time>2019-03-16T16:23:25.000Z</time>
      </trkpt>
      <trkpt lat="43.662874" lon="-7.570818">
        <ele>380</ele>
        <time>2019-03-16T16:23:27.000Z</time>
      </trkpt>
      <trkpt lat="43.662893" lon="-7.570736">
        <ele>383</ele>
        <time>2019-03-16T16:23:30.000Z</time>
      </trkpt>
      <trkpt lat="43.662896" lon="-7.570639">
        <ele>384</ele>
        <time>2019-03-16T16:23:33.000Z</time>
      </trkpt>
      <trkpt lat="43.662892" lon="-7.570577">
        <ele>385</ele>
        <time>2019-03-16T16:23:35.000Z</time>
      </trkpt>
      <trkpt lat="43.662889" lon="-7.570486">
        <ele>387</ele>
        <time>2019-03-16T16:23:38.000Z</time>
      </trkpt>
      <trkpt lat="43.662886" lon="-7.570417">
        <ele>387</ele>
        <time>2019-03-16T16:23:40.000Z</time>
      </trkpt>
      <trkpt lat="43.662855" lon="-7.570322">
        <ele>388</ele>
        <time>2019-03-16T16:23:43.000Z</time>
      </trkpt>
      <trkpt lat="43.662826" lon="-7.570263">
        <ele>388</ele>
        <time>2019-03-16T16:23:45.000Z</time>
      </trkpt>
      <trkpt lat="43.662793" lon="-7.570203">
        <ele>388</ele>
        <time>2019-03-16T16:23:47.000Z</time>
      </trkpt>
      <trkpt lat="43.662747" lon="-7.570137">
        <ele>388</ele>
        <time>2019-03-16T16:23:50.000Z</time>
      </trkpt>
      <trkpt lat="43.662697" lon="-7.570082">
        <ele>389</ele>
        <time>2019-03-16T16:23:53.000Z</time>
      </trkpt>
      <trkpt lat="43.66264" lon="-7.570044">
        <ele>389</ele>
        <time>2019-03-16T16:23:56.000Z</time>
      </trkpt>
      <trkpt lat="43.662564" lon="-7.569975">
        <ele>390</ele>
        <time>2019-03-16T16:24:00.000Z</time>
      </trkpt>
      <trkpt lat="43.66252" lon="-7.569941">
        <ele>390</ele>
        <time>2019-03-16T16:24:02.000Z</time>
      </trkpt>
      <trkpt lat="43.662479" lon="-7.569912">
        <ele>391</ele>
        <time>2019-03-16T16:24:04.000Z</time>
      </trkpt>
      <trkpt lat="43.662437" lon="-7.569885">
        <ele>391</ele>
        <time>2019-03-16T16:24:06.000Z</time>
      </trkpt>
      <trkpt lat="43.662386" lon="-7.56985">
        <ele>392</ele>
        <time>2019-03-16T16:24:09.000Z</time>
      </trkpt>
      <trkpt lat="43.662329" lon="-7.569803">
        <ele>393</ele>
        <time>2019-03-16T16:24:13.000Z</time>
      </trkpt>
      <trkpt lat="43.662246" lon="-7.569745">
        <ele>395</ele>
        <time>2019-03-16T16:24:17.000Z</time>
      </trkpt>
      <trkpt lat="43.6622" lon="-7.569711">
        <ele>396</ele>
        <time>2019-03-16T16:24:19.000Z</time>
      </trkpt>
      <trkpt lat="43.662162" lon="-7.569677">
        <ele>397</ele>
        <time>2019-03-16T16:24:21.000Z</time>
      </trkpt>
      <trkpt lat="43.662097" lon="-7.569623">
        <ele>400</ele>
        <time>2019-03-16T16:24:25.000Z</time>
      </trkpt>
      <trkpt lat="43.662056" lon="-7.569591">
        <ele>400</ele>
        <time>2019-03-16T16:24:27.000Z</time>
      </trkpt>
      <trkpt lat="43.662016" lon="-7.56955">
        <ele>401</ele>
        <time>2019-03-16T16:24:29.000Z</time>
      </trkpt>
      <trkpt lat="43.66198" lon="-7.569514">
        <ele>401</ele>
        <time>2019-03-16T16:24:31.000Z</time>
      </trkpt>
      <trkpt lat="43.661928" lon="-7.569468">
        <ele>403</ele>
        <time>2019-03-16T16:24:34.000Z</time>
      </trkpt>
      <trkpt lat="43.661892" lon="-7.56943">
        <ele>403</ele>
        <time>2019-03-16T16:24:36.000Z</time>
      </trkpt>
      <trkpt lat="43.661858" lon="-7.569388">
        <ele>404</ele>
        <time>2019-03-16T16:24:38.000Z</time>
      </trkpt>
      <trkpt lat="43.661813" lon="-7.569313">
        <ele>406</ele>
        <time>2019-03-16T16:24:41.000Z</time>
      </trkpt>
      <trkpt lat="43.661782" lon="-7.569253">
        <ele>406</ele>
        <time>2019-03-16T16:24:43.000Z</time>
      </trkpt>
      <trkpt lat="43.66175" lon="-7.569198">
        <ele>406</ele>
        <time>2019-03-16T16:24:45.000Z</time>
      </trkpt>
      <trkpt lat="43.661708" lon="-7.569107">
        <ele>406</ele>
        <time>2019-03-16T16:24:49.000Z</time>
      </trkpt>
      <trkpt lat="43.661656" lon="-7.569054">
        <ele>406</ele>
        <time>2019-03-16T16:24:52.000Z</time>
      </trkpt>
      <trkpt lat="43.661611" lon="-7.568997">
        <ele>406</ele>
        <time>2019-03-16T16:24:55.000Z</time>
      </trkpt>
      <trkpt lat="43.661546" lon="-7.568931">
        <ele>406</ele>
        <time>2019-03-16T16:24:59.000Z</time>
      </trkpt>
      <trkpt lat="43.661496" lon="-7.568877">
        <ele>406</ele>
        <time>2019-03-16T16:25:02.000Z</time>
      </trkpt>
      <trkpt lat="43.661443" lon="-7.568829">
        <ele>406</ele>
        <time>2019-03-16T16:25:05.000Z</time>
      </trkpt>
      <trkpt lat="43.661395" lon="-7.568764">
        <ele>406</ele>
        <time>2019-03-16T16:25:08.000Z</time>
      </trkpt>
      <trkpt lat="43.661361" lon="-7.56872">
        <ele>406</ele>
        <time>2019-03-16T16:25:10.000Z</time>
      </trkpt>
      <trkpt lat="43.66131" lon="-7.568667">
        <ele>408</ele>
        <time>2019-03-16T16:25:13.000Z</time>
      </trkpt>
      <trkpt lat="43.661247" lon="-7.568612">
        <ele>410</ele>
        <time>2019-03-16T16:25:17.000Z</time>
      </trkpt>
      <trkpt lat="43.661198" lon="-7.568596">
        <ele>409</ele>
        <time>2019-03-16T16:25:20.000Z</time>
      </trkpt>
      <trkpt lat="43.661141" lon="-7.568609">
        <ele>410</ele>
        <time>2019-03-16T16:25:23.000Z</time>
      </trkpt>
      <trkpt lat="43.661099" lon="-7.568636">
        <ele>411</ele>
        <time>2019-03-16T16:25:25.000Z</time>
      </trkpt>
      <trkpt lat="43.661035" lon="-7.568696">
        <ele>413</ele>
        <time>2019-03-16T16:25:28.000Z</time>
      </trkpt>
      <trkpt lat="43.66099" lon="-7.568768">
        <ele>415</ele>
        <time>2019-03-16T16:25:31.000Z</time>
      </trkpt>
      <trkpt lat="43.660951" lon="-7.568853">
        <ele>417</ele>
        <time>2019-03-16T16:25:34.000Z</time>
      </trkpt>
      <trkpt lat="43.660928" lon="-7.56891">
        <ele>419</ele>
        <time>2019-03-16T16:25:36.000Z</time>
      </trkpt>
      <trkpt lat="43.660894" lon="-7.568999">
        <ele>420</ele>
        <time>2019-03-16T16:25:39.000Z</time>
      </trkpt>
      <trkpt lat="43.660858" lon="-7.569106">
        <ele>421</ele>
        <time>2019-03-16T16:25:43.000Z</time>
      </trkpt>
      <trkpt lat="43.660838" lon="-7.569181">
        <ele>420</ele>
        <time>2019-03-16T16:25:45.000Z</time>
      </trkpt>
      <trkpt lat="43.660819" lon="-7.56927">
        <ele>421</ele>
        <time>2019-03-16T16:25:48.000Z</time>
      </trkpt>
      <trkpt lat="43.660791" lon="-7.56935">
        <ele>421</ele>
        <time>2019-03-16T16:25:51.000Z</time>
      </trkpt>
      <trkpt lat="43.660769" lon="-7.569455">
        <ele>423</ele>
        <time>2019-03-16T16:25:55.000Z</time>
      </trkpt>
      <trkpt lat="43.660753" lon="-7.569579">
        <ele>423</ele>
        <time>2019-03-16T16:25:59.000Z</time>
      </trkpt>
      <trkpt lat="43.660716" lon="-7.569695">
        <ele>424</ele>
        <time>2019-03-16T16:26:03.000Z</time>
      </trkpt>
      <trkpt lat="43.660691" lon="-7.569752">
        <ele>424</ele>
        <time>2019-03-16T16:26:05.000Z</time>
      </trkpt>
      <trkpt lat="43.660652" lon="-7.569846">
        <ele>424</ele>
        <time>2019-03-16T16:26:08.000Z</time>
      </trkpt>
      <trkpt lat="43.660621" lon="-7.569936">
        <ele>424</ele>
        <time>2019-03-16T16:26:11.000Z</time>
      </trkpt>
      <trkpt lat="43.660602" lon="-7.569993">
        <ele>424</ele>
        <time>2019-03-16T16:26:13.000Z</time>
      </trkpt>
      <trkpt lat="43.660561" lon="-7.5701">
        <ele>424</ele>
        <time>2019-03-16T16:26:17.000Z</time>
      </trkpt>
      <trkpt lat="43.6605" lon="-7.570174">
        <ele>425</ele>
        <time>2019-03-16T16:26:20.000Z</time>
      </trkpt>
      <trkpt lat="43.660453" lon="-7.570184">
        <ele>426</ele>
        <time>2019-03-16T16:26:23.000Z</time>
      </trkpt>
      <trkpt lat="43.660409" lon="-7.570158">
        <ele>426</ele>
        <time>2019-03-16T16:26:26.000Z</time>
      </trkpt>
      <trkpt lat="43.66039" lon="-7.570074">
        <ele>428</ele>
        <time>2019-03-16T16:26:30.000Z</time>
      </trkpt>
      <trkpt lat="43.660397" lon="-7.569995">
        <ele>429</ele>
        <time>2019-03-16T16:26:33.000Z</time>
      </trkpt>
      <trkpt lat="43.660419" lon="-7.569882">
        <ele>430</ele>
        <time>2019-03-16T16:26:37.000Z</time>
      </trkpt>
      <trkpt lat="43.660435" lon="-7.56979">
        <ele>431</ele>
        <time>2019-03-16T16:26:40.000Z</time>
      </trkpt>
      <trkpt lat="43.660437" lon="-7.569696">
        <ele>432</ele>
        <time>2019-03-16T16:26:43.000Z</time>
      </trkpt>
      <trkpt lat="43.660448" lon="-7.569582">
        <ele>433</ele>
        <time>2019-03-16T16:26:47.000Z</time>
      </trkpt>
      <trkpt lat="43.660453" lon="-7.5695">
        <ele>435</ele>
        <time>2019-03-16T16:26:50.000Z</time>
      </trkpt>
      <trkpt lat="43.660456" lon="-7.569392">
        <ele>436</ele>
        <time>2019-03-16T16:26:54.000Z</time>
      </trkpt>
      <trkpt lat="43.660466" lon="-7.569307">
        <ele>437</ele>
        <time>2019-03-16T16:26:57.000Z</time>
      </trkpt>
      <trkpt lat="43.660471" lon="-7.569243">
        <ele>437</ele>
        <time>2019-03-16T16:26:59.000Z</time>
      </trkpt>
      <trkpt lat="43.660465" lon="-7.569152">
        <ele>437</ele>
        <time>2019-03-16T16:27:02.000Z</time>
      </trkpt>
      <trkpt lat="43.66046" lon="-7.569029">
        <ele>440</ele>
        <time>2019-03-16T16:27:06.000Z</time>
      </trkpt>
      <trkpt lat="43.660459" lon="-7.56895">
        <ele>441</ele>
        <time>2019-03-16T16:27:09.000Z</time>
      </trkpt>
      <trkpt lat="43.660442" lon="-7.568872">
        <ele>442</ele>
        <time>2019-03-16T16:27:12.000Z</time>
      </trkpt>
      <trkpt lat="43.660439" lon="-7.568793">
        <ele>444</ele>
        <time>2019-03-16T16:27:15.000Z</time>
      </trkpt>
      <trkpt lat="43.660442" lon="-7.568724">
        <ele>444</ele>
        <time>2019-03-16T16:27:17.000Z</time>
      </trkpt>
      <trkpt lat="43.660437" lon="-7.568633">
        <ele>445</ele>
        <time>2019-03-16T16:27:20.000Z</time>
      </trkpt>
      <trkpt lat="43.660429" lon="-7.568571">
        <ele>446</ele>
        <time>2019-03-16T16:27:22.000Z</time>
      </trkpt>
      <trkpt lat="43.660411" lon="-7.568482">
        <ele>447</ele>
        <time>2019-03-16T16:27:25.000Z</time>
      </trkpt>
      <trkpt lat="43.66041" lon="-7.568371">
        <ele>447</ele>
        <time>2019-03-16T16:27:29.000Z</time>
      </trkpt>
      <trkpt lat="43.660414" lon="-7.568294">
        <ele>449</ele>
        <time>2019-03-16T16:27:32.000Z</time>
      </trkpt>
      <trkpt lat="43.660414" lon="-7.568211">
        <ele>450</ele>
        <time>2019-03-16T16:27:35.000Z</time>
      </trkpt>
      <trkpt lat="43.660409" lon="-7.568091">
        <ele>451</ele>
        <time>2019-03-16T16:27:39.000Z</time>
      </trkpt>
      <trkpt lat="43.660413" lon="-7.568008">
        <ele>453</ele>
        <time>2019-03-16T16:27:42.000Z</time>
      </trkpt>
      <trkpt lat="43.660427" lon="-7.567936">
        <ele>453</ele>
        <time>2019-03-16T16:27:44.000Z</time>
      </trkpt>
      <trkpt lat="43.660447" lon="-7.567848">
        <ele>453</ele>
        <time>2019-03-16T16:27:46.000Z</time>
      </trkpt>
      <trkpt lat="43.660474" lon="-7.567741">
        <ele>453</ele>
        <time>2019-03-16T16:27:49.000Z</time>
      </trkpt>
      <trkpt lat="43.660495" lon="-7.567664">
        <ele>453</ele>
        <time>2019-03-16T16:27:51.000Z</time>
      </trkpt>
      <trkpt lat="43.660515" lon="-7.567592">
        <ele>452</ele>
        <time>2019-03-16T16:27:53.000Z</time>
      </trkpt>
      <trkpt lat="43.660541" lon="-7.567528">
        <ele>452</ele>
        <time>2019-03-16T16:27:55.000Z</time>
      </trkpt>
      <trkpt lat="43.660574" lon="-7.567452">
        <ele>453</ele>
        <time>2019-03-16T16:27:58.000Z</time>
      </trkpt>
      <trkpt lat="43.660619" lon="-7.567354">
        <ele>453</ele>
        <time>2019-03-16T16:28:02.000Z</time>
      </trkpt>
      <trkpt lat="43.660675" lon="-7.567273">
        <ele>453</ele>
        <time>2019-03-16T16:28:06.000Z</time>
      </trkpt>
      <trkpt lat="43.660716" lon="-7.567237">
        <ele>453</ele>
        <time>2019-03-16T16:28:08.000Z</time>
      </trkpt>
      <trkpt lat="43.660758" lon="-7.567206">
        <ele>454</ele>
        <time>2019-03-16T16:28:10.000Z</time>
      </trkpt>
      <trkpt lat="43.660818" lon="-7.567164">
        <ele>452</ele>
        <time>2019-03-16T16:28:13.000Z</time>
      </trkpt>
      <trkpt lat="43.660876" lon="-7.567139">
        <ele>453</ele>
        <time>2019-03-16T16:28:16.000Z</time>
      </trkpt>
      <trkpt lat="43.66093" lon="-7.567121">
        <ele>454</ele>
        <time>2019-03-16T16:28:19.000Z</time>
      </trkpt>
      <trkpt lat="43.660985" lon="-7.5671">
        <ele>454</ele>
        <time>2019-03-16T16:28:22.000Z</time>
      </trkpt>
      <trkpt lat="43.661035" lon="-7.567076">
        <ele>454</ele>
        <time>2019-03-16T16:28:25.000Z</time>
      </trkpt>
      <trkpt lat="43.661113" lon="-7.567053">
        <ele>456</ele>
        <time>2019-03-16T16:28:29.000Z</time>
      </trkpt>
      <trkpt lat="43.661204" lon="-7.567033">
        <ele>456</ele>
        <time>2019-03-16T16:28:33.000Z</time>
      </trkpt>
      <trkpt lat="43.661257" lon="-7.567025">
        <ele>456</ele>
        <time>2019-03-16T16:28:35.000Z</time>
      </trkpt>
      <trkpt lat="43.661307" lon="-7.567026">
        <ele>456</ele>
        <time>2019-03-16T16:28:37.000Z</time>
      </trkpt>
      <trkpt lat="43.661371" lon="-7.567032">
        <ele>457</ele>
        <time>2019-03-16T16:28:40.000Z</time>
      </trkpt>
      <trkpt lat="43.661435" lon="-7.567032">
        <ele>456</ele>
        <time>2019-03-16T16:28:43.000Z</time>
      </trkpt>
      <trkpt lat="43.661526" lon="-7.567044">
        <ele>458</ele>
        <time>2019-03-16T16:28:47.000Z</time>
      </trkpt>
      <trkpt lat="43.661572" lon="-7.567026">
        <ele>459</ele>
        <time>2019-03-16T16:28:49.000Z</time>
      </trkpt>
      <trkpt lat="43.661617" lon="-7.56698">
        <ele>459</ele>
        <time>2019-03-16T16:28:51.000Z</time>
      </trkpt>
      <trkpt lat="43.661624" lon="-7.566915">
        <ele>460</ele>
        <time>2019-03-16T16:28:55.000Z</time>
      </trkpt>
      <trkpt lat="43.661569" lon="-7.566851">
        <ele>462</ele>
        <time>2019-03-16T16:28:59.000Z</time>
      </trkpt>
      <trkpt lat="43.661497" lon="-7.566809">
        <ele>463</ele>
        <time>2019-03-16T16:29:03.000Z</time>
      </trkpt>
      <trkpt lat="43.661447" lon="-7.56678">
        <ele>463</ele>
        <time>2019-03-16T16:29:06.000Z</time>
      </trkpt>
      <trkpt lat="43.66139" lon="-7.566762">
        <ele>463</ele>
        <time>2019-03-16T16:29:09.000Z</time>
      </trkpt>
      <trkpt lat="43.661308" lon="-7.566732">
        <ele>464</ele>
        <time>2019-03-16T16:29:13.000Z</time>
      </trkpt>
      <trkpt lat="43.661247" lon="-7.566706">
        <ele>464</ele>
        <time>2019-03-16T16:29:16.000Z</time>
      </trkpt>
      <trkpt lat="43.661185" lon="-7.566674">
        <ele>464</ele>
        <time>2019-03-16T16:29:19.000Z</time>
      </trkpt>
      <trkpt lat="43.66113" lon="-7.566656">
        <ele>465</ele>
        <time>2019-03-16T16:29:22.000Z</time>
      </trkpt>
      <trkpt lat="43.661085" lon="-7.566634">
        <ele>465</ele>
        <time>2019-03-16T16:29:25.000Z</time>
      </trkpt>
      <trkpt lat="43.660996" lon="-7.566598">
        <ele>465</ele>
        <time>2019-03-16T16:29:29.000Z</time>
      </trkpt>
      <trkpt lat="43.660918" lon="-7.56657">
        <ele>466</ele>
        <time>2019-03-16T16:29:33.000Z</time>
      </trkpt>
      <trkpt lat="43.660865" lon="-7.566544">
        <ele>466</ele>
        <time>2019-03-16T16:29:36.000Z</time>
      </trkpt>
      <trkpt lat="43.660782" lon="-7.566503">
        <ele>466</ele>
        <time>2019-03-16T16:29:40.000Z</time>
      </trkpt>
      <trkpt lat="43.660735" lon="-7.566481">
        <ele>464</ele>
        <time>2019-03-16T16:29:42.000Z</time>
      </trkpt>
      <trkpt lat="43.66067" lon="-7.566442">
        <ele>464</ele>
        <time>2019-03-16T16:29:45.000Z</time>
      </trkpt>
      <trkpt lat="43.660613" lon="-7.566415">
        <ele>465</ele>
        <time>2019-03-16T16:29:48.000Z</time>
      </trkpt>
      <trkpt lat="43.660526" lon="-7.566398">
        <ele>466</ele>
        <time>2019-03-16T16:29:52.000Z</time>
      </trkpt>
      <trkpt lat="43.66048" lon="-7.566392">
        <ele>466</ele>
        <time>2019-03-16T16:29:54.000Z</time>
      </trkpt>
      <trkpt lat="43.660417" lon="-7.566401">
        <ele>467</ele>
        <time>2019-03-16T16:29:57.000Z</time>
      </trkpt>
      <trkpt lat="43.660358" lon="-7.566406">
        <ele>468</ele>
        <time>2019-03-16T16:30:00.000Z</time>
      </trkpt>
      <trkpt lat="43.660313" lon="-7.566414">
        <ele>469</ele>
        <time>2019-03-16T16:30:02.000Z</time>
      </trkpt>
      <trkpt lat="43.660234" lon="-7.566454">
        <ele>469</ele>
        <time>2019-03-16T16:30:06.000Z</time>
      </trkpt>
      <trkpt lat="43.660173" lon="-7.566503">
        <ele>470</ele>
        <time>2019-03-16T16:30:10.000Z</time>
      </trkpt>
      <trkpt lat="43.660116" lon="-7.566555">
        <ele>470</ele>
        <time>2019-03-16T16:30:13.000Z</time>
      </trkpt>
      <trkpt lat="43.660074" lon="-7.566594">
        <ele>471</ele>
        <time>2019-03-16T16:30:15.000Z</time>
      </trkpt>
      <trkpt lat="43.660031" lon="-7.566641">
        <ele>471</ele>
        <time>2019-03-16T16:30:17.000Z</time>
      </trkpt>
      <trkpt lat="43.659992" lon="-7.566688">
        <ele>472</ele>
        <time>2019-03-16T16:30:19.000Z</time>
      </trkpt>
      <trkpt lat="43.659954" lon="-7.566738">
        <ele>473</ele>
        <time>2019-03-16T16:30:21.000Z</time>
      </trkpt>
      <trkpt lat="43.659918" lon="-7.566795">
        <ele>473</ele>
        <time>2019-03-16T16:30:23.000Z</time>
      </trkpt>
      <trkpt lat="43.659886" lon="-7.566848">
        <ele>474</ele>
        <time>2019-03-16T16:30:25.000Z</time>
      </trkpt>
      <trkpt lat="43.659856" lon="-7.566896">
        <ele>474</ele>
        <time>2019-03-16T16:30:27.000Z</time>
      </trkpt>
      <trkpt lat="43.659797" lon="-7.566966">
        <ele>476</ele>
        <time>2019-03-16T16:30:31.000Z</time>
      </trkpt>
      <trkpt lat="43.659763" lon="-7.567027">
        <ele>477</ele>
        <time>2019-03-16T16:30:33.000Z</time>
      </trkpt>
      <trkpt lat="43.659719" lon="-7.567108">
        <ele>478</ele>
        <time>2019-03-16T16:30:36.000Z</time>
      </trkpt>
      <trkpt lat="43.659676" lon="-7.567188">
        <ele>478</ele>
        <time>2019-03-16T16:30:39.000Z</time>
      </trkpt>
      <trkpt lat="43.659652" lon="-7.567246">
        <ele>479</ele>
        <time>2019-03-16T16:30:41.000Z</time>
      </trkpt>
      <trkpt lat="43.659623" lon="-7.56733">
        <ele>479</ele>
        <time>2019-03-16T16:30:44.000Z</time>
      </trkpt>
      <trkpt lat="43.659583" lon="-7.567434">
        <ele>481</ele>
        <time>2019-03-16T16:30:48.000Z</time>
      </trkpt>
      <trkpt lat="43.659568" lon="-7.567494">
        <ele>482</ele>
        <time>2019-03-16T16:30:50.000Z</time>
      </trkpt>
      <trkpt lat="43.659555" lon="-7.567559">
        <ele>482</ele>
        <time>2019-03-16T16:30:52.000Z</time>
      </trkpt>
      <trkpt lat="43.659543" lon="-7.567624">
        <ele>482</ele>
        <time>2019-03-16T16:30:54.000Z</time>
      </trkpt>
      <trkpt lat="43.659528" lon="-7.56769">
        <ele>482</ele>
        <time>2019-03-16T16:30:56.000Z</time>
      </trkpt>
      <trkpt lat="43.6595" lon="-7.567774">
        <ele>483</ele>
        <time>2019-03-16T16:30:59.000Z</time>
      </trkpt>
      <trkpt lat="43.659484" lon="-7.567835">
        <ele>484</ele>
        <time>2019-03-16T16:31:01.000Z</time>
      </trkpt>
      <trkpt lat="43.659456" lon="-7.567918">
        <ele>485</ele>
        <time>2019-03-16T16:31:04.000Z</time>
      </trkpt>
      <trkpt lat="43.659438" lon="-7.567987">
        <ele>486</ele>
        <time>2019-03-16T16:31:07.000Z</time>
      </trkpt>
      <trkpt lat="43.65941" lon="-7.568056">
        <ele>486</ele>
        <time>2019-03-16T16:31:10.000Z</time>
      </trkpt>
      <trkpt lat="43.659384" lon="-7.568129">
        <ele>487</ele>
        <time>2019-03-16T16:31:13.000Z</time>
      </trkpt>
      <trkpt lat="43.659346" lon="-7.568229">
        <ele>489</ele>
        <time>2019-03-16T16:31:17.000Z</time>
      </trkpt>
      <trkpt lat="43.659321" lon="-7.568289">
        <ele>489</ele>
        <time>2019-03-16T16:31:19.000Z</time>
      </trkpt>
      <trkpt lat="43.659268" lon="-7.568392">
        <ele>490</ele>
        <time>2019-03-16T16:31:23.000Z</time>
      </trkpt>
      <trkpt lat="43.659245" lon="-7.568456">
        <ele>490</ele>
        <time>2019-03-16T16:31:25.000Z</time>
      </trkpt>
      <trkpt lat="43.65922" lon="-7.568513">
        <ele>490</ele>
        <time>2019-03-16T16:31:27.000Z</time>
      </trkpt>
      <trkpt lat="43.659182" lon="-7.568589">
        <ele>491</ele>
        <time>2019-03-16T16:31:30.000Z</time>
      </trkpt>
      <trkpt lat="43.659116" lon="-7.568687">
        <ele>492</ele>
        <time>2019-03-16T16:31:34.000Z</time>
      </trkpt>
      <trkpt lat="43.659052" lon="-7.568778">
        <ele>493</ele>
        <time>2019-03-16T16:31:38.000Z</time>
      </trkpt>
      <trkpt lat="43.659016" lon="-7.568825">
        <ele>493</ele>
        <time>2019-03-16T16:31:41.000Z</time>
      </trkpt>
      <trkpt lat="43.658941" lon="-7.5689">
        <ele>494</ele>
        <time>2019-03-16T16:31:45.000Z</time>
      </trkpt>
      <trkpt lat="43.658887" lon="-7.568938">
        <ele>495</ele>
        <time>2019-03-16T16:31:48.000Z</time>
      </trkpt>
      <trkpt lat="43.658811" lon="-7.568981">
        <ele>495</ele>
        <time>2019-03-16T16:31:52.000Z</time>
      </trkpt>
      <trkpt lat="43.658734" lon="-7.569015">
        <ele>495</ele>
        <time>2019-03-16T16:31:56.000Z</time>
      </trkpt>
      <trkpt lat="43.658671" lon="-7.56904">
        <ele>496</ele>
        <time>2019-03-16T16:31:59.000Z</time>
      </trkpt>
      <trkpt lat="43.658578" lon="-7.569064">
        <ele>496</ele>
        <time>2019-03-16T16:32:03.000Z</time>
      </trkpt>
      <trkpt lat="43.658484" lon="-7.569056">
        <ele>496</ele>
        <time>2019-03-16T16:32:07.000Z</time>
      </trkpt>
      <trkpt lat="43.658433" lon="-7.569049">
        <ele>496</ele>
        <time>2019-03-16T16:32:09.000Z</time>
      </trkpt>
      <trkpt lat="43.658384" lon="-7.569038">
        <ele>496</ele>
        <time>2019-03-16T16:32:11.000Z</time>
      </trkpt>
      <trkpt lat="43.658318" lon="-7.569">
        <ele>497</ele>
        <time>2019-03-16T16:32:14.000Z</time>
      </trkpt>
      <trkpt lat="43.658265" lon="-7.568903">
        <ele>499</ele>
        <time>2019-03-16T16:32:18.000Z</time>
      </trkpt>
      <trkpt lat="43.65825" lon="-7.568805">
        <ele>500</ele>
        <time>2019-03-16T16:32:21.000Z</time>
      </trkpt>
      <trkpt lat="43.658243" lon="-7.56873">
        <ele>501</ele>
        <time>2019-03-16T16:32:23.000Z</time>
      </trkpt>
      <trkpt lat="43.658237" lon="-7.568654">
        <ele>501</ele>
        <time>2019-03-16T16:32:25.000Z</time>
      </trkpt>
      <trkpt lat="43.658233" lon="-7.568576">
        <ele>501</ele>
        <time>2019-03-16T16:32:27.000Z</time>
      </trkpt>
      <trkpt lat="43.658225" lon="-7.568493">
        <ele>501</ele>
        <time>2019-03-16T16:32:29.000Z</time>
      </trkpt>
      <trkpt lat="43.658217" lon="-7.568413">
        <ele>501</ele>
        <time>2019-03-16T16:32:31.000Z</time>
      </trkpt>
      <trkpt lat="43.658208" lon="-7.568336">
        <ele>501</ele>
        <time>2019-03-16T16:32:33.000Z</time>
      </trkpt>
      <trkpt lat="43.658198" lon="-7.568257">
        <ele>500</ele>
        <time>2019-03-16T16:32:35.000Z</time>
      </trkpt>
      <trkpt lat="43.658179" lon="-7.568129">
        <ele>501</ele>
        <time>2019-03-16T16:32:38.000Z</time>
      </trkpt>
      <trkpt lat="43.658165" lon="-7.567993">
        <ele>500</ele>
        <time>2019-03-16T16:32:41.000Z</time>
      </trkpt>
      <trkpt lat="43.65815" lon="-7.56791">
        <ele>500</ele>
        <time>2019-03-16T16:32:43.000Z</time>
      </trkpt>
      <trkpt lat="43.658137" lon="-7.567824">
        <ele>500</ele>
        <time>2019-03-16T16:32:45.000Z</time>
      </trkpt>
      <trkpt lat="43.658121" lon="-7.567745">
        <ele>500</ele>
        <time>2019-03-16T16:32:47.000Z</time>
      </trkpt>
      <trkpt lat="43.658106" lon="-7.567679">
        <ele>500</ele>
        <time>2019-03-16T16:32:49.000Z</time>
      </trkpt>
      <trkpt lat="43.658066" lon="-7.567532">
        <ele>500</ele>
        <time>2019-03-16T16:32:53.000Z</time>
      </trkpt>
      <trkpt lat="43.657992" lon="-7.567352">
        <ele>498</ele>
        <time>2019-03-16T16:32:56.000Z</time>
      </trkpt>
      <trkpt lat="43.65797" lon="-7.567282">
        <ele>498</ele>
        <time>2019-03-16T16:32:58.000Z</time>
      </trkpt>
      <trkpt lat="43.657939" lon="-7.567162">
        <ele>497</ele>
        <time>2019-03-16T16:33:01.000Z</time>
      </trkpt>
      <trkpt lat="43.657916" lon="-7.567082">
        <ele>496</ele>
        <time>2019-03-16T16:33:03.000Z</time>
      </trkpt>
      <trkpt lat="43.657892" lon="-7.56696">
        <ele>496</ele>
        <time>2019-03-16T16:33:06.000Z</time>
      </trkpt>
      <trkpt lat="43.657892" lon="-7.566884">
        <ele>496</ele>
        <time>2019-03-16T16:33:08.000Z</time>
      </trkpt>
      <trkpt lat="43.657904" lon="-7.566796">
        <ele>496</ele>
        <time>2019-03-16T16:33:11.000Z</time>
      </trkpt>
      <trkpt lat="43.657903" lon="-7.566678">
        <ele>496</ele>
        <time>2019-03-16T16:33:15.000Z</time>
      </trkpt>
      <trkpt lat="43.657904" lon="-7.566613">
        <ele>496</ele>
        <time>2019-03-16T16:33:17.000Z</time>
      </trkpt>
      <trkpt lat="43.657906" lon="-7.566547">
        <ele>496</ele>
        <time>2019-03-16T16:33:19.000Z</time>
      </trkpt>
      <trkpt lat="43.657911" lon="-7.566485">
        <ele>497</ele>
        <time>2019-03-16T16:33:21.000Z</time>
      </trkpt>
      <trkpt lat="43.657919" lon="-7.566413">
        <ele>496</ele>
        <time>2019-03-16T16:33:23.000Z</time>
      </trkpt>
      <trkpt lat="43.657924" lon="-7.566352">
        <ele>496</ele>
        <time>2019-03-16T16:33:25.000Z</time>
      </trkpt>
      <trkpt lat="43.657929" lon="-7.566278">
        <ele>497</ele>
        <time>2019-03-16T16:33:27.000Z</time>
      </trkpt>
      <trkpt lat="43.657947" lon="-7.566156">
        <ele>498</ele>
        <time>2019-03-16T16:33:31.000Z</time>
      </trkpt>
      <trkpt lat="43.657956" lon="-7.566041">
        <ele>498</ele>
        <time>2019-03-16T16:33:35.000Z</time>
      </trkpt>
      <trkpt lat="43.657955" lon="-7.565959">
        <ele>498</ele>
        <time>2019-03-16T16:33:38.000Z</time>
      </trkpt>
      <trkpt lat="43.657957" lon="-7.565879">
        <ele>498</ele>
        <time>2019-03-16T16:33:41.000Z</time>
      </trkpt>
      <trkpt lat="43.657957" lon="-7.565792">
        <ele>499</ele>
        <time>2019-03-16T16:33:44.000Z</time>
      </trkpt>
      <trkpt lat="43.657963" lon="-7.56573">
        <ele>500</ele>
        <time>2019-03-16T16:33:46.000Z</time>
      </trkpt>
      <trkpt lat="43.657976" lon="-7.565648">
        <ele>501</ele>
        <time>2019-03-16T16:33:49.000Z</time>
      </trkpt>
      <trkpt lat="43.657988" lon="-7.565573">
        <ele>501</ele>
        <time>2019-03-16T16:33:52.000Z</time>
      </trkpt>
      <trkpt lat="43.657998" lon="-7.5655">
        <ele>502</ele>
        <time>2019-03-16T16:33:55.000Z</time>
      </trkpt>
      <trkpt lat="43.658003" lon="-7.565398">
        <ele>503</ele>
        <time>2019-03-16T16:33:59.000Z</time>
      </trkpt>
      <trkpt lat="43.658005" lon="-7.565318">
        <ele>505</ele>
        <time>2019-03-16T16:34:02.000Z</time>
      </trkpt>
      <trkpt lat="43.658005" lon="-7.565236">
        <ele>506</ele>
        <time>2019-03-16T16:34:05.000Z</time>
      </trkpt>
      <trkpt lat="43.657999" lon="-7.56513">
        <ele>507</ele>
        <time>2019-03-16T16:34:09.000Z</time>
      </trkpt>
      <trkpt lat="43.657993" lon="-7.565048">
        <ele>509</ele>
        <time>2019-03-16T16:34:12.000Z</time>
      </trkpt>
      <trkpt lat="43.657981" lon="-7.564942">
        <ele>511</ele>
        <time>2019-03-16T16:34:16.000Z</time>
      </trkpt>
      <trkpt lat="43.658001" lon="-7.564878">
        <ele>512</ele>
        <time>2019-03-16T16:34:20.000Z</time>
      </trkpt>
      <trkpt lat="43.658047" lon="-7.564872">
        <ele>514</ele>
        <time>2019-03-16T16:34:24.000Z</time>
      </trkpt>
      <trkpt lat="43.658097" lon="-7.564933">
        <ele>515</ele>
        <time>2019-03-16T16:34:28.000Z</time>
      </trkpt>
      <trkpt lat="43.658134" lon="-7.565007">
        <ele>515</ele>
        <time>2019-03-16T16:34:31.000Z</time>
      </trkpt>
      <trkpt lat="43.658161" lon="-7.565068">
        <ele>515</ele>
        <time>2019-03-16T16:34:33.000Z</time>
      </trkpt>
      <trkpt lat="43.65819" lon="-7.565126">
        <ele>515</ele>
        <time>2019-03-16T16:34:35.000Z</time>
      </trkpt>
      <trkpt lat="43.658216" lon="-7.565186">
        <ele>515</ele>
        <time>2019-03-16T16:34:37.000Z</time>
      </trkpt>
      <trkpt lat="43.65824" lon="-7.565248">
        <ele>516</ele>
        <time>2019-03-16T16:34:39.000Z</time>
      </trkpt>
      <trkpt lat="43.658268" lon="-7.565309">
        <ele>516</ele>
        <time>2019-03-16T16:34:41.000Z</time>
      </trkpt>
      <trkpt lat="43.658299" lon="-7.565376">
        <ele>516</ele>
        <time>2019-03-16T16:34:43.000Z</time>
      </trkpt>
      <trkpt lat="43.658323" lon="-7.565436">
        <ele>517</ele>
        <time>2019-03-16T16:34:45.000Z</time>
      </trkpt>
      <trkpt lat="43.658355" lon="-7.565514">
        <ele>518</ele>
        <time>2019-03-16T16:34:48.000Z</time>
      </trkpt>
      <trkpt lat="43.658388" lon="-7.565598">
        <ele>519</ele>
        <time>2019-03-16T16:34:51.000Z</time>
      </trkpt>
      <trkpt lat="43.658415" lon="-7.565654">
        <ele>519</ele>
        <time>2019-03-16T16:34:53.000Z</time>
      </trkpt>
      <trkpt lat="43.65844" lon="-7.565708">
        <ele>520</ele>
        <time>2019-03-16T16:34:55.000Z</time>
      </trkpt>
      <trkpt lat="43.658461" lon="-7.565763">
        <ele>520</ele>
        <time>2019-03-16T16:34:57.000Z</time>
      </trkpt>
      <trkpt lat="43.65849" lon="-7.565842">
        <ele>520</ele>
        <time>2019-03-16T16:35:00.000Z</time>
      </trkpt>
      <trkpt lat="43.658525" lon="-7.565911">
        <ele>521</ele>
        <time>2019-03-16T16:35:03.000Z</time>
      </trkpt>
      <trkpt lat="43.658572" lon="-7.565994">
        <ele>522</ele>
        <time>2019-03-16T16:35:07.000Z</time>
      </trkpt>
      <trkpt lat="43.658614" lon="-7.566086">
        <ele>524</ele>
        <time>2019-03-16T16:35:11.000Z</time>
      </trkpt>
      <trkpt lat="43.658658" lon="-7.566149">
        <ele>526</ele>
        <time>2019-03-16T16:35:14.000Z</time>
      </trkpt>
      <trkpt lat="43.658729" lon="-7.566192">
        <ele>526</ele>
        <time>2019-03-16T16:35:18.000Z</time>
      </trkpt>
      <trkpt lat="43.658802" lon="-7.566137">
        <ele>527</ele>
        <time>2019-03-16T16:35:22.000Z</time>
      </trkpt>
      <trkpt lat="43.65884" lon="-7.566048">
        <ele>528</ele>
        <time>2019-03-16T16:35:25.000Z</time>
      </trkpt>
      <trkpt lat="43.658852" lon="-7.565966">
        <ele>530</ele>
        <time>2019-03-16T16:35:28.000Z</time>
      </trkpt>
      <trkpt lat="43.658861" lon="-7.565841">
        <ele>531</ele>
        <time>2019-03-16T16:35:32.000Z</time>
      </trkpt>
      <trkpt lat="43.658872" lon="-7.565751">
        <ele>532</ele>
        <time>2019-03-16T16:35:35.000Z</time>
      </trkpt>
      <trkpt lat="43.658889" lon="-7.565666">
        <ele>533</ele>
        <time>2019-03-16T16:35:38.000Z</time>
      </trkpt>
      <trkpt lat="43.6589" lon="-7.565581">
        <ele>534</ele>
        <time>2019-03-16T16:35:41.000Z</time>
      </trkpt>
      <trkpt lat="43.658899" lon="-7.565498">
        <ele>535</ele>
        <time>2019-03-16T16:35:44.000Z</time>
      </trkpt>
      <trkpt lat="43.658897" lon="-7.565434">
        <ele>535</ele>
        <time>2019-03-16T16:35:46.000Z</time>
      </trkpt>
      <trkpt lat="43.658893" lon="-7.565364">
        <ele>536</ele>
        <time>2019-03-16T16:35:49.000Z</time>
      </trkpt>
      <trkpt lat="43.658888" lon="-7.565266">
        <ele>536</ele>
        <time>2019-03-16T16:35:53.000Z</time>
      </trkpt>
      <trkpt lat="43.658879" lon="-7.565163">
        <ele>537</ele>
        <time>2019-03-16T16:35:57.000Z</time>
      </trkpt>
      <trkpt lat="43.658854" lon="-7.56505">
        <ele>538</ele>
        <time>2019-03-16T16:36:01.000Z</time>
      </trkpt>
      <trkpt lat="43.658838" lon="-7.564989">
        <ele>538</ele>
        <time>2019-03-16T16:36:03.000Z</time>
      </trkpt>
      <trkpt lat="43.658814" lon="-7.564933">
        <ele>539</ele>
        <time>2019-03-16T16:36:05.000Z</time>
      </trkpt>
      <trkpt lat="43.658789" lon="-7.56488">
        <ele>539</ele>
        <time>2019-03-16T16:36:07.000Z</time>
      </trkpt>
      <trkpt lat="43.658742" lon="-7.564783">
        <ele>539</ele>
        <time>2019-03-16T16:36:10.000Z</time>
      </trkpt>
      <trkpt lat="43.658715" lon="-7.564727">
        <ele>540</ele>
        <time>2019-03-16T16:36:12.000Z</time>
      </trkpt>
      <trkpt lat="43.658668" lon="-7.564611">
        <ele>540</ele>
        <time>2019-03-16T16:36:16.000Z</time>
      </trkpt>
      <trkpt lat="43.658618" lon="-7.564521">
        <ele>540</ele>
        <time>2019-03-16T16:36:19.000Z</time>
      </trkpt>
      <trkpt lat="43.658585" lon="-7.564446">
        <ele>540</ele>
        <time>2019-03-16T16:36:21.000Z</time>
      </trkpt>
      <trkpt lat="43.658552" lon="-7.56435">
        <ele>541</ele>
        <time>2019-03-16T16:36:24.000Z</time>
      </trkpt>
      <trkpt lat="43.65853" lon="-7.564263">
        <ele>542</ele>
        <time>2019-03-16T16:36:27.000Z</time>
      </trkpt>
      <trkpt lat="43.65851" lon="-7.564199">
        <ele>541</ele>
        <time>2019-03-16T16:36:29.000Z</time>
      </trkpt>
      <trkpt lat="43.658491" lon="-7.564132">
        <ele>542</ele>
        <time>2019-03-16T16:36:31.000Z</time>
      </trkpt>
      <trkpt lat="43.658459" lon="-7.564027">
        <ele>542</ele>
        <time>2019-03-16T16:36:34.000Z</time>
      </trkpt>
      <trkpt lat="43.658439" lon="-7.563954">
        <ele>543</ele>
        <time>2019-03-16T16:36:36.000Z</time>
      </trkpt>
      <trkpt lat="43.658412" lon="-7.563852">
        <ele>543</ele>
        <time>2019-03-16T16:36:39.000Z</time>
      </trkpt>
      <trkpt lat="43.658394" lon="-7.56379">
        <ele>544</ele>
        <time>2019-03-16T16:36:41.000Z</time>
      </trkpt>
      <trkpt lat="43.658378" lon="-7.563728">
        <ele>543</ele>
        <time>2019-03-16T16:36:43.000Z</time>
      </trkpt>
      <trkpt lat="43.65835" lon="-7.563629">
        <ele>544</ele>
        <time>2019-03-16T16:36:46.000Z</time>
      </trkpt>
      <trkpt lat="43.65834" lon="-7.563562">
        <ele>544</ele>
        <time>2019-03-16T16:36:48.000Z</time>
      </trkpt>
      <trkpt lat="43.658333" lon="-7.563491">
        <ele>544</ele>
        <time>2019-03-16T16:36:50.000Z</time>
      </trkpt>
      <trkpt lat="43.658318" lon="-7.563377">
        <ele>544</ele>
        <time>2019-03-16T16:36:53.000Z</time>
      </trkpt>
      <trkpt lat="43.658306" lon="-7.56329">
        <ele>545</ele>
        <time>2019-03-16T16:36:56.000Z</time>
      </trkpt>
      <trkpt lat="43.658281" lon="-7.563182">
        <ele>546</ele>
        <time>2019-03-16T16:36:59.000Z</time>
      </trkpt>
      <trkpt lat="43.658258" lon="-7.563088">
        <ele>546</ele>
        <time>2019-03-16T16:37:02.000Z</time>
      </trkpt>
      <trkpt lat="43.65824" lon="-7.56298">
        <ele>547</ele>
        <time>2019-03-16T16:37:05.000Z</time>
      </trkpt>
      <trkpt lat="43.658237" lon="-7.562906">
        <ele>547</ele>
        <time>2019-03-16T16:37:07.000Z</time>
      </trkpt>
      <trkpt lat="43.658239" lon="-7.562835">
        <ele>547</ele>
        <time>2019-03-16T16:37:09.000Z</time>
      </trkpt>
      <trkpt lat="43.65824" lon="-7.562762">
        <ele>548</ele>
        <time>2019-03-16T16:37:11.000Z</time>
      </trkpt>
      <trkpt lat="43.65825" lon="-7.562665">
        <ele>549</ele>
        <time>2019-03-16T16:37:14.000Z</time>
      </trkpt>
      <trkpt lat="43.658258" lon="-7.562578">
        <ele>550</ele>
        <time>2019-03-16T16:37:16.000Z</time>
      </trkpt>
      <trkpt lat="43.658262" lon="-7.562445">
        <ele>550</ele>
        <time>2019-03-16T16:37:19.000Z</time>
      </trkpt>
      <trkpt lat="43.658272" lon="-7.562372">
        <ele>551</ele>
        <time>2019-03-16T16:37:21.000Z</time>
      </trkpt>
      <trkpt lat="43.658286" lon="-7.562272">
        <ele>551</ele>
        <time>2019-03-16T16:37:24.000Z</time>
      </trkpt>
      <trkpt lat="43.658297" lon="-7.562199">
        <ele>551</ele>
        <time>2019-03-16T16:37:26.000Z</time>
      </trkpt>
      <trkpt lat="43.658319" lon="-7.562087">
        <ele>552</ele>
        <time>2019-03-16T16:37:29.000Z</time>
      </trkpt>
      <trkpt lat="43.658346" lon="-7.561988">
        <ele>553</ele>
        <time>2019-03-16T16:37:32.000Z</time>
      </trkpt>
      <trkpt lat="43.658373" lon="-7.561898">
        <ele>553</ele>
        <time>2019-03-16T16:37:35.000Z</time>
      </trkpt>
      <trkpt lat="43.658397" lon="-7.56184">
        <ele>554</ele>
        <time>2019-03-16T16:37:37.000Z</time>
      </trkpt>
      <trkpt lat="43.658443" lon="-7.561746">
        <ele>554</ele>
        <time>2019-03-16T16:37:40.000Z</time>
      </trkpt>
      <trkpt lat="43.65847" lon="-7.561682">
        <ele>554</ele>
        <time>2019-03-16T16:37:42.000Z</time>
      </trkpt>
      <trkpt lat="43.658505" lon="-7.561579">
        <ele>554</ele>
        <time>2019-03-16T16:37:45.000Z</time>
      </trkpt>
      <trkpt lat="43.658529" lon="-7.56151">
        <ele>554</ele>
        <time>2019-03-16T16:37:47.000Z</time>
      </trkpt>
      <trkpt lat="43.65855" lon="-7.561443">
        <ele>555</ele>
        <time>2019-03-16T16:37:49.000Z</time>
      </trkpt>
      <trkpt lat="43.658562" lon="-7.561374">
        <ele>555</ele>
        <time>2019-03-16T16:37:51.000Z</time>
      </trkpt>
      <trkpt lat="43.658572" lon="-7.56126">
        <ele>556</ele>
        <time>2019-03-16T16:37:54.000Z</time>
      </trkpt>
      <trkpt lat="43.658574" lon="-7.561186">
        <ele>556</ele>
        <time>2019-03-16T16:37:56.000Z</time>
      </trkpt>
      <trkpt lat="43.658576" lon="-7.561082">
        <ele>557</ele>
        <time>2019-03-16T16:37:59.000Z</time>
      </trkpt>
      <trkpt lat="43.658581" lon="-7.561016">
        <ele>557</ele>
        <time>2019-03-16T16:38:01.000Z</time>
      </trkpt>
      <trkpt lat="43.658623" lon="-7.560932">
        <ele>558</ele>
        <time>2019-03-16T16:38:05.000Z</time>
      </trkpt>
      <trkpt lat="43.658668" lon="-7.560965">
        <ele>558</ele>
        <time>2019-03-16T16:38:09.000Z</time>
      </trkpt>
      <trkpt lat="43.658705" lon="-7.561064">
        <ele>558</ele>
        <time>2019-03-16T16:38:13.000Z</time>
      </trkpt>
      <trkpt lat="43.658736" lon="-7.561144">
        <ele>559</ele>
        <time>2019-03-16T16:38:16.000Z</time>
      </trkpt>
      <trkpt lat="43.658758" lon="-7.5612">
        <ele>558</ele>
        <time>2019-03-16T16:38:18.000Z</time>
      </trkpt>
      <trkpt lat="43.658789" lon="-7.56128">
        <ele>559</ele>
        <time>2019-03-16T16:38:21.000Z</time>
      </trkpt>
      <trkpt lat="43.658835" lon="-7.56138">
        <ele>561</ele>
        <time>2019-03-16T16:38:25.000Z</time>
      </trkpt>
      <trkpt lat="43.658857" lon="-7.56144">
        <ele>561</ele>
        <time>2019-03-16T16:38:27.000Z</time>
      </trkpt>
      <trkpt lat="43.658875" lon="-7.561503">
        <ele>561</ele>
        <time>2019-03-16T16:38:29.000Z</time>
      </trkpt>
      <trkpt lat="43.658897" lon="-7.561578">
        <ele>561</ele>
        <time>2019-03-16T16:38:31.000Z</time>
      </trkpt>
      <trkpt lat="43.658932" lon="-7.561699">
        <ele>562</ele>
        <time>2019-03-16T16:38:35.000Z</time>
      </trkpt>
      <trkpt lat="43.658948" lon="-7.561766">
        <ele>563</ele>
        <time>2019-03-16T16:38:37.000Z</time>
      </trkpt>
      <trkpt lat="43.658965" lon="-7.561828">
        <ele>563</ele>
        <time>2019-03-16T16:38:39.000Z</time>
      </trkpt>
      <trkpt lat="43.658979" lon="-7.561887">
        <ele>563</ele>
        <time>2019-03-16T16:38:41.000Z</time>
      </trkpt>
      <trkpt lat="43.658992" lon="-7.561949">
        <ele>563</ele>
        <time>2019-03-16T16:38:43.000Z</time>
      </trkpt>
      <trkpt lat="43.659007" lon="-7.56201">
        <ele>564</ele>
        <time>2019-03-16T16:38:45.000Z</time>
      </trkpt>
      <trkpt lat="43.65904" lon="-7.562088">
        <ele>564</ele>
        <time>2019-03-16T16:38:48.000Z</time>
      </trkpt>
      <trkpt lat="43.659092" lon="-7.562144">
        <ele>564</ele>
        <time>2019-03-16T16:38:51.000Z</time>
      </trkpt>
      <trkpt lat="43.659159" lon="-7.562162">
        <ele>565</ele>
        <time>2019-03-16T16:38:54.000Z</time>
      </trkpt>
      <trkpt lat="43.65922" lon="-7.562139">
        <ele>566</ele>
        <time>2019-03-16T16:38:57.000Z</time>
      </trkpt>
      <trkpt lat="43.659273" lon="-7.562087">
        <ele>567</ele>
        <time>2019-03-16T16:39:00.000Z</time>
      </trkpt>
      <trkpt lat="43.659328" lon="-7.561996">
        <ele>568</ele>
        <time>2019-03-16T16:39:04.000Z</time>
      </trkpt>
      <trkpt lat="43.659374" lon="-7.561926">
        <ele>570</ele>
        <time>2019-03-16T16:39:07.000Z</time>
      </trkpt>
      <trkpt lat="43.659422" lon="-7.561868">
        <ele>571</ele>
        <time>2019-03-16T16:39:10.000Z</time>
      </trkpt>
      <trkpt lat="43.659462" lon="-7.561826">
        <ele>572</ele>
        <time>2019-03-16T16:39:13.000Z</time>
      </trkpt>
      <trkpt lat="43.659514" lon="-7.561783">
        <ele>573</ele>
        <time>2019-03-16T16:39:16.000Z</time>
      </trkpt>
      <trkpt lat="43.65956" lon="-7.561754">
        <ele>574</ele>
        <time>2019-03-16T16:39:18.000Z</time>
      </trkpt>
      <trkpt lat="43.659605" lon="-7.561735">
        <ele>575</ele>
        <time>2019-03-16T16:39:20.000Z</time>
      </trkpt>
      <trkpt lat="43.659651" lon="-7.561716">
        <ele>575</ele>
        <time>2019-03-16T16:39:22.000Z</time>
      </trkpt>
      <trkpt lat="43.659694" lon="-7.56169">
        <ele>576</ele>
        <time>2019-03-16T16:39:24.000Z</time>
      </trkpt>
      <trkpt lat="43.659734" lon="-7.561662">
        <ele>577</ele>
        <time>2019-03-16T16:39:26.000Z</time>
      </trkpt>
      <trkpt lat="43.659777" lon="-7.561634">
        <ele>577</ele>
        <time>2019-03-16T16:39:28.000Z</time>
      </trkpt>
      <trkpt lat="43.659821" lon="-7.561607">
        <ele>577</ele>
        <time>2019-03-16T16:39:30.000Z</time>
      </trkpt>
      <trkpt lat="43.659866" lon="-7.56158">
        <ele>577</ele>
        <time>2019-03-16T16:39:32.000Z</time>
      </trkpt>
      <trkpt lat="43.659909" lon="-7.561557">
        <ele>578</ele>
        <time>2019-03-16T16:39:34.000Z</time>
      </trkpt>
      <trkpt lat="43.659955" lon="-7.561533">
        <ele>579</ele>
        <time>2019-03-16T16:39:36.000Z</time>
      </trkpt>
      <trkpt lat="43.660023" lon="-7.5615">
        <ele>579</ele>
        <time>2019-03-16T16:39:39.000Z</time>
      </trkpt>
      <trkpt lat="43.660068" lon="-7.56148">
        <ele>579</ele>
        <time>2019-03-16T16:39:41.000Z</time>
      </trkpt>
      <trkpt lat="43.660141" lon="-7.561455">
        <ele>580</ele>
        <time>2019-03-16T16:39:44.000Z</time>
      </trkpt>
      <trkpt lat="43.660188" lon="-7.561442">
        <ele>580</ele>
        <time>2019-03-16T16:39:46.000Z</time>
      </trkpt>
      <trkpt lat="43.660273" lon="-7.561426">
        <ele>582</ele>
        <time>2019-03-16T16:39:50.000Z</time>
      </trkpt>
      <trkpt lat="43.660326" lon="-7.561415">
        <ele>581</ele>
        <time>2019-03-16T16:39:52.000Z</time>
      </trkpt>
      <trkpt lat="43.660388" lon="-7.561402">
        <ele>582</ele>
        <time>2019-03-16T16:39:54.000Z</time>
      </trkpt>
      <trkpt lat="43.660446" lon="-7.561391">
        <ele>582</ele>
        <time>2019-03-16T16:39:56.000Z</time>
      </trkpt>
      <trkpt lat="43.6605" lon="-7.561385">
        <ele>582</ele>
        <time>2019-03-16T16:39:58.000Z</time>
      </trkpt>
      <trkpt lat="43.660555" lon="-7.561376">
        <ele>583</ele>
        <time>2019-03-16T16:40:00.000Z</time>
      </trkpt>
      <trkpt lat="43.660616" lon="-7.561377">
        <ele>584</ele>
        <time>2019-03-16T16:40:02.000Z</time>
      </trkpt>
      <trkpt lat="43.660662" lon="-7.561387">
        <ele>585</ele>
        <time>2019-03-16T16:40:04.000Z</time>
      </trkpt>
      <trkpt lat="43.660749" lon="-7.561418">
        <ele>586</ele>
        <time>2019-03-16T16:40:07.000Z</time>
      </trkpt>
      <trkpt lat="43.660827" lon="-7.561464">
        <ele>585</ele>
        <time>2019-03-16T16:40:11.000Z</time>
      </trkpt>
      <trkpt lat="43.660905" lon="-7.561533">
        <ele>586</ele>
        <time>2019-03-16T16:40:15.000Z</time>
      </trkpt>
      <trkpt lat="43.660967" lon="-7.561595">
        <ele>588</ele>
        <time>2019-03-16T16:40:19.000Z</time>
      </trkpt>
      <trkpt lat="43.661008" lon="-7.561646">
        <ele>587</ele>
        <time>2019-03-16T16:40:21.000Z</time>
      </trkpt>
      <trkpt lat="43.661056" lon="-7.561707">
        <ele>588</ele>
        <time>2019-03-16T16:40:24.000Z</time>
      </trkpt>
      <trkpt lat="43.661116" lon="-7.561769">
        <ele>588</ele>
        <time>2019-03-16T16:40:28.000Z</time>
      </trkpt>
      <trkpt lat="43.661152" lon="-7.561822">
        <ele>588</ele>
        <time>2019-03-16T16:40:31.000Z</time>
      </trkpt>
      <trkpt lat="43.661194" lon="-7.561915">
        <ele>589</ele>
        <time>2019-03-16T16:40:35.000Z</time>
      </trkpt>
      <trkpt lat="43.6612" lon="-7.56199">
        <ele>590</ele>
        <time>2019-03-16T16:40:38.000Z</time>
      </trkpt>
      <trkpt lat="43.661183" lon="-7.562079">
        <ele>591</ele>
        <time>2019-03-16T16:40:42.000Z</time>
      </trkpt>
      <trkpt lat="43.66115" lon="-7.562136">
        <ele>592</ele>
        <time>2019-03-16T16:40:45.000Z</time>
      </trkpt>
      <trkpt lat="43.661111" lon="-7.562182">
        <ele>593</ele>
        <time>2019-03-16T16:40:48.000Z</time>
      </trkpt>
      <trkpt lat="43.661063" lon="-7.562241">
        <ele>595</ele>
        <time>2019-03-16T16:40:52.000Z</time>
      </trkpt>
      <trkpt lat="43.660993" lon="-7.562278">
        <ele>594</ele>
        <time>2019-03-16T16:40:56.000Z</time>
      </trkpt>
      <trkpt lat="43.660936" lon="-7.562293">
        <ele>596</ele>
        <time>2019-03-16T16:40:59.000Z</time>
      </trkpt>
      <trkpt lat="43.660868" lon="-7.562317">
        <ele>597</ele>
        <time>2019-03-16T16:41:03.000Z</time>
      </trkpt>
      <trkpt lat="43.660819" lon="-7.562339">
        <ele>599</ele>
        <time>2019-03-16T16:41:06.000Z</time>
      </trkpt>
      <trkpt lat="43.660766" lon="-7.562363">
        <ele>600</ele>
        <time>2019-03-16T16:41:09.000Z</time>
      </trkpt>
      <trkpt lat="43.660713" lon="-7.562387">
        <ele>602</ele>
        <time>2019-03-16T16:41:12.000Z</time>
      </trkpt>
      <trkpt lat="43.660658" lon="-7.562425">
        <ele>603</ele>
        <time>2019-03-16T16:41:15.000Z</time>
      </trkpt>
      <trkpt lat="43.660595" lon="-7.562461">
        <ele>603</ele>
        <time>2019-03-16T16:41:18.000Z</time>
      </trkpt>
      <trkpt lat="43.660545" lon="-7.562478">
        <ele>604</ele>
        <time>2019-03-16T16:41:20.000Z</time>
      </trkpt>
      <trkpt lat="43.660479" lon="-7.56246">
        <ele>604</ele>
        <time>2019-03-16T16:41:23.000Z</time>
      </trkpt>
      <trkpt lat="43.660417" lon="-7.562378">
        <ele>607</ele>
        <time>2019-03-16T16:41:27.000Z</time>
      </trkpt>
      <trkpt lat="43.660421" lon="-7.562292">
        <ele>608</ele>
        <time>2019-03-16T16:41:31.000Z</time>
      </trkpt>
      <trkpt lat="43.660465" lon="-7.562215">
        <ele>609</ele>
        <time>2019-03-16T16:41:35.000Z</time>
      </trkpt>
      <trkpt lat="43.660522" lon="-7.562164">
        <ele>609</ele>
        <time>2019-03-16T16:41:39.000Z</time>
      </trkpt>
      <trkpt lat="43.660574" lon="-7.562199">
        <ele>610</ele>
        <time>2019-03-16T16:41:43.000Z</time>
      </trkpt>
      <trkpt lat="43.660604" lon="-7.562279">
        <ele>610</ele>
        <time>2019-03-16T16:41:49.000Z</time>
      </trkpt>
      <trkpt lat="43.660604" lon="-7.562362">
        <ele>610</ele>
        <time>2019-03-16T16:41:53.000Z</time>
      </trkpt>
      <trkpt lat="43.66063" lon="-7.562414">
        <ele>610</ele>
        <time>2019-03-16T16:41:56.000Z</time>
      </trkpt>
      <trkpt lat="43.660699" lon="-7.562398">
        <ele>609</ele>
        <time>2019-03-16T16:42:00.000Z</time>
      </trkpt>
      <trkpt lat="43.660767" lon="-7.562358">
        <ele>607</ele>
        <time>2019-03-16T16:42:03.000Z</time>
      </trkpt>
      <trkpt lat="43.660816" lon="-7.562339">
        <ele>606</ele>
        <time>2019-03-16T16:42:05.000Z</time>
      </trkpt>
      <trkpt lat="43.660872" lon="-7.56233">
        <ele>606</ele>
        <time>2019-03-16T16:42:07.000Z</time>
      </trkpt>
      <trkpt lat="43.660923" lon="-7.562318">
        <ele>606</ele>
        <time>2019-03-16T16:42:09.000Z</time>
      </trkpt>
      <trkpt lat="43.660974" lon="-7.562299">
        <ele>605</ele>
        <time>2019-03-16T16:42:11.000Z</time>
      </trkpt>
      <trkpt lat="43.661026" lon="-7.562264">
        <ele>604</ele>
        <time>2019-03-16T16:42:13.000Z</time>
      </trkpt>
      <trkpt lat="43.661108" lon="-7.562178">
        <ele>603</ele>
        <time>2019-03-16T16:42:16.000Z</time>
      </trkpt>
      <trkpt lat="43.661187" lon="-7.561985">
        <ele>597</ele>
        <time>2019-03-16T16:42:19.000Z</time>
      </trkpt>
      <trkpt lat="43.661166" lon="-7.561864">
        <ele>594</ele>
        <time>2019-03-16T16:42:21.000Z</time>
      </trkpt>
      <trkpt lat="43.661112" lon="-7.561742">
        <ele>591</ele>
        <time>2019-03-16T16:42:24.000Z</time>
      </trkpt>
      <trkpt lat="43.661069" lon="-7.561698">
        <ele>591</ele>
        <time>2019-03-16T16:42:25.000Z</time>
      </trkpt>
      <trkpt lat="43.661029" lon="-7.561664">
        <ele>590</ele>
        <time>2019-03-16T16:42:27.000Z</time>
      </trkpt>
      <trkpt lat="43.660985" lon="-7.561626">
        <ele>590</ele>
        <time>2019-03-16T16:42:29.000Z</time>
      </trkpt>
      <trkpt lat="43.66094" lon="-7.56158">
        <ele>590</ele>
        <time>2019-03-16T16:42:31.000Z</time>
      </trkpt>
      <trkpt lat="43.66089" lon="-7.561529">
        <ele>590</ele>
        <time>2019-03-16T16:42:33.000Z</time>
      </trkpt>
      <trkpt lat="43.660839" lon="-7.561487">
        <ele>589</ele>
        <time>2019-03-16T16:42:35.000Z</time>
      </trkpt>
      <trkpt lat="43.660792" lon="-7.561458">
        <ele>589</ele>
        <time>2019-03-16T16:42:37.000Z</time>
      </trkpt>
      <trkpt lat="43.660735" lon="-7.561428">
        <ele>589</ele>
        <time>2019-03-16T16:42:39.000Z</time>
      </trkpt>
      <trkpt lat="43.660646" lon="-7.561384">
        <ele>589</ele>
        <time>2019-03-16T16:42:42.000Z</time>
      </trkpt>
      <trkpt lat="43.66059" lon="-7.561363">
        <ele>589</ele>
        <time>2019-03-16T16:42:44.000Z</time>
      </trkpt>
      <trkpt lat="43.660528" lon="-7.561355">
        <ele>588</ele>
        <time>2019-03-16T16:42:46.000Z</time>
      </trkpt>
      <trkpt lat="43.660457" lon="-7.561357">
        <ele>588</ele>
        <time>2019-03-16T16:42:48.000Z</time>
      </trkpt>
      <trkpt lat="43.660386" lon="-7.561366">
        <ele>587</ele>
        <time>2019-03-16T16:42:50.000Z</time>
      </trkpt>
      <trkpt lat="43.660318" lon="-7.561379">
        <ele>587</ele>
        <time>2019-03-16T16:42:52.000Z</time>
      </trkpt>
      <trkpt lat="43.660221" lon="-7.561402">
        <ele>586</ele>
        <time>2019-03-16T16:42:55.000Z</time>
      </trkpt>
      <trkpt lat="43.660166" lon="-7.561427">
        <ele>586</ele>
        <time>2019-03-16T16:42:57.000Z</time>
      </trkpt>
      <trkpt lat="43.660078" lon="-7.561467">
        <ele>585</ele>
        <time>2019-03-16T16:43:00.000Z</time>
      </trkpt>
      <trkpt lat="43.660019" lon="-7.561497">
        <ele>584</ele>
        <time>2019-03-16T16:43:02.000Z</time>
      </trkpt>
      <trkpt lat="43.659951" lon="-7.561535">
        <ele>584</ele>
        <time>2019-03-16T16:43:04.000Z</time>
      </trkpt>
      <trkpt lat="43.659888" lon="-7.561566">
        <ele>583</ele>
        <time>2019-03-16T16:43:06.000Z</time>
      </trkpt>
      <trkpt lat="43.659822" lon="-7.561602">
        <ele>584</ele>
        <time>2019-03-16T16:43:08.000Z</time>
      </trkpt>
      <trkpt lat="43.659683" lon="-7.561684">
        <ele>583</ele>
        <time>2019-03-16T16:43:11.000Z</time>
      </trkpt>
      <trkpt lat="43.659619" lon="-7.56173">
        <ele>581</ele>
        <time>2019-03-16T16:43:13.000Z</time>
      </trkpt>
      <trkpt lat="43.659573" lon="-7.561761">
        <ele>581</ele>
        <time>2019-03-16T16:43:14.000Z</time>
      </trkpt>
      <trkpt lat="43.65951" lon="-7.5618">
        <ele>580</ele>
        <time>2019-03-16T16:43:16.000Z</time>
      </trkpt>
      <trkpt lat="43.659442" lon="-7.561847">
        <ele>579</ele>
        <time>2019-03-16T16:43:18.000Z</time>
      </trkpt>
      <trkpt lat="43.659365" lon="-7.561901">
        <ele>577</ele>
        <time>2019-03-16T16:43:20.000Z</time>
      </trkpt>
      <trkpt lat="43.659301" lon="-7.561967">
        <ele>576</ele>
        <time>2019-03-16T16:43:22.000Z</time>
      </trkpt>
      <trkpt lat="43.659251" lon="-7.562036">
        <ele>576</ele>
        <time>2019-03-16T16:43:25.000Z</time>
      </trkpt>
      <trkpt lat="43.659207" lon="-7.56209">
        <ele>576</ele>
        <time>2019-03-16T16:43:27.000Z</time>
      </trkpt>
      <trkpt lat="43.659162" lon="-7.562141">
        <ele>576</ele>
        <time>2019-03-16T16:43:29.000Z</time>
      </trkpt>
      <trkpt lat="43.659118" lon="-7.562161">
        <ele>575</ele>
        <time>2019-03-16T16:43:31.000Z</time>
      </trkpt>
      <trkpt lat="43.659022" lon="-7.562106">
        <ele>575</ele>
        <time>2019-03-16T16:43:33.000Z</time>
      </trkpt>
      <trkpt lat="43.658969" lon="-7.562006">
        <ele>572</ele>
        <time>2019-03-16T16:43:36.000Z</time>
      </trkpt>
      <trkpt lat="43.658945" lon="-7.561926">
        <ele>571</ele>
        <time>2019-03-16T16:43:38.000Z</time>
      </trkpt>
      <trkpt lat="43.658915" lon="-7.561818">
        <ele>571</ele>
        <time>2019-03-16T16:43:41.000Z</time>
      </trkpt>
      <trkpt lat="43.658897" lon="-7.56174">
        <ele>571</ele>
        <time>2019-03-16T16:43:43.000Z</time>
      </trkpt>
      <trkpt lat="43.65888" lon="-7.561665">
        <ele>571</ele>
        <time>2019-03-16T16:43:45.000Z</time>
      </trkpt>
      <trkpt lat="43.658856" lon="-7.561544">
        <ele>570</ele>
        <time>2019-03-16T16:43:48.000Z</time>
      </trkpt>
      <trkpt lat="43.658826" lon="-7.561431">
        <ele>570</ele>
        <time>2019-03-16T16:43:51.000Z</time>
      </trkpt>
      <trkpt lat="43.658782" lon="-7.561301">
        <ele>569</ele>
        <time>2019-03-16T16:43:54.000Z</time>
      </trkpt>
      <trkpt lat="43.658704" lon="-7.561098">
        <ele>568</ele>
        <time>2019-03-16T16:43:57.000Z</time>
      </trkpt>
      <trkpt lat="43.658665" lon="-7.561013">
        <ele>567</ele>
        <time>2019-03-16T16:44:00.000Z</time>
      </trkpt>
      <trkpt lat="43.658622" lon="-7.560892">
        <ele>566</ele>
        <time>2019-03-16T16:44:03.000Z</time>
      </trkpt>
      <trkpt lat="43.658603" lon="-7.560807">
        <ele>566</ele>
        <time>2019-03-16T16:44:05.000Z</time>
      </trkpt>
      <trkpt lat="43.658593" lon="-7.560722">
        <ele>566</ele>
        <time>2019-03-16T16:44:07.000Z</time>
      </trkpt>
      <trkpt lat="43.658586" lon="-7.560633">
        <ele>566</ele>
        <time>2019-03-16T16:44:09.000Z</time>
      </trkpt>
      <trkpt lat="43.658593" lon="-7.560562">
        <ele>565</ele>
        <time>2019-03-16T16:44:11.000Z</time>
      </trkpt>
      <trkpt lat="43.658616" lon="-7.560483">
        <ele>565</ele>
        <time>2019-03-16T16:44:13.000Z</time>
      </trkpt>
      <trkpt lat="43.658646" lon="-7.560404">
        <ele>565</ele>
        <time>2019-03-16T16:44:15.000Z</time>
      </trkpt>
      <trkpt lat="43.658694" lon="-7.560287">
        <ele>565</ele>
        <time>2019-03-16T16:44:18.000Z</time>
      </trkpt>
      <trkpt lat="43.65873" lon="-7.56022">
        <ele>565</ele>
        <time>2019-03-16T16:44:20.000Z</time>
      </trkpt>
      <trkpt lat="43.658775" lon="-7.560151">
        <ele>565</ele>
        <time>2019-03-16T16:44:22.000Z</time>
      </trkpt>
      <trkpt lat="43.658816" lon="-7.560098">
        <ele>564</ele>
        <time>2019-03-16T16:44:24.000Z</time>
      </trkpt>
      <trkpt lat="43.658861" lon="-7.560052">
        <ele>564</ele>
        <time>2019-03-16T16:44:26.000Z</time>
      </trkpt>
      <trkpt lat="43.658917" lon="-7.560011">
        <ele>564</ele>
        <time>2019-03-16T16:44:28.000Z</time>
      </trkpt>
      <trkpt lat="43.658976" lon="-7.559982">
        <ele>564</ele>
        <time>2019-03-16T16:44:30.000Z</time>
      </trkpt>
      <trkpt lat="43.659038" lon="-7.55997">
        <ele>564</ele>
        <time>2019-03-16T16:44:32.000Z</time>
      </trkpt>
      <trkpt lat="43.659104" lon="-7.559963">
        <ele>563</ele>
        <time>2019-03-16T16:44:34.000Z</time>
      </trkpt>
      <trkpt lat="43.659265" lon="-7.55997">
        <ele>562</ele>
        <time>2019-03-16T16:44:39.000Z</time>
      </trkpt>
      <trkpt lat="43.659317" lon="-7.559969">
        <ele>562</ele>
        <time>2019-03-16T16:44:41.000Z</time>
      </trkpt>
      <trkpt lat="43.659379" lon="-7.559966">
        <ele>561</ele>
        <time>2019-03-16T16:44:43.000Z</time>
      </trkpt>
      <trkpt lat="43.65948" lon="-7.559948">
        <ele>561</ele>
        <time>2019-03-16T16:44:46.000Z</time>
      </trkpt>
      <trkpt lat="43.659546" lon="-7.55993">
        <ele>560</ele>
        <time>2019-03-16T16:44:48.000Z</time>
      </trkpt>
      <trkpt lat="43.659612" lon="-7.559902">
        <ele>560</ele>
        <time>2019-03-16T16:44:50.000Z</time>
      </trkpt>
      <trkpt lat="43.659675" lon="-7.55986">
        <ele>560</ele>
        <time>2019-03-16T16:44:52.000Z</time>
      </trkpt>
      <trkpt lat="43.659836" lon="-7.559725">
        <ele>558</ele>
        <time>2019-03-16T16:44:57.000Z</time>
      </trkpt>
      <trkpt lat="43.65995" lon="-7.559632">
        <ele>556</ele>
        <time>2019-03-16T16:45:01.000Z</time>
      </trkpt>
      <trkpt lat="43.660028" lon="-7.559575">
        <ele>555</ele>
        <time>2019-03-16T16:45:04.000Z</time>
      </trkpt>
      <trkpt lat="43.660102" lon="-7.559508">
        <ele>555</ele>
        <time>2019-03-16T16:45:08.000Z</time>
      </trkpt>
      <trkpt lat="43.660182" lon="-7.559433">
        <ele>554</ele>
        <time>2019-03-16T16:45:10.000Z</time>
      </trkpt>
      <trkpt lat="43.660236" lon="-7.559386">
        <ele>553</ele>
        <time>2019-03-16T16:45:12.000Z</time>
      </trkpt>
      <trkpt lat="43.660294" lon="-7.559339">
        <ele>553</ele>
        <time>2019-03-16T16:45:14.000Z</time>
      </trkpt>
      <trkpt lat="43.660368" lon="-7.559282">
        <ele>552</ele>
        <time>2019-03-16T16:45:16.000Z</time>
      </trkpt>
      <trkpt lat="43.660468" lon="-7.55921">
        <ele>551</ele>
        <time>2019-03-16T16:45:18.000Z</time>
      </trkpt>
      <trkpt lat="43.660512" lon="-7.559177">
        <ele>551</ele>
        <time>2019-03-16T16:45:20.000Z</time>
      </trkpt>
      <trkpt lat="43.660571" lon="-7.559136">
        <ele>550</ele>
        <time>2019-03-16T16:45:23.000Z</time>
      </trkpt>
      <trkpt lat="43.660625" lon="-7.559099">
        <ele>550</ele>
        <time>2019-03-16T16:45:25.000Z</time>
      </trkpt>
      <trkpt lat="43.6607" lon="-7.559051">
        <ele>549</ele>
        <time>2019-03-16T16:45:27.000Z</time>
      </trkpt>
      <trkpt lat="43.66084" lon="-7.558975">
        <ele>549</ele>
        <time>2019-03-16T16:45:30.000Z</time>
      </trkpt>
      <trkpt lat="43.660929" lon="-7.558946">
        <ele>548</ele>
        <time>2019-03-16T16:45:34.000Z</time>
      </trkpt>
      <trkpt lat="43.660987" lon="-7.558925">
        <ele>547</ele>
        <time>2019-03-16T16:45:36.000Z</time>
      </trkpt>
      <trkpt lat="43.661048" lon="-7.558904">
        <ele>547</ele>
        <time>2019-03-16T16:45:38.000Z</time>
      </trkpt>
      <trkpt lat="43.661106" lon="-7.558884">
        <ele>547</ele>
        <time>2019-03-16T16:45:40.000Z</time>
      </trkpt>
      <trkpt lat="43.661162" lon="-7.558864">
        <ele>547</ele>
        <time>2019-03-16T16:45:42.000Z</time>
      </trkpt>
      <trkpt lat="43.66122" lon="-7.558842">
        <ele>546</ele>
        <time>2019-03-16T16:45:44.000Z</time>
      </trkpt>
      <trkpt lat="43.661285" lon="-7.55882">
        <ele>546</ele>
        <time>2019-03-16T16:45:46.000Z</time>
      </trkpt>
      <trkpt lat="43.661346" lon="-7.558798">
        <ele>546</ele>
        <time>2019-03-16T16:45:48.000Z</time>
      </trkpt>
      <trkpt lat="43.661398" lon="-7.558781">
        <ele>545</ele>
        <time>2019-03-16T16:45:50.000Z</time>
      </trkpt>
      <trkpt lat="43.661454" lon="-7.55876">
        <ele>545</ele>
        <time>2019-03-16T16:45:52.000Z</time>
      </trkpt>
      <trkpt lat="43.661546" lon="-7.558727">
        <ele>544</ele>
        <time>2019-03-16T16:45:55.000Z</time>
      </trkpt>
      <trkpt lat="43.661632" lon="-7.558698">
        <ele>544</ele>
        <time>2019-03-16T16:45:58.000Z</time>
      </trkpt>
      <trkpt lat="43.66171" lon="-7.558673">
        <ele>542</ele>
        <time>2019-03-16T16:46:01.000Z</time>
      </trkpt>
      <trkpt lat="43.661838" lon="-7.558628">
        <ele>543</ele>
        <time>2019-03-16T16:46:03.000Z</time>
      </trkpt>
      <trkpt lat="43.661919" lon="-7.55861">
        <ele>541</ele>
        <time>2019-03-16T16:46:07.000Z</time>
      </trkpt>
      <trkpt lat="43.661986" lon="-7.558567">
        <ele>541</ele>
        <time>2019-03-16T16:46:10.000Z</time>
      </trkpt>
      <trkpt lat="43.662039" lon="-7.558526">
        <ele>541</ele>
        <time>2019-03-16T16:46:12.000Z</time>
      </trkpt>
      <trkpt lat="43.662104" lon="-7.558458">
        <ele>540</ele>
        <time>2019-03-16T16:46:15.000Z</time>
      </trkpt>
      <trkpt lat="43.662151" lon="-7.558406">
        <ele>540</ele>
        <time>2019-03-16T16:46:17.000Z</time>
      </trkpt>
      <trkpt lat="43.662237" lon="-7.55832">
        <ele>540</ele>
        <time>2019-03-16T16:46:20.000Z</time>
      </trkpt>
      <trkpt lat="43.662312" lon="-7.55824">
        <ele>539</ele>
        <time>2019-03-16T16:46:23.000Z</time>
      </trkpt>
      <trkpt lat="43.662359" lon="-7.5582">
        <ele>539</ele>
        <time>2019-03-16T16:46:25.000Z</time>
      </trkpt>
      <trkpt lat="43.662412" lon="-7.558169">
        <ele>539</ele>
        <time>2019-03-16T16:46:27.000Z</time>
      </trkpt>
      <trkpt lat="43.662472" lon="-7.558145">
        <ele>538</ele>
        <time>2019-03-16T16:46:29.000Z</time>
      </trkpt>
      <trkpt lat="43.662579" lon="-7.558126">
        <ele>538</ele>
        <time>2019-03-16T16:46:31.000Z</time>
      </trkpt>
      <trkpt lat="43.66263" lon="-7.558125">
        <ele>538</ele>
        <time>2019-03-16T16:46:33.000Z</time>
      </trkpt>
      <trkpt lat="43.662682" lon="-7.55813">
        <ele>538</ele>
        <time>2019-03-16T16:46:35.000Z</time>
      </trkpt>
      <trkpt lat="43.662776" lon="-7.558152">
        <ele>537</ele>
        <time>2019-03-16T16:46:38.000Z</time>
      </trkpt>
      <trkpt lat="43.662842" lon="-7.558172">
        <ele>537</ele>
        <time>2019-03-16T16:46:40.000Z</time>
      </trkpt>
      <trkpt lat="43.662906" lon="-7.558203">
        <ele>536</ele>
        <time>2019-03-16T16:46:42.000Z</time>
      </trkpt>
      <trkpt lat="43.662992" lon="-7.558254">
        <ele>535</ele>
        <time>2019-03-16T16:46:45.000Z</time>
      </trkpt>
      <trkpt lat="43.663035" lon="-7.558285">
        <ele>535</ele>
        <time>2019-03-16T16:46:47.000Z</time>
      </trkpt>
      <trkpt lat="43.663077" lon="-7.558311">
        <ele>534</ele>
        <time>2019-03-16T16:46:48.109Z</time>
      </trkpt>
      <trkpt lat="43.663127" lon="-7.558333">
        <ele>534</ele>
        <time>2019-03-16T16:46:50.000Z</time>
      </trkpt>
      <trkpt lat="43.663223" lon="-7.558341">
        <ele>533</ele>
        <time>2019-03-16T16:46:53.000Z</time>
      </trkpt>
      <trkpt lat="43.66328" lon="-7.558312">
        <ele>532</ele>
        <time>2019-03-16T16:46:55.000Z</time>
      </trkpt>
      <trkpt lat="43.663331" lon="-7.558258">
        <ele>531</ele>
        <time>2019-03-16T16:46:57.000Z</time>
      </trkpt>
      <trkpt lat="43.663373" lon="-7.558164">
        <ele>530</ele>
        <time>2019-03-16T16:47:00.000Z</time>
      </trkpt>
      <trkpt lat="43.66341" lon="-7.558044">
        <ele>529</ele>
        <time>2019-03-16T16:47:03.000Z</time>
      </trkpt>
      <trkpt lat="43.663441" lon="-7.557925">
        <ele>528</ele>
        <time>2019-03-16T16:47:06.000Z</time>
      </trkpt>
      <trkpt lat="43.66346" lon="-7.55784">
        <ele>527</ele>
        <time>2019-03-16T16:47:08.000Z</time>
      </trkpt>
      <trkpt lat="43.663486" lon="-7.557701">
        <ele>527</ele>
        <time>2019-03-16T16:47:11.000Z</time>
      </trkpt>
      <trkpt lat="43.663502" lon="-7.557626">
        <ele>526</ele>
        <time>2019-03-16T16:47:13.000Z</time>
      </trkpt>
      <trkpt lat="43.66357" lon="-7.557405">
        <ele>526</ele>
        <time>2019-03-16T16:47:16.000Z</time>
      </trkpt>
      <trkpt lat="43.663626" lon="-7.557328">
        <ele>524</ele>
        <time>2019-03-16T16:47:18.000Z</time>
      </trkpt>
      <trkpt lat="43.663677" lon="-7.557251">
        <ele>523</ele>
        <time>2019-03-16T16:47:21.000Z</time>
      </trkpt>
      <trkpt lat="43.66371" lon="-7.557204">
        <ele>521</ele>
        <time>2019-03-16T16:47:23.000Z</time>
      </trkpt>
      <trkpt lat="43.663761" lon="-7.557151">
        <ele>521</ele>
        <time>2019-03-16T16:47:25.000Z</time>
      </trkpt>
      <trkpt lat="43.663832" lon="-7.557103">
        <ele>519</ele>
        <time>2019-03-16T16:47:28.000Z</time>
      </trkpt>
      <trkpt lat="43.663894" lon="-7.557079">
        <ele>518</ele>
        <time>2019-03-16T16:47:30.000Z</time>
      </trkpt>
      <trkpt lat="43.663968" lon="-7.557067">
        <ele>517</ele>
        <time>2019-03-16T16:47:32.000Z</time>
      </trkpt>
      <trkpt lat="43.664057" lon="-7.557068">
        <ele>514</ele>
        <time>2019-03-16T16:47:35.000Z</time>
      </trkpt>
      <trkpt lat="43.664106" lon="-7.557078">
        <ele>514</ele>
        <time>2019-03-16T16:47:37.000Z</time>
      </trkpt>
      <trkpt lat="43.66417" lon="-7.557108">
        <ele>514</ele>
        <time>2019-03-16T16:47:39.000Z</time>
      </trkpt>
      <trkpt lat="43.664254" lon="-7.55716">
        <ele>513</ele>
        <time>2019-03-16T16:47:42.000Z</time>
      </trkpt>
      <trkpt lat="43.664298" lon="-7.557202">
        <ele>512</ele>
        <time>2019-03-16T16:47:44.000Z</time>
      </trkpt>
      <trkpt lat="43.664341" lon="-7.557261">
        <ele>511</ele>
        <time>2019-03-16T16:47:46.000Z</time>
      </trkpt>
      <trkpt lat="43.664384" lon="-7.557334">
        <ele>510</ele>
        <time>2019-03-16T16:47:48.000Z</time>
      </trkpt>
      <trkpt lat="43.664436" lon="-7.557454">
        <ele>510</ele>
        <time>2019-03-16T16:47:51.000Z</time>
      </trkpt>
      <trkpt lat="43.664465" lon="-7.557547">
        <ele>509</ele>
        <time>2019-03-16T16:47:53.000Z</time>
      </trkpt>
      <trkpt lat="43.66449" lon="-7.557634">
        <ele>508</ele>
        <time>2019-03-16T16:47:55.000Z</time>
      </trkpt>
      <trkpt lat="43.664512" lon="-7.557714">
        <ele>507</ele>
        <time>2019-03-16T16:47:57.000Z</time>
      </trkpt>
      <trkpt lat="43.664536" lon="-7.557792">
        <ele>507</ele>
        <time>2019-03-16T16:47:59.000Z</time>
      </trkpt>
      <trkpt lat="43.664564" lon="-7.557872">
        <ele>506</ele>
        <time>2019-03-16T16:48:01.000Z</time>
      </trkpt>
      <trkpt lat="43.664587" lon="-7.557943">
        <ele>505</ele>
        <time>2019-03-16T16:48:03.000Z</time>
      </trkpt>
      <trkpt lat="43.664634" lon="-7.558072">
        <ele>504</ele>
        <time>2019-03-16T16:48:06.000Z</time>
      </trkpt>
      <trkpt lat="43.664683" lon="-7.558174">
        <ele>503</ele>
        <time>2019-03-16T16:48:09.000Z</time>
      </trkpt>
      <trkpt lat="43.664731" lon="-7.558249">
        <ele>502</ele>
        <time>2019-03-16T16:48:11.000Z</time>
      </trkpt>
      <trkpt lat="43.66477" lon="-7.558299">
        <ele>502</ele>
        <time>2019-03-16T16:48:13.000Z</time>
      </trkpt>
      <trkpt lat="43.664813" lon="-7.55835">
        <ele>501</ele>
        <time>2019-03-16T16:48:15.000Z</time>
      </trkpt>
      <trkpt lat="43.66486" lon="-7.558402">
        <ele>501</ele>
        <time>2019-03-16T16:48:17.000Z</time>
      </trkpt>
      <trkpt lat="43.66494" lon="-7.558491">
        <ele>500</ele>
        <time>2019-03-16T16:48:20.000Z</time>
      </trkpt>
      <trkpt lat="43.665023" lon="-7.55857">
        <ele>500</ele>
        <time>2019-03-16T16:48:23.000Z</time>
      </trkpt>
      <trkpt lat="43.66511" lon="-7.55865">
        <ele>500</ele>
        <time>2019-03-16T16:48:26.000Z</time>
      </trkpt>
      <trkpt lat="43.665162" lon="-7.558694">
        <ele>499</ele>
        <time>2019-03-16T16:48:28.000Z</time>
      </trkpt>
      <trkpt lat="43.665211" lon="-7.558739">
        <ele>499</ele>
        <time>2019-03-16T16:48:30.000Z</time>
      </trkpt>
      <trkpt lat="43.665254" lon="-7.55878">
        <ele>498</ele>
        <time>2019-03-16T16:48:32.000Z</time>
      </trkpt>
      <trkpt lat="43.665293" lon="-7.558819">
        <ele>497</ele>
        <time>2019-03-16T16:48:34.000Z</time>
      </trkpt>
      <trkpt lat="43.665341" lon="-7.558869">
        <ele>496</ele>
        <time>2019-03-16T16:48:36.000Z</time>
      </trkpt>
      <trkpt lat="43.665397" lon="-7.55892">
        <ele>495</ele>
        <time>2019-03-16T16:48:38.000Z</time>
      </trkpt>
      <trkpt lat="43.665477" lon="-7.559014">
        <ele>493</ele>
        <time>2019-03-16T16:48:41.000Z</time>
      </trkpt>
      <trkpt lat="43.665515" lon="-7.559083">
        <ele>493</ele>
        <time>2019-03-16T16:48:43.000Z</time>
      </trkpt>
      <trkpt lat="43.665544" lon="-7.559159">
        <ele>492</ele>
        <time>2019-03-16T16:48:45.000Z</time>
      </trkpt>
      <trkpt lat="43.665569" lon="-7.559238">
        <ele>492</ele>
        <time>2019-03-16T16:48:47.000Z</time>
      </trkpt>
      <trkpt lat="43.665592" lon="-7.559318">
        <ele>492</ele>
        <time>2019-03-16T16:48:49.000Z</time>
      </trkpt>
      <trkpt lat="43.665617" lon="-7.559403">
        <ele>491</ele>
        <time>2019-03-16T16:48:51.000Z</time>
      </trkpt>
      <trkpt lat="43.665638" lon="-7.559483">
        <ele>490</ele>
        <time>2019-03-16T16:48:53.000Z</time>
      </trkpt>
      <trkpt lat="43.665654" lon="-7.559556">
        <ele>489</ele>
        <time>2019-03-16T16:48:55.000Z</time>
      </trkpt>
      <trkpt lat="43.665664" lon="-7.559635">
        <ele>488</ele>
        <time>2019-03-16T16:48:57.000Z</time>
      </trkpt>
      <trkpt lat="43.665669" lon="-7.559742">
        <ele>486</ele>
        <time>2019-03-16T16:49:00.000Z</time>
      </trkpt>
      <trkpt lat="43.665587" lon="-7.560022">
        <ele>481</ele>
        <time>2019-03-16T16:49:04.000Z</time>
      </trkpt>
      <trkpt lat="43.665531" lon="-7.560127">
        <ele>480</ele>
        <time>2019-03-16T16:49:07.000Z</time>
      </trkpt>
      <trkpt lat="43.665481" lon="-7.560232">
        <ele>478</ele>
        <time>2019-03-16T16:49:10.000Z</time>
      </trkpt>
      <trkpt lat="43.665432" lon="-7.560341">
        <ele>478</ele>
        <time>2019-03-16T16:49:13.000Z</time>
      </trkpt>
      <trkpt lat="43.665398" lon="-7.560452">
        <ele>476</ele>
        <time>2019-03-16T16:49:16.000Z</time>
      </trkpt>
      <trkpt lat="43.665379" lon="-7.56053">
        <ele>476</ele>
        <time>2019-03-16T16:49:18.000Z</time>
      </trkpt>
      <trkpt lat="43.665365" lon="-7.560606">
        <ele>476</ele>
        <time>2019-03-16T16:49:20.000Z</time>
      </trkpt>
      <trkpt lat="43.665338" lon="-7.560737">
        <ele>475</ele>
        <time>2019-03-16T16:49:23.000Z</time>
      </trkpt>
      <trkpt lat="43.665317" lon="-7.560849">
        <ele>474</ele>
        <time>2019-03-16T16:49:26.000Z</time>
      </trkpt>
      <trkpt lat="43.665299" lon="-7.560976">
        <ele>473</ele>
        <time>2019-03-16T16:49:29.000Z</time>
      </trkpt>
      <trkpt lat="43.665284" lon="-7.561045">
        <ele>473</ele>
        <time>2019-03-16T16:49:31.000Z</time>
      </trkpt>
      <trkpt lat="43.665261" lon="-7.561114">
        <ele>472</ele>
        <time>2019-03-16T16:49:33.000Z</time>
      </trkpt>
      <trkpt lat="43.665229" lon="-7.561226">
        <ele>471</ele>
        <time>2019-03-16T16:49:36.000Z</time>
      </trkpt>
      <trkpt lat="43.665199" lon="-7.561339">
        <ele>471</ele>
        <time>2019-03-16T16:49:39.000Z</time>
      </trkpt>
      <trkpt lat="43.665175" lon="-7.561418">
        <ele>472</ele>
        <time>2019-03-16T16:49:41.000Z</time>
      </trkpt>
      <trkpt lat="43.665137" lon="-7.561538">
        <ele>471</ele>
        <time>2019-03-16T16:49:44.000Z</time>
      </trkpt>
      <trkpt lat="43.66511" lon="-7.561617">
        <ele>471</ele>
        <time>2019-03-16T16:49:46.000Z</time>
      </trkpt>
      <trkpt lat="43.665079" lon="-7.561736">
        <ele>471</ele>
        <time>2019-03-16T16:49:49.000Z</time>
      </trkpt>
      <trkpt lat="43.665062" lon="-7.561812">
        <ele>470</ele>
        <time>2019-03-16T16:49:51.000Z</time>
      </trkpt>
      <trkpt lat="43.665044" lon="-7.561931">
        <ele>470</ele>
        <time>2019-03-16T16:49:54.000Z</time>
      </trkpt>
      <trkpt lat="43.665034" lon="-7.56201">
        <ele>470</ele>
        <time>2019-03-16T16:49:56.000Z</time>
      </trkpt>
      <trkpt lat="43.665023" lon="-7.562094">
        <ele>470</ele>
        <time>2019-03-16T16:49:58.000Z</time>
      </trkpt>
      <trkpt lat="43.665007" lon="-7.562215">
        <ele>469</ele>
        <time>2019-03-16T16:50:01.000Z</time>
      </trkpt>
      <trkpt lat="43.664995" lon="-7.562339">
        <ele>469</ele>
        <time>2019-03-16T16:50:04.000Z</time>
      </trkpt>
      <trkpt lat="43.664989" lon="-7.562416">
        <ele>469</ele>
        <time>2019-03-16T16:50:06.000Z</time>
      </trkpt>
      <trkpt lat="43.66498" lon="-7.562484">
        <ele>468</ele>
        <time>2019-03-16T16:50:08.000Z</time>
      </trkpt>
      <trkpt lat="43.664972" lon="-7.562608">
        <ele>469</ele>
        <time>2019-03-16T16:50:11.000Z</time>
      </trkpt>
      <trkpt lat="43.664958" lon="-7.562738">
        <ele>467</ele>
        <time>2019-03-16T16:50:14.000Z</time>
      </trkpt>
      <trkpt lat="43.664946" lon="-7.562871">
        <ele>468</ele>
        <time>2019-03-16T16:50:17.000Z</time>
      </trkpt>
      <trkpt lat="43.664937" lon="-7.562956">
        <ele>468</ele>
        <time>2019-03-16T16:50:19.000Z</time>
      </trkpt>
      <trkpt lat="43.664925" lon="-7.563045">
        <ele>468</ele>
        <time>2019-03-16T16:50:21.000Z</time>
      </trkpt>
      <trkpt lat="43.66491" lon="-7.563141">
        <ele>468</ele>
        <time>2019-03-16T16:50:23.000Z</time>
      </trkpt>
      <trkpt lat="43.664896" lon="-7.563247">
        <ele>467</ele>
        <time>2019-03-16T16:50:25.000Z</time>
      </trkpt>
      <trkpt lat="43.664884" lon="-7.563348">
        <ele>466</ele>
        <time>2019-03-16T16:50:27.000Z</time>
      </trkpt>
      <trkpt lat="43.664875" lon="-7.563489">
        <ele>465</ele>
        <time>2019-03-16T16:50:30.000Z</time>
      </trkpt>
      <trkpt lat="43.664875" lon="-7.563575">
        <ele>464</ele>
        <time>2019-03-16T16:50:32.000Z</time>
      </trkpt>
      <trkpt lat="43.664868" lon="-7.563664">
        <ele>464</ele>
        <time>2019-03-16T16:50:34.000Z</time>
      </trkpt>
      <trkpt lat="43.664847" lon="-7.563798">
        <ele>463</ele>
        <time>2019-03-16T16:50:37.000Z</time>
      </trkpt>
      <trkpt lat="43.664832" lon="-7.563892">
        <ele>463</ele>
        <time>2019-03-16T16:50:39.000Z</time>
      </trkpt>
      <trkpt lat="43.664823" lon="-7.56398">
        <ele>463</ele>
        <time>2019-03-16T16:50:41.000Z</time>
      </trkpt>
      <trkpt lat="43.664824" lon="-7.564064">
        <ele>463</ele>
        <time>2019-03-16T16:50:43.000Z</time>
      </trkpt>
      <trkpt lat="43.664829" lon="-7.564187">
        <ele>463</ele>
        <time>2019-03-16T16:50:46.000Z</time>
      </trkpt>
      <trkpt lat="43.664828" lon="-7.564268">
        <ele>462</ele>
        <time>2019-03-16T16:50:48.000Z</time>
      </trkpt>
      <trkpt lat="43.664809" lon="-7.564397">
        <ele>460</ele>
        <time>2019-03-16T16:50:51.000Z</time>
      </trkpt>
      <trkpt lat="43.664785" lon="-7.56449">
        <ele>459</ele>
        <time>2019-03-16T16:50:53.000Z</time>
      </trkpt>
      <trkpt lat="43.66476" lon="-7.564576">
        <ele>459</ele>
        <time>2019-03-16T16:50:55.000Z</time>
      </trkpt>
      <trkpt lat="43.664731" lon="-7.564668">
        <ele>457</ele>
        <time>2019-03-16T16:50:57.000Z</time>
      </trkpt>
      <trkpt lat="43.664686" lon="-7.564791">
        <ele>456</ele>
        <time>2019-03-16T16:51:00.000Z</time>
      </trkpt>
      <trkpt lat="43.664638" lon="-7.564914">
        <ele>455</ele>
        <time>2019-03-16T16:51:03.000Z</time>
      </trkpt>
      <trkpt lat="43.664608" lon="-7.564993">
        <ele>455</ele>
        <time>2019-03-16T16:51:05.000Z</time>
      </trkpt>
      <trkpt lat="43.664579" lon="-7.565074">
        <ele>454</ele>
        <time>2019-03-16T16:51:07.000Z</time>
      </trkpt>
      <trkpt lat="43.664551" lon="-7.565152">
        <ele>454</ele>
        <time>2019-03-16T16:51:09.000Z</time>
      </trkpt>
      <trkpt lat="43.664526" lon="-7.565228">
        <ele>454</ele>
        <time>2019-03-16T16:51:11.000Z</time>
      </trkpt>
      <trkpt lat="43.664503" lon="-7.565306">
        <ele>453</ele>
        <time>2019-03-16T16:51:13.000Z</time>
      </trkpt>
      <trkpt lat="43.664479" lon="-7.565385">
        <ele>453</ele>
        <time>2019-03-16T16:51:15.000Z</time>
      </trkpt>
      <trkpt lat="43.664452" lon="-7.565463">
        <ele>453</ele>
        <time>2019-03-16T16:51:17.000Z</time>
      </trkpt>
      <trkpt lat="43.664425" lon="-7.565538">
        <ele>452</ele>
        <time>2019-03-16T16:51:19.000Z</time>
      </trkpt>
      <trkpt lat="43.664386" lon="-7.565656">
        <ele>452</ele>
        <time>2019-03-16T16:51:22.000Z</time>
      </trkpt>
      <trkpt lat="43.664365" lon="-7.565739">
        <ele>451</ele>
        <time>2019-03-16T16:51:24.000Z</time>
      </trkpt>
      <trkpt lat="43.664342" lon="-7.565817">
        <ele>450</ele>
        <time>2019-03-16T16:51:26.000Z</time>
      </trkpt>
      <trkpt lat="43.664302" lon="-7.565931">
        <ele>450</ele>
        <time>2019-03-16T16:51:29.000Z</time>
      </trkpt>
      <trkpt lat="43.664263" lon="-7.566048">
        <ele>449</ele>
        <time>2019-03-16T16:51:32.000Z</time>
      </trkpt>
      <trkpt lat="43.664229" lon="-7.566174">
        <ele>449</ele>
        <time>2019-03-16T16:51:35.000Z</time>
      </trkpt>
      <trkpt lat="43.664205" lon="-7.566259">
        <ele>449</ele>
        <time>2019-03-16T16:51:37.000Z</time>
      </trkpt>
      <trkpt lat="43.664183" lon="-7.566345">
        <ele>449</ele>
        <time>2019-03-16T16:51:39.000Z</time>
      </trkpt>
      <trkpt lat="43.66416" lon="-7.566429">
        <ele>448</ele>
        <time>2019-03-16T16:51:41.000Z</time>
      </trkpt>
      <trkpt lat="43.66414" lon="-7.566507">
        <ele>448</ele>
        <time>2019-03-16T16:51:43.000Z</time>
      </trkpt>
      <trkpt lat="43.664109" lon="-7.56662">
        <ele>448</ele>
        <time>2019-03-16T16:51:46.000Z</time>
      </trkpt>
      <trkpt lat="43.664088" lon="-7.566709">
        <ele>448</ele>
        <time>2019-03-16T16:51:48.000Z</time>
      </trkpt>
      <trkpt lat="43.664061" lon="-7.56685">
        <ele>446</ele>
        <time>2019-03-16T16:51:51.000Z</time>
      </trkpt>
      <trkpt lat="43.66405" lon="-7.566937">
        <ele>446</ele>
        <time>2019-03-16T16:51:53.000Z</time>
      </trkpt>
      <trkpt lat="43.664041" lon="-7.567021">
        <ele>446</ele>
        <time>2019-03-16T16:51:55.000Z</time>
      </trkpt>
      <trkpt lat="43.664035" lon="-7.56709">
        <ele>444</ele>
        <time>2019-03-16T16:51:57.000Z</time>
      </trkpt>
      <trkpt lat="43.664026" lon="-7.567166">
        <ele>444</ele>
        <time>2019-03-16T16:51:59.000Z</time>
      </trkpt>
      <trkpt lat="43.664005" lon="-7.567291">
        <ele>443</ele>
        <time>2019-03-16T16:52:02.000Z</time>
      </trkpt>
      <trkpt lat="43.663988" lon="-7.567379">
        <ele>443</ele>
        <time>2019-03-16T16:52:04.000Z</time>
      </trkpt>
      <trkpt lat="43.663974" lon="-7.567466">
        <ele>443</ele>
        <time>2019-03-16T16:52:06.000Z</time>
      </trkpt>
      <trkpt lat="43.663963" lon="-7.56755">
        <ele>442</ele>
        <time>2019-03-16T16:52:08.000Z</time>
      </trkpt>
      <trkpt lat="43.663946" lon="-7.567627">
        <ele>443</ele>
        <time>2019-03-16T16:52:10.000Z</time>
      </trkpt>
      <trkpt lat="43.663929" lon="-7.567712">
        <ele>443</ele>
        <time>2019-03-16T16:52:12.000Z</time>
      </trkpt>
      <trkpt lat="43.663911" lon="-7.567791">
        <ele>442</ele>
        <time>2019-03-16T16:52:14.000Z</time>
      </trkpt>
      <trkpt lat="43.663895" lon="-7.567872">
        <ele>442</ele>
        <time>2019-03-16T16:52:16.000Z</time>
      </trkpt>
      <trkpt lat="43.663866" lon="-7.568005">
        <ele>441</ele>
        <time>2019-03-16T16:52:19.000Z</time>
      </trkpt>
      <trkpt lat="43.663847" lon="-7.568081">
        <ele>440</ele>
        <time>2019-03-16T16:52:21.000Z</time>
      </trkpt>
      <trkpt lat="43.663812" lon="-7.568214">
        <ele>440</ele>
        <time>2019-03-16T16:52:24.000Z</time>
      </trkpt>
      <trkpt lat="43.663789" lon="-7.568302">
        <ele>439</ele>
        <time>2019-03-16T16:52:26.000Z</time>
      </trkpt>
      <trkpt lat="43.663764" lon="-7.568383">
        <ele>438</ele>
        <time>2019-03-16T16:52:28.000Z</time>
      </trkpt>
      <trkpt lat="43.663726" lon="-7.568498">
        <ele>436</ele>
        <time>2019-03-16T16:52:31.000Z</time>
      </trkpt>
      <trkpt lat="43.663696" lon="-7.568568">
        <ele>436</ele>
        <time>2019-03-16T16:52:33.000Z</time>
      </trkpt>
      <trkpt lat="43.663664" lon="-7.568627">
        <ele>435</ele>
        <time>2019-03-16T16:52:35.000Z</time>
      </trkpt>
      <trkpt lat="43.663622" lon="-7.568693">
        <ele>435</ele>
        <time>2019-03-16T16:52:37.000Z</time>
      </trkpt>
      <trkpt lat="43.663587" lon="-7.568742">
        <ele>435</ele>
        <time>2019-03-16T16:52:39.000Z</time>
      </trkpt>
      <trkpt lat="43.663554" lon="-7.568792">
        <ele>435</ele>
        <time>2019-03-16T16:52:41.000Z</time>
      </trkpt>
      <trkpt lat="43.663518" lon="-7.568843">
        <ele>434</ele>
        <time>2019-03-16T16:52:43.000Z</time>
      </trkpt>
      <trkpt lat="43.663475" lon="-7.568889">
        <ele>434</ele>
        <time>2019-03-16T16:52:45.000Z</time>
      </trkpt>
      <trkpt lat="43.663428" lon="-7.568931">
        <ele>434</ele>
        <time>2019-03-16T16:52:47.000Z</time>
      </trkpt>
      <trkpt lat="43.663377" lon="-7.56897">
        <ele>434</ele>
        <time>2019-03-16T16:52:49.000Z</time>
      </trkpt>
      <trkpt lat="43.663324" lon="-7.569005">
        <ele>434</ele>
        <time>2019-03-16T16:52:51.000Z</time>
      </trkpt>
      <trkpt lat="43.663276" lon="-7.569043">
        <ele>434</ele>
        <time>2019-03-16T16:52:53.000Z</time>
      </trkpt>
      <trkpt lat="43.663226" lon="-7.569082">
        <ele>433</ele>
        <time>2019-03-16T16:52:55.000Z</time>
      </trkpt>
      <trkpt lat="43.663166" lon="-7.569119">
        <ele>432</ele>
        <time>2019-03-16T16:52:57.000Z</time>
      </trkpt>
      <trkpt lat="43.663104" lon="-7.569158">
        <ele>432</ele>
        <time>2019-03-16T16:52:59.000Z</time>
      </trkpt>
      <trkpt lat="43.663042" lon="-7.569197">
        <ele>431</ele>
        <time>2019-03-16T16:53:01.000Z</time>
      </trkpt>
      <trkpt lat="43.662979" lon="-7.569228">
        <ele>431</ele>
        <time>2019-03-16T16:53:03.000Z</time>
      </trkpt>
      <trkpt lat="43.662892" lon="-7.569256">
        <ele>431</ele>
        <time>2019-03-16T16:53:06.000Z</time>
      </trkpt>
      <trkpt lat="43.662839" lon="-7.569261">
        <ele>431</ele>
        <time>2019-03-16T16:53:08.000Z</time>
      </trkpt>
      <trkpt lat="43.66278" lon="-7.56926">
        <ele>431</ele>
        <time>2019-03-16T16:53:10.000Z</time>
      </trkpt>
      <trkpt lat="43.662719" lon="-7.569254">
        <ele>430</ele>
        <time>2019-03-16T16:53:12.000Z</time>
      </trkpt>
      <trkpt lat="43.662657" lon="-7.569246">
        <ele>430</ele>
        <time>2019-03-16T16:53:14.000Z</time>
      </trkpt>
      <trkpt lat="43.662558" lon="-7.56923">
        <ele>429</ele>
        <time>2019-03-16T16:53:17.000Z</time>
      </trkpt>
      <trkpt lat="43.662495" lon="-7.569221">
        <ele>429</ele>
        <time>2019-03-16T16:53:19.000Z</time>
      </trkpt>
      <trkpt lat="43.662441" lon="-7.569215">
        <ele>428</ele>
        <time>2019-03-16T16:53:21.000Z</time>
      </trkpt>
      <trkpt lat="43.662393" lon="-7.569205">
        <ele>427</ele>
        <time>2019-03-16T16:53:23.000Z</time>
      </trkpt>
      <trkpt lat="43.662336" lon="-7.569192">
        <ele>427</ele>
        <time>2019-03-16T16:53:25.000Z</time>
      </trkpt>
      <trkpt lat="43.662264" lon="-7.569169">
        <ele>426</ele>
        <time>2019-03-16T16:53:28.000Z</time>
      </trkpt>
      <trkpt lat="43.662214" lon="-7.569148">
        <ele>425</ele>
        <time>2019-03-16T16:53:30.000Z</time>
      </trkpt>
      <trkpt lat="43.662156" lon="-7.569126">
        <ele>425</ele>
        <time>2019-03-16T16:53:32.000Z</time>
      </trkpt>
      <trkpt lat="43.662097" lon="-7.569107">
        <ele>425</ele>
        <time>2019-03-16T16:53:34.000Z</time>
      </trkpt>
      <trkpt lat="43.662006" lon="-7.569067">
        <ele>424</ele>
        <time>2019-03-16T16:53:37.000Z</time>
      </trkpt>
      <trkpt lat="43.661948" lon="-7.569041">
        <ele>423</ele>
        <time>2019-03-16T16:53:39.000Z</time>
      </trkpt>
      <trkpt lat="43.66188" lon="-7.56902">
        <ele>423</ele>
        <time>2019-03-16T16:53:41.000Z</time>
      </trkpt>
      <trkpt lat="43.661825" lon="-7.569036">
        <ele>423</ele>
        <time>2019-03-16T16:53:43.000Z</time>
      </trkpt>
      <trkpt lat="43.661798" lon="-7.569089">
        <ele>421</ele>
        <time>2019-03-16T16:53:45.000Z</time>
      </trkpt>
      <trkpt lat="43.661792" lon="-7.569163">
        <ele>420</ele>
        <time>2019-03-16T16:53:47.000Z</time>
      </trkpt>
      <trkpt lat="43.661812" lon="-7.569254">
        <ele>418</ele>
        <time>2019-03-16T16:53:50.000Z</time>
      </trkpt>
      <trkpt lat="43.661835" lon="-7.569313">
        <ele>417</ele>
        <time>2019-03-16T16:53:52.000Z</time>
      </trkpt>
      <trkpt lat="43.661867" lon="-7.569374">
        <ele>417</ele>
        <time>2019-03-16T16:53:54.000Z</time>
      </trkpt>
      <trkpt lat="43.661927" lon="-7.56947">
        <ele>415</ele>
        <time>2019-03-16T16:53:57.000Z</time>
      </trkpt>
      <trkpt lat="43.66199" lon="-7.569556">
        <ele>415</ele>
        <time>2019-03-16T16:54:00.000Z</time>
      </trkpt>
      <trkpt lat="43.662032" lon="-7.569611">
        <ele>415</ele>
        <time>2019-03-16T16:54:02.000Z</time>
      </trkpt>
      <trkpt lat="43.662071" lon="-7.569653">
        <ele>415</ele>
        <time>2019-03-16T16:54:04.000Z</time>
      </trkpt>
      <trkpt lat="43.662121" lon="-7.569694">
        <ele>415</ele>
        <time>2019-03-16T16:54:06.000Z</time>
      </trkpt>
      <trkpt lat="43.662162" lon="-7.56973">
        <ele>415</ele>
        <time>2019-03-16T16:54:08.000Z</time>
      </trkpt>
      <trkpt lat="43.662206" lon="-7.569775">
        <ele>414</ele>
        <time>2019-03-16T16:54:10.000Z</time>
      </trkpt>
      <trkpt lat="43.662259" lon="-7.569829">
        <ele>414</ele>
        <time>2019-03-16T16:54:12.000Z</time>
      </trkpt>
      <trkpt lat="43.662312" lon="-7.569878">
        <ele>414</ele>
        <time>2019-03-16T16:54:14.000Z</time>
      </trkpt>
      <trkpt lat="43.662359" lon="-7.569915">
        <ele>413</ele>
        <time>2019-03-16T16:54:16.000Z</time>
      </trkpt>
      <trkpt lat="43.662401" lon="-7.569951">
        <ele>412</ele>
        <time>2019-03-16T16:54:18.000Z</time>
      </trkpt>
      <trkpt lat="43.662443" lon="-7.569991">
        <ele>412</ele>
        <time>2019-03-16T16:54:20.000Z</time>
      </trkpt>
      <trkpt lat="43.662517" lon="-7.570048">
        <ele>411</ele>
        <time>2019-03-16T16:54:23.000Z</time>
      </trkpt>
      <trkpt lat="43.662579" lon="-7.570096">
        <ele>410</ele>
        <time>2019-03-16T16:54:25.000Z</time>
      </trkpt>
      <trkpt lat="43.662622" lon="-7.570132">
        <ele>410</ele>
        <time>2019-03-16T16:54:27.000Z</time>
      </trkpt>
      <trkpt lat="43.662682" lon="-7.570204">
        <ele>410</ele>
        <time>2019-03-16T16:54:30.000Z</time>
      </trkpt>
      <trkpt lat="43.66272" lon="-7.570276">
        <ele>409</ele>
        <time>2019-03-16T16:54:33.000Z</time>
      </trkpt>
      <trkpt lat="43.662736" lon="-7.570344">
        <ele>407</ele>
        <time>2019-03-16T16:54:35.000Z</time>
      </trkpt>
      <trkpt lat="43.662748" lon="-7.570449">
        <ele>406</ele>
        <time>2019-03-16T16:54:38.000Z</time>
      </trkpt>
      <trkpt lat="43.662763" lon="-7.570567">
        <ele>405</ele>
        <time>2019-03-16T16:54:41.000Z</time>
      </trkpt>
      <trkpt lat="43.662769" lon="-7.570653">
        <ele>405</ele>
        <time>2019-03-16T16:54:43.000Z</time>
      </trkpt>
      <trkpt lat="43.662775" lon="-7.570796">
        <ele>404</ele>
        <time>2019-03-16T16:54:46.000Z</time>
      </trkpt>
      <trkpt lat="43.662735" lon="-7.571127">
        <ele>402</ele>
        <time>2019-03-16T16:54:51.000Z</time>
      </trkpt>
      <trkpt lat="43.662731" lon="-7.571229">
        <ele>401</ele>
        <time>2019-03-16T16:54:54.000Z</time>
      </trkpt>
      <trkpt lat="43.662724" lon="-7.571302">
        <ele>400</ele>
        <time>2019-03-16T16:54:56.000Z</time>
      </trkpt>
      <trkpt lat="43.662721" lon="-7.571437">
        <ele>400</ele>
        <time>2019-03-16T16:54:59.000Z</time>
      </trkpt>
      <trkpt lat="43.662743" lon="-7.571567">
        <ele>398</ele>
        <time>2019-03-16T16:55:02.000Z</time>
      </trkpt>
      <trkpt lat="43.662771" lon="-7.571715">
        <ele>397</ele>
        <time>2019-03-16T16:55:05.000Z</time>
      </trkpt>
      <trkpt lat="43.662793" lon="-7.57179">
        <ele>396</ele>
        <time>2019-03-16T16:55:07.000Z</time>
      </trkpt>
      <trkpt lat="43.662833" lon="-7.571927">
        <ele>395</ele>
        <time>2019-03-16T16:55:10.000Z</time>
      </trkpt>
      <trkpt lat="43.662854" lon="-7.572004">
        <ele>394</ele>
        <time>2019-03-16T16:55:12.000Z</time>
      </trkpt>
      <trkpt lat="43.662876" lon="-7.572088">
        <ele>393</ele>
        <time>2019-03-16T16:55:14.000Z</time>
      </trkpt>
      <trkpt lat="43.662895" lon="-7.572169">
        <ele>393</ele>
        <time>2019-03-16T16:55:16.000Z</time>
      </trkpt>
      <trkpt lat="43.66291" lon="-7.572244">
        <ele>392</ele>
        <time>2019-03-16T16:55:18.000Z</time>
      </trkpt>
      <trkpt lat="43.66292" lon="-7.572313">
        <ele>392</ele>
        <time>2019-03-16T16:55:20.000Z</time>
      </trkpt>
      <trkpt lat="43.662928" lon="-7.572379">
        <ele>392</ele>
        <time>2019-03-16T16:55:22.000Z</time>
      </trkpt>
      <trkpt lat="43.662925" lon="-7.57247">
        <ele>392</ele>
        <time>2019-03-16T16:55:25.000Z</time>
      </trkpt>
      <trkpt lat="43.662903" lon="-7.57259">
        <ele>392</ele>
        <time>2019-03-16T16:55:29.000Z</time>
      </trkpt>
      <trkpt lat="43.662884" lon="-7.572649">
        <ele>393</ele>
        <time>2019-03-16T16:55:31.000Z</time>
      </trkpt>
      <trkpt lat="43.66286" lon="-7.572711">
        <ele>393</ele>
        <time>2019-03-16T16:55:33.000Z</time>
      </trkpt>
      <trkpt lat="43.662828" lon="-7.572803">
        <ele>393</ele>
        <time>2019-03-16T16:55:36.000Z</time>
      </trkpt>
      <trkpt lat="43.662792" lon="-7.57289">
        <ele>393</ele>
        <time>2019-03-16T16:55:39.000Z</time>
      </trkpt>
      <trkpt lat="43.66277" lon="-7.572956">
        <ele>393</ele>
        <time>2019-03-16T16:55:41.000Z</time>
      </trkpt>
      <trkpt lat="43.662744" lon="-7.573023">
        <ele>394</ele>
        <time>2019-03-16T16:55:43.000Z</time>
      </trkpt>
      <trkpt lat="43.662716" lon="-7.573091">
        <ele>394</ele>
        <time>2019-03-16T16:55:45.000Z</time>
      </trkpt>
      <trkpt lat="43.662687" lon="-7.573161">
        <ele>395</ele>
        <time>2019-03-16T16:55:47.000Z</time>
      </trkpt>
      <trkpt lat="43.662651" lon="-7.573254">
        <ele>394</ele>
        <time>2019-03-16T16:55:50.000Z</time>
      </trkpt>
      <trkpt lat="43.662626" lon="-7.57332">
        <ele>395</ele>
        <time>2019-03-16T16:55:52.000Z</time>
      </trkpt>
      <trkpt lat="43.662594" lon="-7.573425">
        <ele>396</ele>
        <time>2019-03-16T16:55:55.000Z</time>
      </trkpt>
      <trkpt lat="43.66258" lon="-7.573504">
        <ele>396</ele>
        <time>2019-03-16T16:55:57.000Z</time>
      </trkpt>
      <trkpt lat="43.662573" lon="-7.573599">
        <ele>397</ele>
        <time>2019-03-16T16:56:00.000Z</time>
      </trkpt>
      <trkpt lat="43.662572" lon="-7.573667">
        <ele>398</ele>
        <time>2019-03-16T16:56:02.000Z</time>
      </trkpt>
      <trkpt lat="43.662567" lon="-7.573739">
        <ele>398</ele>
        <time>2019-03-16T16:56:04.000Z</time>
      </trkpt>
      <trkpt lat="43.662559" lon="-7.573819">
        <ele>397</ele>
        <time>2019-03-16T16:56:06.000Z</time>
      </trkpt>
      <trkpt lat="43.662544" lon="-7.573895">
        <ele>398</ele>
        <time>2019-03-16T16:56:08.000Z</time>
      </trkpt>
      <trkpt lat="43.66252" lon="-7.573986">
        <ele>398</ele>
        <time>2019-03-16T16:56:11.000Z</time>
      </trkpt>
      <trkpt lat="43.662487" lon="-7.574086">
        <ele>398</ele>
        <time>2019-03-16T16:56:14.000Z</time>
      </trkpt>
      <trkpt lat="43.662457" lon="-7.574147">
        <ele>399</ele>
        <time>2019-03-16T16:56:16.000Z</time>
      </trkpt>
      <trkpt lat="43.662428" lon="-7.574209">
        <ele>400</ele>
        <time>2019-03-16T16:56:18.000Z</time>
      </trkpt>
      <trkpt lat="43.662397" lon="-7.574264">
        <ele>400</ele>
        <time>2019-03-16T16:56:20.000Z</time>
      </trkpt>
      <trkpt lat="43.662366" lon="-7.574318">
        <ele>401</ele>
        <time>2019-03-16T16:56:22.000Z</time>
      </trkpt>
      <trkpt lat="43.662336" lon="-7.57438">
        <ele>402</ele>
        <time>2019-03-16T16:56:24.000Z</time>
      </trkpt>
      <trkpt lat="43.662306" lon="-7.574445">
        <ele>402</ele>
        <time>2019-03-16T16:56:26.000Z</time>
      </trkpt>
      <trkpt lat="43.662279" lon="-7.574504">
        <ele>402</ele>
        <time>2019-03-16T16:56:28.000Z</time>
      </trkpt>
      <trkpt lat="43.662264" lon="-7.574576">
        <ele>402</ele>
        <time>2019-03-16T16:56:31.000Z</time>
      </trkpt>
      <trkpt lat="43.662282" lon="-7.574653">
        <ele>403</ele>
        <time>2019-03-16T16:56:34.000Z</time>
      </trkpt>
      <trkpt lat="43.662321" lon="-7.574685">
        <ele>402</ele>
        <time>2019-03-16T16:56:37.000Z</time>
      </trkpt>
      <trkpt lat="43.662377" lon="-7.57468">
        <ele>403</ele>
        <time>2019-03-16T16:56:40.000Z</time>
      </trkpt>
      <trkpt lat="43.662441" lon="-7.574675">
        <ele>403</ele>
        <time>2019-03-16T16:56:43.000Z</time>
      </trkpt>
      <trkpt lat="43.662492" lon="-7.574682">
        <ele>403</ele>
        <time>2019-03-16T16:56:45.000Z</time>
      </trkpt>
      <trkpt lat="43.662533" lon="-7.574708">
        <ele>404</ele>
        <time>2019-03-16T16:56:47.000Z</time>
      </trkpt>
      <trkpt lat="43.662573" lon="-7.57475">
        <ele>404</ele>
        <time>2019-03-16T16:56:49.000Z</time>
      </trkpt>
      <trkpt lat="43.662606" lon="-7.574804">
        <ele>404</ele>
        <time>2019-03-16T16:56:51.000Z</time>
      </trkpt>
      <trkpt lat="43.66264" lon="-7.574868">
        <ele>404</ele>
        <time>2019-03-16T16:56:53.000Z</time>
      </trkpt>
      <trkpt lat="43.662666" lon="-7.574924">
        <ele>404</ele>
        <time>2019-03-16T16:56:55.000Z</time>
      </trkpt>
      <trkpt lat="43.662707" lon="-7.575025">
        <ele>404</ele>
        <time>2019-03-16T16:56:58.000Z</time>
      </trkpt>
      <trkpt lat="43.662738" lon="-7.575092">
        <ele>404</ele>
        <time>2019-03-16T16:57:00.000Z</time>
      </trkpt>
      <trkpt lat="43.662771" lon="-7.575157">
        <ele>405</ele>
        <time>2019-03-16T16:57:02.000Z</time>
      </trkpt>
      <trkpt lat="43.662803" lon="-7.575218">
        <ele>405</ele>
        <time>2019-03-16T16:57:04.000Z</time>
      </trkpt>
      <trkpt lat="43.662843" lon="-7.575311">
        <ele>406</ele>
        <time>2019-03-16T16:57:07.000Z</time>
      </trkpt>
      <trkpt lat="43.662866" lon="-7.575373">
        <ele>406</ele>
        <time>2019-03-16T16:57:09.000Z</time>
      </trkpt>
      <trkpt lat="43.662888" lon="-7.57543">
        <ele>406</ele>
        <time>2019-03-16T16:57:11.000Z</time>
      </trkpt>
      <trkpt lat="43.662918" lon="-7.575489">
        <ele>406</ele>
        <time>2019-03-16T16:57:13.000Z</time>
      </trkpt>
      <trkpt lat="43.662949" lon="-7.575549">
        <ele>406</ele>
        <time>2019-03-16T16:57:15.000Z</time>
      </trkpt>
      <trkpt lat="43.662983" lon="-7.575606">
        <ele>406</ele>
        <time>2019-03-16T16:57:17.000Z</time>
      </trkpt>
      <trkpt lat="43.663015" lon="-7.575668">
        <ele>406</ele>
        <time>2019-03-16T16:57:19.000Z</time>
      </trkpt>
      <trkpt lat="43.663044" lon="-7.575733">
        <ele>406</ele>
        <time>2019-03-16T16:57:21.000Z</time>
      </trkpt>
      <trkpt lat="43.663074" lon="-7.575793">
        <ele>407</ele>
        <time>2019-03-16T16:57:23.000Z</time>
      </trkpt>
      <trkpt lat="43.663102" lon="-7.57585">
        <ele>406</ele>
        <time>2019-03-16T16:57:25.000Z</time>
      </trkpt>
      <trkpt lat="43.663148" lon="-7.575935">
        <ele>407</ele>
        <time>2019-03-16T16:57:28.000Z</time>
      </trkpt>
      <trkpt lat="43.663189" lon="-7.576023">
        <ele>408</ele>
        <time>2019-03-16T16:57:31.000Z</time>
      </trkpt>
      <trkpt lat="43.663216" lon="-7.576078">
        <ele>408</ele>
        <time>2019-03-16T16:57:33.000Z</time>
      </trkpt>
      <trkpt lat="43.663246" lon="-7.576164">
        <ele>409</ele>
        <time>2019-03-16T16:57:36.000Z</time>
      </trkpt>
      <trkpt lat="43.663267" lon="-7.576229">
        <ele>408</ele>
        <time>2019-03-16T16:57:38.000Z</time>
      </trkpt>
      <trkpt lat="43.663291" lon="-7.57632">
        <ele>408</ele>
        <time>2019-03-16T16:57:40.000Z</time>
      </trkpt>
      <trkpt lat="43.663312" lon="-7.576414">
        <ele>408</ele>
        <time>2019-03-16T16:57:42.000Z</time>
      </trkpt>
      <trkpt lat="43.663344" lon="-7.576524">
        <ele>409</ele>
        <time>2019-03-16T16:57:45.000Z</time>
      </trkpt>
      <trkpt lat="43.663371" lon="-7.576598">
        <ele>409</ele>
        <time>2019-03-16T16:57:47.000Z</time>
      </trkpt>
      <trkpt lat="43.663411" lon="-7.576701">
        <ele>410</ele>
        <time>2019-03-16T16:57:50.000Z</time>
      </trkpt>
      <trkpt lat="43.66345" lon="-7.576808">
        <ele>411</ele>
        <time>2019-03-16T16:57:53.000Z</time>
      </trkpt>
      <trkpt lat="43.663474" lon="-7.57688">
        <ele>412</ele>
        <time>2019-03-16T16:57:55.000Z</time>
      </trkpt>
      <trkpt lat="43.663497" lon="-7.576959">
        <ele>412</ele>
        <time>2019-03-16T16:57:57.000Z</time>
      </trkpt>
      <trkpt lat="43.663518" lon="-7.577039">
        <ele>412</ele>
        <time>2019-03-16T16:57:59.000Z</time>
      </trkpt>
      <trkpt lat="43.663537" lon="-7.577128">
        <ele>413</ele>
        <time>2019-03-16T16:58:01.000Z</time>
      </trkpt>
      <trkpt lat="43.663581" lon="-7.577307">
        <ele>413</ele>
        <time>2019-03-16T16:58:03.000Z</time>
      </trkpt>
      <trkpt lat="43.663627" lon="-7.577377">
        <ele>413</ele>
        <time>2019-03-16T16:58:06.000Z</time>
      </trkpt>
      <trkpt lat="43.663675" lon="-7.57748">
        <ele>413</ele>
        <time>2019-03-16T16:58:09.000Z</time>
      </trkpt>
      <trkpt lat="43.663687" lon="-7.577562">
        <ele>413</ele>
        <time>2019-03-16T16:58:11.000Z</time>
      </trkpt>
      <trkpt lat="43.663693" lon="-7.577683">
        <ele>413</ele>
        <time>2019-03-16T16:58:14.000Z</time>
      </trkpt>
      <trkpt lat="43.663696" lon="-7.577766">
        <ele>412</ele>
        <time>2019-03-16T16:58:16.000Z</time>
      </trkpt>
      <trkpt lat="43.663696" lon="-7.577851">
        <ele>412</ele>
        <time>2019-03-16T16:58:18.000Z</time>
      </trkpt>
      <trkpt lat="43.663695" lon="-7.577934">
        <ele>412</ele>
        <time>2019-03-16T16:58:20.000Z</time>
      </trkpt>
      <trkpt lat="43.6637" lon="-7.578014">
        <ele>412</ele>
        <time>2019-03-16T16:58:22.000Z</time>
      </trkpt>
      <trkpt lat="43.663713" lon="-7.578145">
        <ele>412</ele>
        <time>2019-03-16T16:58:25.000Z</time>
      </trkpt>
      <trkpt lat="43.663717" lon="-7.578234">
        <ele>411</ele>
        <time>2019-03-16T16:58:27.000Z</time>
      </trkpt>
      <trkpt lat="43.663718" lon="-7.578369">
        <ele>411</ele>
        <time>2019-03-16T16:58:30.000Z</time>
      </trkpt>
      <trkpt lat="43.663724" lon="-7.578446">
        <ele>411</ele>
        <time>2019-03-16T16:58:32.000Z</time>
      </trkpt>
      <trkpt lat="43.663724" lon="-7.57852">
        <ele>412</ele>
        <time>2019-03-16T16:58:34.000Z</time>
      </trkpt>
      <trkpt lat="43.663724" lon="-7.578592">
        <ele>412</ele>
        <time>2019-03-16T16:58:36.000Z</time>
      </trkpt>
      <trkpt lat="43.663727" lon="-7.578713">
        <ele>412</ele>
        <time>2019-03-16T16:58:39.000Z</time>
      </trkpt>
      <trkpt lat="43.663716" lon="-7.578804">
        <ele>411</ele>
        <time>2019-03-16T16:58:41.000Z</time>
      </trkpt>
      <trkpt lat="43.663682" lon="-7.578908">
        <ele>411</ele>
        <time>2019-03-16T16:58:44.000Z</time>
      </trkpt>
      <trkpt lat="43.663643" lon="-7.578972">
        <ele>410</ele>
        <time>2019-03-16T16:58:46.000Z</time>
      </trkpt>
      <trkpt lat="43.663591" lon="-7.579018">
        <ele>410</ele>
        <time>2019-03-16T16:58:48.000Z</time>
      </trkpt>
      <trkpt lat="43.663505" lon="-7.57906">
        <ele>411</ele>
        <time>2019-03-16T16:58:51.000Z</time>
      </trkpt>
      <trkpt lat="43.663448" lon="-7.579078">
        <ele>411</ele>
        <time>2019-03-16T16:58:53.000Z</time>
      </trkpt>
      <trkpt lat="43.663353" lon="-7.579016">
        <ele>410</ele>
        <time>2019-03-16T16:58:57.000Z</time>
      </trkpt>
      <trkpt lat="43.663302" lon="-7.578954">
        <ele>410</ele>
        <time>2019-03-16T16:58:59.000Z</time>
      </trkpt>
      <trkpt lat="43.663241" lon="-7.578855">
        <ele>410</ele>
        <time>2019-03-16T16:59:02.000Z</time>
      </trkpt>
      <trkpt lat="43.663201" lon="-7.578783">
        <ele>410</ele>
        <time>2019-03-16T16:59:04.000Z</time>
      </trkpt>
      <trkpt lat="43.66317" lon="-7.578714">
        <ele>409</ele>
        <time>2019-03-16T16:59:06.000Z</time>
      </trkpt>
      <trkpt lat="43.663113" lon="-7.578614">
        <ele>409</ele>
        <time>2019-03-16T16:59:09.000Z</time>
      </trkpt>
      <trkpt lat="43.66304" lon="-7.578506">
        <ele>408</ele>
        <time>2019-03-16T16:59:12.000Z</time>
      </trkpt>
      <trkpt lat="43.663" lon="-7.578443">
        <ele>408</ele>
        <time>2019-03-16T16:59:14.000Z</time>
      </trkpt>
      <trkpt lat="43.662956" lon="-7.578364">
        <ele>408</ele>
        <time>2019-03-16T16:59:16.000Z</time>
      </trkpt>
      <trkpt lat="43.662886" lon="-7.578254">
        <ele>408</ele>
        <time>2019-03-16T16:59:19.000Z</time>
      </trkpt>
      <trkpt lat="43.662845" lon="-7.578199">
        <ele>408</ele>
        <time>2019-03-16T16:59:21.000Z</time>
      </trkpt>
      <trkpt lat="43.662805" lon="-7.578149">
        <ele>408</ele>
        <time>2019-03-16T16:59:23.000Z</time>
      </trkpt>
      <trkpt lat="43.662739" lon="-7.578076">
        <ele>408</ele>
        <time>2019-03-16T16:59:26.000Z</time>
      </trkpt>
      <trkpt lat="43.662698" lon="-7.578021">
        <ele>407</ele>
        <time>2019-03-16T16:59:28.000Z</time>
      </trkpt>
      <trkpt lat="43.662666" lon="-7.577964">
        <ele>407</ele>
        <time>2019-03-16T16:59:30.000Z</time>
      </trkpt>
      <trkpt lat="43.662628" lon="-7.577879">
        <ele>407</ele>
        <time>2019-03-16T16:59:33.000Z</time>
      </trkpt>
      <trkpt lat="43.662606" lon="-7.577809">
        <ele>406</ele>
        <time>2019-03-16T16:59:35.000Z</time>
      </trkpt>
      <trkpt lat="43.662587" lon="-7.577734">
        <ele>406</ele>
        <time>2019-03-16T16:59:37.000Z</time>
      </trkpt>
      <trkpt lat="43.662564" lon="-7.577608">
        <ele>406</ele>
        <time>2019-03-16T16:59:40.000Z</time>
      </trkpt>
      <trkpt lat="43.662548" lon="-7.577527">
        <ele>406</ele>
        <time>2019-03-16T16:59:42.000Z</time>
      </trkpt>
      <trkpt lat="43.66252" lon="-7.5774">
        <ele>406</ele>
        <time>2019-03-16T16:59:45.000Z</time>
      </trkpt>
      <trkpt lat="43.662496" lon="-7.577271">
        <ele>405</ele>
        <time>2019-03-16T16:59:48.000Z</time>
      </trkpt>
      <trkpt lat="43.66248" lon="-7.577181">
        <ele>405</ele>
        <time>2019-03-16T16:59:50.000Z</time>
      </trkpt>
      <trkpt lat="43.66246" lon="-7.577043">
        <ele>404</ele>
        <time>2019-03-16T16:59:53.000Z</time>
      </trkpt>
      <trkpt lat="43.662451" lon="-7.576949">
        <ele>405</ele>
        <time>2019-03-16T16:59:55.000Z</time>
      </trkpt>
      <trkpt lat="43.662437" lon="-7.57686">
        <ele>404</ele>
        <time>2019-03-16T16:59:57.000Z</time>
      </trkpt>
      <trkpt lat="43.662422" lon="-7.576775">
        <ele>404</ele>
        <time>2019-03-16T16:59:59.000Z</time>
      </trkpt>
      <trkpt lat="43.66241" lon="-7.576692">
        <ele>404</ele>
        <time>2019-03-16T17:00:01.000Z</time>
      </trkpt>
      <trkpt lat="43.662397" lon="-7.576608">
        <ele>404</ele>
        <time>2019-03-16T17:00:03.000Z</time>
      </trkpt>
      <trkpt lat="43.662371" lon="-7.576482">
        <ele>403</ele>
        <time>2019-03-16T17:00:06.000Z</time>
      </trkpt>
      <trkpt lat="43.662349" lon="-7.576363">
        <ele>403</ele>
        <time>2019-03-16T17:00:09.000Z</time>
      </trkpt>
      <trkpt lat="43.662334" lon="-7.576278">
        <ele>404</ele>
        <time>2019-03-16T17:00:11.000Z</time>
      </trkpt>
      <trkpt lat="43.662322" lon="-7.576196">
        <ele>403</ele>
        <time>2019-03-16T17:00:13.000Z</time>
      </trkpt>
      <trkpt lat="43.662308" lon="-7.576111">
        <ele>403</ele>
        <time>2019-03-16T17:00:15.000Z</time>
      </trkpt>
      <trkpt lat="43.662282" lon="-7.575986">
        <ele>403</ele>
        <time>2019-03-16T17:00:18.000Z</time>
      </trkpt>
      <trkpt lat="43.662267" lon="-7.575907">
        <ele>403</ele>
        <time>2019-03-16T17:00:20.000Z</time>
      </trkpt>
      <trkpt lat="43.662252" lon="-7.575824">
        <ele>402</ele>
        <time>2019-03-16T17:00:22.000Z</time>
      </trkpt>
      <trkpt lat="43.66222" lon="-7.575749">
        <ele>402</ele>
        <time>2019-03-16T17:00:24.000Z</time>
      </trkpt>
      <trkpt lat="43.662147" lon="-7.575708">
        <ele>403</ele>
        <time>2019-03-16T17:00:27.000Z</time>
      </trkpt>
      <trkpt lat="43.662093" lon="-7.575756">
        <ele>403</ele>
        <time>2019-03-16T17:00:28.000Z</time>
      </trkpt>
      <trkpt lat="43.662094" lon="-7.575829">
        <ele>401</ele>
        <time>2019-03-16T17:00:30.000Z</time>
      </trkpt>
      <trkpt lat="43.662104" lon="-7.575936">
        <ele>401</ele>
        <time>2019-03-16T17:00:33.000Z</time>
      </trkpt>
      <trkpt lat="43.662104" lon="-7.576013">
        <ele>400</ele>
        <time>2019-03-16T17:00:35.000Z</time>
      </trkpt>
      <trkpt lat="43.662105" lon="-7.576092">
        <ele>400</ele>
        <time>2019-03-16T17:00:37.000Z</time>
      </trkpt>
      <trkpt lat="43.662101" lon="-7.576176">
        <ele>400</ele>
        <time>2019-03-16T17:00:39.000Z</time>
      </trkpt>
      <trkpt lat="43.662097" lon="-7.57626">
        <ele>399</ele>
        <time>2019-03-16T17:00:41.000Z</time>
      </trkpt>
      <trkpt lat="43.662095" lon="-7.576344">
        <ele>399</ele>
        <time>2019-03-16T17:00:43.000Z</time>
      </trkpt>
      <trkpt lat="43.66209" lon="-7.576436">
        <ele>398</ele>
        <time>2019-03-16T17:00:45.000Z</time>
      </trkpt>
      <trkpt lat="43.662074" lon="-7.576576">
        <ele>398</ele>
        <time>2019-03-16T17:00:48.000Z</time>
      </trkpt>
      <trkpt lat="43.66206" lon="-7.576696">
        <ele>398</ele>
        <time>2019-03-16T17:00:51.000Z</time>
      </trkpt>
      <trkpt lat="43.662047" lon="-7.576778">
        <ele>397</ele>
        <time>2019-03-16T17:00:53.000Z</time>
      </trkpt>
      <trkpt lat="43.662036" lon="-7.57691">
        <ele>397</ele>
        <time>2019-03-16T17:00:56.000Z</time>
      </trkpt>
      <trkpt lat="43.662036" lon="-7.576999">
        <ele>396</ele>
        <time>2019-03-16T17:00:58.000Z</time>
      </trkpt>
      <trkpt lat="43.662034" lon="-7.577076">
        <ele>396</ele>
        <time>2019-03-16T17:01:00.000Z</time>
      </trkpt>
      <trkpt lat="43.662038" lon="-7.577207">
        <ele>397</ele>
        <time>2019-03-16T17:01:03.000Z</time>
      </trkpt>
      <trkpt lat="43.662041" lon="-7.577296">
        <ele>397</ele>
        <time>2019-03-16T17:01:05.000Z</time>
      </trkpt>
      <trkpt lat="43.662046" lon="-7.577432">
        <ele>396</ele>
        <time>2019-03-16T17:01:08.000Z</time>
      </trkpt>
      <trkpt lat="43.662045" lon="-7.577532">
        <ele>396</ele>
        <time>2019-03-16T17:01:10.000Z</time>
      </trkpt>
      <trkpt lat="43.662045" lon="-7.577633">
        <ele>396</ele>
        <time>2019-03-16T17:01:12.000Z</time>
      </trkpt>
      <trkpt lat="43.66204" lon="-7.577784">
        <ele>396</ele>
        <time>2019-03-16T17:01:15.000Z</time>
      </trkpt>
      <trkpt lat="43.662041" lon="-7.578132">
        <ele>394</ele>
        <time>2019-03-16T17:01:20.000Z</time>
      </trkpt>
      <trkpt lat="43.662062" lon="-7.578212">
        <ele>392</ele>
        <time>2019-03-16T17:01:22.000Z</time>
      </trkpt>
      <trkpt lat="43.662084" lon="-7.578469">
        <ele>390</ele>
        <time>2019-03-16T17:01:25.000Z</time>
      </trkpt>
      <trkpt lat="43.662071" lon="-7.578534">
        <ele>389</ele>
        <time>2019-03-16T17:01:26.000Z</time>
      </trkpt>
      <trkpt lat="43.662068" lon="-7.578677">
        <ele>388</ele>
        <time>2019-03-16T17:01:28.000Z</time>
      </trkpt>
      <trkpt lat="43.662073" lon="-7.578815">
        <ele>385</ele>
        <time>2019-03-16T17:01:31.000Z</time>
      </trkpt>
      <trkpt lat="43.662088" lon="-7.578885">
        <ele>384</ele>
        <time>2019-03-16T17:01:33.000Z</time>
      </trkpt>
      <trkpt lat="43.662108" lon="-7.578947">
        <ele>382</ele>
        <time>2019-03-16T17:01:35.000Z</time>
      </trkpt>
      <trkpt lat="43.662136" lon="-7.579009">
        <ele>380</ele>
        <time>2019-03-16T17:01:37.000Z</time>
      </trkpt>
      <trkpt lat="43.66217" lon="-7.579079">
        <ele>379</ele>
        <time>2019-03-16T17:01:39.000Z</time>
      </trkpt>
      <trkpt lat="43.662234" lon="-7.579202">
        <ele>378</ele>
        <time>2019-03-16T17:01:42.000Z</time>
      </trkpt>
      <trkpt lat="43.662276" lon="-7.579284">
        <ele>377</ele>
        <time>2019-03-16T17:01:44.000Z</time>
      </trkpt>
      <trkpt lat="43.662313" lon="-7.579373">
        <ele>376</ele>
        <time>2019-03-16T17:01:46.000Z</time>
      </trkpt>
      <trkpt lat="43.662342" lon="-7.57946">
        <ele>375</ele>
        <time>2019-03-16T17:01:48.000Z</time>
      </trkpt>
      <trkpt lat="43.66237" lon="-7.579553">
        <ele>374</ele>
        <time>2019-03-16T17:01:50.000Z</time>
      </trkpt>
      <trkpt lat="43.662405" lon="-7.579654">
        <ele>373</ele>
        <time>2019-03-16T17:01:52.000Z</time>
      </trkpt>
      <trkpt lat="43.662438" lon="-7.579737">
        <ele>372</ele>
        <time>2019-03-16T17:01:54.000Z</time>
      </trkpt>
      <trkpt lat="43.662496" lon="-7.579869">
        <ele>371</ele>
        <time>2019-03-16T17:01:57.000Z</time>
      </trkpt>
      <trkpt lat="43.662552" lon="-7.580024">
        <ele>370</ele>
        <time>2019-03-16T17:01:59.000Z</time>
      </trkpt>
      <trkpt lat="43.662579" lon="-7.580116">
        <ele>368</ele>
        <time>2019-03-16T17:02:02.000Z</time>
      </trkpt>
      <trkpt lat="43.662603" lon="-7.580182">
        <ele>367</ele>
        <time>2019-03-16T17:02:04.000Z</time>
      </trkpt>
      <trkpt lat="43.662639" lon="-7.580291">
        <ele>366</ele>
        <time>2019-03-16T17:02:07.000Z</time>
      </trkpt>
      <trkpt lat="43.662666" lon="-7.580362">
        <ele>365</ele>
        <time>2019-03-16T17:02:09.000Z</time>
      </trkpt>
      <trkpt lat="43.6627" lon="-7.580431">
        <ele>363</ele>
        <time>2019-03-16T17:02:11.000Z</time>
      </trkpt>
      <trkpt lat="43.662758" lon="-7.580537">
        <ele>362</ele>
        <time>2019-03-16T17:02:14.000Z</time>
      </trkpt>
      <trkpt lat="43.6628" lon="-7.580606">
        <ele>361</ele>
        <time>2019-03-16T17:02:16.000Z</time>
      </trkpt>
      <trkpt lat="43.662862" lon="-7.580711">
        <ele>360</ele>
        <time>2019-03-16T17:02:19.000Z</time>
      </trkpt>
      <trkpt lat="43.662914" lon="-7.58078">
        <ele>359</ele>
        <time>2019-03-16T17:02:21.000Z</time>
      </trkpt>
      <trkpt lat="43.663027" lon="-7.580944">
        <ele>358</ele>
        <time>2019-03-16T17:02:24.000Z</time>
      </trkpt>
      <trkpt lat="43.663103" lon="-7.581079">
        <ele>356</ele>
        <time>2019-03-16T17:02:26.000Z</time>
      </trkpt>
      <trkpt lat="43.663136" lon="-7.581132">
        <ele>355</ele>
        <time>2019-03-16T17:02:28.000Z</time>
      </trkpt>
      <trkpt lat="43.66321" lon="-7.581232">
        <ele>355</ele>
        <time>2019-03-16T17:02:30.000Z</time>
      </trkpt>
      <trkpt lat="43.6633" lon="-7.581349">
        <ele>353</ele>
        <time>2019-03-16T17:02:33.000Z</time>
      </trkpt>
      <trkpt lat="43.663367" lon="-7.581418">
        <ele>351</ele>
        <time>2019-03-16T17:02:35.000Z</time>
      </trkpt>
      <trkpt lat="43.66345" lon="-7.581444">
        <ele>350</ele>
        <time>2019-03-16T17:02:39.000Z</time>
      </trkpt>
      <trkpt lat="43.663519" lon="-7.581466">
        <ele>350</ele>
        <time>2019-03-16T17:02:41.000Z</time>
      </trkpt>
      <trkpt lat="43.663694" lon="-7.581548">
        <ele>348</ele>
        <time>2019-03-16T17:02:44.000Z</time>
      </trkpt>
      <trkpt lat="43.663774" lon="-7.581562">
        <ele>347</ele>
        <time>2019-03-16T17:02:46.000Z</time>
      </trkpt>
      <trkpt lat="43.663857" lon="-7.581551">
        <ele>346</ele>
        <time>2019-03-16T17:02:48.000Z</time>
      </trkpt>
      <trkpt lat="43.663912" lon="-7.581542">
        <ele>346</ele>
        <time>2019-03-16T17:02:49.000Z</time>
      </trkpt>
      <trkpt lat="43.66396" lon="-7.581533">
        <ele>346</ele>
        <time>2019-03-16T17:02:51.000Z</time>
      </trkpt>
      <trkpt lat="43.664016" lon="-7.581519">
        <ele>346</ele>
        <time>2019-03-16T17:02:53.000Z</time>
      </trkpt>
      <trkpt lat="43.664082" lon="-7.581489">
        <ele>345</ele>
        <time>2019-03-16T17:02:55.000Z</time>
      </trkpt>
      <trkpt lat="43.664154" lon="-7.581453">
        <ele>345</ele>
        <time>2019-03-16T17:02:57.000Z</time>
      </trkpt>
      <trkpt lat="43.664431" lon="-7.581319">
        <ele>344</ele>
        <time>2019-03-16T17:03:02.000Z</time>
      </trkpt>
      <trkpt lat="43.664524" lon="-7.581266">
        <ele>343</ele>
        <time>2019-03-16T17:03:04.000Z</time>
      </trkpt>
      <trkpt lat="43.664605" lon="-7.581223">
        <ele>343</ele>
        <time>2019-03-16T17:03:06.000Z</time>
      </trkpt>
      <trkpt lat="43.664672" lon="-7.58117">
        <ele>342</ele>
        <time>2019-03-16T17:03:08.000Z</time>
      </trkpt>
      <trkpt lat="43.664749" lon="-7.581096">
        <ele>340</ele>
        <time>2019-03-16T17:03:11.000Z</time>
      </trkpt>
      <trkpt lat="43.664786" lon="-7.581048">
        <ele>340</ele>
        <time>2019-03-16T17:03:13.000Z</time>
      </trkpt>
      <trkpt lat="43.664863" lon="-7.580956">
        <ele>340</ele>
        <time>2019-03-16T17:03:15.000Z</time>
      </trkpt>
      <trkpt lat="43.664939" lon="-7.580877">
        <ele>339</ele>
        <time>2019-03-16T17:03:17.000Z</time>
      </trkpt>
      <trkpt lat="43.665" lon="-7.580813">
        <ele>339</ele>
        <time>2019-03-16T17:03:19.000Z</time>
      </trkpt>
      <trkpt lat="43.665062" lon="-7.580756">
        <ele>338</ele>
        <time>2019-03-16T17:03:21.000Z</time>
      </trkpt>
      <trkpt lat="43.665126" lon="-7.580708">
        <ele>338</ele>
        <time>2019-03-16T17:03:23.000Z</time>
      </trkpt>
      <trkpt lat="43.665177" lon="-7.580679">
        <ele>338</ele>
        <time>2019-03-16T17:03:25.000Z</time>
      </trkpt>
      <trkpt lat="43.665225" lon="-7.580642">
        <ele>338</ele>
        <time>2019-03-16T17:03:26.000Z</time>
      </trkpt>
      <trkpt lat="43.665332" lon="-7.58057">
        <ele>337</ele>
        <time>2019-03-16T17:03:29.000Z</time>
      </trkpt>
      <trkpt lat="43.665396" lon="-7.580531">
        <ele>337</ele>
        <time>2019-03-16T17:03:32.000Z</time>
      </trkpt>
      <trkpt lat="43.665449" lon="-7.580493">
        <ele>337</ele>
        <time>2019-03-16T17:03:34.000Z</time>
      </trkpt>
      <trkpt lat="43.665548" lon="-7.580422">
        <ele>336</ele>
        <time>2019-03-16T17:03:37.000Z</time>
      </trkpt>
      <trkpt lat="43.665728" lon="-7.58029">
        <ele>335</ele>
        <time>2019-03-16T17:03:40.000Z</time>
      </trkpt>
      <trkpt lat="43.665848" lon="-7.580213">
        <ele>332</ele>
        <time>2019-03-16T17:03:43.000Z</time>
      </trkpt>
      <trkpt lat="43.665932" lon="-7.580158">
        <ele>330</ele>
        <time>2019-03-16T17:03:45.000Z</time>
      </trkpt>
      <trkpt lat="43.666024" lon="-7.580098">
        <ele>329</ele>
        <time>2019-03-16T17:03:47.000Z</time>
      </trkpt>
      <trkpt lat="43.666112" lon="-7.580038">
        <ele>328</ele>
        <time>2019-03-16T17:03:49.000Z</time>
      </trkpt>
      <trkpt lat="43.6662" lon="-7.579967">
        <ele>327</ele>
        <time>2019-03-16T17:03:51.000Z</time>
      </trkpt>
      <trkpt lat="43.666242" lon="-7.579931">
        <ele>327</ele>
        <time>2019-03-16T17:03:52.000Z</time>
      </trkpt>
      <trkpt lat="43.666316" lon="-7.579868">
        <ele>326</ele>
        <time>2019-03-16T17:03:54.000Z</time>
      </trkpt>
      <trkpt lat="43.666392" lon="-7.579815">
        <ele>323</ele>
        <time>2019-03-16T17:03:56.000Z</time>
      </trkpt>
      <trkpt lat="43.666431" lon="-7.579783">
        <ele>323</ele>
        <time>2019-03-16T17:03:57.000Z</time>
      </trkpt>
      <trkpt lat="43.666514" lon="-7.579719">
        <ele>322</ele>
        <time>2019-03-16T17:03:59.000Z</time>
      </trkpt>
      <trkpt lat="43.666583" lon="-7.579666">
        <ele>321</ele>
        <time>2019-03-16T17:04:01.000Z</time>
      </trkpt>
      <trkpt lat="43.666653" lon="-7.579612">
        <ele>320</ele>
        <time>2019-03-16T17:04:03.000Z</time>
      </trkpt>
      <trkpt lat="43.66672" lon="-7.579577">
        <ele>320</ele>
        <time>2019-03-16T17:04:06.000Z</time>
      </trkpt>
      <trkpt lat="43.666785" lon="-7.579543">
        <ele>320</ele>
        <time>2019-03-16T17:04:07.000Z</time>
      </trkpt>
      <trkpt lat="43.666865" lon="-7.579499">
        <ele>320</ele>
        <time>2019-03-16T17:04:09.000Z</time>
      </trkpt>
      <trkpt lat="43.666936" lon="-7.57947">
        <ele>320</ele>
        <time>2019-03-16T17:04:12.000Z</time>
      </trkpt>
      <trkpt lat="43.667023" lon="-7.579428">
        <ele>319</ele>
        <time>2019-03-16T17:04:15.000Z</time>
      </trkpt>
      <trkpt lat="43.667138" lon="-7.579362">
        <ele>319</ele>
        <time>2019-03-16T17:04:17.000Z</time>
      </trkpt>
      <trkpt lat="43.667234" lon="-7.579302">
        <ele>318</ele>
        <time>2019-03-16T17:04:19.000Z</time>
      </trkpt>
      <trkpt lat="43.667281" lon="-7.579178">
        <ele>317</ele>
        <time>2019-03-16T17:04:23.000Z</time>
      </trkpt>
      <trkpt lat="43.667293" lon="-7.579095">
        <ele>317</ele>
        <time>2019-03-16T17:04:25.000Z</time>
      </trkpt>
      <trkpt lat="43.667294" lon="-7.579015">
        <ele>317</ele>
        <time>2019-03-16T17:04:27.000Z</time>
      </trkpt>
      <trkpt lat="43.667295" lon="-7.578937">
        <ele>316</ele>
        <time>2019-03-16T17:04:29.000Z</time>
      </trkpt>
      <trkpt lat="43.66729" lon="-7.578827">
        <ele>315</ele>
        <time>2019-03-16T17:04:32.000Z</time>
      </trkpt>
      <trkpt lat="43.667273" lon="-7.57871">
        <ele>314</ele>
        <time>2019-03-16T17:04:35.000Z</time>
      </trkpt>
      <trkpt lat="43.667262" lon="-7.578644">
        <ele>314</ele>
        <time>2019-03-16T17:04:37.000Z</time>
      </trkpt>
      <trkpt lat="43.667253" lon="-7.578528">
        <ele>313</ele>
        <time>2019-03-16T17:04:40.000Z</time>
      </trkpt>
      <trkpt lat="43.66725" lon="-7.578454">
        <ele>313</ele>
        <time>2019-03-16T17:04:42.000Z</time>
      </trkpt>
      <trkpt lat="43.667249" lon="-7.578388">
        <ele>312</ele>
        <time>2019-03-16T17:04:44.000Z</time>
      </trkpt>
      <trkpt lat="43.667222" lon="-7.57827">
        <ele>311</ele>
        <time>2019-03-16T17:04:48.000Z</time>
      </trkpt>
      <trkpt lat="43.66719" lon="-7.578179">
        <ele>311</ele>
        <time>2019-03-16T17:04:51.000Z</time>
      </trkpt>
      <trkpt lat="43.667161" lon="-7.578123">
        <ele>311</ele>
        <time>2019-03-16T17:04:53.000Z</time>
      </trkpt>
      <trkpt lat="43.667115" lon="-7.578046">
        <ele>310</ele>
        <time>2019-03-16T17:04:56.000Z</time>
      </trkpt>
      <trkpt lat="43.667082" lon="-7.577995">
        <ele>310</ele>
        <time>2019-03-16T17:04:58.000Z</time>
      </trkpt>
      <trkpt lat="43.66704" lon="-7.577914">
        <ele>309</ele>
        <time>2019-03-16T17:05:01.000Z</time>
      </trkpt>
      <trkpt lat="43.667004" lon="-7.577828">
        <ele>310</ele>
        <time>2019-03-16T17:05:04.000Z</time>
      </trkpt>
      <trkpt lat="43.666981" lon="-7.577769">
        <ele>310</ele>
        <time>2019-03-16T17:05:06.000Z</time>
      </trkpt>
      <trkpt lat="43.666956" lon="-7.577706">
        <ele>309</ele>
        <time>2019-03-16T17:05:08.000Z</time>
      </trkpt>
      <trkpt lat="43.666931" lon="-7.577638">
        <ele>309</ele>
        <time>2019-03-16T17:05:10.000Z</time>
      </trkpt>
      <trkpt lat="43.666887" lon="-7.577533">
        <ele>309</ele>
        <time>2019-03-16T17:05:13.000Z</time>
      </trkpt>
      <trkpt lat="43.666843" lon="-7.577427">
        <ele>309</ele>
        <time>2019-03-16T17:05:16.000Z</time>
      </trkpt>
      <trkpt lat="43.666813" lon="-7.57736">
        <ele>309</ele>
        <time>2019-03-16T17:05:18.000Z</time>
      </trkpt>
      <trkpt lat="43.666777" lon="-7.577292">
        <ele>310</ele>
        <time>2019-03-16T17:05:20.000Z</time>
      </trkpt>
      <trkpt lat="43.666742" lon="-7.577224">
        <ele>309</ele>
        <time>2019-03-16T17:05:22.000Z</time>
      </trkpt>
      <trkpt lat="43.666713" lon="-7.577166">
        <ele>309</ele>
        <time>2019-03-16T17:05:24.000Z</time>
      </trkpt>
      <trkpt lat="43.666656" lon="-7.57705">
        <ele>309</ele>
        <time>2019-03-16T17:05:27.000Z</time>
      </trkpt>
      <trkpt lat="43.666611" lon="-7.576947">
        <ele>309</ele>
        <time>2019-03-16T17:05:30.000Z</time>
      </trkpt>
      <trkpt lat="43.666585" lon="-7.576871">
        <ele>308</ele>
        <time>2019-03-16T17:05:32.000Z</time>
      </trkpt>
      <trkpt lat="43.666534" lon="-7.57676">
        <ele>309</ele>
        <time>2019-03-16T17:05:35.000Z</time>
      </trkpt>
      <trkpt lat="43.666496" lon="-7.576687">
        <ele>309</ele>
        <time>2019-03-16T17:05:37.000Z</time>
      </trkpt>
      <trkpt lat="43.666461" lon="-7.576616">
        <ele>309</ele>
        <time>2019-03-16T17:05:39.000Z</time>
      </trkpt>
      <trkpt lat="43.666429" lon="-7.57654">
        <ele>309</ele>
        <time>2019-03-16T17:05:41.000Z</time>
      </trkpt>
      <trkpt lat="43.666391" lon="-7.576424">
        <ele>309</ele>
        <time>2019-03-16T17:05:44.000Z</time>
      </trkpt>
      <trkpt lat="43.666385" lon="-7.576318">
        <ele>310</ele>
        <time>2019-03-16T17:05:47.000Z</time>
      </trkpt>
      <trkpt lat="43.666408" lon="-7.57626">
        <ele>311</ele>
        <time>2019-03-16T17:05:49.000Z</time>
      </trkpt>
      <trkpt lat="43.666447" lon="-7.576217">
        <ele>311</ele>
        <time>2019-03-16T17:05:51.000Z</time>
      </trkpt>
      <trkpt lat="43.666492" lon="-7.576179">
        <ele>311</ele>
        <time>2019-03-16T17:05:53.000Z</time>
      </trkpt>
      <trkpt lat="43.666542" lon="-7.57615">
        <ele>312</ele>
        <time>2019-03-16T17:05:55.000Z</time>
      </trkpt>
      <trkpt lat="43.666615" lon="-7.576118">
        <ele>313</ele>
        <time>2019-03-16T17:05:58.000Z</time>
      </trkpt>
      <trkpt lat="43.66666" lon="-7.576108">
        <ele>313</ele>
        <time>2019-03-16T17:06:00.000Z</time>
      </trkpt>
      <trkpt lat="43.666705" lon="-7.5761">
        <ele>313</ele>
        <time>2019-03-16T17:06:02.000Z</time>
      </trkpt>
      <trkpt lat="43.666779" lon="-7.576093">
        <ele>314</ele>
        <time>2019-03-16T17:06:05.000Z</time>
      </trkpt>
      <trkpt lat="43.666834" lon="-7.57609">
        <ele>314</ele>
        <time>2019-03-16T17:06:07.000Z</time>
      </trkpt>
      <trkpt lat="43.666886" lon="-7.57608">
        <ele>315</ele>
        <time>2019-03-16T17:06:09.000Z</time>
      </trkpt>
      <trkpt lat="43.666962" lon="-7.576058">
        <ele>316</ele>
        <time>2019-03-16T17:06:12.000Z</time>
      </trkpt>
      <trkpt lat="43.667016" lon="-7.576041">
        <ele>316</ele>
        <time>2019-03-16T17:06:14.000Z</time>
      </trkpt>
      <trkpt lat="43.667071" lon="-7.57603">
        <ele>317</ele>
        <time>2019-03-16T17:06:16.000Z</time>
      </trkpt>
      <trkpt lat="43.667126" lon="-7.576014">
        <ele>317</ele>
        <time>2019-03-16T17:06:18.000Z</time>
      </trkpt>
      <trkpt lat="43.66718" lon="-7.575997">
        <ele>318</ele>
        <time>2019-03-16T17:06:20.000Z</time>
      </trkpt>
      <trkpt lat="43.667234" lon="-7.575979">
        <ele>317</ele>
        <time>2019-03-16T17:06:22.000Z</time>
      </trkpt>
      <trkpt lat="43.667288" lon="-7.575956">
        <ele>318</ele>
        <time>2019-03-16T17:06:24.000Z</time>
      </trkpt>
      <trkpt lat="43.667372" lon="-7.57592">
        <ele>317</ele>
        <time>2019-03-16T17:06:27.000Z</time>
      </trkpt>
      <trkpt lat="43.667426" lon="-7.575902">
        <ele>317</ele>
        <time>2019-03-16T17:06:29.000Z</time>
      </trkpt>
      <trkpt lat="43.667479" lon="-7.575889">
        <ele>318</ele>
        <time>2019-03-16T17:06:31.000Z</time>
      </trkpt>
      <trkpt lat="43.667532" lon="-7.575881">
        <ele>318</ele>
        <time>2019-03-16T17:06:33.000Z</time>
      </trkpt>
      <trkpt lat="43.667609" lon="-7.575884">
        <ele>318</ele>
        <time>2019-03-16T17:06:36.000Z</time>
      </trkpt>
      <trkpt lat="43.667674" lon="-7.575899">
        <ele>317</ele>
        <time>2019-03-16T17:06:39.000Z</time>
      </trkpt>
      <trkpt lat="43.667738" lon="-7.575918">
        <ele>317</ele>
        <time>2019-03-16T17:06:42.000Z</time>
      </trkpt>
      <trkpt lat="43.667799" lon="-7.575935">
        <ele>318</ele>
        <time>2019-03-16T17:06:45.000Z</time>
      </trkpt>
      <trkpt lat="43.667855" lon="-7.575946">
        <ele>318</ele>
        <time>2019-03-16T17:06:48.000Z</time>
      </trkpt>
      <trkpt lat="43.667912" lon="-7.575952">
        <ele>318</ele>
        <time>2019-03-16T17:06:51.000Z</time>
      </trkpt>
      <trkpt lat="43.66799" lon="-7.575962">
        <ele>319</ele>
        <time>2019-03-16T17:06:55.000Z</time>
      </trkpt>
      <trkpt lat="43.668069" lon="-7.575962">
        <ele>321</ele>
        <time>2019-03-16T17:06:59.000Z</time>
      </trkpt>
      <trkpt lat="43.668144" lon="-7.575942">
        <ele>322</ele>
        <time>2019-03-16T17:07:03.000Z</time>
      </trkpt>
      <trkpt lat="43.668222" lon="-7.575901">
        <ele>323</ele>
        <time>2019-03-16T17:07:07.000Z</time>
      </trkpt>
      <trkpt lat="43.668283" lon="-7.575866">
        <ele>324</ele>
        <time>2019-03-16T17:07:10.000Z</time>
      </trkpt>
      <trkpt lat="43.66834" lon="-7.57583">
        <ele>324</ele>
        <time>2019-03-16T17:07:13.000Z</time>
      </trkpt>
      <trkpt lat="43.668394" lon="-7.575804">
        <ele>326</ele>
        <time>2019-03-16T17:07:16.000Z</time>
      </trkpt>
      <trkpt lat="43.668449" lon="-7.575772">
        <ele>327</ele>
        <time>2019-03-16T17:07:19.000Z</time>
      </trkpt>
      <trkpt lat="43.668507" lon="-7.575738">
        <ele>328</ele>
        <time>2019-03-16T17:07:22.000Z</time>
      </trkpt>
      <trkpt lat="43.668587" lon="-7.575693">
        <ele>329</ele>
        <time>2019-03-16T17:07:26.000Z</time>
      </trkpt>
      <trkpt lat="43.668673" lon="-7.575644">
        <ele>332</ele>
        <time>2019-03-16T17:07:30.000Z</time>
      </trkpt>
      <trkpt lat="43.668715" lon="-7.575618">
        <ele>333</ele>
        <time>2019-03-16T17:07:32.000Z</time>
      </trkpt>
      <trkpt lat="43.668758" lon="-7.575595">
        <ele>333</ele>
        <time>2019-03-16T17:07:34.000Z</time>
      </trkpt>
      <trkpt lat="43.668803" lon="-7.575581">
        <ele>333</ele>
        <time>2019-03-16T17:07:36.000Z</time>
      </trkpt>
      <trkpt lat="43.668854" lon="-7.575566">
        <ele>334</ele>
        <time>2019-03-16T17:07:38.000Z</time>
      </trkpt>
      <trkpt lat="43.668909" lon="-7.575548">
        <ele>334</ele>
        <time>2019-03-16T17:07:40.000Z</time>
      </trkpt>
      <trkpt lat="43.668995" lon="-7.575539">
        <ele>335</ele>
        <time>2019-03-16T17:07:43.000Z</time>
      </trkpt>
      <trkpt lat="43.669055" lon="-7.575546">
        <ele>335</ele>
        <time>2019-03-16T17:07:45.000Z</time>
      </trkpt>
      <trkpt lat="43.669137" lon="-7.575553">
        <ele>336</ele>
        <time>2019-03-16T17:07:48.000Z</time>
      </trkpt>
      <trkpt lat="43.66921" lon="-7.575549">
        <ele>337</ele>
        <time>2019-03-16T17:07:51.000Z</time>
      </trkpt>
      <trkpt lat="43.669262" lon="-7.57554">
        <ele>337</ele>
        <time>2019-03-16T17:07:53.000Z</time>
      </trkpt>
      <trkpt lat="43.669307" lon="-7.575529">
        <ele>337</ele>
        <time>2019-03-16T17:07:55.000Z</time>
      </trkpt>
      <trkpt lat="43.669368" lon="-7.575481">
        <ele>336</ele>
        <time>2019-03-16T17:07:58.000Z</time>
      </trkpt>
      <trkpt lat="43.66941" lon="-7.575394">
        <ele>337</ele>
        <time>2019-03-16T17:08:01.000Z</time>
      </trkpt>
      <trkpt lat="43.669421" lon="-7.575331">
        <ele>337</ele>
        <time>2019-03-16T17:08:03.000Z</time>
      </trkpt>
      <trkpt lat="43.669422" lon="-7.575239">
        <ele>338</ele>
        <time>2019-03-16T17:08:06.000Z</time>
      </trkpt>
      <trkpt lat="43.669415" lon="-7.575157">
        <ele>339</ele>
        <time>2019-03-16T17:08:09.000Z</time>
      </trkpt>
      <trkpt lat="43.669414" lon="-7.575081">
        <ele>340</ele>
        <time>2019-03-16T17:08:12.000Z</time>
      </trkpt>
      <trkpt lat="43.669412" lon="-7.575008">
        <ele>341</ele>
        <time>2019-03-16T17:08:15.000Z</time>
      </trkpt>
      <trkpt lat="43.669443" lon="-7.574881">
        <ele>343</ele>
        <time>2019-03-16T17:08:19.000Z</time>
      </trkpt>
      <trkpt lat="43.669476" lon="-7.574814">
        <ele>344</ele>
        <time>2019-03-16T17:08:21.000Z</time>
      </trkpt>
      <trkpt lat="43.669523" lon="-7.574768">
        <ele>345</ele>
        <time>2019-03-16T17:08:24.000Z</time>
      </trkpt>
      <trkpt lat="43.669584" lon="-7.574745">
        <ele>345</ele>
        <time>2019-03-16T17:08:27.000Z</time>
      </trkpt>
      <trkpt lat="43.669631" lon="-7.574747">
        <ele>344</ele>
        <time>2019-03-16T17:08:29.000Z</time>
      </trkpt>
      <trkpt lat="43.669682" lon="-7.574742">
        <ele>345</ele>
        <time>2019-03-16T17:08:31.000Z</time>
      </trkpt>
      <trkpt lat="43.669739" lon="-7.574731">
        <ele>345</ele>
        <time>2019-03-16T17:08:33.000Z</time>
      </trkpt>
      <trkpt lat="43.669805" lon="-7.574712">
        <ele>345</ele>
        <time>2019-03-16T17:08:35.000Z</time>
      </trkpt>
      <trkpt lat="43.669872" lon="-7.574679">
        <ele>346</ele>
        <time>2019-03-16T17:08:37.000Z</time>
      </trkpt>
      <trkpt lat="43.669936" lon="-7.574641">
        <ele>346</ele>
        <time>2019-03-16T17:08:39.000Z</time>
      </trkpt>
      <trkpt lat="43.67002" lon="-7.574572">
        <ele>346</ele>
        <time>2019-03-16T17:08:42.000Z</time>
      </trkpt>
      <trkpt lat="43.670078" lon="-7.574523">
        <ele>345</ele>
        <time>2019-03-16T17:08:44.000Z</time>
      </trkpt>
      <trkpt lat="43.670134" lon="-7.574479">
        <ele>344</ele>
        <time>2019-03-16T17:08:46.000Z</time>
      </trkpt>
      <trkpt lat="43.670191" lon="-7.574437">
        <ele>343</ele>
        <time>2019-03-16T17:08:48.000Z</time>
      </trkpt>
      <trkpt lat="43.670244" lon="-7.574396">
        <ele>344</ele>
        <time>2019-03-16T17:08:50.000Z</time>
      </trkpt>
      <trkpt lat="43.670296" lon="-7.574353">
        <ele>343</ele>
        <time>2019-03-16T17:08:52.000Z</time>
      </trkpt>
      <trkpt lat="43.670373" lon="-7.574293">
        <ele>343</ele>
        <time>2019-03-16T17:08:55.000Z</time>
      </trkpt>
      <trkpt lat="43.670425" lon="-7.574248">
        <ele>344</ele>
        <time>2019-03-16T17:08:57.000Z</time>
      </trkpt>
      <trkpt lat="43.670477" lon="-7.574194">
        <ele>344</ele>
        <time>2019-03-16T17:08:59.000Z</time>
      </trkpt>
      <trkpt lat="43.670527" lon="-7.57414">
        <ele>344</ele>
        <time>2019-03-16T17:09:01.000Z</time>
      </trkpt>
      <trkpt lat="43.670571" lon="-7.574084">
        <ele>343</ele>
        <time>2019-03-16T17:09:03.000Z</time>
      </trkpt>
      <trkpt lat="43.670612" lon="-7.57403">
        <ele>343</ele>
        <time>2019-03-16T17:09:05.000Z</time>
      </trkpt>
      <trkpt lat="43.67065" lon="-7.573969">
        <ele>343</ele>
        <time>2019-03-16T17:09:07.000Z</time>
      </trkpt>
      <trkpt lat="43.670706" lon="-7.573853">
        <ele>343</ele>
        <time>2019-03-16T17:09:10.000Z</time>
      </trkpt>
      <trkpt lat="43.67074" lon="-7.573778">
        <ele>343</ele>
        <time>2019-03-16T17:09:12.000Z</time>
      </trkpt>
      <trkpt lat="43.670771" lon="-7.573707">
        <ele>343</ele>
        <time>2019-03-16T17:09:14.000Z</time>
      </trkpt>
      <trkpt lat="43.670814" lon="-7.573596">
        <ele>342</ele>
        <time>2019-03-16T17:09:17.000Z</time>
      </trkpt>
      <trkpt lat="43.670838" lon="-7.573519">
        <ele>342</ele>
        <time>2019-03-16T17:09:19.000Z</time>
      </trkpt>
      <trkpt lat="43.670858" lon="-7.573441">
        <ele>342</ele>
        <time>2019-03-16T17:09:21.000Z</time>
      </trkpt>
      <trkpt lat="43.670873" lon="-7.573365">
        <ele>342</ele>
        <time>2019-03-16T17:09:23.000Z</time>
      </trkpt>
      <trkpt lat="43.67089" lon="-7.57329">
        <ele>342</ele>
        <time>2019-03-16T17:09:25.000Z</time>
      </trkpt>
      <trkpt lat="43.670902" lon="-7.573211">
        <ele>342</ele>
        <time>2019-03-16T17:09:27.000Z</time>
      </trkpt>
      <trkpt lat="43.670915" lon="-7.573133">
        <ele>342</ele>
        <time>2019-03-16T17:09:29.000Z</time>
      </trkpt>
      <trkpt lat="43.67093" lon="-7.573057">
        <ele>341</ele>
        <time>2019-03-16T17:09:31.000Z</time>
      </trkpt>
      <trkpt lat="43.670949" lon="-7.572945">
        <ele>341</ele>
        <time>2019-03-16T17:09:34.000Z</time>
      </trkpt>
      <trkpt lat="43.670958" lon="-7.572872">
        <ele>341</ele>
        <time>2019-03-16T17:09:36.000Z</time>
      </trkpt>
      <trkpt lat="43.670969" lon="-7.572763">
        <ele>341</ele>
        <time>2019-03-16T17:09:39.000Z</time>
      </trkpt>
      <trkpt lat="43.670981" lon="-7.572692">
        <ele>341</ele>
        <time>2019-03-16T17:09:41.000Z</time>
      </trkpt>
      <trkpt lat="43.670996" lon="-7.572621">
        <ele>341</ele>
        <time>2019-03-16T17:09:43.000Z</time>
      </trkpt>
      <trkpt lat="43.671016" lon="-7.572556">
        <ele>342</ele>
        <time>2019-03-16T17:09:45.000Z</time>
      </trkpt>
      <trkpt lat="43.671038" lon="-7.572488">
        <ele>342</ele>
        <time>2019-03-16T17:09:47.000Z</time>
      </trkpt>
      <trkpt lat="43.671069" lon="-7.572382">
        <ele>341</ele>
        <time>2019-03-16T17:09:50.000Z</time>
      </trkpt>
      <trkpt lat="43.671092" lon="-7.572273">
        <ele>341</ele>
        <time>2019-03-16T17:09:53.000Z</time>
      </trkpt>
      <trkpt lat="43.671109" lon="-7.572199">
        <ele>341</ele>
        <time>2019-03-16T17:09:55.000Z</time>
      </trkpt>
      <trkpt lat="43.67114" lon="-7.572092">
        <ele>342</ele>
        <time>2019-03-16T17:09:58.000Z</time>
      </trkpt>
      <trkpt lat="43.671152" lon="-7.572024">
        <ele>341</ele>
        <time>2019-03-16T17:10:00.000Z</time>
      </trkpt>
      <trkpt lat="43.671163" lon="-7.571952">
        <ele>341</ele>
        <time>2019-03-16T17:10:02.000Z</time>
      </trkpt>
      <trkpt lat="43.671169" lon="-7.571872">
        <ele>340</ele>
        <time>2019-03-16T17:10:04.000Z</time>
      </trkpt>
      <trkpt lat="43.671172" lon="-7.571755">
        <ele>340</ele>
        <time>2019-03-16T17:10:07.000Z</time>
      </trkpt>
      <trkpt lat="43.671175" lon="-7.571675">
        <ele>340</ele>
        <time>2019-03-16T17:10:09.000Z</time>
      </trkpt>
      <trkpt lat="43.671171" lon="-7.571584">
        <ele>340</ele>
        <time>2019-03-16T17:10:11.000Z</time>
      </trkpt>
      <trkpt lat="43.671165" lon="-7.571508">
        <ele>340</ele>
        <time>2019-03-16T17:10:13.000Z</time>
      </trkpt>
      <trkpt lat="43.671162" lon="-7.571433">
        <ele>341</ele>
        <time>2019-03-16T17:10:15.000Z</time>
      </trkpt>
      <trkpt lat="43.671158" lon="-7.571358">
        <ele>341</ele>
        <time>2019-03-16T17:10:17.000Z</time>
      </trkpt>
      <trkpt lat="43.671151" lon="-7.571285">
        <ele>341</ele>
        <time>2019-03-16T17:10:19.000Z</time>
      </trkpt>
      <trkpt lat="43.671133" lon="-7.571187">
        <ele>341</ele>
        <time>2019-03-16T17:10:22.000Z</time>
      </trkpt>
      <trkpt lat="43.671118" lon="-7.571089">
        <ele>340</ele>
        <time>2019-03-16T17:10:25.000Z</time>
      </trkpt>
      <trkpt lat="43.671103" lon="-7.571026">
        <ele>340</ele>
        <time>2019-03-16T17:10:27.000Z</time>
      </trkpt>
      <trkpt lat="43.67109" lon="-7.570961">
        <ele>341</ele>
        <time>2019-03-16T17:10:29.000Z</time>
      </trkpt>
      <trkpt lat="43.671078" lon="-7.5709">
        <ele>341</ele>
        <time>2019-03-16T17:10:31.000Z</time>
      </trkpt>
      <trkpt lat="43.671077" lon="-7.570836">
        <ele>341</ele>
        <time>2019-03-16T17:10:33.000Z</time>
      </trkpt>
      <trkpt lat="43.671078" lon="-7.570708">
        <ele>341</ele>
        <time>2019-03-16T17:10:37.000Z</time>
      </trkpt>
      <trkpt lat="43.67108" lon="-7.570634">
        <ele>342</ele>
        <time>2019-03-16T17:10:39.000Z</time>
      </trkpt>
      <trkpt lat="43.671076" lon="-7.570558">
        <ele>342</ele>
        <time>2019-03-16T17:10:41.000Z</time>
      </trkpt>
      <trkpt lat="43.671072" lon="-7.570472">
        <ele>342</ele>
        <time>2019-03-16T17:10:43.000Z</time>
      </trkpt>
      <trkpt lat="43.671064" lon="-7.570394">
        <ele>344</ele>
        <time>2019-03-16T17:10:45.000Z</time>
      </trkpt>
      <trkpt lat="43.671055" lon="-7.57032">
        <ele>344</ele>
        <time>2019-03-16T17:10:47.000Z</time>
      </trkpt>
      <trkpt lat="43.671049" lon="-7.570211">
        <ele>345</ele>
        <time>2019-03-16T17:10:50.000Z</time>
      </trkpt>
      <trkpt lat="43.671045" lon="-7.570106">
        <ele>345</ele>
        <time>2019-03-16T17:10:53.000Z</time>
      </trkpt>
      <trkpt lat="43.67105" lon="-7.569994">
        <ele>344</ele>
        <time>2019-03-16T17:10:56.000Z</time>
      </trkpt>
      <trkpt lat="43.671053" lon="-7.569911">
        <ele>344</ele>
        <time>2019-03-16T17:10:58.000Z</time>
      </trkpt>
      <trkpt lat="43.671056" lon="-7.569836">
        <ele>345</ele>
        <time>2019-03-16T17:11:00.000Z</time>
      </trkpt>
      <trkpt lat="43.671058" lon="-7.569764">
        <ele>345</ele>
        <time>2019-03-16T17:11:02.000Z</time>
      </trkpt>
      <trkpt lat="43.671063" lon="-7.569699">
        <ele>345</ele>
        <time>2019-03-16T17:11:04.000Z</time>
      </trkpt>
      <trkpt lat="43.671068" lon="-7.569631">
        <ele>346</ele>
        <time>2019-03-16T17:11:06.000Z</time>
      </trkpt>
      <trkpt lat="43.671073" lon="-7.569561">
        <ele>346</ele>
        <time>2019-03-16T17:11:08.000Z</time>
      </trkpt>
      <trkpt lat="43.671082" lon="-7.569483">
        <ele>346</ele>
        <time>2019-03-16T17:11:10.000Z</time>
      </trkpt>
      <trkpt lat="43.671084" lon="-7.569406">
        <ele>347</ele>
        <time>2019-03-16T17:11:12.000Z</time>
      </trkpt>
      <trkpt lat="43.671089" lon="-7.569327">
        <ele>347</ele>
        <time>2019-03-16T17:11:14.000Z</time>
      </trkpt>
      <trkpt lat="43.671093" lon="-7.569245">
        <ele>347</ele>
        <time>2019-03-16T17:11:16.000Z</time>
      </trkpt>
      <trkpt lat="43.671091" lon="-7.569163">
        <ele>347</ele>
        <time>2019-03-16T17:11:18.000Z</time>
      </trkpt>
      <trkpt lat="43.671089" lon="-7.569052">
        <ele>348</ele>
        <time>2019-03-16T17:11:21.000Z</time>
      </trkpt>
      <trkpt lat="43.67109" lon="-7.568966">
        <ele>348</ele>
        <time>2019-03-16T17:11:23.000Z</time>
      </trkpt>
      <trkpt lat="43.671097" lon="-7.568837">
        <ele>348</ele>
        <time>2019-03-16T17:11:26.000Z</time>
      </trkpt>
      <trkpt lat="43.671107" lon="-7.568756">
        <ele>347</ele>
        <time>2019-03-16T17:11:28.000Z</time>
      </trkpt>
      <trkpt lat="43.671114" lon="-7.568675">
        <ele>347</ele>
        <time>2019-03-16T17:11:30.000Z</time>
      </trkpt>
      <trkpt lat="43.671115" lon="-7.56859">
        <ele>348</ele>
        <time>2019-03-16T17:11:32.000Z</time>
      </trkpt>
      <trkpt lat="43.671109" lon="-7.568505">
        <ele>348</ele>
        <time>2019-03-16T17:11:34.000Z</time>
      </trkpt>
      <trkpt lat="43.671096" lon="-7.568377">
        <ele>348</ele>
        <time>2019-03-16T17:11:37.000Z</time>
      </trkpt>
      <trkpt lat="43.671091" lon="-7.568261">
        <ele>348</ele>
        <time>2019-03-16T17:11:40.000Z</time>
      </trkpt>
      <trkpt lat="43.671088" lon="-7.56819">
        <ele>348</ele>
        <time>2019-03-16T17:11:42.000Z</time>
      </trkpt>
      <trkpt lat="43.671084" lon="-7.568116">
        <ele>349</ele>
        <time>2019-03-16T17:11:44.000Z</time>
      </trkpt>
      <trkpt lat="43.671081" lon="-7.568036">
        <ele>348</ele>
        <time>2019-03-16T17:11:46.000Z</time>
      </trkpt>
      <trkpt lat="43.671073" lon="-7.567962">
        <ele>349</ele>
        <time>2019-03-16T17:11:48.000Z</time>
      </trkpt>
      <trkpt lat="43.67106" lon="-7.56789">
        <ele>349</ele>
        <time>2019-03-16T17:11:50.000Z</time>
      </trkpt>
      <trkpt lat="43.671053" lon="-7.567815">
        <ele>349</ele>
        <time>2019-03-16T17:11:52.000Z</time>
      </trkpt>
      <trkpt lat="43.671049" lon="-7.567725">
        <ele>349</ele>
        <time>2019-03-16T17:11:54.000Z</time>
      </trkpt>
      <trkpt lat="43.671051" lon="-7.56765">
        <ele>349</ele>
        <time>2019-03-16T17:11:56.000Z</time>
      </trkpt>
      <trkpt lat="43.671053" lon="-7.567553">
        <ele>351</ele>
        <time>2019-03-16T17:11:59.000Z</time>
      </trkpt>
      <trkpt lat="43.671057" lon="-7.567482">
        <ele>352</ele>
        <time>2019-03-16T17:12:01.000Z</time>
      </trkpt>
      <trkpt lat="43.671057" lon="-7.567402">
        <ele>352</ele>
        <time>2019-03-16T17:12:03.000Z</time>
      </trkpt>
      <trkpt lat="43.671059" lon="-7.567281">
        <ele>351</ele>
        <time>2019-03-16T17:12:06.000Z</time>
      </trkpt>
      <trkpt lat="43.671061" lon="-7.567207">
        <ele>352</ele>
        <time>2019-03-16T17:12:08.000Z</time>
      </trkpt>
      <trkpt lat="43.671072" lon="-7.567101">
        <ele>352</ele>
        <time>2019-03-16T17:12:11.000Z</time>
      </trkpt>
      <trkpt lat="43.671087" lon="-7.567032">
        <ele>353</ele>
        <time>2019-03-16T17:12:13.000Z</time>
      </trkpt>
      <trkpt lat="43.671102" lon="-7.566961">
        <ele>353</ele>
        <time>2019-03-16T17:12:15.000Z</time>
      </trkpt>
      <trkpt lat="43.671107" lon="-7.56685">
        <ele>352</ele>
        <time>2019-03-16T17:12:18.000Z</time>
      </trkpt>
      <trkpt lat="43.671104" lon="-7.56677">
        <ele>353</ele>
        <time>2019-03-16T17:12:20.000Z</time>
      </trkpt>
      <trkpt lat="43.671098" lon="-7.566695">
        <ele>353</ele>
        <time>2019-03-16T17:12:22.000Z</time>
      </trkpt>
      <trkpt lat="43.671101" lon="-7.566588">
        <ele>353</ele>
        <time>2019-03-16T17:12:25.000Z</time>
      </trkpt>
      <trkpt lat="43.671111" lon="-7.566525">
        <ele>353</ele>
        <time>2019-03-16T17:12:27.000Z</time>
      </trkpt>
      <trkpt lat="43.671116" lon="-7.566446">
        <ele>352</ele>
        <time>2019-03-16T17:12:29.000Z</time>
      </trkpt>
      <trkpt lat="43.671122" lon="-7.566325">
        <ele>352</ele>
        <time>2019-03-16T17:12:32.000Z</time>
      </trkpt>
      <trkpt lat="43.671129" lon="-7.566219">
        <ele>351</ele>
        <time>2019-03-16T17:12:35.000Z</time>
      </trkpt>
      <trkpt lat="43.671142" lon="-7.566143">
        <ele>351</ele>
        <time>2019-03-16T17:12:37.000Z</time>
      </trkpt>
      <trkpt lat="43.671154" lon="-7.566071">
        <ele>353</ele>
        <time>2019-03-16T17:12:39.000Z</time>
      </trkpt>
      <trkpt lat="43.671173" lon="-7.565964">
        <ele>353</ele>
        <time>2019-03-16T17:12:42.000Z</time>
      </trkpt>
      <trkpt lat="43.67119" lon="-7.565897">
        <ele>354</ele>
        <time>2019-03-16T17:12:44.000Z</time>
      </trkpt>
      <trkpt lat="43.671224" lon="-7.565804">
        <ele>355</ele>
        <time>2019-03-16T17:12:47.000Z</time>
      </trkpt>
      <trkpt lat="43.671249" lon="-7.565741">
        <ele>356</ele>
        <time>2019-03-16T17:12:49.000Z</time>
      </trkpt>
      <trkpt lat="43.671273" lon="-7.56568">
        <ele>356</ele>
        <time>2019-03-16T17:12:51.000Z</time>
      </trkpt>
      <trkpt lat="43.67132" lon="-7.565588">
        <ele>357</ele>
        <time>2019-03-16T17:12:54.000Z</time>
      </trkpt>
      <trkpt lat="43.671349" lon="-7.565526">
        <ele>357</ele>
        <time>2019-03-16T17:12:56.000Z</time>
      </trkpt>
      <trkpt lat="43.671396" lon="-7.565425">
        <ele>357</ele>
        <time>2019-03-16T17:12:59.000Z</time>
      </trkpt>
      <trkpt lat="43.671426" lon="-7.565353">
        <ele>357</ele>
        <time>2019-03-16T17:13:01.000Z</time>
      </trkpt>
      <trkpt lat="43.671448" lon="-7.565282">
        <ele>358</ele>
        <time>2019-03-16T17:13:03.000Z</time>
      </trkpt>
      <trkpt lat="43.671467" lon="-7.565209">
        <ele>358</ele>
        <time>2019-03-16T17:13:05.000Z</time>
      </trkpt>
      <trkpt lat="43.671481" lon="-7.565141">
        <ele>358</ele>
        <time>2019-03-16T17:13:07.000Z</time>
      </trkpt>
      <trkpt lat="43.671499" lon="-7.565072">
        <ele>358</ele>
        <time>2019-03-16T17:13:09.000Z</time>
      </trkpt>
      <trkpt lat="43.671524" lon="-7.564974">
        <ele>358</ele>
        <time>2019-03-16T17:13:12.000Z</time>
      </trkpt>
      <trkpt lat="43.671544" lon="-7.564911">
        <ele>358</ele>
        <time>2019-03-16T17:13:14.000Z</time>
      </trkpt>
      <trkpt lat="43.67157" lon="-7.564846">
        <ele>358</ele>
        <time>2019-03-16T17:13:16.000Z</time>
      </trkpt>
      <trkpt lat="43.671602" lon="-7.564773">
        <ele>358</ele>
        <time>2019-03-16T17:13:18.000Z</time>
      </trkpt>
      <trkpt lat="43.671632" lon="-7.564693">
        <ele>359</ele>
        <time>2019-03-16T17:13:20.000Z</time>
      </trkpt>
      <trkpt lat="43.671659" lon="-7.564615">
        <ele>359</ele>
        <time>2019-03-16T17:13:22.000Z</time>
      </trkpt>
      <trkpt lat="43.671692" lon="-7.564552">
        <ele>360</ele>
        <time>2019-03-16T17:13:24.000Z</time>
      </trkpt>
      <trkpt lat="43.671734" lon="-7.564512">
        <ele>361</ele>
        <time>2019-03-16T17:13:26.000Z</time>
      </trkpt>
      <trkpt lat="43.671809" lon="-7.564474">
        <ele>363</ele>
        <time>2019-03-16T17:13:29.000Z</time>
      </trkpt>
      <trkpt lat="43.671855" lon="-7.564458">
        <ele>363</ele>
        <time>2019-03-16T17:13:31.000Z</time>
      </trkpt>
      <trkpt lat="43.671903" lon="-7.564446">
        <ele>365</ele>
        <time>2019-03-16T17:13:33.000Z</time>
      </trkpt>
      <trkpt lat="43.671954" lon="-7.564454">
        <ele>366</ele>
        <time>2019-03-16T17:13:35.000Z</time>
      </trkpt>
      <trkpt lat="43.672002" lon="-7.564487">
        <ele>366</ele>
        <time>2019-03-16T17:13:37.000Z</time>
      </trkpt>
      <trkpt lat="43.672077" lon="-7.564542">
        <ele>366</ele>
        <time>2019-03-16T17:13:40.000Z</time>
      </trkpt>
      <trkpt lat="43.672163" lon="-7.564605">
        <ele>367</ele>
        <time>2019-03-16T17:13:43.000Z</time>
      </trkpt>
      <trkpt lat="43.672235" lon="-7.564659">
        <ele>366</ele>
        <time>2019-03-16T17:13:46.000Z</time>
      </trkpt>
      <trkpt lat="43.672284" lon="-7.564695">
        <ele>366</ele>
        <time>2019-03-16T17:13:48.000Z</time>
      </trkpt>
      <trkpt lat="43.672337" lon="-7.564737">
        <ele>365</ele>
        <time>2019-03-16T17:13:50.000Z</time>
      </trkpt>
      <trkpt lat="43.672414" lon="-7.564809">
        <ele>365</ele>
        <time>2019-03-16T17:13:53.000Z</time>
      </trkpt>
      <trkpt lat="43.672475" lon="-7.564865">
        <ele>365</ele>
        <time>2019-03-16T17:13:55.000Z</time>
      </trkpt>
      <trkpt lat="43.672555" lon="-7.564953">
        <ele>364</ele>
        <time>2019-03-16T17:13:58.000Z</time>
      </trkpt>
      <trkpt lat="43.6726" lon="-7.56502">
        <ele>363</ele>
        <time>2019-03-16T17:14:00.000Z</time>
      </trkpt>
      <trkpt lat="43.67266" lon="-7.565125">
        <ele>362</ele>
        <time>2019-03-16T17:14:03.000Z</time>
      </trkpt>
      <trkpt lat="43.672729" lon="-7.565222">
        <ele>362</ele>
        <time>2019-03-16T17:14:06.000Z</time>
      </trkpt>
      <trkpt lat="43.672778" lon="-7.565289">
        <ele>361</ele>
        <time>2019-03-16T17:14:08.000Z</time>
      </trkpt>
      <trkpt lat="43.67285" lon="-7.565394">
        <ele>362</ele>
        <time>2019-03-16T17:14:11.000Z</time>
      </trkpt>
      <trkpt lat="43.672897" lon="-7.565463">
        <ele>361</ele>
        <time>2019-03-16T17:14:13.000Z</time>
      </trkpt>
      <trkpt lat="43.672939" lon="-7.565534">
        <ele>361</ele>
        <time>2019-03-16T17:14:15.000Z</time>
      </trkpt>
      <trkpt lat="43.672969" lon="-7.565606">
        <ele>361</ele>
        <time>2019-03-16T17:14:17.000Z</time>
      </trkpt>
      <trkpt lat="43.673002" lon="-7.565669">
        <ele>360</ele>
        <time>2019-03-16T17:14:19.000Z</time>
      </trkpt>
      <trkpt lat="43.673056" lon="-7.565762">
        <ele>359</ele>
        <time>2019-03-16T17:14:22.000Z</time>
      </trkpt>
      <trkpt lat="43.673098" lon="-7.565825">
        <ele>359</ele>
        <time>2019-03-16T17:14:24.000Z</time>
      </trkpt>
      <trkpt lat="43.673144" lon="-7.565891">
        <ele>358</ele>
        <time>2019-03-16T17:14:26.000Z</time>
      </trkpt>
      <trkpt lat="43.673186" lon="-7.565954">
        <ele>357</ele>
        <time>2019-03-16T17:14:28.000Z</time>
      </trkpt>
      <trkpt lat="43.673229" lon="-7.566032">
        <ele>357</ele>
        <time>2019-03-16T17:14:30.000Z</time>
      </trkpt>
      <trkpt lat="43.673286" lon="-7.56616">
        <ele>355</ele>
        <time>2019-03-16T17:14:33.000Z</time>
      </trkpt>
      <trkpt lat="43.673335" lon="-7.566285">
        <ele>354</ele>
        <time>2019-03-16T17:14:36.000Z</time>
      </trkpt>
      <trkpt lat="43.673378" lon="-7.566409">
        <ele>353</ele>
        <time>2019-03-16T17:14:39.000Z</time>
      </trkpt>
      <trkpt lat="43.67342" lon="-7.566488">
        <ele>352</ele>
        <time>2019-03-16T17:14:41.000Z</time>
      </trkpt>
      <trkpt lat="43.673464" lon="-7.566557">
        <ele>351</ele>
        <time>2019-03-16T17:14:43.000Z</time>
      </trkpt>
      <trkpt lat="43.673499" lon="-7.566627">
        <ele>350</ele>
        <time>2019-03-16T17:14:45.000Z</time>
      </trkpt>
      <trkpt lat="43.67353" lon="-7.566693">
        <ele>349</ele>
        <time>2019-03-16T17:14:47.000Z</time>
      </trkpt>
      <trkpt lat="43.673566" lon="-7.566758">
        <ele>349</ele>
        <time>2019-03-16T17:14:49.000Z</time>
      </trkpt>
      <trkpt lat="43.673628" lon="-7.566863">
        <ele>347</ele>
        <time>2019-03-16T17:14:52.000Z</time>
      </trkpt>
      <trkpt lat="43.673668" lon="-7.566932">
        <ele>346</ele>
        <time>2019-03-16T17:14:54.000Z</time>
      </trkpt>
      <trkpt lat="43.673715" lon="-7.567008">
        <ele>344</ele>
        <time>2019-03-16T17:14:57.000Z</time>
      </trkpt>
      <trkpt lat="43.673746" lon="-7.567056">
        <ele>345</ele>
        <time>2019-03-16T17:14:59.000Z</time>
      </trkpt>
      <trkpt lat="43.673788" lon="-7.567127">
        <ele>344</ele>
        <time>2019-03-16T17:15:01.000Z</time>
      </trkpt>
      <trkpt lat="43.673861" lon="-7.567239">
        <ele>344</ele>
        <time>2019-03-16T17:15:04.000Z</time>
      </trkpt>
      <trkpt lat="43.673942" lon="-7.567351">
        <ele>345</ele>
        <time>2019-03-16T17:15:07.000Z</time>
      </trkpt>
      <trkpt lat="43.674014" lon="-7.567462">
        <ele>345</ele>
        <time>2019-03-16T17:15:10.000Z</time>
      </trkpt>
      <trkpt lat="43.674054" lon="-7.567532">
        <ele>345</ele>
        <time>2019-03-16T17:15:12.000Z</time>
      </trkpt>
      <trkpt lat="43.674114" lon="-7.567632">
        <ele>345</ele>
        <time>2019-03-16T17:15:15.000Z</time>
      </trkpt>
      <trkpt lat="43.674147" lon="-7.567678">
        <ele>345</ele>
        <time>2019-03-16T17:15:17.000Z</time>
      </trkpt>
      <trkpt lat="43.674226" lon="-7.567771">
        <ele>343</ele>
        <time>2019-03-16T17:15:20.000Z</time>
      </trkpt>
      <trkpt lat="43.674304" lon="-7.567845">
        <ele>343</ele>
        <time>2019-03-16T17:15:23.000Z</time>
      </trkpt>
      <trkpt lat="43.674363" lon="-7.567882">
        <ele>343</ele>
        <time>2019-03-16T17:15:25.000Z</time>
      </trkpt>
      <trkpt lat="43.67443" lon="-7.567903">
        <ele>343</ele>
        <time>2019-03-16T17:15:27.000Z</time>
      </trkpt>
      <trkpt lat="43.674497" lon="-7.567921">
        <ele>342</ele>
        <time>2019-03-16T17:15:29.000Z</time>
      </trkpt>
      <trkpt lat="43.674598" lon="-7.567932">
        <ele>342</ele>
        <time>2019-03-16T17:15:32.000Z</time>
      </trkpt>
      <trkpt lat="43.674669" lon="-7.567934">
        <ele>342</ele>
        <time>2019-03-16T17:15:34.000Z</time>
      </trkpt>
      <trkpt lat="43.674725" lon="-7.567935">
        <ele>342</ele>
        <time>2019-03-16T17:15:36.000Z</time>
      </trkpt>
      <trkpt lat="43.67478" lon="-7.567934">
        <ele>343</ele>
        <time>2019-03-16T17:15:38.000Z</time>
      </trkpt>
      <trkpt lat="43.67483" lon="-7.567942">
        <ele>343</ele>
        <time>2019-03-16T17:15:40.000Z</time>
      </trkpt>
      <trkpt lat="43.67488" lon="-7.568002">
        <ele>343</ele>
        <time>2019-03-16T17:15:44.000Z</time>
      </trkpt>
      <trkpt lat="43.674816" lon="-7.568048">
        <ele>344</ele>
        <time>2019-03-16T17:15:49.000Z</time>
      </trkpt>
      <trkpt lat="43.674768" lon="-7.568075">
        <ele>344</ele>
        <time>2019-03-16T17:15:51.000Z</time>
      </trkpt>
      <trkpt lat="43.674727" lon="-7.568102">
        <ele>344</ele>
        <time>2019-03-16T17:15:53.000Z</time>
      </trkpt>
      <trkpt lat="43.674672" lon="-7.568136">
        <ele>344</ele>
        <time>2019-03-16T17:15:55.000Z</time>
      </trkpt>
      <trkpt lat="43.674616" lon="-7.568164">
        <ele>343</ele>
        <time>2019-03-16T17:15:57.000Z</time>
      </trkpt>
      <trkpt lat="43.674559" lon="-7.568186">
        <ele>343</ele>
        <time>2019-03-16T17:15:59.000Z</time>
      </trkpt>
      <trkpt lat="43.674499" lon="-7.568206">
        <ele>343</ele>
        <time>2019-03-16T17:16:01.000Z</time>
      </trkpt>
      <trkpt lat="43.674438" lon="-7.568217">
        <ele>343</ele>
        <time>2019-03-16T17:16:03.000Z</time>
      </trkpt>
      <trkpt lat="43.674352" lon="-7.568215">
        <ele>342</ele>
        <time>2019-03-16T17:16:06.000Z</time>
      </trkpt>
      <trkpt lat="43.674261" lon="-7.568204">
        <ele>343</ele>
        <time>2019-03-16T17:16:09.000Z</time>
      </trkpt>
      <trkpt lat="43.6742" lon="-7.568187">
        <ele>342</ele>
        <time>2019-03-16T17:16:11.000Z</time>
      </trkpt>
      <trkpt lat="43.674148" lon="-7.568169">
        <ele>340</ele>
        <time>2019-03-16T17:16:13.000Z</time>
      </trkpt>
      <trkpt lat="43.674069" lon="-7.568118">
        <ele>338</ele>
        <time>2019-03-16T17:16:17.000Z</time>
      </trkpt>
      <trkpt lat="43.67401" lon="-7.568079">
        <ele>339</ele>
        <time>2019-03-16T17:16:19.000Z</time>
      </trkpt>
      <trkpt lat="43.673938" lon="-7.568013">
        <ele>339</ele>
        <time>2019-03-16T17:16:21.000Z</time>
      </trkpt>
      <trkpt lat="43.673873" lon="-7.567932">
        <ele>339</ele>
        <time>2019-03-16T17:16:23.000Z</time>
      </trkpt>
      <trkpt lat="43.673817" lon="-7.567871">
        <ele>338</ele>
        <time>2019-03-16T17:16:26.000Z</time>
      </trkpt>
      <trkpt lat="43.673774" lon="-7.567828">
        <ele>339</ele>
        <time>2019-03-16T17:16:28.000Z</time>
      </trkpt>
      <trkpt lat="43.673686" lon="-7.567739">
        <ele>339</ele>
        <time>2019-03-16T17:16:31.000Z</time>
      </trkpt>
      <trkpt lat="43.673633" lon="-7.56769">
        <ele>339</ele>
        <time>2019-03-16T17:16:33.000Z</time>
      </trkpt>
      <trkpt lat="43.67359" lon="-7.567643">
        <ele>339</ele>
        <time>2019-03-16T17:16:35.000Z</time>
      </trkpt>
      <trkpt lat="43.673545" lon="-7.567597">
        <ele>339</ele>
        <time>2019-03-16T17:16:37.000Z</time>
      </trkpt>
      <trkpt lat="43.673499" lon="-7.567561">
        <ele>339</ele>
        <time>2019-03-16T17:16:39.000Z</time>
      </trkpt>
      <trkpt lat="43.67345" lon="-7.567524">
        <ele>340</ele>
        <time>2019-03-16T17:16:41.000Z</time>
      </trkpt>
      <trkpt lat="43.673395" lon="-7.567492">
        <ele>340</ele>
        <time>2019-03-16T17:16:43.000Z</time>
      </trkpt>
      <trkpt lat="43.673328" lon="-7.567457">
        <ele>342</ele>
        <time>2019-03-16T17:16:46.000Z</time>
      </trkpt>
      <trkpt lat="43.673266" lon="-7.567431">
        <ele>342</ele>
        <time>2019-03-16T17:16:48.000Z</time>
      </trkpt>
      <trkpt lat="43.673206" lon="-7.567403">
        <ele>343</ele>
        <time>2019-03-16T17:16:50.000Z</time>
      </trkpt>
      <trkpt lat="43.673154" lon="-7.567377">
        <ele>343</ele>
        <time>2019-03-16T17:16:52.000Z</time>
      </trkpt>
      <trkpt lat="43.6731" lon="-7.567344">
        <ele>344</ele>
        <time>2019-03-16T17:16:54.000Z</time>
      </trkpt>
      <trkpt lat="43.673043" lon="-7.567304">
        <ele>344</ele>
        <time>2019-03-16T17:16:56.000Z</time>
      </trkpt>
      <trkpt lat="43.672989" lon="-7.567259">
        <ele>343</ele>
        <time>2019-03-16T17:16:58.000Z</time>
      </trkpt>
      <trkpt lat="43.67291" lon="-7.567202">
        <ele>343</ele>
        <time>2019-03-16T17:17:01.000Z</time>
      </trkpt>
      <trkpt lat="43.672815" lon="-7.567161">
        <ele>344</ele>
        <time>2019-03-16T17:17:04.000Z</time>
      </trkpt>
      <trkpt lat="43.6727" lon="-7.567253">
        <ele>341</ele>
        <time>2019-03-16T17:17:08.000Z</time>
      </trkpt>
      <trkpt lat="43.672735" lon="-7.567332">
        <ele>339</ele>
        <time>2019-03-16T17:17:11.000Z</time>
      </trkpt>
      <trkpt lat="43.672766" lon="-7.567382">
        <ele>338</ele>
        <time>2019-03-16T17:17:13.000Z</time>
      </trkpt>
      <trkpt lat="43.672795" lon="-7.567434">
        <ele>337</ele>
        <time>2019-03-16T17:17:15.000Z</time>
      </trkpt>
      <trkpt lat="43.672847" lon="-7.56751">
        <ele>335</ele>
        <time>2019-03-16T17:17:18.000Z</time>
      </trkpt>
      <trkpt lat="43.672903" lon="-7.567591">
        <ele>334</ele>
        <time>2019-03-16T17:17:21.000Z</time>
      </trkpt>
      <trkpt lat="43.672949" lon="-7.567652">
        <ele>333</ele>
        <time>2019-03-16T17:17:23.000Z</time>
      </trkpt>
      <trkpt lat="43.672998" lon="-7.567714">
        <ele>332</ele>
        <time>2019-03-16T17:17:25.000Z</time>
      </trkpt>
      <trkpt lat="43.673046" lon="-7.567778">
        <ele>331</ele>
        <time>2019-03-16T17:17:27.000Z</time>
      </trkpt>
      <trkpt lat="43.673096" lon="-7.567842">
        <ele>330</ele>
        <time>2019-03-16T17:17:29.000Z</time>
      </trkpt>
      <trkpt lat="43.673144" lon="-7.567906">
        <ele>330</ele>
        <time>2019-03-16T17:17:31.000Z</time>
      </trkpt>
      <trkpt lat="43.673182" lon="-7.567966">
        <ele>330</ele>
        <time>2019-03-16T17:17:33.000Z</time>
      </trkpt>
      <trkpt lat="43.67321" lon="-7.568029">
        <ele>331</ele>
        <time>2019-03-16T17:17:35.000Z</time>
      </trkpt>
      <trkpt lat="43.673235" lon="-7.5681">
        <ele>330</ele>
        <time>2019-03-16T17:17:37.000Z</time>
      </trkpt>
      <trkpt lat="43.673249" lon="-7.568175">
        <ele>329</ele>
        <time>2019-03-16T17:17:39.000Z</time>
      </trkpt>
      <trkpt lat="43.673261" lon="-7.568245">
        <ele>329</ele>
        <time>2019-03-16T17:17:41.000Z</time>
      </trkpt>
      <trkpt lat="43.673269" lon="-7.568306">
        <ele>327</ele>
        <time>2019-03-16T17:17:43.000Z</time>
      </trkpt>
      <trkpt lat="43.67328" lon="-7.568408">
        <ele>324</ele>
        <time>2019-03-16T17:17:46.000Z</time>
      </trkpt>
      <trkpt lat="43.673298" lon="-7.568518">
        <ele>322</ele>
        <time>2019-03-16T17:17:49.000Z</time>
      </trkpt>
      <trkpt lat="43.673337" lon="-7.568662">
        <ele>320</ele>
        <time>2019-03-16T17:17:52.000Z</time>
      </trkpt>
      <trkpt lat="43.673363" lon="-7.568759">
        <ele>319</ele>
        <time>2019-03-16T17:17:54.000Z</time>
      </trkpt>
      <trkpt lat="43.673357" lon="-7.568864">
        <ele>317</ele>
        <time>2019-03-16T17:17:57.000Z</time>
      </trkpt>
      <trkpt lat="43.673301" lon="-7.568876">
        <ele>316</ele>
        <time>2019-03-16T17:18:03.000Z</time>
      </trkpt>
      <trkpt lat="43.673228" lon="-7.568822">
        <ele>316</ele>
        <time>2019-03-16T17:18:07.000Z</time>
      </trkpt>
      <trkpt lat="43.673182" lon="-7.568787">
        <ele>316</ele>
        <time>2019-03-16T17:18:09.000Z</time>
      </trkpt>
      <trkpt lat="43.673111" lon="-7.568719">
        <ele>317</ele>
        <time>2019-03-16T17:18:12.000Z</time>
      </trkpt>
      <trkpt lat="43.673036" lon="-7.568661">
        <ele>318</ele>
        <time>2019-03-16T17:18:15.000Z</time>
      </trkpt>
      <trkpt lat="43.672983" lon="-7.568654">
        <ele>318</ele>
        <time>2019-03-16T17:18:17.000Z</time>
      </trkpt>
      <trkpt lat="43.672905" lon="-7.568688">
        <ele>316</ele>
        <time>2019-03-16T17:18:20.000Z</time>
      </trkpt>
      <trkpt lat="43.67285" lon="-7.568737">
        <ele>316</ele>
        <time>2019-03-16T17:18:22.000Z</time>
      </trkpt>
      <trkpt lat="43.672799" lon="-7.568793">
        <ele>314</ele>
        <time>2019-03-16T17:18:24.000Z</time>
      </trkpt>
      <trkpt lat="43.672764" lon="-7.56885">
        <ele>313</ele>
        <time>2019-03-16T17:18:26.000Z</time>
      </trkpt>
      <trkpt lat="43.672736" lon="-7.568923">
        <ele>311</ele>
        <time>2019-03-16T17:18:28.000Z</time>
      </trkpt>
      <trkpt lat="43.672712" lon="-7.569007">
        <ele>309</ele>
        <time>2019-03-16T17:18:30.000Z</time>
      </trkpt>
      <trkpt lat="43.672692" lon="-7.569078">
        <ele>308</ele>
        <time>2019-03-16T17:18:32.000Z</time>
      </trkpt>
      <trkpt lat="43.672666" lon="-7.569193">
        <ele>306</ele>
        <time>2019-03-16T17:18:35.000Z</time>
      </trkpt>
      <trkpt lat="43.672667" lon="-7.569316">
        <ele>304</ele>
        <time>2019-03-16T17:18:38.000Z</time>
      </trkpt>
      <trkpt lat="43.672672" lon="-7.569446">
        <ele>302</ele>
        <time>2019-03-16T17:18:41.000Z</time>
      </trkpt>
      <trkpt lat="43.672673" lon="-7.56955">
        <ele>301</ele>
        <time>2019-03-16T17:18:43.000Z</time>
      </trkpt>
      <trkpt lat="43.672675" lon="-7.569693">
        <ele>300</ele>
        <time>2019-03-16T17:18:46.000Z</time>
      </trkpt>
      <trkpt lat="43.67268" lon="-7.569779">
        <ele>299</ele>
        <time>2019-03-16T17:18:48.000Z</time>
      </trkpt>
      <trkpt lat="43.672684" lon="-7.569869">
        <ele>298</ele>
        <time>2019-03-16T17:18:50.000Z</time>
      </trkpt>
      <trkpt lat="43.672686" lon="-7.56996">
        <ele>296</ele>
        <time>2019-03-16T17:18:52.000Z</time>
      </trkpt>
      <trkpt lat="43.672686" lon="-7.570057">
        <ele>296</ele>
        <time>2019-03-16T17:18:54.000Z</time>
      </trkpt>
      <trkpt lat="43.672685" lon="-7.570145">
        <ele>295</ele>
        <time>2019-03-16T17:18:56.000Z</time>
      </trkpt>
      <trkpt lat="43.67269" lon="-7.57024">
        <ele>294</ele>
        <time>2019-03-16T17:18:58.000Z</time>
      </trkpt>
      <trkpt lat="43.672692" lon="-7.570326">
        <ele>294</ele>
        <time>2019-03-16T17:19:00.000Z</time>
      </trkpt>
      <trkpt lat="43.672703" lon="-7.57045">
        <ele>293</ele>
        <time>2019-03-16T17:19:03.000Z</time>
      </trkpt>
      <trkpt lat="43.672717" lon="-7.570572">
        <ele>293</ele>
        <time>2019-03-16T17:19:06.000Z</time>
      </trkpt>
      <trkpt lat="43.672738" lon="-7.570654">
        <ele>292</ele>
        <time>2019-03-16T17:19:08.000Z</time>
      </trkpt>
      <trkpt lat="43.672787" lon="-7.570826">
        <ele>291</ele>
        <time>2019-03-16T17:19:10.000Z</time>
      </trkpt>
      <trkpt lat="43.672818" lon="-7.570958">
        <ele>290</ele>
        <time>2019-03-16T17:19:14.000Z</time>
      </trkpt>
      <trkpt lat="43.672829" lon="-7.571046">
        <ele>289</ele>
        <time>2019-03-16T17:19:16.000Z</time>
      </trkpt>
      <trkpt lat="43.672833" lon="-7.571134">
        <ele>288</ele>
        <time>2019-03-16T17:19:18.000Z</time>
      </trkpt>
      <trkpt lat="43.672833" lon="-7.571272">
        <ele>286</ele>
        <time>2019-03-16T17:19:21.000Z</time>
      </trkpt>
      <trkpt lat="43.672822" lon="-7.571422">
        <ele>285</ele>
        <time>2019-03-16T17:19:24.000Z</time>
      </trkpt>
      <trkpt lat="43.672819" lon="-7.571518">
        <ele>284</ele>
        <time>2019-03-16T17:19:26.000Z</time>
      </trkpt>
      <trkpt lat="43.672821" lon="-7.571606">
        <ele>283</ele>
        <time>2019-03-16T17:19:28.000Z</time>
      </trkpt>
      <trkpt lat="43.672821" lon="-7.571745">
        <ele>282</ele>
        <time>2019-03-16T17:19:31.000Z</time>
      </trkpt>
      <trkpt lat="43.672819" lon="-7.571835">
        <ele>281</ele>
        <time>2019-03-16T17:19:33.000Z</time>
      </trkpt>
      <trkpt lat="43.672815" lon="-7.571928">
        <ele>281</ele>
        <time>2019-03-16T17:19:35.000Z</time>
      </trkpt>
      <trkpt lat="43.672818" lon="-7.572058">
        <ele>280</ele>
        <time>2019-03-16T17:19:38.000Z</time>
      </trkpt>
      <trkpt lat="43.672804" lon="-7.572182">
        <ele>279</ele>
        <time>2019-03-16T17:19:41.000Z</time>
      </trkpt>
      <trkpt lat="43.672719" lon="-7.572503">
        <ele>278</ele>
        <time>2019-03-16T17:19:46.000Z</time>
      </trkpt>
      <trkpt lat="43.672681" lon="-7.57266">
        <ele>278</ele>
        <time>2019-03-16T17:19:49.000Z</time>
      </trkpt>
      <trkpt lat="43.672661" lon="-7.572741">
        <ele>277</ele>
        <time>2019-03-16T17:19:52.000Z</time>
      </trkpt>
      <trkpt lat="43.672643" lon="-7.572833">
        <ele>276</ele>
        <time>2019-03-16T17:19:55.000Z</time>
      </trkpt>
      <trkpt lat="43.67263" lon="-7.572903">
        <ele>276</ele>
        <time>2019-03-16T17:19:57.000Z</time>
      </trkpt>
      <trkpt lat="43.672604" lon="-7.573018">
        <ele>276</ele>
        <time>2019-03-16T17:20:00.000Z</time>
      </trkpt>
      <trkpt lat="43.672588" lon="-7.573141">
        <ele>275</ele>
        <time>2019-03-16T17:20:03.000Z</time>
      </trkpt>
      <trkpt lat="43.672577" lon="-7.573263">
        <ele>275</ele>
        <time>2019-03-16T17:20:06.000Z</time>
      </trkpt>
      <trkpt lat="43.672576" lon="-7.573369">
        <ele>274</ele>
        <time>2019-03-16T17:20:08.000Z</time>
      </trkpt>
      <trkpt lat="43.672571" lon="-7.573466">
        <ele>274</ele>
        <time>2019-03-16T17:20:10.000Z</time>
      </trkpt>
      <trkpt lat="43.672548" lon="-7.573757">
        <ele>270</ele>
        <time>2019-03-16T17:20:14.000Z</time>
      </trkpt>
      <trkpt lat="43.672555" lon="-7.573831">
        <ele>269</ele>
        <time>2019-03-16T17:20:16.000Z</time>
      </trkpt>
      <trkpt lat="43.672561" lon="-7.573944">
        <ele>268</ele>
        <time>2019-03-16T17:20:19.000Z</time>
      </trkpt>
      <trkpt lat="43.672565" lon="-7.57402">
        <ele>268</ele>
        <time>2019-03-16T17:20:21.000Z</time>
      </trkpt>
      <trkpt lat="43.672574" lon="-7.574088">
        <ele>267</ele>
        <time>2019-03-16T17:20:23.000Z</time>
      </trkpt>
      <trkpt lat="43.672595" lon="-7.574185">
        <ele>267</ele>
        <time>2019-03-16T17:20:25.000Z</time>
      </trkpt>
      <trkpt lat="43.672647" lon="-7.574355">
        <ele>266</ele>
        <time>2019-03-16T17:20:27.000Z</time>
      </trkpt>
      <trkpt lat="43.672703" lon="-7.574421">
        <ele>266</ele>
        <time>2019-03-16T17:20:31.000Z</time>
      </trkpt>
      <trkpt lat="43.672778" lon="-7.574482">
        <ele>265</ele>
        <time>2019-03-16T17:20:35.000Z</time>
      </trkpt>
      <trkpt lat="43.672817" lon="-7.574516">
        <ele>264</ele>
        <time>2019-03-16T17:20:37.000Z</time>
      </trkpt>
      <trkpt lat="43.672856" lon="-7.574558">
        <ele>264</ele>
        <time>2019-03-16T17:20:39.000Z</time>
      </trkpt>
      <trkpt lat="43.672908" lon="-7.574629">
        <ele>264</ele>
        <time>2019-03-16T17:20:42.000Z</time>
      </trkpt>
      <trkpt lat="43.672948" lon="-7.574686">
        <ele>263</ele>
        <time>2019-03-16T17:20:44.000Z</time>
      </trkpt>
      <trkpt lat="43.672983" lon="-7.57475">
        <ele>263</ele>
        <time>2019-03-16T17:20:46.000Z</time>
      </trkpt>
      <trkpt lat="43.673018" lon="-7.574826">
        <ele>263</ele>
        <time>2019-03-16T17:20:48.000Z</time>
      </trkpt>
      <trkpt lat="43.673047" lon="-7.574894">
        <ele>262</ele>
        <time>2019-03-16T17:20:50.000Z</time>
      </trkpt>
      <trkpt lat="43.673081" lon="-7.574968">
        <ele>262</ele>
        <time>2019-03-16T17:20:52.000Z</time>
      </trkpt>
      <trkpt lat="43.673133" lon="-7.575093">
        <ele>262</ele>
        <time>2019-03-16T17:20:55.000Z</time>
      </trkpt>
      <trkpt lat="43.673159" lon="-7.575179">
        <ele>262</ele>
        <time>2019-03-16T17:20:57.000Z</time>
      </trkpt>
      <trkpt lat="43.673181" lon="-7.57526">
        <ele>261</ele>
        <time>2019-03-16T17:20:59.000Z</time>
      </trkpt>
      <trkpt lat="43.673208" lon="-7.575369">
        <ele>261</ele>
        <time>2019-03-16T17:21:02.000Z</time>
      </trkpt>
      <trkpt lat="43.67323" lon="-7.575456">
        <ele>261</ele>
        <time>2019-03-16T17:21:04.000Z</time>
      </trkpt>
      <trkpt lat="43.673249" lon="-7.575533">
        <ele>261</ele>
        <time>2019-03-16T17:21:06.000Z</time>
      </trkpt>
      <trkpt lat="43.673284" lon="-7.575654">
        <ele>260</ele>
        <time>2019-03-16T17:21:09.000Z</time>
      </trkpt>
      <trkpt lat="43.673317" lon="-7.575768">
        <ele>261</ele>
        <time>2019-03-16T17:21:12.000Z</time>
      </trkpt>
      <trkpt lat="43.673344" lon="-7.575851">
        <ele>261</ele>
        <time>2019-03-16T17:21:14.000Z</time>
      </trkpt>
      <trkpt lat="43.673367" lon="-7.575935">
        <ele>261</ele>
        <time>2019-03-16T17:21:16.000Z</time>
      </trkpt>
      <trkpt lat="43.67339" lon="-7.57602">
        <ele>261</ele>
        <time>2019-03-16T17:21:18.000Z</time>
      </trkpt>
      <trkpt lat="43.673412" lon="-7.576109">
        <ele>260</ele>
        <time>2019-03-16T17:21:20.000Z</time>
      </trkpt>
      <trkpt lat="43.673434" lon="-7.576198">
        <ele>260</ele>
        <time>2019-03-16T17:21:22.000Z</time>
      </trkpt>
      <trkpt lat="43.673452" lon="-7.576277">
        <ele>260</ele>
        <time>2019-03-16T17:21:24.000Z</time>
      </trkpt>
      <trkpt lat="43.673467" lon="-7.576367">
        <ele>259</ele>
        <time>2019-03-16T17:21:26.000Z</time>
      </trkpt>
      <trkpt lat="43.673481" lon="-7.576444">
        <ele>259</ele>
        <time>2019-03-16T17:21:28.000Z</time>
      </trkpt>
      <trkpt lat="43.6735" lon="-7.576557">
        <ele>258</ele>
        <time>2019-03-16T17:21:31.000Z</time>
      </trkpt>
      <trkpt lat="43.673505" lon="-7.576634">
        <ele>258</ele>
        <time>2019-03-16T17:21:33.000Z</time>
      </trkpt>
      <trkpt lat="43.673505" lon="-7.57671">
        <ele>257</ele>
        <time>2019-03-16T17:21:35.000Z</time>
      </trkpt>
      <trkpt lat="43.6735" lon="-7.576786">
        <ele>257</ele>
        <time>2019-03-16T17:21:37.000Z</time>
      </trkpt>
      <trkpt lat="43.673489" lon="-7.576876">
        <ele>258</ele>
        <time>2019-03-16T17:21:39.000Z</time>
      </trkpt>
      <trkpt lat="43.673472" lon="-7.576961">
        <ele>258</ele>
        <time>2019-03-16T17:21:41.000Z</time>
      </trkpt>
      <trkpt lat="43.673454" lon="-7.577039">
        <ele>257</ele>
        <time>2019-03-16T17:21:43.000Z</time>
      </trkpt>
      <trkpt lat="43.673438" lon="-7.57711">
        <ele>258</ele>
        <time>2019-03-16T17:21:45.000Z</time>
      </trkpt>
      <trkpt lat="43.673414" lon="-7.577238">
        <ele>257</ele>
        <time>2019-03-16T17:21:48.000Z</time>
      </trkpt>
      <trkpt lat="43.673374" lon="-7.57738">
        <ele>257</ele>
        <time>2019-03-16T17:21:51.000Z</time>
      </trkpt>
      <trkpt lat="43.673332" lon="-7.577466">
        <ele>257</ele>
        <time>2019-03-16T17:21:53.000Z</time>
      </trkpt>
      <trkpt lat="43.673281" lon="-7.577555">
        <ele>257</ele>
        <time>2019-03-16T17:21:55.000Z</time>
      </trkpt>
      <trkpt lat="43.673232" lon="-7.577646">
        <ele>257</ele>
        <time>2019-03-16T17:21:57.000Z</time>
      </trkpt>
      <trkpt lat="43.673175" lon="-7.577762">
        <ele>257</ele>
        <time>2019-03-16T17:22:00.000Z</time>
      </trkpt>
      <trkpt lat="43.673139" lon="-7.57783">
        <ele>258</ele>
        <time>2019-03-16T17:22:02.000Z</time>
      </trkpt>
      <trkpt lat="43.673104" lon="-7.577901">
        <ele>257</ele>
        <time>2019-03-16T17:22:04.000Z</time>
      </trkpt>
      <trkpt lat="43.673068" lon="-7.577967">
        <ele>257</ele>
        <time>2019-03-16T17:22:06.000Z</time>
      </trkpt>
      <trkpt lat="43.673027" lon="-7.578046">
        <ele>257</ele>
        <time>2019-03-16T17:22:08.000Z</time>
      </trkpt>
      <trkpt lat="43.67299" lon="-7.578119">
        <ele>257</ele>
        <time>2019-03-16T17:22:10.000Z</time>
      </trkpt>
      <trkpt lat="43.672954" lon="-7.578189">
        <ele>257</ele>
        <time>2019-03-16T17:22:12.000Z</time>
      </trkpt>
      <trkpt lat="43.672922" lon="-7.578266">
        <ele>257</ele>
        <time>2019-03-16T17:22:14.000Z</time>
      </trkpt>
      <trkpt lat="43.672895" lon="-7.578342">
        <ele>257</ele>
        <time>2019-03-16T17:22:16.000Z</time>
      </trkpt>
      <trkpt lat="43.672873" lon="-7.578417">
        <ele>257</ele>
        <time>2019-03-16T17:22:18.000Z</time>
      </trkpt>
      <trkpt lat="43.672847" lon="-7.578498">
        <ele>257</ele>
        <time>2019-03-16T17:22:20.000Z</time>
      </trkpt>
      <trkpt lat="43.672818" lon="-7.578591">
        <ele>258</ele>
        <time>2019-03-16T17:22:23.000Z</time>
      </trkpt>
      <trkpt lat="43.672788" lon="-7.578678">
        <ele>259</ele>
        <time>2019-03-16T17:22:25.000Z</time>
      </trkpt>
      <trkpt lat="43.672746" lon="-7.578799">
        <ele>259</ele>
        <time>2019-03-16T17:22:28.000Z</time>
      </trkpt>
      <trkpt lat="43.672714" lon="-7.578896">
        <ele>259</ele>
        <time>2019-03-16T17:22:30.000Z</time>
      </trkpt>
      <trkpt lat="43.672695" lon="-7.578967">
        <ele>260</ele>
        <time>2019-03-16T17:22:32.000Z</time>
      </trkpt>
      <trkpt lat="43.67267" lon="-7.579047">
        <ele>260</ele>
        <time>2019-03-16T17:22:34.000Z</time>
      </trkpt>
      <trkpt lat="43.672647" lon="-7.57911">
        <ele>261</ele>
        <time>2019-03-16T17:22:36.000Z</time>
      </trkpt>
      <trkpt lat="43.672602" lon="-7.579249">
        <ele>261</ele>
        <time>2019-03-16T17:22:39.000Z</time>
      </trkpt>
      <trkpt lat="43.672575" lon="-7.57932">
        <ele>261</ele>
        <time>2019-03-16T17:22:41.000Z</time>
      </trkpt>
      <trkpt lat="43.672558" lon="-7.57938">
        <ele>261</ele>
        <time>2019-03-16T17:22:41.879Z</time>
      </trkpt>
      <trkpt lat="43.672541" lon="-7.579441">
        <ele>261</ele>
        <time>2019-03-16T17:22:44.000Z</time>
      </trkpt>
      <trkpt lat="43.672523" lon="-7.579507">
        <ele>261</ele>
        <time>2019-03-16T17:22:46.000Z</time>
      </trkpt>
      <trkpt lat="43.672496" lon="-7.57957">
        <ele>261</ele>
        <time>2019-03-16T17:22:48.000Z</time>
      </trkpt>
      <trkpt lat="43.672441" lon="-7.579673">
        <ele>261</ele>
        <time>2019-03-16T17:22:50.000Z</time>
      </trkpt>
      <trkpt lat="43.672405" lon="-7.579756">
        <ele>261</ele>
        <time>2019-03-16T17:22:52.000Z</time>
      </trkpt>
      <trkpt lat="43.672369" lon="-7.579832">
        <ele>261</ele>
        <time>2019-03-16T17:22:54.000Z</time>
      </trkpt>
      <trkpt lat="43.672319" lon="-7.579951">
        <ele>261</ele>
        <time>2019-03-16T17:22:58.000Z</time>
      </trkpt>
      <trkpt lat="43.672269" lon="-7.580131">
        <ele>261</ele>
        <time>2019-03-16T17:23:01.000Z</time>
      </trkpt>
      <trkpt lat="43.67225" lon="-7.580199">
        <ele>261</ele>
        <time>2019-03-16T17:23:01.946Z</time>
      </trkpt>
      <trkpt lat="43.672233" lon="-7.580264">
        <ele>261</ele>
        <time>2019-03-16T17:23:04.000Z</time>
      </trkpt>
      <trkpt lat="43.672203" lon="-7.580354">
        <ele>261</ele>
        <time>2019-03-16T17:23:07.000Z</time>
      </trkpt>
      <trkpt lat="43.672166" lon="-7.580431">
        <ele>260</ele>
        <time>2019-03-16T17:23:09.000Z</time>
      </trkpt>
      <trkpt lat="43.672113" lon="-7.580511">
        <ele>257</ele>
        <time>2019-03-16T17:23:12.000Z</time>
      </trkpt>
      <trkpt lat="43.672064" lon="-7.580577">
        <ele>255</ele>
        <time>2019-03-16T17:23:15.000Z</time>
      </trkpt>
      <trkpt lat="43.672012" lon="-7.580649">
        <ele>253</ele>
        <time>2019-03-16T17:23:18.000Z</time>
      </trkpt>
      <trkpt lat="43.67197" lon="-7.580712">
        <ele>252</ele>
        <time>2019-03-16T17:23:20.000Z</time>
      </trkpt>
      <trkpt lat="43.671929" lon="-7.580772">
        <ele>250</ele>
        <time>2019-03-16T17:23:22.000Z</time>
      </trkpt>
      <trkpt lat="43.671878" lon="-7.580876">
        <ele>248</ele>
        <time>2019-03-16T17:23:25.000Z</time>
      </trkpt>
      <trkpt lat="43.671847" lon="-7.580955">
        <ele>248</ele>
        <time>2019-03-16T17:23:27.000Z</time>
      </trkpt>
      <trkpt lat="43.671803" lon="-7.581086">
        <ele>249</ele>
        <time>2019-03-16T17:23:30.000Z</time>
      </trkpt>
      <trkpt lat="43.671764" lon="-7.581206">
        <ele>249</ele>
        <time>2019-03-16T17:23:33.000Z</time>
      </trkpt>
      <trkpt lat="43.671738" lon="-7.581288">
        <ele>248</ele>
        <time>2019-03-16T17:23:35.000Z</time>
      </trkpt>
      <trkpt lat="43.671714" lon="-7.581367">
        <ele>248</ele>
        <time>2019-03-16T17:23:37.000Z</time>
      </trkpt>
      <trkpt lat="43.67169" lon="-7.581441">
        <ele>248</ele>
        <time>2019-03-16T17:23:39.000Z</time>
      </trkpt>
      <trkpt lat="43.671667" lon="-7.58151">
        <ele>248</ele>
        <time>2019-03-16T17:23:41.000Z</time>
      </trkpt>
      <trkpt lat="43.671635" lon="-7.581585">
        <ele>247</ele>
        <time>2019-03-16T17:23:43.000Z</time>
      </trkpt>
      <trkpt lat="43.671597" lon="-7.58167">
        <ele>247</ele>
        <time>2019-03-16T17:23:45.000Z</time>
      </trkpt>
      <trkpt lat="43.671561" lon="-7.581754">
        <ele>248</ele>
        <time>2019-03-16T17:23:47.000Z</time>
      </trkpt>
      <trkpt lat="43.671536" lon="-7.581829">
        <ele>248</ele>
        <time>2019-03-16T17:23:49.000Z</time>
      </trkpt>
      <trkpt lat="43.671518" lon="-7.581921">
        <ele>248</ele>
        <time>2019-03-16T17:23:51.000Z</time>
      </trkpt>
      <trkpt lat="43.671512" lon="-7.581999">
        <ele>248</ele>
        <time>2019-03-16T17:23:53.000Z</time>
      </trkpt>
      <trkpt lat="43.671503" lon="-7.582071">
        <ele>247</ele>
        <time>2019-03-16T17:23:55.000Z</time>
      </trkpt>
      <trkpt lat="43.671493" lon="-7.582139">
        <ele>248</ele>
        <time>2019-03-16T17:23:57.000Z</time>
      </trkpt>
      <trkpt lat="43.671477" lon="-7.582209">
        <ele>247</ele>
        <time>2019-03-16T17:23:59.000Z</time>
      </trkpt>
      <trkpt lat="43.671444" lon="-7.582318">
        <ele>247</ele>
        <time>2019-03-16T17:24:02.000Z</time>
      </trkpt>
      <trkpt lat="43.671421" lon="-7.582383">
        <ele>246</ele>
        <time>2019-03-16T17:24:04.000Z</time>
      </trkpt>
      <trkpt lat="43.671396" lon="-7.58245">
        <ele>243</ele>
        <time>2019-03-16T17:24:06.000Z</time>
      </trkpt>
      <trkpt lat="43.671363" lon="-7.582554">
        <ele>239</ele>
        <time>2019-03-16T17:24:09.000Z</time>
      </trkpt>
      <trkpt lat="43.671342" lon="-7.582674">
        <ele>237</ele>
        <time>2019-03-16T17:24:12.000Z</time>
      </trkpt>
      <trkpt lat="43.671337" lon="-7.582756">
        <ele>235</ele>
        <time>2019-03-16T17:24:14.000Z</time>
      </trkpt>
      <trkpt lat="43.671345" lon="-7.582883">
        <ele>232</ele>
        <time>2019-03-16T17:24:17.000Z</time>
      </trkpt>
      <trkpt lat="43.671366" lon="-7.582972">
        <ele>231</ele>
        <time>2019-03-16T17:24:19.000Z</time>
      </trkpt>
      <trkpt lat="43.671406" lon="-7.583116">
        <ele>229</ele>
        <time>2019-03-16T17:24:22.000Z</time>
      </trkpt>
      <trkpt lat="43.671435" lon="-7.583216">
        <ele>229</ele>
        <time>2019-03-16T17:24:24.000Z</time>
      </trkpt>
      <trkpt lat="43.671464" lon="-7.583313">
        <ele>227</ele>
        <time>2019-03-16T17:24:26.000Z</time>
      </trkpt>
      <trkpt lat="43.671494" lon="-7.583406">
        <ele>226</ele>
        <time>2019-03-16T17:24:28.000Z</time>
      </trkpt>
      <trkpt lat="43.671517" lon="-7.583492">
        <ele>225</ele>
        <time>2019-03-16T17:24:30.000Z</time>
      </trkpt>
      <trkpt lat="43.671536" lon="-7.583576">
        <ele>225</ele>
        <time>2019-03-16T17:24:32.000Z</time>
      </trkpt>
      <trkpt lat="43.671551" lon="-7.583716">
        <ele>223</ele>
        <time>2019-03-16T17:24:35.000Z</time>
      </trkpt>
      <trkpt lat="43.671558" lon="-7.583819">
        <ele>223</ele>
        <time>2019-03-16T17:24:37.000Z</time>
      </trkpt>
      <trkpt lat="43.671557" lon="-7.583916">
        <ele>222</ele>
        <time>2019-03-16T17:24:39.000Z</time>
      </trkpt>
      <trkpt lat="43.671555" lon="-7.584004">
        <ele>222</ele>
        <time>2019-03-16T17:24:41.000Z</time>
      </trkpt>
      <trkpt lat="43.671557" lon="-7.584145">
        <ele>220</ele>
        <time>2019-03-16T17:24:44.000Z</time>
      </trkpt>
      <trkpt lat="43.671554" lon="-7.584295">
        <ele>217</ele>
        <time>2019-03-16T17:24:47.000Z</time>
      </trkpt>
      <trkpt lat="43.671545" lon="-7.584399">
        <ele>215</ele>
        <time>2019-03-16T17:24:49.000Z</time>
      </trkpt>
      <trkpt lat="43.671537" lon="-7.584514">
        <ele>213</ele>
        <time>2019-03-16T17:24:51.000Z</time>
      </trkpt>
      <trkpt lat="43.671529" lon="-7.584637">
        <ele>213</ele>
        <time>2019-03-16T17:24:53.000Z</time>
      </trkpt>
      <trkpt lat="43.67153" lon="-7.58475">
        <ele>212</ele>
        <time>2019-03-16T17:24:55.000Z</time>
      </trkpt>
      <trkpt lat="43.671532" lon="-7.584846">
        <ele>211</ele>
        <time>2019-03-16T17:24:57.000Z</time>
      </trkpt>
      <trkpt lat="43.671529" lon="-7.58494">
        <ele>211</ele>
        <time>2019-03-16T17:24:59.000Z</time>
      </trkpt>
      <trkpt lat="43.671529" lon="-7.585028">
        <ele>210</ele>
        <time>2019-03-16T17:25:01.000Z</time>
      </trkpt>
      <trkpt lat="43.671528" lon="-7.585117">
        <ele>210</ele>
        <time>2019-03-16T17:25:03.000Z</time>
      </trkpt>
      <trkpt lat="43.671526" lon="-7.585208">
        <ele>209</ele>
        <time>2019-03-16T17:25:05.000Z</time>
      </trkpt>
      <trkpt lat="43.67152" lon="-7.585294">
        <ele>208</ele>
        <time>2019-03-16T17:25:07.000Z</time>
      </trkpt>
      <trkpt lat="43.671514" lon="-7.585369">
        <ele>207</ele>
        <time>2019-03-16T17:25:09.000Z</time>
      </trkpt>
      <trkpt lat="43.67151" lon="-7.585489">
        <ele>205</ele>
        <time>2019-03-16T17:25:12.000Z</time>
      </trkpt>
      <trkpt lat="43.671503" lon="-7.585606">
        <ele>205</ele>
        <time>2019-03-16T17:25:15.000Z</time>
      </trkpt>
      <trkpt lat="43.671486" lon="-7.585679">
        <ele>204</ele>
        <time>2019-03-16T17:25:17.000Z</time>
      </trkpt>
      <trkpt lat="43.671452" lon="-7.585777">
        <ele>203</ele>
        <time>2019-03-16T17:25:20.000Z</time>
      </trkpt>
      <trkpt lat="43.671426" lon="-7.585846">
        <ele>202</ele>
        <time>2019-03-16T17:25:22.000Z</time>
      </trkpt>
      <trkpt lat="43.671412" lon="-7.585909">
        <ele>201</ele>
        <time>2019-03-16T17:25:24.000Z</time>
      </trkpt>
      <trkpt lat="43.671378" lon="-7.586017">
        <ele>199</ele>
        <time>2019-03-16T17:25:27.000Z</time>
      </trkpt>
      <trkpt lat="43.67135" lon="-7.586087">
        <ele>197</ele>
        <time>2019-03-16T17:25:29.000Z</time>
      </trkpt>
      <trkpt lat="43.671308" lon="-7.586212">
        <ele>195</ele>
        <time>2019-03-16T17:25:32.000Z</time>
      </trkpt>
      <trkpt lat="43.671273" lon="-7.586343">
        <ele>193</ele>
        <time>2019-03-16T17:25:35.000Z</time>
      </trkpt>
      <trkpt lat="43.671257" lon="-7.586433">
        <ele>193</ele>
        <time>2019-03-16T17:25:37.000Z</time>
      </trkpt>
      <trkpt lat="43.671249" lon="-7.586524">
        <ele>191</ele>
        <time>2019-03-16T17:25:39.000Z</time>
      </trkpt>
      <trkpt lat="43.671247" lon="-7.586616">
        <ele>189</ele>
        <time>2019-03-16T17:25:41.000Z</time>
      </trkpt>
      <trkpt lat="43.671255" lon="-7.586716">
        <ele>188</ele>
        <time>2019-03-16T17:25:43.000Z</time>
      </trkpt>
      <trkpt lat="43.67128" lon="-7.586849">
        <ele>186</ele>
        <time>2019-03-16T17:25:46.000Z</time>
      </trkpt>
      <trkpt lat="43.671314" lon="-7.586931">
        <ele>186</ele>
        <time>2019-03-16T17:25:48.000Z</time>
      </trkpt>
      <trkpt lat="43.671357" lon="-7.586997">
        <ele>185</ele>
        <time>2019-03-16T17:25:50.000Z</time>
      </trkpt>
      <trkpt lat="43.671409" lon="-7.587048">
        <ele>184</ele>
        <time>2019-03-16T17:25:52.000Z</time>
      </trkpt>
      <trkpt lat="43.671489" lon="-7.587131">
        <ele>184</ele>
        <time>2019-03-16T17:25:55.000Z</time>
      </trkpt>
      <trkpt lat="43.671532" lon="-7.58717">
        <ele>184</ele>
        <time>2019-03-16T17:25:57.000Z</time>
      </trkpt>
      <trkpt lat="43.671617" lon="-7.587232">
        <ele>183</ele>
        <time>2019-03-16T17:26:00.000Z</time>
      </trkpt>
      <trkpt lat="43.671669" lon="-7.587266">
        <ele>182</ele>
        <time>2019-03-16T17:26:02.000Z</time>
      </trkpt>
      <trkpt lat="43.671727" lon="-7.587297">
        <ele>182</ele>
        <time>2019-03-16T17:26:04.000Z</time>
      </trkpt>
      <trkpt lat="43.671791" lon="-7.587322">
        <ele>181</ele>
        <time>2019-03-16T17:26:06.000Z</time>
      </trkpt>
      <trkpt lat="43.671859" lon="-7.587344">
        <ele>181</ele>
        <time>2019-03-16T17:26:08.000Z</time>
      </trkpt>
      <trkpt lat="43.671925" lon="-7.587359">
        <ele>180</ele>
        <time>2019-03-16T17:26:10.000Z</time>
      </trkpt>
      <trkpt lat="43.67199" lon="-7.587374">
        <ele>181</ele>
        <time>2019-03-16T17:26:12.000Z</time>
      </trkpt>
      <trkpt lat="43.672052" lon="-7.587396">
        <ele>180</ele>
        <time>2019-03-16T17:26:14.000Z</time>
      </trkpt>
      <trkpt lat="43.67211" lon="-7.587431">
        <ele>180</ele>
        <time>2019-03-16T17:26:16.000Z</time>
      </trkpt>
      <trkpt lat="43.67218" lon="-7.587484">
        <ele>180</ele>
        <time>2019-03-16T17:26:19.000Z</time>
      </trkpt>
      <trkpt lat="43.672227" lon="-7.587447">
        <ele>178</ele>
        <time>2019-03-16T17:26:23.000Z</time>
      </trkpt>
      <trkpt lat="43.672198" lon="-7.587359">
        <ele>176</ele>
        <time>2019-03-16T17:26:26.000Z</time>
      </trkpt>
      <trkpt lat="43.672174" lon="-7.58729">
        <ele>175</ele>
        <time>2019-03-16T17:26:28.000Z</time>
      </trkpt>
      <trkpt lat="43.672147" lon="-7.587192">
        <ele>174</ele>
        <time>2019-03-16T17:26:31.000Z</time>
      </trkpt>
      <trkpt lat="43.672126" lon="-7.587115">
        <ele>173</ele>
        <time>2019-03-16T17:26:33.000Z</time>
      </trkpt>
      <trkpt lat="43.672104" lon="-7.587033">
        <ele>173</ele>
        <time>2019-03-16T17:26:35.000Z</time>
      </trkpt>
      <trkpt lat="43.672083" lon="-7.58695">
        <ele>172</ele>
        <time>2019-03-16T17:26:37.000Z</time>
      </trkpt>
      <trkpt lat="43.67206" lon="-7.58687">
        <ele>172</ele>
        <time>2019-03-16T17:26:39.000Z</time>
      </trkpt>
      <trkpt lat="43.672037" lon="-7.586794">
        <ele>172</ele>
        <time>2019-03-16T17:26:41.000Z</time>
      </trkpt>
      <trkpt lat="43.672014" lon="-7.586715">
        <ele>171</ele>
        <time>2019-03-16T17:26:43.000Z</time>
      </trkpt>
      <trkpt lat="43.671986" lon="-7.586643">
        <ele>170</ele>
        <time>2019-03-16T17:26:45.000Z</time>
      </trkpt>
      <trkpt lat="43.671972" lon="-7.586563">
        <ele>169</ele>
        <time>2019-03-16T17:26:47.000Z</time>
      </trkpt>
      <trkpt lat="43.671977" lon="-7.586476">
        <ele>169</ele>
        <time>2019-03-16T17:26:49.000Z</time>
      </trkpt>
      <trkpt lat="43.672001" lon="-7.586392">
        <ele>170</ele>
        <time>2019-03-16T17:26:51.000Z</time>
      </trkpt>
      <trkpt lat="43.672045" lon="-7.586319">
        <ele>169</ele>
        <time>2019-03-16T17:26:53.000Z</time>
      </trkpt>
      <trkpt lat="43.672103" lon="-7.586214">
        <ele>169</ele>
        <time>2019-03-16T17:26:56.000Z</time>
      </trkpt>
      <trkpt lat="43.672127" lon="-7.586136">
        <ele>169</ele>
        <time>2019-03-16T17:26:58.000Z</time>
      </trkpt>
      <trkpt lat="43.672147" lon="-7.586049">
        <ele>169</ele>
        <time>2019-03-16T17:27:00.000Z</time>
      </trkpt>
      <trkpt lat="43.672168" lon="-7.585971">
        <ele>168</ele>
        <time>2019-03-16T17:27:02.000Z</time>
      </trkpt>
      <trkpt lat="43.672225" lon="-7.585851">
        <ele>168</ele>
        <time>2019-03-16T17:27:05.000Z</time>
      </trkpt>
      <trkpt lat="43.67228" lon="-7.58576">
        <ele>168</ele>
        <time>2019-03-16T17:27:08.000Z</time>
      </trkpt>
      <trkpt lat="43.672321" lon="-7.585699">
        <ele>167</ele>
        <time>2019-03-16T17:27:10.000Z</time>
      </trkpt>
      <trkpt lat="43.672406" lon="-7.585533">
        <ele>164</ele>
        <time>2019-03-16T17:27:13.000Z</time>
      </trkpt>
      <trkpt lat="43.672446" lon="-7.585455">
        <ele>163</ele>
        <time>2019-03-16T17:27:16.000Z</time>
      </trkpt>
      <trkpt lat="43.67249" lon="-7.585387">
        <ele>161</ele>
        <time>2019-03-16T17:27:19.000Z</time>
      </trkpt>
      <trkpt lat="43.672551" lon="-7.585339">
        <ele>160</ele>
        <time>2019-03-16T17:27:21.000Z</time>
      </trkpt>
      <trkpt lat="43.672608" lon="-7.585308">
        <ele>159</ele>
        <time>2019-03-16T17:27:23.000Z</time>
      </trkpt>
      <trkpt lat="43.672658" lon="-7.585279">
        <ele>158</ele>
        <time>2019-03-16T17:27:25.000Z</time>
      </trkpt>
      <trkpt lat="43.672769" lon="-7.585187">
        <ele>156</ele>
        <time>2019-03-16T17:27:27.000Z</time>
      </trkpt>
      <trkpt lat="43.672829" lon="-7.58512">
        <ele>155</ele>
        <time>2019-03-16T17:27:31.000Z</time>
      </trkpt>
      <trkpt lat="43.67293" lon="-7.585079">
        <ele>154</ele>
        <time>2019-03-16T17:27:35.000Z</time>
      </trkpt>
      <trkpt lat="43.672982" lon="-7.585074">
        <ele>154</ele>
        <time>2019-03-16T17:27:37.000Z</time>
      </trkpt>
      <trkpt lat="43.673033" lon="-7.58507">
        <ele>154</ele>
        <time>2019-03-16T17:27:40.000Z</time>
      </trkpt>
      <trkpt lat="43.673101" lon="-7.58507">
        <ele>154</ele>
        <time>2019-03-16T17:27:42.000Z</time>
      </trkpt>
      <trkpt lat="43.673192" lon="-7.585113">
        <ele>150</ele>
        <time>2019-03-16T17:27:45.000Z</time>
      </trkpt>
      <trkpt lat="43.673238" lon="-7.585166">
        <ele>148</ele>
        <time>2019-03-16T17:27:47.000Z</time>
      </trkpt>
      <trkpt lat="43.673269" lon="-7.585234">
        <ele>147</ele>
        <time>2019-03-16T17:27:49.000Z</time>
      </trkpt>
      <trkpt lat="43.673309" lon="-7.585304">
        <ele>144</ele>
        <time>2019-03-16T17:27:51.000Z</time>
      </trkpt>
      <trkpt lat="43.673359" lon="-7.585348">
        <ele>143</ele>
        <time>2019-03-16T17:27:53.000Z</time>
      </trkpt>
      <trkpt lat="43.673419" lon="-7.585372">
        <ele>142</ele>
        <time>2019-03-16T17:27:55.000Z</time>
      </trkpt>
      <trkpt lat="43.673488" lon="-7.58538">
        <ele>141</ele>
        <time>2019-03-16T17:27:57.000Z</time>
      </trkpt>
      <trkpt lat="43.673555" lon="-7.585366">
        <ele>139</ele>
        <time>2019-03-16T17:27:59.000Z</time>
      </trkpt>
      <trkpt lat="43.67362" lon="-7.585294">
        <ele>138</ele>
        <time>2019-03-16T17:28:02.000Z</time>
      </trkpt>
      <trkpt lat="43.673644" lon="-7.585227">
        <ele>136</ele>
        <time>2019-03-16T17:28:04.000Z</time>
      </trkpt>
      <trkpt lat="43.673672" lon="-7.58515">
        <ele>135</ele>
        <time>2019-03-16T17:28:06.000Z</time>
      </trkpt>
      <trkpt lat="43.673706" lon="-7.585102">
        <ele>133</ele>
        <time>2019-03-16T17:28:08.000Z</time>
      </trkpt>
      <trkpt lat="43.673795" lon="-7.5851">
        <ele>132</ele>
        <time>2019-03-16T17:28:12.000Z</time>
      </trkpt>
      <trkpt lat="43.673849" lon="-7.585122">
        <ele>131</ele>
        <time>2019-03-16T17:28:14.000Z</time>
      </trkpt>
      <trkpt lat="43.673923" lon="-7.585164">
        <ele>130</ele>
        <time>2019-03-16T17:28:16.000Z</time>
      </trkpt>
      <trkpt lat="43.674004" lon="-7.585219">
        <ele>129</ele>
        <time>2019-03-16T17:28:19.000Z</time>
      </trkpt>
      <trkpt lat="43.674068" lon="-7.585259">
        <ele>128</ele>
        <time>2019-03-16T17:28:21.000Z</time>
      </trkpt>
      <trkpt lat="43.674139" lon="-7.585301">
        <ele>126</ele>
        <time>2019-03-16T17:28:24.000Z</time>
      </trkpt>
      <trkpt lat="43.674197" lon="-7.585331">
        <ele>126</ele>
        <time>2019-03-16T17:28:26.000Z</time>
      </trkpt>
      <trkpt lat="43.674279" lon="-7.58538">
        <ele>125</ele>
        <time>2019-03-16T17:28:29.000Z</time>
      </trkpt>
      <trkpt lat="43.674332" lon="-7.585414">
        <ele>124</ele>
        <time>2019-03-16T17:28:31.000Z</time>
      </trkpt>
      <trkpt lat="43.674457" lon="-7.585512">
        <ele>121</ele>
        <time>2019-03-16T17:28:34.000Z</time>
      </trkpt>
      <trkpt lat="43.674453" lon="-7.5856">
        <ele>120</ele>
        <time>2019-03-16T17:28:38.000Z</time>
      </trkpt>
      <trkpt lat="43.674445" lon="-7.585662">
        <ele>120</ele>
        <time>2019-03-16T17:28:40.000Z</time>
      </trkpt>
      <trkpt lat="43.674439" lon="-7.585731">
        <ele>120</ele>
        <time>2019-03-16T17:28:42.000Z</time>
      </trkpt>
      <trkpt lat="43.674429" lon="-7.585818">
        <ele>119</ele>
        <time>2019-03-16T17:28:44.000Z</time>
      </trkpt>
      <trkpt lat="43.674441" lon="-7.585954">
        <ele>117</ele>
        <time>2019-03-16T17:28:48.000Z</time>
      </trkpt>
      <trkpt lat="43.67447" lon="-7.586074">
        <ele>116</ele>
        <time>2019-03-16T17:28:51.000Z</time>
      </trkpt>
      <trkpt lat="43.674491" lon="-7.586145">
        <ele>115</ele>
        <time>2019-03-16T17:28:53.000Z</time>
      </trkpt>
      <trkpt lat="43.674512" lon="-7.586209">
        <ele>114</ele>
        <time>2019-03-16T17:28:55.000Z</time>
      </trkpt>
      <trkpt lat="43.674529" lon="-7.586281">
        <ele>113</ele>
        <time>2019-03-16T17:28:57.000Z</time>
      </trkpt>
      <trkpt lat="43.674551" lon="-7.586396">
        <ele>112</ele>
        <time>2019-03-16T17:29:00.000Z</time>
      </trkpt>
      <trkpt lat="43.67458" lon="-7.586502">
        <ele>111</ele>
        <time>2019-03-16T17:29:03.000Z</time>
      </trkpt>
      <trkpt lat="43.674604" lon="-7.586574">
        <ele>110</ele>
        <time>2019-03-16T17:29:05.000Z</time>
      </trkpt>
      <trkpt lat="43.674633" lon="-7.586678">
        <ele>109</ele>
        <time>2019-03-16T17:29:08.000Z</time>
      </trkpt>
      <trkpt lat="43.674659" lon="-7.586786">
        <ele>109</ele>
        <time>2019-03-16T17:29:11.000Z</time>
      </trkpt>
      <trkpt lat="43.674678" lon="-7.586876">
        <ele>108</ele>
        <time>2019-03-16T17:29:13.000Z</time>
      </trkpt>
      <trkpt lat="43.674693" lon="-7.58694">
        <ele>108</ele>
        <time>2019-03-16T17:29:15.000Z</time>
      </trkpt>
      <trkpt lat="43.674711" lon="-7.587014">
        <ele>108</ele>
        <time>2019-03-16T17:29:17.000Z</time>
      </trkpt>
      <trkpt lat="43.674732" lon="-7.587109">
        <ele>107</ele>
        <time>2019-03-16T17:29:20.000Z</time>
      </trkpt>
      <trkpt lat="43.674749" lon="-7.587172">
        <ele>106</ele>
        <time>2019-03-16T17:29:22.000Z</time>
      </trkpt>
      <trkpt lat="43.674762" lon="-7.587243">
        <ele>106</ele>
        <time>2019-03-16T17:29:24.000Z</time>
      </trkpt>
      <trkpt lat="43.674774" lon="-7.587306">
        <ele>106</ele>
        <time>2019-03-16T17:29:26.000Z</time>
      </trkpt>
      <trkpt lat="43.674789" lon="-7.587374">
        <ele>105</ele>
        <time>2019-03-16T17:29:28.000Z</time>
      </trkpt>
      <trkpt lat="43.674804" lon="-7.587448">
        <ele>104</ele>
        <time>2019-03-16T17:29:30.000Z</time>
      </trkpt>
      <trkpt lat="43.674818" lon="-7.587523">
        <ele>104</ele>
        <time>2019-03-16T17:29:32.000Z</time>
      </trkpt>
      <trkpt lat="43.674834" lon="-7.587642">
        <ele>104</ele>
        <time>2019-03-16T17:29:35.000Z</time>
      </trkpt>
      <trkpt lat="43.674839" lon="-7.587734">
        <ele>103</ele>
        <time>2019-03-16T17:29:38.000Z</time>
      </trkpt>
      <trkpt lat="43.674836" lon="-7.587807">
        <ele>103</ele>
        <time>2019-03-16T17:29:40.000Z</time>
      </trkpt>
      <trkpt lat="43.674834" lon="-7.587884">
        <ele>104</ele>
        <time>2019-03-16T17:29:42.000Z</time>
      </trkpt>
      <trkpt lat="43.674837" lon="-7.588001">
        <ele>104</ele>
        <time>2019-03-16T17:29:45.000Z</time>
      </trkpt>
      <trkpt lat="43.674834" lon="-7.58807">
        <ele>103</ele>
        <time>2019-03-16T17:29:47.000Z</time>
      </trkpt>
      <trkpt lat="43.674832" lon="-7.588138">
        <ele>103</ele>
        <time>2019-03-16T17:29:49.000Z</time>
      </trkpt>
      <trkpt lat="43.674831" lon="-7.588211">
        <ele>103</ele>
        <time>2019-03-16T17:29:51.000Z</time>
      </trkpt>
      <trkpt lat="43.674831" lon="-7.588297">
        <ele>103</ele>
        <time>2019-03-16T17:29:53.000Z</time>
      </trkpt>
      <trkpt lat="43.67483" lon="-7.588369">
        <ele>104</ele>
        <time>2019-03-16T17:29:55.000Z</time>
      </trkpt>
      <trkpt lat="43.674832" lon="-7.588468">
        <ele>105</ele>
        <time>2019-03-16T17:29:58.000Z</time>
      </trkpt>
      <trkpt lat="43.674825" lon="-7.588567">
        <ele>105</ele>
        <time>2019-03-16T17:30:01.000Z</time>
      </trkpt>
      <trkpt lat="43.674816" lon="-7.588646">
        <ele>105</ele>
        <time>2019-03-16T17:30:03.000Z</time>
      </trkpt>
      <trkpt lat="43.674807" lon="-7.588718">
        <ele>106</ele>
        <time>2019-03-16T17:30:05.000Z</time>
      </trkpt>
      <trkpt lat="43.6748" lon="-7.588796">
        <ele>106</ele>
        <time>2019-03-16T17:30:07.000Z</time>
      </trkpt>
      <trkpt lat="43.674789" lon="-7.588867">
        <ele>106</ele>
        <time>2019-03-16T17:30:09.000Z</time>
      </trkpt>
      <trkpt lat="43.67478" lon="-7.588936">
        <ele>107</ele>
        <time>2019-03-16T17:30:11.000Z</time>
      </trkpt>
      <trkpt lat="43.674774" lon="-7.589007">
        <ele>107</ele>
        <time>2019-03-16T17:30:13.000Z</time>
      </trkpt>
      <trkpt lat="43.674761" lon="-7.589069">
        <ele>107</ele>
        <time>2019-03-16T17:30:15.000Z</time>
      </trkpt>
      <trkpt lat="43.674749" lon="-7.589135">
        <ele>109</ele>
        <time>2019-03-16T17:30:17.000Z</time>
      </trkpt>
      <trkpt lat="43.674734" lon="-7.589195">
        <ele>109</ele>
        <time>2019-03-16T17:30:19.000Z</time>
      </trkpt>
      <trkpt lat="43.674718" lon="-7.589256">
        <ele>110</ele>
        <time>2019-03-16T17:30:21.000Z</time>
      </trkpt>
      <trkpt lat="43.674701" lon="-7.589352">
        <ele>111</ele>
        <time>2019-03-16T17:30:24.000Z</time>
      </trkpt>
      <trkpt lat="43.674697" lon="-7.58942">
        <ele>111</ele>
        <time>2019-03-16T17:30:26.000Z</time>
      </trkpt>
      <trkpt lat="43.674692" lon="-7.589522">
        <ele>111</ele>
        <time>2019-03-16T17:30:29.000Z</time>
      </trkpt>
      <trkpt lat="43.674674" lon="-7.58963">
        <ele>111</ele>
        <time>2019-03-16T17:30:32.000Z</time>
      </trkpt>
      <trkpt lat="43.674648" lon="-7.589734">
        <ele>112</ele>
        <time>2019-03-16T17:30:35.000Z</time>
      </trkpt>
      <trkpt lat="43.674624" lon="-7.58984">
        <ele>113</ele>
        <time>2019-03-16T17:30:38.000Z</time>
      </trkpt>
      <trkpt lat="43.674608" lon="-7.589916">
        <ele>114</ele>
        <time>2019-03-16T17:30:40.000Z</time>
      </trkpt>
      <trkpt lat="43.674582" lon="-7.59002">
        <ele>114</ele>
        <time>2019-03-16T17:30:43.000Z</time>
      </trkpt>
      <trkpt lat="43.67457" lon="-7.590085">
        <ele>114</ele>
        <time>2019-03-16T17:30:45.000Z</time>
      </trkpt>
      <trkpt lat="43.674552" lon="-7.590173">
        <ele>115</ele>
        <time>2019-03-16T17:30:48.000Z</time>
      </trkpt>
      <trkpt lat="43.674523" lon="-7.590257">
        <ele>117</ele>
        <time>2019-03-16T17:30:51.000Z</time>
      </trkpt>
      <trkpt lat="43.6745" lon="-7.590313">
        <ele>118</ele>
        <time>2019-03-16T17:30:53.000Z</time>
      </trkpt>
      <trkpt lat="43.67447" lon="-7.590398">
        <ele>119</ele>
        <time>2019-03-16T17:30:56.000Z</time>
      </trkpt>
      <trkpt lat="43.674445" lon="-7.590469">
        <ele>120</ele>
        <time>2019-03-16T17:30:58.000Z</time>
      </trkpt>
      <trkpt lat="43.674424" lon="-7.590536">
        <ele>120</ele>
        <time>2019-03-16T17:31:00.000Z</time>
      </trkpt>
      <trkpt lat="43.674387" lon="-7.590644">
        <ele>121</ele>
        <time>2019-03-16T17:31:03.000Z</time>
      </trkpt>
      <trkpt lat="43.674358" lon="-7.590718">
        <ele>121</ele>
        <time>2019-03-16T17:31:05.000Z</time>
      </trkpt>
      <trkpt lat="43.674334" lon="-7.590784">
        <ele>121</ele>
        <time>2019-03-16T17:31:07.000Z</time>
      </trkpt>
      <trkpt lat="43.674293" lon="-7.590893">
        <ele>120</ele>
        <time>2019-03-16T17:31:10.000Z</time>
      </trkpt>
      <trkpt lat="43.674268" lon="-7.590971">
        <ele>121</ele>
        <time>2019-03-16T17:31:12.000Z</time>
      </trkpt>
      <trkpt lat="43.674236" lon="-7.591083">
        <ele>121</ele>
        <time>2019-03-16T17:31:15.000Z</time>
      </trkpt>
      <trkpt lat="43.674196" lon="-7.591194">
        <ele>121</ele>
        <time>2019-03-16T17:31:18.000Z</time>
      </trkpt>
      <trkpt lat="43.674168" lon="-7.591278">
        <ele>121</ele>
        <time>2019-03-16T17:31:20.000Z</time>
      </trkpt>
      <trkpt lat="43.674143" lon="-7.591361">
        <ele>122</ele>
        <time>2019-03-16T17:31:22.000Z</time>
      </trkpt>
      <trkpt lat="43.674113" lon="-7.591456">
        <ele>123</ele>
        <time>2019-03-16T17:31:25.000Z</time>
      </trkpt>
      <trkpt lat="43.674092" lon="-7.591517">
        <ele>123</ele>
        <time>2019-03-16T17:31:27.000Z</time>
      </trkpt>
      <trkpt lat="43.674071" lon="-7.591576">
        <ele>124</ele>
        <time>2019-03-16T17:31:29.000Z</time>
      </trkpt>
      <trkpt lat="43.674026" lon="-7.591674">
        <ele>125</ele>
        <time>2019-03-16T17:31:32.000Z</time>
      </trkpt>
      <trkpt lat="43.673989" lon="-7.591736">
        <ele>124</ele>
        <time>2019-03-16T17:31:34.000Z</time>
      </trkpt>
      <trkpt lat="43.673929" lon="-7.591816">
        <ele>125</ele>
        <time>2019-03-16T17:31:37.000Z</time>
      </trkpt>
      <trkpt lat="43.673884" lon="-7.591874">
        <ele>125</ele>
        <time>2019-03-16T17:31:39.000Z</time>
      </trkpt>
      <trkpt lat="43.673843" lon="-7.591926">
        <ele>125</ele>
        <time>2019-03-16T17:31:41.000Z</time>
      </trkpt>
      <trkpt lat="43.673787" lon="-7.591984">
        <ele>125</ele>
        <time>2019-03-16T17:31:43.000Z</time>
      </trkpt>
      <trkpt lat="43.673713" lon="-7.592056">
        <ele>126</ele>
        <time>2019-03-16T17:31:46.000Z</time>
      </trkpt>
      <trkpt lat="43.673671" lon="-7.592095">
        <ele>126</ele>
        <time>2019-03-16T17:31:48.000Z</time>
      </trkpt>
      <trkpt lat="43.673615" lon="-7.59214">
        <ele>127</ele>
        <time>2019-03-16T17:31:51.000Z</time>
      </trkpt>
      <trkpt lat="43.673574" lon="-7.59217">
        <ele>127</ele>
        <time>2019-03-16T17:31:53.000Z</time>
      </trkpt>
      <trkpt lat="43.673531" lon="-7.592195">
        <ele>128</ele>
        <time>2019-03-16T17:31:55.000Z</time>
      </trkpt>
      <trkpt lat="43.673479" lon="-7.59223">
        <ele>129</ele>
        <time>2019-03-16T17:31:57.000Z</time>
      </trkpt>
      <trkpt lat="43.673385" lon="-7.592286">
        <ele>127</ele>
        <time>2019-03-16T17:31:59.000Z</time>
      </trkpt>
      <trkpt lat="43.673298" lon="-7.592317">
        <ele>127</ele>
        <time>2019-03-16T17:32:03.000Z</time>
      </trkpt>
      <trkpt lat="43.673245" lon="-7.592337">
        <ele>127</ele>
        <time>2019-03-16T17:32:05.000Z</time>
      </trkpt>
      <trkpt lat="43.673185" lon="-7.592359">
        <ele>127</ele>
        <time>2019-03-16T17:32:07.000Z</time>
      </trkpt>
      <trkpt lat="43.67312" lon="-7.592391">
        <ele>126</ele>
        <time>2019-03-16T17:32:09.000Z</time>
      </trkpt>
      <trkpt lat="43.673044" lon="-7.592441">
        <ele>126</ele>
        <time>2019-03-16T17:32:12.000Z</time>
      </trkpt>
      <trkpt lat="43.673001" lon="-7.59248">
        <ele>126</ele>
        <time>2019-03-16T17:32:14.000Z</time>
      </trkpt>
      <trkpt lat="43.672957" lon="-7.592529">
        <ele>127</ele>
        <time>2019-03-16T17:32:16.000Z</time>
      </trkpt>
      <trkpt lat="43.672888" lon="-7.592612">
        <ele>127</ele>
        <time>2019-03-16T17:32:19.000Z</time>
      </trkpt>
      <trkpt lat="43.672822" lon="-7.592703">
        <ele>127</ele>
        <time>2019-03-16T17:32:22.000Z</time>
      </trkpt>
      <trkpt lat="43.672785" lon="-7.59276">
        <ele>127</ele>
        <time>2019-03-16T17:32:24.000Z</time>
      </trkpt>
      <trkpt lat="43.672746" lon="-7.592819">
        <ele>127</ele>
        <time>2019-03-16T17:32:26.000Z</time>
      </trkpt>
      <trkpt lat="43.67271" lon="-7.592868">
        <ele>127</ele>
        <time>2019-03-16T17:32:28.000Z</time>
      </trkpt>
      <trkpt lat="43.672664" lon="-7.592926">
        <ele>126</ele>
        <time>2019-03-16T17:32:30.000Z</time>
      </trkpt>
      <trkpt lat="43.672606" lon="-7.592984">
        <ele>125</ele>
        <time>2019-03-16T17:32:32.000Z</time>
      </trkpt>
      <trkpt lat="43.672551" lon="-7.593027">
        <ele>125</ele>
        <time>2019-03-16T17:32:34.000Z</time>
      </trkpt>
      <trkpt lat="43.672489" lon="-7.593061">
        <ele>125</ele>
        <time>2019-03-16T17:32:36.000Z</time>
      </trkpt>
      <trkpt lat="43.672429" lon="-7.59308">
        <ele>124</ele>
        <time>2019-03-16T17:32:38.000Z</time>
      </trkpt>
      <trkpt lat="43.672333" lon="-7.593109">
        <ele>125</ele>
        <time>2019-03-16T17:32:41.000Z</time>
      </trkpt>
      <trkpt lat="43.672243" lon="-7.59313">
        <ele>125</ele>
        <time>2019-03-16T17:32:44.000Z</time>
      </trkpt>
      <trkpt lat="43.672178" lon="-7.593143">
        <ele>125</ele>
        <time>2019-03-16T17:32:46.000Z</time>
      </trkpt>
      <trkpt lat="43.672116" lon="-7.593157">
        <ele>125</ele>
        <time>2019-03-16T17:32:48.000Z</time>
      </trkpt>
      <trkpt lat="43.672068" lon="-7.593172">
        <ele>125</ele>
        <time>2019-03-16T17:32:50.000Z</time>
      </trkpt>
      <trkpt lat="43.672" lon="-7.593183">
        <ele>124</ele>
        <time>2019-03-16T17:32:53.000Z</time>
      </trkpt>
      <trkpt lat="43.671946" lon="-7.593175">
        <ele>124</ele>
        <time>2019-03-16T17:32:55.000Z</time>
      </trkpt>
      <trkpt lat="43.671882" lon="-7.593159">
        <ele>124</ele>
        <time>2019-03-16T17:32:57.000Z</time>
      </trkpt>
      <trkpt lat="43.671821" lon="-7.593148">
        <ele>124</ele>
        <time>2019-03-16T17:32:59.000Z</time>
      </trkpt>
      <trkpt lat="43.671716" lon="-7.593132">
        <ele>124</ele>
        <time>2019-03-16T17:33:02.000Z</time>
      </trkpt>
      <trkpt lat="43.671667" lon="-7.593119">
        <ele>124</ele>
        <time>2019-03-16T17:33:04.000Z</time>
      </trkpt>
      <trkpt lat="43.671612" lon="-7.593107">
        <ele>125</ele>
        <time>2019-03-16T17:33:06.000Z</time>
      </trkpt>
      <trkpt lat="43.671455" lon="-7.59304">
        <ele>124</ele>
        <time>2019-03-16T17:33:10.000Z</time>
      </trkpt>
      <trkpt lat="43.671406" lon="-7.593024">
        <ele>124</ele>
        <time>2019-03-16T17:33:12.000Z</time>
      </trkpt>
      <trkpt lat="43.671321" lon="-7.593009">
        <ele>124</ele>
        <time>2019-03-16T17:33:15.000Z</time>
      </trkpt>
      <trkpt lat="43.671204" lon="-7.592992">
        <ele>125</ele>
        <time>2019-03-16T17:33:17.000Z</time>
      </trkpt>
      <trkpt lat="43.671111" lon="-7.592993">
        <ele>124</ele>
        <time>2019-03-16T17:33:21.000Z</time>
      </trkpt>
      <trkpt lat="43.671062" lon="-7.59299">
        <ele>124</ele>
        <time>2019-03-16T17:33:23.000Z</time>
      </trkpt>
      <trkpt lat="43.671012" lon="-7.592985">
        <ele>124</ele>
        <time>2019-03-16T17:33:25.000Z</time>
      </trkpt>
      <trkpt lat="43.670958" lon="-7.592981">
        <ele>123</ele>
        <time>2019-03-16T17:33:27.000Z</time>
      </trkpt>
      <trkpt lat="43.670797" lon="-7.59296">
        <ele>123</ele>
        <time>2019-03-16T17:33:30.000Z</time>
      </trkpt>
      <trkpt lat="43.670747" lon="-7.592948">
        <ele>123</ele>
        <time>2019-03-16T17:33:32.000Z</time>
      </trkpt>
      <trkpt lat="43.670695" lon="-7.592937">
        <ele>123</ele>
        <time>2019-03-16T17:33:34.000Z</time>
      </trkpt>
      <trkpt lat="43.670642" lon="-7.592925">
        <ele>124</ele>
        <time>2019-03-16T17:33:36.000Z</time>
      </trkpt>
      <trkpt lat="43.670552" lon="-7.592892">
        <ele>124</ele>
        <time>2019-03-16T17:33:39.000Z</time>
      </trkpt>
      <trkpt lat="43.670501" lon="-7.59287">
        <ele>124</ele>
        <time>2019-03-16T17:33:41.000Z</time>
      </trkpt>
      <trkpt lat="43.67045" lon="-7.592851">
        <ele>123</ele>
        <time>2019-03-16T17:33:43.000Z</time>
      </trkpt>
      <trkpt lat="43.670378" lon="-7.592817">
        <ele>123</ele>
        <time>2019-03-16T17:33:46.000Z</time>
      </trkpt>
      <trkpt lat="43.670323" lon="-7.592793">
        <ele>123</ele>
        <time>2019-03-16T17:33:48.000Z</time>
      </trkpt>
      <trkpt lat="43.670232" lon="-7.59276">
        <ele>123</ele>
        <time>2019-03-16T17:33:51.000Z</time>
      </trkpt>
      <trkpt lat="43.670169" lon="-7.592747">
        <ele>123</ele>
        <time>2019-03-16T17:33:53.000Z</time>
      </trkpt>
      <trkpt lat="43.670107" lon="-7.592737">
        <ele>123</ele>
        <time>2019-03-16T17:33:55.000Z</time>
      </trkpt>
      <trkpt lat="43.670005" lon="-7.592716">
        <ele>123</ele>
        <time>2019-03-16T17:33:58.000Z</time>
      </trkpt>
      <trkpt lat="43.669939" lon="-7.592701">
        <ele>123</ele>
        <time>2019-03-16T17:34:00.000Z</time>
      </trkpt>
      <trkpt lat="43.669841" lon="-7.592685">
        <ele>124</ele>
        <time>2019-03-16T17:34:03.000Z</time>
      </trkpt>
      <trkpt lat="43.669773" lon="-7.592665">
        <ele>124</ele>
        <time>2019-03-16T17:34:05.000Z</time>
      </trkpt>
      <trkpt lat="43.66972" lon="-7.59265">
        <ele>124</ele>
        <time>2019-03-16T17:34:07.000Z</time>
      </trkpt>
      <trkpt lat="43.66966" lon="-7.592646">
        <ele>124</ele>
        <time>2019-03-16T17:34:09.000Z</time>
      </trkpt>
      <trkpt lat="43.669585" lon="-7.592648">
        <ele>125</ele>
        <time>2019-03-16T17:34:11.000Z</time>
      </trkpt>
      <trkpt lat="43.669516" lon="-7.59266">
        <ele>125</ele>
        <time>2019-03-16T17:34:13.000Z</time>
      </trkpt>
      <trkpt lat="43.669266" lon="-7.592761">
        <ele>122</ele>
        <time>2019-03-16T17:34:19.000Z</time>
      </trkpt>
      <trkpt lat="43.66922" lon="-7.592743">
        <ele>122</ele>
        <time>2019-03-16T17:34:21.000Z</time>
      </trkpt>
      <trkpt lat="43.66917" lon="-7.592739">
        <ele>122</ele>
        <time>2019-03-16T17:34:23.000Z</time>
      </trkpt>
      <trkpt lat="43.669082" lon="-7.59274">
        <ele>122</ele>
        <time>2019-03-16T17:34:26.000Z</time>
      </trkpt>
      <trkpt lat="43.669028" lon="-7.592739">
        <ele>121</ele>
        <time>2019-03-16T17:34:28.000Z</time>
      </trkpt>
      <trkpt lat="43.668974" lon="-7.592732">
        <ele>120</ele>
        <time>2019-03-16T17:34:30.000Z</time>
      </trkpt>
      <trkpt lat="43.668912" lon="-7.592718">
        <ele>120</ele>
        <time>2019-03-16T17:34:33.000Z</time>
      </trkpt>
      <trkpt lat="43.668856" lon="-7.592695">
        <ele>119</ele>
        <time>2019-03-16T17:34:35.000Z</time>
      </trkpt>
      <trkpt lat="43.668795" lon="-7.592656">
        <ele>118</ele>
        <time>2019-03-16T17:34:37.000Z</time>
      </trkpt>
      <trkpt lat="43.668728" lon="-7.592576">
        <ele>117</ele>
        <time>2019-03-16T17:34:40.000Z</time>
      </trkpt>
      <trkpt lat="43.668688" lon="-7.592494">
        <ele>116</ele>
        <time>2019-03-16T17:34:42.000Z</time>
      </trkpt>
      <trkpt lat="43.668645" lon="-7.592382">
        <ele>115</ele>
        <time>2019-03-16T17:34:45.000Z</time>
      </trkpt>
      <trkpt lat="43.668623" lon="-7.592317">
        <ele>115</ele>
        <time>2019-03-16T17:34:47.000Z</time>
      </trkpt>
      <trkpt lat="43.668605" lon="-7.59225">
        <ele>115</ele>
        <time>2019-03-16T17:34:49.000Z</time>
      </trkpt>
      <trkpt lat="43.668585" lon="-7.592181">
        <ele>114</ele>
        <time>2019-03-16T17:34:51.000Z</time>
      </trkpt>
      <trkpt lat="43.668563" lon="-7.592104">
        <ele>114</ele>
        <time>2019-03-16T17:34:53.000Z</time>
      </trkpt>
      <trkpt lat="43.668536" lon="-7.592032">
        <ele>114</ele>
        <time>2019-03-16T17:34:55.000Z</time>
      </trkpt>
      <trkpt lat="43.668398" lon="-7.59181">
        <ele>112</ele>
        <time>2019-03-16T17:35:01.000Z</time>
      </trkpt>
      <trkpt lat="43.66835" lon="-7.591755">
        <ele>111</ele>
        <time>2019-03-16T17:35:04.000Z</time>
      </trkpt>
      <trkpt lat="43.66831" lon="-7.591689">
        <ele>111</ele>
        <time>2019-03-16T17:35:07.000Z</time>
      </trkpt>
      <trkpt lat="43.668274" lon="-7.591614">
        <ele>111</ele>
        <time>2019-03-16T17:35:10.000Z</time>
      </trkpt>
      <trkpt lat="43.668237" lon="-7.591548">
        <ele>111</ele>
        <time>2019-03-16T17:35:12.000Z</time>
      </trkpt>
      <trkpt lat="43.668206" lon="-7.591482">
        <ele>111</ele>
        <time>2019-03-16T17:35:14.000Z</time>
      </trkpt>
      <trkpt lat="43.66814" lon="-7.591377">
        <ele>112</ele>
        <time>2019-03-16T17:35:17.000Z</time>
      </trkpt>
      <trkpt lat="43.668072" lon="-7.591246">
        <ele>112</ele>
        <time>2019-03-16T17:35:20.000Z</time>
      </trkpt>
      <trkpt lat="43.668024" lon="-7.591174">
        <ele>111</ele>
        <time>2019-03-16T17:35:22.000Z</time>
      </trkpt>
      <trkpt lat="43.667978" lon="-7.591125">
        <ele>111</ele>
        <time>2019-03-16T17:35:24.000Z</time>
      </trkpt>
      <trkpt lat="43.667913" lon="-7.591107">
        <ele>110</ele>
        <time>2019-03-16T17:35:26.000Z</time>
      </trkpt>
      <trkpt lat="43.667836" lon="-7.591106">
        <ele>110</ele>
        <time>2019-03-16T17:35:28.000Z</time>
      </trkpt>
      <trkpt lat="43.667772" lon="-7.591121">
        <ele>110</ele>
        <time>2019-03-16T17:35:30.000Z</time>
      </trkpt>
      <trkpt lat="43.667709" lon="-7.591142">
        <ele>110</ele>
        <time>2019-03-16T17:35:32.000Z</time>
      </trkpt>
      <trkpt lat="43.667544" lon="-7.591218">
        <ele>108</ele>
        <time>2019-03-16T17:35:35.000Z</time>
      </trkpt>
      <trkpt lat="43.667485" lon="-7.591297">
        <ele>106</ele>
        <time>2019-03-16T17:35:37.000Z</time>
      </trkpt>
      <trkpt lat="43.667436" lon="-7.591354">
        <ele>105</ele>
        <time>2019-03-16T17:35:40.000Z</time>
      </trkpt>
      <trkpt lat="43.667351" lon="-7.591416">
        <ele>107</ele>
        <time>2019-03-16T17:35:42.000Z</time>
      </trkpt>
      <trkpt lat="43.667291" lon="-7.591406">
        <ele>107</ele>
        <time>2019-03-16T17:35:46.000Z</time>
      </trkpt>
      <trkpt lat="43.667244" lon="-7.591409">
        <ele>106</ele>
        <time>2019-03-16T17:35:49.000Z</time>
      </trkpt>
      <trkpt lat="43.667219" lon="-7.591355">
        <ele>103</ele>
        <time>2019-03-16T17:35:55.000Z</time>
      </trkpt>
      <trkpt lat="43.66724" lon="-7.591279">
        <ele>101</ele>
        <time>2019-03-16T17:35:58.000Z</time>
      </trkpt>
      <trkpt lat="43.667264" lon="-7.59118">
        <ele>101</ele>
        <time>2019-03-16T17:36:01.000Z</time>
      </trkpt>
      <trkpt lat="43.667288" lon="-7.59112">
        <ele>101</ele>
        <time>2019-03-16T17:36:03.000Z</time>
      </trkpt>
      <trkpt lat="43.667338" lon="-7.591025">
        <ele>101</ele>
        <time>2019-03-16T17:36:07.000Z</time>
      </trkpt>
      <trkpt lat="43.667396" lon="-7.59096">
        <ele>102</ele>
        <time>2019-03-16T17:36:11.000Z</time>
      </trkpt>
      <trkpt lat="43.667442" lon="-7.590905">
        <ele>102</ele>
        <time>2019-03-16T17:36:14.000Z</time>
      </trkpt>
      <trkpt lat="43.667489" lon="-7.590803">
        <ele>104</ele>
        <time>2019-03-16T17:36:18.000Z</time>
      </trkpt>
      <trkpt lat="43.667513" lon="-7.590745">
        <ele>105</ele>
        <time>2019-03-16T17:36:20.000Z</time>
      </trkpt>
      <trkpt lat="43.667531" lon="-7.590683">
        <ele>105</ele>
        <time>2019-03-16T17:36:22.000Z</time>
      </trkpt>
      <trkpt lat="43.667546" lon="-7.59061">
        <ele>105</ele>
        <time>2019-03-16T17:36:24.000Z</time>
      </trkpt>
      <trkpt lat="43.667562" lon="-7.590504">
        <ele>105</ele>
        <time>2019-03-16T17:36:27.000Z</time>
      </trkpt>
      <trkpt lat="43.667568" lon="-7.590434">
        <ele>105</ele>
        <time>2019-03-16T17:36:29.000Z</time>
      </trkpt>
      <trkpt lat="43.667566" lon="-7.590357">
        <ele>105</ele>
        <time>2019-03-16T17:36:31.000Z</time>
      </trkpt>
      <trkpt lat="43.667556" lon="-7.590253">
        <ele>106</ele>
        <time>2019-03-16T17:36:34.000Z</time>
      </trkpt>
      <trkpt lat="43.667528" lon="-7.590156">
        <ele>106</ele>
        <time>2019-03-16T17:36:37.000Z</time>
      </trkpt>
      <trkpt lat="43.667491" lon="-7.590067">
        <ele>106</ele>
        <time>2019-03-16T17:36:40.000Z</time>
      </trkpt>
      <trkpt lat="43.667476" lon="-7.590005">
        <ele>107</ele>
        <time>2019-03-16T17:36:42.000Z</time>
      </trkpt>
      <trkpt lat="43.66746" lon="-7.589894">
        <ele>107</ele>
        <time>2019-03-16T17:36:46.000Z</time>
      </trkpt>
      <trkpt lat="43.667451" lon="-7.589774">
        <ele>107</ele>
        <time>2019-03-16T17:36:50.000Z</time>
      </trkpt>
      <trkpt lat="43.667446" lon="-7.589712">
        <ele>108</ele>
        <time>2019-03-16T17:36:52.000Z</time>
      </trkpt>
      <trkpt lat="43.667441" lon="-7.589618">
        <ele>107</ele>
        <time>2019-03-16T17:36:55.000Z</time>
      </trkpt>
      <trkpt lat="43.667429" lon="-7.589548">
        <ele>108</ele>
        <time>2019-03-16T17:36:57.000Z</time>
      </trkpt>
      <trkpt lat="43.667424" lon="-7.589444">
        <ele>108</ele>
        <time>2019-03-16T17:37:00.000Z</time>
      </trkpt>
      <trkpt lat="43.667422" lon="-7.589378">
        <ele>108</ele>
        <time>2019-03-16T17:37:02.000Z</time>
      </trkpt>
      <trkpt lat="43.667416" lon="-7.589313">
        <ele>108</ele>
        <time>2019-03-16T17:37:04.000Z</time>
      </trkpt>
      <trkpt lat="43.66741" lon="-7.589241">
        <ele>108</ele>
        <time>2019-03-16T17:37:06.000Z</time>
      </trkpt>
      <trkpt lat="43.667412" lon="-7.589128">
        <ele>108</ele>
        <time>2019-03-16T17:37:09.000Z</time>
      </trkpt>
      <trkpt lat="43.667415" lon="-7.589059">
        <ele>109</ele>
        <time>2019-03-16T17:37:11.000Z</time>
      </trkpt>
      <trkpt lat="43.667414" lon="-7.588984">
        <ele>109</ele>
        <time>2019-03-16T17:37:13.000Z</time>
      </trkpt>
      <trkpt lat="43.667418" lon="-7.58891">
        <ele>109</ele>
        <time>2019-03-16T17:37:15.000Z</time>
      </trkpt>
      <trkpt lat="43.66742" lon="-7.588834">
        <ele>110</ele>
        <time>2019-03-16T17:37:17.000Z</time>
      </trkpt>
      <trkpt lat="43.667428" lon="-7.588728">
        <ele>110</ele>
        <time>2019-03-16T17:37:20.000Z</time>
      </trkpt>
      <trkpt lat="43.667426" lon="-7.588647">
        <ele>111</ele>
        <time>2019-03-16T17:37:22.000Z</time>
      </trkpt>
      <trkpt lat="43.667423" lon="-7.588573">
        <ele>111</ele>
        <time>2019-03-16T17:37:24.000Z</time>
      </trkpt>
      <trkpt lat="43.667421" lon="-7.588504">
        <ele>112</ele>
        <time>2019-03-16T17:37:26.000Z</time>
      </trkpt>
      <trkpt lat="43.66742" lon="-7.588402">
        <ele>113</ele>
        <time>2019-03-16T17:37:29.000Z</time>
      </trkpt>
      <trkpt lat="43.667416" lon="-7.588312">
        <ele>113</ele>
        <time>2019-03-16T17:37:32.000Z</time>
      </trkpt>
      <trkpt lat="43.667412" lon="-7.588228">
        <ele>114</ele>
        <time>2019-03-16T17:37:34.000Z</time>
      </trkpt>
      <trkpt lat="43.667398" lon="-7.588165">
        <ele>114</ele>
        <time>2019-03-16T17:37:36.000Z</time>
      </trkpt>
      <trkpt lat="43.667352" lon="-7.588094">
        <ele>115</ele>
        <time>2019-03-16T17:37:39.000Z</time>
      </trkpt>
      <trkpt lat="43.66727" lon="-7.588055">
        <ele>116</ele>
        <time>2019-03-16T17:37:42.000Z</time>
      </trkpt>
      <trkpt lat="43.667205" lon="-7.588052">
        <ele>117</ele>
        <time>2019-03-16T17:37:44.000Z</time>
      </trkpt>
      <trkpt lat="43.667032" lon="-7.588091">
        <ele>117</ele>
        <time>2019-03-16T17:37:47.000Z</time>
      </trkpt>
      <trkpt lat="43.666989" lon="-7.58815">
        <ele>114</ele>
        <time>2019-03-16T17:37:50.000Z</time>
      </trkpt>
      <trkpt lat="43.66696" lon="-7.588202">
        <ele>113</ele>
        <time>2019-03-16T17:37:52.000Z</time>
      </trkpt>
      <trkpt lat="43.66693" lon="-7.588256">
        <ele>113</ele>
        <time>2019-03-16T17:37:54.000Z</time>
      </trkpt>
      <trkpt lat="43.666881" lon="-7.588341">
        <ele>113</ele>
        <time>2019-03-16T17:37:57.000Z</time>
      </trkpt>
      <trkpt lat="43.666742" lon="-7.588514">
        <ele>114</ele>
        <time>2019-03-16T17:38:00.000Z</time>
      </trkpt>
      <trkpt lat="43.666629" lon="-7.588601">
        <ele>111</ele>
        <time>2019-03-16T17:38:04.000Z</time>
      </trkpt>
      <trkpt lat="43.66654" lon="-7.588662">
        <ele>110</ele>
        <time>2019-03-16T17:38:07.000Z</time>
      </trkpt>
      <trkpt lat="43.666427" lon="-7.588706">
        <ele>109</ele>
        <time>2019-03-16T17:38:10.000Z</time>
      </trkpt>
      <trkpt lat="43.666379" lon="-7.588733">
        <ele>108</ele>
        <time>2019-03-16T17:38:13.000Z</time>
      </trkpt>
      <trkpt lat="43.666331" lon="-7.588765">
        <ele>108</ele>
        <time>2019-03-16T17:38:15.000Z</time>
      </trkpt>
      <trkpt lat="43.666254" lon="-7.588808">
        <ele>107</ele>
        <time>2019-03-16T17:38:18.000Z</time>
      </trkpt>
      <trkpt lat="43.666182" lon="-7.588858">
        <ele>107</ele>
        <time>2019-03-16T17:38:21.000Z</time>
      </trkpt>
      <trkpt lat="43.666121" lon="-7.588901">
        <ele>108</ele>
        <time>2019-03-16T17:38:24.000Z</time>
      </trkpt>
      <trkpt lat="43.66607" lon="-7.588937">
        <ele>108</ele>
        <time>2019-03-16T17:38:26.000Z</time>
      </trkpt>
      <trkpt lat="43.665997" lon="-7.588998">
        <ele>107</ele>
        <time>2019-03-16T17:38:29.000Z</time>
      </trkpt>
      <trkpt lat="43.665952" lon="-7.589039">
        <ele>107</ele>
        <time>2019-03-16T17:38:31.000Z</time>
      </trkpt>
      <trkpt lat="43.665896" lon="-7.589089">
        <ele>108</ele>
        <time>2019-03-16T17:38:33.000Z</time>
      </trkpt>
      <trkpt lat="43.665784" lon="-7.589181">
        <ele>107</ele>
        <time>2019-03-16T17:38:36.000Z</time>
      </trkpt>
      <trkpt lat="43.66573" lon="-7.589238">
        <ele>107</ele>
        <time>2019-03-16T17:38:38.000Z</time>
      </trkpt>
      <trkpt lat="43.665689" lon="-7.589288">
        <ele>108</ele>
        <time>2019-03-16T17:38:41.000Z</time>
      </trkpt>
      <trkpt lat="43.66565" lon="-7.589334">
        <ele>108</ele>
        <time>2019-03-16T17:38:43.000Z</time>
      </trkpt>
      <trkpt lat="43.665618" lon="-7.589378">
        <ele>108</ele>
        <time>2019-03-16T17:38:45.000Z</time>
      </trkpt>
      <trkpt lat="43.665575" lon="-7.589437">
        <ele>108</ele>
        <time>2019-03-16T17:38:47.000Z</time>
      </trkpt>
      <trkpt lat="43.66554" lon="-7.589487">
        <ele>109</ele>
        <time>2019-03-16T17:38:49.000Z</time>
      </trkpt>
      <trkpt lat="43.665504" lon="-7.589553">
        <ele>109</ele>
        <time>2019-03-16T17:38:51.000Z</time>
      </trkpt>
      <trkpt lat="43.665461" lon="-7.589619">
        <ele>109</ele>
        <time>2019-03-16T17:38:53.000Z</time>
      </trkpt>
      <trkpt lat="43.66542" lon="-7.589677">
        <ele>109</ele>
        <time>2019-03-16T17:38:55.000Z</time>
      </trkpt>
      <trkpt lat="43.665377" lon="-7.589735">
        <ele>108</ele>
        <time>2019-03-16T17:38:57.000Z</time>
      </trkpt>
      <trkpt lat="43.665341" lon="-7.589773">
        <ele>108</ele>
        <time>2019-03-16T17:38:59.000Z</time>
      </trkpt>
      <trkpt lat="43.665276" lon="-7.589833">
        <ele>108</ele>
        <time>2019-03-16T17:39:01.000Z</time>
      </trkpt>
      <trkpt lat="43.665232" lon="-7.589877">
        <ele>108</ele>
        <time>2019-03-16T17:39:03.000Z</time>
      </trkpt>
      <trkpt lat="43.665186" lon="-7.589928">
        <ele>108</ele>
        <time>2019-03-16T17:39:05.000Z</time>
      </trkpt>
      <trkpt lat="43.665141" lon="-7.589974">
        <ele>108</ele>
        <time>2019-03-16T17:39:07.000Z</time>
      </trkpt>
      <trkpt lat="43.665094" lon="-7.590023">
        <ele>109</ele>
        <time>2019-03-16T17:39:09.000Z</time>
      </trkpt>
      <trkpt lat="43.665055" lon="-7.590061">
        <ele>109</ele>
        <time>2019-03-16T17:39:11.000Z</time>
      </trkpt>
      <trkpt lat="43.665013" lon="-7.590101">
        <ele>109</ele>
        <time>2019-03-16T17:39:13.000Z</time>
      </trkpt>
      <trkpt lat="43.66496" lon="-7.590159">
        <ele>108</ele>
        <time>2019-03-16T17:39:15.000Z</time>
      </trkpt>
      <trkpt lat="43.664923" lon="-7.590197">
        <ele>108</ele>
        <time>2019-03-16T17:39:17.000Z</time>
      </trkpt>
      <trkpt lat="43.664882" lon="-7.590237">
        <ele>108</ele>
        <time>2019-03-16T17:39:19.000Z</time>
      </trkpt>
      <trkpt lat="43.664809" lon="-7.590301">
        <ele>108</ele>
        <time>2019-03-16T17:39:22.000Z</time>
      </trkpt>
      <trkpt lat="43.664668" lon="-7.590455">
        <ele>107</ele>
        <time>2019-03-16T17:39:27.000Z</time>
      </trkpt>
      <trkpt lat="43.664633" lon="-7.590533">
        <ele>107</ele>
        <time>2019-03-16T17:39:30.000Z</time>
      </trkpt>
      <trkpt lat="43.664617" lon="-7.590592">
        <ele>107</ele>
        <time>2019-03-16T17:39:32.000Z</time>
      </trkpt>
      <trkpt lat="43.664596" lon="-7.590696">
        <ele>107</ele>
        <time>2019-03-16T17:39:35.000Z</time>
      </trkpt>
      <trkpt lat="43.664586" lon="-7.590764">
        <ele>107</ele>
        <time>2019-03-16T17:39:37.000Z</time>
      </trkpt>
      <trkpt lat="43.664578" lon="-7.590831">
        <ele>107</ele>
        <time>2019-03-16T17:39:39.000Z</time>
      </trkpt>
      <trkpt lat="43.664571" lon="-7.590903">
        <ele>107</ele>
        <time>2019-03-16T17:39:41.000Z</time>
      </trkpt>
      <trkpt lat="43.66456" lon="-7.590983">
        <ele>107</ele>
        <time>2019-03-16T17:39:43.000Z</time>
      </trkpt>
      <trkpt lat="43.664544" lon="-7.591071">
        <ele>107</ele>
        <time>2019-03-16T17:39:45.000Z</time>
      </trkpt>
      <trkpt lat="43.664526" lon="-7.591152">
        <ele>107</ele>
        <time>2019-03-16T17:39:47.000Z</time>
      </trkpt>
      <trkpt lat="43.664507" lon="-7.591257">
        <ele>106</ele>
        <time>2019-03-16T17:39:50.000Z</time>
      </trkpt>
      <trkpt lat="43.664495" lon="-7.591335">
        <ele>106</ele>
        <time>2019-03-16T17:39:52.000Z</time>
      </trkpt>
      <trkpt lat="43.664474" lon="-7.591429">
        <ele>106</ele>
        <time>2019-03-16T17:39:54.000Z</time>
      </trkpt>
      <trkpt lat="43.664454" lon="-7.591554">
        <ele>106</ele>
        <time>2019-03-16T17:39:57.000Z</time>
      </trkpt>
      <trkpt lat="43.664444" lon="-7.591624">
        <ele>106</ele>
        <time>2019-03-16T17:39:59.000Z</time>
      </trkpt>
      <trkpt lat="43.664438" lon="-7.591731">
        <ele>107</ele>
        <time>2019-03-16T17:40:02.000Z</time>
      </trkpt>
      <trkpt lat="43.664434" lon="-7.59181">
        <ele>107</ele>
        <time>2019-03-16T17:40:04.000Z</time>
      </trkpt>
      <trkpt lat="43.664427" lon="-7.591926">
        <ele>108</ele>
        <time>2019-03-16T17:40:07.000Z</time>
      </trkpt>
      <trkpt lat="43.664423" lon="-7.592025">
        <ele>109</ele>
        <time>2019-03-16T17:40:09.000Z</time>
      </trkpt>
      <trkpt lat="43.664405" lon="-7.592108">
        <ele>109</ele>
        <time>2019-03-16T17:40:11.000Z</time>
      </trkpt>
      <trkpt lat="43.664381" lon="-7.592164">
        <ele>110</ele>
        <time>2019-03-16T17:40:13.000Z</time>
      </trkpt>
      <trkpt lat="43.664334" lon="-7.592251">
        <ele>110</ele>
        <time>2019-03-16T17:40:16.000Z</time>
      </trkpt>
      <trkpt lat="43.66428" lon="-7.592345">
        <ele>109</ele>
        <time>2019-03-16T17:40:19.000Z</time>
      </trkpt>
      <trkpt lat="43.664211" lon="-7.592451">
        <ele>109</ele>
        <time>2019-03-16T17:40:22.000Z</time>
      </trkpt>
      <trkpt lat="43.664168" lon="-7.592516">
        <ele>110</ele>
        <time>2019-03-16T17:40:24.000Z</time>
      </trkpt>
      <trkpt lat="43.664139" lon="-7.592564">
        <ele>109</ele>
        <time>2019-03-16T17:40:26.000Z</time>
      </trkpt>
      <trkpt lat="43.664095" lon="-7.592644">
        <ele>110</ele>
        <time>2019-03-16T17:40:29.000Z</time>
      </trkpt>
      <trkpt lat="43.664027" lon="-7.592741">
        <ele>112</ele>
        <time>2019-03-16T17:40:32.000Z</time>
      </trkpt>
      <trkpt lat="43.663961" lon="-7.592798">
        <ele>112</ele>
        <time>2019-03-16T17:40:34.000Z</time>
      </trkpt>
      <trkpt lat="43.663916" lon="-7.592825">
        <ele>113</ele>
        <time>2019-03-16T17:40:36.000Z</time>
      </trkpt>
      <trkpt lat="43.663849" lon="-7.592857">
        <ele>114</ele>
        <time>2019-03-16T17:40:38.000Z</time>
      </trkpt>
      <trkpt lat="43.663793" lon="-7.592882">
        <ele>114</ele>
        <time>2019-03-16T17:40:40.000Z</time>
      </trkpt>
      <trkpt lat="43.663748" lon="-7.592889">
        <ele>114</ele>
        <time>2019-03-16T17:40:42.000Z</time>
      </trkpt>
      <trkpt lat="43.66369" lon="-7.592901">
        <ele>115</ele>
        <time>2019-03-16T17:40:44.000Z</time>
      </trkpt>
      <trkpt lat="43.663633" lon="-7.592918">
        <ele>115</ele>
        <time>2019-03-16T17:40:46.000Z</time>
      </trkpt>
      <trkpt lat="43.663576" lon="-7.592938">
        <ele>115</ele>
        <time>2019-03-16T17:40:48.000Z</time>
      </trkpt>
      <trkpt lat="43.663513" lon="-7.592968">
        <ele>115</ele>
        <time>2019-03-16T17:40:50.000Z</time>
      </trkpt>
      <trkpt lat="43.663456" lon="-7.592998">
        <ele>115</ele>
        <time>2019-03-16T17:40:52.000Z</time>
      </trkpt>
      <trkpt lat="43.663367" lon="-7.593032">
        <ele>115</ele>
        <time>2019-03-16T17:40:56.000Z</time>
      </trkpt>
      <trkpt lat="43.663327" lon="-7.593059">
        <ele>115</ele>
        <time>2019-03-16T17:40:58.000Z</time>
      </trkpt>
      <trkpt lat="43.663261" lon="-7.593107">
        <ele>113</ele>
        <time>2019-03-16T17:41:03.000Z</time>
      </trkpt>
      <trkpt lat="43.663206" lon="-7.593149">
        <ele>113</ele>
        <time>2019-03-16T17:41:04.000Z</time>
      </trkpt>
      <trkpt lat="43.663103" lon="-7.59322">
        <ele>112</ele>
        <time>2019-03-16T17:41:06.000Z</time>
      </trkpt>
      <trkpt lat="43.663054" lon="-7.593226">
        <ele>111</ele>
        <time>2019-03-16T17:41:07.000Z</time>
      </trkpt>
      <trkpt lat="43.663004" lon="-7.59321">
        <ele>110</ele>
        <time>2019-03-16T17:41:08.000Z</time>
      </trkpt>
      <trkpt lat="43.662935" lon="-7.593146">
        <ele>108</ele>
        <time>2019-03-16T17:41:10.000Z</time>
      </trkpt>
      <trkpt lat="43.662888" lon="-7.593065">
        <ele>106</ele>
        <time>2019-03-16T17:41:12.000Z</time>
      </trkpt>
      <trkpt lat="43.662837" lon="-7.592954">
        <ele>105</ele>
        <time>2019-03-16T17:41:15.000Z</time>
      </trkpt>
      <trkpt lat="43.662817" lon="-7.59289">
        <ele>104</ele>
        <time>2019-03-16T17:41:17.000Z</time>
      </trkpt>
      <trkpt lat="43.662803" lon="-7.59282">
        <ele>104</ele>
        <time>2019-03-16T17:41:19.000Z</time>
      </trkpt>
      <trkpt lat="43.662794" lon="-7.592744">
        <ele>103</ele>
        <time>2019-03-16T17:41:21.000Z</time>
      </trkpt>
      <trkpt lat="43.662792" lon="-7.592665">
        <ele>103</ele>
        <time>2019-03-16T17:41:23.000Z</time>
      </trkpt>
      <trkpt lat="43.662788" lon="-7.59259">
        <ele>102</ele>
        <time>2019-03-16T17:41:25.000Z</time>
      </trkpt>
      <trkpt lat="43.662779" lon="-7.592511">
        <ele>102</ele>
        <time>2019-03-16T17:41:27.000Z</time>
      </trkpt>
      <trkpt lat="43.662781" lon="-7.592426">
        <ele>102</ele>
        <time>2019-03-16T17:41:29.000Z</time>
      </trkpt>
      <trkpt lat="43.662752" lon="-7.592323">
        <ele>103</ele>
        <time>2019-03-16T17:41:33.000Z</time>
      </trkpt>
      <trkpt lat="43.662668" lon="-7.592297">
        <ele>104</ele>
        <time>2019-03-16T17:41:37.000Z</time>
      </trkpt>
      <trkpt lat="43.662611" lon="-7.592323">
        <ele>105</ele>
        <time>2019-03-16T17:41:39.000Z</time>
      </trkpt>
      <trkpt lat="43.662545" lon="-7.59236">
        <ele>106</ele>
        <time>2019-03-16T17:41:41.000Z</time>
      </trkpt>
      <trkpt lat="43.662468" lon="-7.592393">
        <ele>107</ele>
        <time>2019-03-16T17:41:43.000Z</time>
      </trkpt>
      <trkpt lat="43.662382" lon="-7.592417">
        <ele>107</ele>
        <time>2019-03-16T17:41:46.000Z</time>
      </trkpt>
      <trkpt lat="43.662321" lon="-7.592436">
        <ele>108</ele>
        <time>2019-03-16T17:41:48.000Z</time>
      </trkpt>
      <trkpt lat="43.66227" lon="-7.592448">
        <ele>108</ele>
        <time>2019-03-16T17:41:50.000Z</time>
      </trkpt>
      <trkpt lat="43.662203" lon="-7.592462">
        <ele>108</ele>
        <time>2019-03-16T17:41:52.000Z</time>
      </trkpt>
      <trkpt lat="43.662148" lon="-7.592459">
        <ele>109</ele>
        <time>2019-03-16T17:41:54.000Z</time>
      </trkpt>
      <trkpt lat="43.66207" lon="-7.592456">
        <ele>109</ele>
        <time>2019-03-16T17:41:57.000Z</time>
      </trkpt>
      <trkpt lat="43.662022" lon="-7.592468">
        <ele>109</ele>
        <time>2019-03-16T17:41:59.000Z</time>
      </trkpt>
      <trkpt lat="43.661961" lon="-7.592482">
        <ele>108</ele>
        <time>2019-03-16T17:42:01.000Z</time>
      </trkpt>
      <trkpt lat="43.661917" lon="-7.592493">
        <ele>108</ele>
        <time>2019-03-16T17:42:04.000Z</time>
      </trkpt>
      <trkpt lat="43.661857" lon="-7.592505">
        <ele>109</ele>
        <time>2019-03-16T17:42:08.000Z</time>
      </trkpt>
      <trkpt lat="43.661793" lon="-7.592566">
        <ele>110</ele>
        <time>2019-03-16T17:42:13.000Z</time>
      </trkpt>
      <trkpt lat="43.661667" lon="-7.592746">
        <ele>111</ele>
        <time>2019-03-16T17:42:17.000Z</time>
      </trkpt>
      <trkpt lat="43.66154" lon="-7.592833">
        <ele>-9999</ele>
        <time>2019-03-16T17:42:23.000Z</time>
      </trkpt>
      <trkpt lat="43.661435" lon="-7.592839">
        <ele>113</ele>
        <time>2019-03-16T17:42:28.000Z</time>
      </trkpt>
      <trkpt lat="43.661397" lon="-7.592875">
        <ele>111</ele>
        <time>2019-03-16T17:42:30.000Z</time>
      </trkpt>
      <trkpt lat="43.661362" lon="-7.592946">
        <ele>110</ele>
        <time>2019-03-16T17:42:32.000Z</time>
      </trkpt>
      <trkpt lat="43.661307" lon="-7.593046">
        <ele>110</ele>
        <time>2019-03-16T17:42:35.000Z</time>
      </trkpt>
      <trkpt lat="43.661254" lon="-7.593109">
        <ele>109</ele>
        <time>2019-03-16T17:42:37.000Z</time>
      </trkpt>
      <trkpt lat="43.661184" lon="-7.593182">
        <ele>108</ele>
        <time>2019-03-16T17:42:40.000Z</time>
      </trkpt>
      <trkpt lat="43.661147" lon="-7.593236">
        <ele>108</ele>
        <time>2019-03-16T17:42:42.000Z</time>
      </trkpt>
      <trkpt lat="43.661104" lon="-7.5933">
        <ele>108</ele>
        <time>2019-03-16T17:42:44.000Z</time>
      </trkpt>
      <trkpt lat="43.661057" lon="-7.593375">
        <ele>108</ele>
        <time>2019-03-16T17:42:46.000Z</time>
      </trkpt>
      <trkpt lat="43.660951" lon="-7.593546">
        <ele>107</ele>
        <time>2019-03-16T17:42:49.000Z</time>
      </trkpt>
      <trkpt lat="43.660909" lon="-7.593694">
        <ele>107</ele>
        <time>2019-03-16T17:42:54.000Z</time>
      </trkpt>
      <trkpt lat="43.660868" lon="-7.593781">
        <ele>107</ele>
        <time>2019-03-16T17:42:57.000Z</time>
      </trkpt>
      <trkpt lat="43.660843" lon="-7.593842">
        <ele>108</ele>
        <time>2019-03-16T17:42:59.000Z</time>
      </trkpt>
      <trkpt lat="43.66081" lon="-7.593926">
        <ele>108</ele>
        <time>2019-03-16T17:43:02.000Z</time>
      </trkpt>
      <trkpt lat="43.660791" lon="-7.593994">
        <ele>108</ele>
        <time>2019-03-16T17:43:04.000Z</time>
      </trkpt>
      <trkpt lat="43.660765" lon="-7.594081">
        <ele>109</ele>
        <time>2019-03-16T17:43:07.000Z</time>
      </trkpt>
      <trkpt lat="43.660729" lon="-7.594133">
        <ele>110</ele>
        <time>2019-03-16T17:43:09.000Z</time>
      </trkpt>
      <trkpt lat="43.660657" lon="-7.594194">
        <ele>110</ele>
        <time>2019-03-16T17:43:11.000Z</time>
      </trkpt>
      <trkpt lat="43.660581" lon="-7.594249">
        <ele>110</ele>
        <time>2019-03-16T17:43:13.000Z</time>
      </trkpt>
      <trkpt lat="43.660537" lon="-7.594299">
        <ele>110</ele>
        <time>2019-03-16T17:43:15.000Z</time>
      </trkpt>
      <trkpt lat="43.6605" lon="-7.594344">
        <ele>111</ele>
        <time>2019-03-16T17:43:17.000Z</time>
      </trkpt>
      <trkpt lat="43.660439" lon="-7.594513">
        <ele>113</ele>
        <time>2019-03-16T17:43:21.000Z</time>
      </trkpt>
      <trkpt lat="43.660415" lon="-7.594635">
        <ele>-9999</ele>
        <time>2019-03-16T17:43:23.000Z</time>
      </trkpt>
      <trkpt lat="43.660379" lon="-7.594865">
        <ele>-9999</ele>
        <time>2019-03-16T17:43:26.000Z</time>
      </trkpt>
      <trkpt lat="43.660359" lon="-7.594954">
        <ele>-9999</ele>
        <time>2019-03-16T17:43:29.000Z</time>
      </trkpt>
      <trkpt lat="43.660306" lon="-7.594947">
        <ele>115</ele>
        <time>2019-03-16T17:43:32.000Z</time>
      </trkpt>
      <trkpt lat="43.660294" lon="-7.59505">
        <ele>76.3</ele>
        <time>2019-03-16T17:43:34.000Z</time>
      </trkpt>
      <trkpt lat="43.66028" lon="-7.595156">
        <ele>76.3</ele>
        <time>2019-03-16T17:43:37.000Z</time>
      </trkpt>
      <trkpt lat="43.660234" lon="-7.595151">
        <ele>115</ele>
        <time>2019-03-16T17:43:39.000Z</time>
      </trkpt>
      <trkpt lat="43.660188" lon="-7.595138">
        <ele>115</ele>
        <time>2019-03-16T17:43:42.000Z</time>
      </trkpt>
      <trkpt lat="43.660141" lon="-7.595138">
        <ele>114</ele>
        <time>2019-03-16T17:43:45.000Z</time>
      </trkpt>
      <trkpt lat="43.660089" lon="-7.595138">
        <ele>114</ele>
        <time>2019-03-16T17:43:49.000Z</time>
      </trkpt>
      <trkpt lat="43.660033" lon="-7.595156">
        <ele>115</ele>
        <time>2019-03-16T17:43:53.000Z</time>
      </trkpt>
      <trkpt lat="43.65998" lon="-7.595184">
        <ele>116</ele>
        <time>2019-03-16T17:43:56.000Z</time>
      </trkpt>
      <trkpt lat="43.659833" lon="-7.59535">
        <ele>117</ele>
        <time>2019-03-16T17:44:00.000Z</time>
      </trkpt>
      <trkpt lat="43.659801" lon="-7.595412">
        <ele>114</ele>
        <time>2019-03-16T17:44:02.000Z</time>
      </trkpt>
      <trkpt lat="43.659752" lon="-7.595478">
        <ele>113</ele>
        <time>2019-03-16T17:44:04.000Z</time>
      </trkpt>
      <trkpt lat="43.659647" lon="-7.595579">
        <ele>112</ele>
        <time>2019-03-16T17:44:08.000Z</time>
      </trkpt>
      <trkpt lat="43.659559" lon="-7.595648">
        <ele>112</ele>
        <time>2019-03-16T17:44:10.000Z</time>
      </trkpt>
      <trkpt lat="43.659451" lon="-7.595715">
        <ele>111</ele>
        <time>2019-03-16T17:44:13.000Z</time>
      </trkpt>
      <trkpt lat="43.659361" lon="-7.59585">
        <ele>-9999</ele>
        <time>2019-03-16T17:44:15.000Z</time>
      </trkpt>
      <trkpt lat="43.659303" lon="-7.595891">
        <ele>110</ele>
        <time>2019-03-16T17:44:19.000Z</time>
      </trkpt>
      <trkpt lat="43.659252" lon="-7.595942">
        <ele>109</ele>
        <time>2019-03-16T17:44:21.000Z</time>
      </trkpt>
      <trkpt lat="43.659214" lon="-7.595986">
        <ele>109</ele>
        <time>2019-03-16T17:44:23.000Z</time>
      </trkpt>
      <trkpt lat="43.659171" lon="-7.596019">
        <ele>110</ele>
        <time>2019-03-16T17:44:25.000Z</time>
      </trkpt>
      <trkpt lat="43.659092" lon="-7.596168">
        <ele>-9999</ele>
        <time>2019-03-16T17:44:27.000Z</time>
      </trkpt>
      <trkpt lat="43.659061" lon="-7.59622">
        <ele>-9999</ele>
        <time>2019-03-16T17:44:28.000Z</time>
      </trkpt>
      <trkpt lat="43.659009" lon="-7.59623">
        <ele>112</ele>
        <time>2019-03-16T17:44:31.000Z</time>
      </trkpt>
      <trkpt lat="43.658905" lon="-7.596403">
        <ele>-9999</ele>
        <time>2019-03-16T17:44:34.000Z</time>
      </trkpt>
      <trkpt lat="43.658849" lon="-7.59644">
        <ele>111</ele>
        <time>2019-03-16T17:44:37.000Z</time>
      </trkpt>
      <trkpt lat="43.658786" lon="-7.596476">
        <ele>109</ele>
        <time>2019-03-16T17:44:40.000Z</time>
      </trkpt>
      <trkpt lat="43.658719" lon="-7.596513">
        <ele>109</ele>
        <time>2019-03-16T17:44:43.000Z</time>
      </trkpt>
      <trkpt lat="43.658667" lon="-7.59654">
        <ele>108</ele>
        <time>2019-03-16T17:44:45.000Z</time>
      </trkpt>
      <trkpt lat="43.658615" lon="-7.596567">
        <ele>109</ele>
        <time>2019-03-16T17:44:47.000Z</time>
      </trkpt>
      <trkpt lat="43.658568" lon="-7.596595">
        <ele>109</ele>
        <time>2019-03-16T17:44:49.000Z</time>
      </trkpt>
      <trkpt lat="43.658521" lon="-7.596617">
        <ele>109</ele>
        <time>2019-03-16T17:44:51.000Z</time>
      </trkpt>
      <trkpt lat="43.658474" lon="-7.596638">
        <ele>109</ele>
        <time>2019-03-16T17:44:53.000Z</time>
      </trkpt>
      <trkpt lat="43.658395" lon="-7.596685">
        <ele>109</ele>
        <time>2019-03-16T17:44:56.000Z</time>
      </trkpt>
      <trkpt lat="43.658335" lon="-7.596744">
        <ele>107</ele>
        <time>2019-03-16T17:44:59.000Z</time>
      </trkpt>
      <trkpt lat="43.65828" lon="-7.596782">
        <ele>107</ele>
        <time>2019-03-16T17:45:01.000Z</time>
      </trkpt>
      <trkpt lat="43.658234" lon="-7.596808">
        <ele>107</ele>
        <time>2019-03-16T17:45:03.000Z</time>
      </trkpt>
      <trkpt lat="43.65819" lon="-7.596831">
        <ele>107</ele>
        <time>2019-03-16T17:45:05.000Z</time>
      </trkpt>
      <trkpt lat="43.658113" lon="-7.596856">
        <ele>107</ele>
        <time>2019-03-16T17:45:08.000Z</time>
      </trkpt>
      <trkpt lat="43.658055" lon="-7.596859">
        <ele>108</ele>
        <time>2019-03-16T17:45:10.000Z</time>
      </trkpt>
      <trkpt lat="43.658007" lon="-7.596881">
        <ele>109</ele>
        <time>2019-03-16T17:45:16.000Z</time>
      </trkpt>
      <trkpt lat="43.657947" lon="-7.596915">
        <ele>110</ele>
        <time>2019-03-16T17:45:17.000Z</time>
      </trkpt>
      <trkpt lat="43.657856" lon="-7.596963">
        <ele>111</ele>
        <time>2019-03-16T17:45:19.000Z</time>
      </trkpt>
      <trkpt lat="43.657785" lon="-7.596972">
        <ele>111</ele>
        <time>2019-03-16T17:45:22.000Z</time>
      </trkpt>
      <trkpt lat="43.65773" lon="-7.596968">
        <ele>111</ele>
        <time>2019-03-16T17:45:24.000Z</time>
      </trkpt>
      <trkpt lat="43.657662" lon="-7.596958">
        <ele>112</ele>
        <time>2019-03-16T17:45:26.000Z</time>
      </trkpt>
      <trkpt lat="43.657609" lon="-7.596983">
        <ele>109</ele>
        <time>2019-03-16T17:45:29.000Z</time>
      </trkpt>
      <trkpt lat="43.657566" lon="-7.597029">
        <ele>107</ele>
        <time>2019-03-16T17:45:31.000Z</time>
      </trkpt>
      <trkpt lat="43.657521" lon="-7.597085">
        <ele>107</ele>
        <time>2019-03-16T17:45:33.000Z</time>
      </trkpt>
      <trkpt lat="43.657471" lon="-7.597153">
        <ele>107</ele>
        <time>2019-03-16T17:45:36.000Z</time>
      </trkpt>
      <trkpt lat="43.657411" lon="-7.597227">
        <ele>107</ele>
        <time>2019-03-16T17:45:39.000Z</time>
      </trkpt>
      <trkpt lat="43.657369" lon="-7.597271">
        <ele>106</ele>
        <time>2019-03-16T17:45:41.000Z</time>
      </trkpt>
      <trkpt lat="43.657314" lon="-7.597323">
        <ele>106</ele>
        <time>2019-03-16T17:45:43.000Z</time>
      </trkpt>
      <trkpt lat="43.657255" lon="-7.597364">
        <ele>105</ele>
        <time>2019-03-16T17:45:45.000Z</time>
      </trkpt>
      <trkpt lat="43.657205" lon="-7.597389">
        <ele>104</ele>
        <time>2019-03-16T17:45:47.000Z</time>
      </trkpt>
      <trkpt lat="43.657112" lon="-7.597417">
        <ele>104</ele>
        <time>2019-03-16T17:45:50.000Z</time>
      </trkpt>
      <trkpt lat="43.657058" lon="-7.597427">
        <ele>104</ele>
        <time>2019-03-16T17:45:52.000Z</time>
      </trkpt>
      <trkpt lat="43.656998" lon="-7.597436">
        <ele>104</ele>
        <time>2019-03-16T17:45:54.000Z</time>
      </trkpt>
      <trkpt lat="43.656913" lon="-7.59745">
        <ele>104</ele>
        <time>2019-03-16T17:45:57.000Z</time>
      </trkpt>
      <trkpt lat="43.656865" lon="-7.59746">
        <ele>104</ele>
        <time>2019-03-16T17:45:59.000Z</time>
      </trkpt>
      <trkpt lat="43.656804" lon="-7.597468">
        <ele>104</ele>
        <time>2019-03-16T17:46:01.000Z</time>
      </trkpt>
      <trkpt lat="43.656728" lon="-7.59749">
        <ele>105</ele>
        <time>2019-03-16T17:46:04.000Z</time>
      </trkpt>
      <trkpt lat="43.656679" lon="-7.597516">
        <ele>105</ele>
        <time>2019-03-16T17:46:06.000Z</time>
      </trkpt>
      <trkpt lat="43.656605" lon="-7.597558">
        <ele>104</ele>
        <time>2019-03-16T17:46:09.000Z</time>
      </trkpt>
      <trkpt lat="43.656539" lon="-7.597567">
        <ele>103</ele>
        <time>2019-03-16T17:46:12.000Z</time>
      </trkpt>
      <trkpt lat="43.656492" lon="-7.597553">
        <ele>103</ele>
        <time>2019-03-16T17:46:14.000Z</time>
      </trkpt>
      <trkpt lat="43.656446" lon="-7.597528">
        <ele>103</ele>
        <time>2019-03-16T17:46:16.000Z</time>
      </trkpt>
      <trkpt lat="43.656355" lon="-7.597502">
        <ele>104</ele>
        <time>2019-03-16T17:46:22.000Z</time>
      </trkpt>
      <trkpt lat="43.656262" lon="-7.597497">
        <ele>105</ele>
        <time>2019-03-16T17:46:24.000Z</time>
      </trkpt>
      <trkpt lat="43.656191" lon="-7.59751">
        <ele>106</ele>
        <time>2019-03-16T17:46:26.000Z</time>
      </trkpt>
      <trkpt lat="43.656148" lon="-7.597544">
        <ele>-9999</ele>
        <time>2019-03-16T17:46:27.798Z</time>
      </trkpt>
      <trkpt lat="43.656197" lon="-7.597567">
        <ele>-9999</ele>
        <time>2019-03-16T17:46:33.000Z</time>
      </trkpt>
      <trkpt lat="43.655994" lon="-7.597698">
        <ele>-9999</ele>
        <time>2019-03-16T17:46:37.482Z</time>
      </trkpt>
      <trkpt lat="43.655597" lon="-7.597933">
        <ele>-9999</ele>
        <time>2019-03-16T17:46:44.000Z</time>
      </trkpt>
      <trkpt lat="43.655497" lon="-7.597868">
        <ele>107</ele>
        <time>2019-03-16T17:46:48.000Z</time>
      </trkpt>
      <trkpt lat="43.655443" lon="-7.597883">
        <ele>-9999</ele>
        <time>2019-03-16T17:46:51.000Z</time>
      </trkpt>
      <trkpt lat="43.655326" lon="-7.597816">
        <ele>104</ele>
        <time>2019-03-16T17:46:54.000Z</time>
      </trkpt>
      <trkpt lat="43.655211" lon="-7.597763">
        <ele>104</ele>
        <time>2019-03-16T17:46:57.000Z</time>
      </trkpt>
      <trkpt lat="43.655117" lon="-7.597755">
        <ele>104</ele>
        <time>2019-03-16T17:46:59.000Z</time>
      </trkpt>
      <trkpt lat="43.655034" lon="-7.597792">
        <ele>105</ele>
        <time>2019-03-16T17:47:02.000Z</time>
      </trkpt>
      <trkpt lat="43.654985" lon="-7.597827">
        <ele>105</ele>
        <time>2019-03-16T17:47:04.000Z</time>
      </trkpt>
      <trkpt lat="43.654926" lon="-7.597865">
        <ele>105</ele>
        <time>2019-03-16T17:47:06.000Z</time>
      </trkpt>
      <trkpt lat="43.654859" lon="-7.597875">
        <ele>105</ele>
        <time>2019-03-16T17:47:08.000Z</time>
      </trkpt>
      <trkpt lat="43.654798" lon="-7.597865">
        <ele>105</ele>
        <time>2019-03-16T17:47:10.000Z</time>
      </trkpt>
      <trkpt lat="43.654716" lon="-7.597821">
        <ele>104</ele>
        <time>2019-03-16T17:47:13.000Z</time>
      </trkpt>
      <trkpt lat="43.654476" lon="-7.597737">
        <ele>104</ele>
        <time>2019-03-16T17:47:17.000Z</time>
      </trkpt>
      <trkpt lat="43.654429" lon="-7.597771">
        <ele>103</ele>
        <time>2019-03-16T17:47:20.000Z</time>
      </trkpt>
      <trkpt lat="43.654344" lon="-7.597918">
        <ele>-9999</ele>
        <time>2019-03-16T17:47:23.000Z</time>
      </trkpt>
      <trkpt lat="43.654258" lon="-7.59791">
        <ele>-9999</ele>
        <time>2019-03-16T17:47:34.000Z</time>
      </trkpt>
      <trkpt lat="43.654228" lon="-7.597988">
        <ele>101</ele>
        <time>2019-03-16T17:47:36.000Z</time>
      </trkpt>
      <trkpt lat="43.654162" lon="-7.59817">
        <ele>101</ele>
        <time>2019-03-16T17:47:40.000Z</time>
      </trkpt>
      <trkpt lat="43.654149" lon="-7.598263">
        <ele>101</ele>
        <time>2019-03-16T17:47:43.000Z</time>
      </trkpt>
      <trkpt lat="43.654128" lon="-7.598334">
        <ele>100</ele>
        <time>2019-03-16T17:47:45.000Z</time>
      </trkpt>
      <trkpt lat="43.654091" lon="-7.598434">
        <ele>97</ele>
        <time>2019-03-16T17:47:48.000Z</time>
      </trkpt>
      <trkpt lat="43.654056" lon="-7.598529">
        <ele>96</ele>
        <time>2019-03-16T17:47:51.000Z</time>
      </trkpt>
      <trkpt lat="43.654043" lon="-7.598611">
        <ele>94</ele>
        <time>2019-03-16T17:47:53.000Z</time>
      </trkpt>
      <trkpt lat="43.654034" lon="-7.598693">
        <ele>92</ele>
        <time>2019-03-16T17:47:55.000Z</time>
      </trkpt>
      <trkpt lat="43.65403" lon="-7.59877">
        <ele>92</ele>
        <time>2019-03-16T17:47:57.000Z</time>
      </trkpt>
      <trkpt lat="43.654025" lon="-7.598859">
        <ele>92</ele>
        <time>2019-03-16T17:47:59.000Z</time>
      </trkpt>
      <trkpt lat="43.654019" lon="-7.598951">
        <ele>91</ele>
        <time>2019-03-16T17:48:01.000Z</time>
      </trkpt>
      <trkpt lat="43.654022" lon="-7.599078">
        <ele>90</ele>
        <time>2019-03-16T17:48:04.000Z</time>
      </trkpt>
      <trkpt lat="43.654016" lon="-7.599148">
        <ele>90</ele>
        <time>2019-03-16T17:48:06.000Z</time>
      </trkpt>
      <trkpt lat="43.654017" lon="-7.599218">
        <ele>90</ele>
        <time>2019-03-16T17:48:08.000Z</time>
      </trkpt>
      <trkpt lat="43.654029" lon="-7.599312">
        <ele>90</ele>
        <time>2019-03-16T17:48:10.000Z</time>
      </trkpt>
      <trkpt lat="43.654043" lon="-7.599402">
        <ele>89</ele>
        <time>2019-03-16T17:48:12.000Z</time>
      </trkpt>
      <trkpt lat="43.654059" lon="-7.59948">
        <ele>88</ele>
        <time>2019-03-16T17:48:14.000Z</time>
      </trkpt>
      <trkpt lat="43.654084" lon="-7.599556">
        <ele>87</ele>
        <time>2019-03-16T17:48:16.000Z</time>
      </trkpt>
      <trkpt lat="43.654113" lon="-7.599645">
        <ele>85</ele>
        <time>2019-03-16T17:48:18.000Z</time>
      </trkpt>
      <trkpt lat="43.654137" lon="-7.599727">
        <ele>84</ele>
        <time>2019-03-16T17:48:20.000Z</time>
      </trkpt>
      <trkpt lat="43.654158" lon="-7.599807">
        <ele>84</ele>
        <time>2019-03-16T17:48:22.000Z</time>
      </trkpt>
      <trkpt lat="43.654188" lon="-7.599914">
        <ele>83</ele>
        <time>2019-03-16T17:48:25.000Z</time>
      </trkpt>
      <trkpt lat="43.654225" lon="-7.600033">
        <ele>82</ele>
        <time>2019-03-16T17:48:28.000Z</time>
      </trkpt>
      <trkpt lat="43.654279" lon="-7.600167">
        <ele>82</ele>
        <time>2019-03-16T17:48:31.000Z</time>
      </trkpt>
      <trkpt lat="43.6543" lon="-7.600226">
        <ele>81</ele>
        <time>2019-03-16T17:48:33.000Z</time>
      </trkpt>
      <trkpt lat="43.654332" lon="-7.600293">
        <ele>81</ele>
        <time>2019-03-16T17:48:35.000Z</time>
      </trkpt>
      <trkpt lat="43.654376" lon="-7.600397">
        <ele>80</ele>
        <time>2019-03-16T17:48:38.000Z</time>
      </trkpt>
      <trkpt lat="43.654403" lon="-7.600465">
        <ele>80</ele>
        <time>2019-03-16T17:48:40.000Z</time>
      </trkpt>
      <trkpt lat="43.654428" lon="-7.600534">
        <ele>79</ele>
        <time>2019-03-16T17:48:42.000Z</time>
      </trkpt>
      <trkpt lat="43.65446" lon="-7.60064">
        <ele>79</ele>
        <time>2019-03-16T17:48:45.000Z</time>
      </trkpt>
      <trkpt lat="43.654477" lon="-7.600712">
        <ele>79</ele>
        <time>2019-03-16T17:48:47.000Z</time>
      </trkpt>
      <trkpt lat="43.654494" lon="-7.600778">
        <ele>78</ele>
        <time>2019-03-16T17:48:49.000Z</time>
      </trkpt>
      <trkpt lat="43.654511" lon="-7.60086">
        <ele>78</ele>
        <time>2019-03-16T17:48:51.000Z</time>
      </trkpt>
      <trkpt lat="43.654516" lon="-7.60094">
        <ele>77</ele>
        <time>2019-03-16T17:48:53.000Z</time>
      </trkpt>
      <trkpt lat="43.654517" lon="-7.601007">
        <ele>77</ele>
        <time>2019-03-16T17:48:55.000Z</time>
      </trkpt>
      <trkpt lat="43.654514" lon="-7.601077">
        <ele>76</ele>
        <time>2019-03-16T17:48:57.000Z</time>
      </trkpt>
      <trkpt lat="43.654516" lon="-7.601139">
        <ele>76</ele>
        <time>2019-03-16T17:48:59.000Z</time>
      </trkpt>
      <trkpt lat="43.654527" lon="-7.601241">
        <ele>77</ele>
        <time>2019-03-16T17:49:02.000Z</time>
      </trkpt>
      <trkpt lat="43.654538" lon="-7.601313">
        <ele>77</ele>
        <time>2019-03-16T17:49:04.000Z</time>
      </trkpt>
      <trkpt lat="43.654558" lon="-7.601431">
        <ele>77</ele>
        <time>2019-03-16T17:49:07.000Z</time>
      </trkpt>
      <trkpt lat="43.654567" lon="-7.60152">
        <ele>76</ele>
        <time>2019-03-16T17:49:09.000Z</time>
      </trkpt>
      <trkpt lat="43.654578" lon="-7.601604">
        <ele>76</ele>
        <time>2019-03-16T17:49:11.000Z</time>
      </trkpt>
      <trkpt lat="43.654595" lon="-7.601683">
        <ele>76</ele>
        <time>2019-03-16T17:49:13.000Z</time>
      </trkpt>
      <trkpt lat="43.654605" lon="-7.601772">
        <ele>77</ele>
        <time>2019-03-16T17:49:15.000Z</time>
      </trkpt>
      <trkpt lat="43.654615" lon="-7.601868">
        <ele>76</ele>
        <time>2019-03-16T17:49:17.000Z</time>
      </trkpt>
      <trkpt lat="43.654634" lon="-7.601958">
        <ele>76</ele>
        <time>2019-03-16T17:49:19.000Z</time>
      </trkpt>
      <trkpt lat="43.6547" lon="-7.602035">
        <ele>75</ele>
        <time>2019-03-16T17:49:22.000Z</time>
      </trkpt>
      <trkpt lat="43.654751" lon="-7.602052">
        <ele>74</ele>
        <time>2019-03-16T17:49:24.000Z</time>
      </trkpt>
      <trkpt lat="43.654824" lon="-7.60208">
        <ele>74</ele>
        <time>2019-03-16T17:49:27.000Z</time>
      </trkpt>
      <trkpt lat="43.654881" lon="-7.602103">
        <ele>74</ele>
        <time>2019-03-16T17:49:29.000Z</time>
      </trkpt>
      <trkpt lat="43.654939" lon="-7.602123">
        <ele>74</ele>
        <time>2019-03-16T17:49:31.000Z</time>
      </trkpt>
      <trkpt lat="43.654996" lon="-7.602135">
        <ele>74</ele>
        <time>2019-03-16T17:49:33.000Z</time>
      </trkpt>
      <trkpt lat="43.655056" lon="-7.602142">
        <ele>74</ele>
        <time>2019-03-16T17:49:35.000Z</time>
      </trkpt>
      <trkpt lat="43.655109" lon="-7.602146">
        <ele>74</ele>
        <time>2019-03-16T17:49:37.000Z</time>
      </trkpt>
      <trkpt lat="43.655155" lon="-7.602155">
        <ele>74</ele>
        <time>2019-03-16T17:49:39.000Z</time>
      </trkpt>
      <trkpt lat="43.655237" lon="-7.602176">
        <ele>74</ele>
        <time>2019-03-16T17:49:42.000Z</time>
      </trkpt>
      <trkpt lat="43.655296" lon="-7.602201">
        <ele>73</ele>
        <time>2019-03-16T17:49:44.000Z</time>
      </trkpt>
      <trkpt lat="43.655356" lon="-7.602233">
        <ele>73</ele>
        <time>2019-03-16T17:49:46.000Z</time>
      </trkpt>
      <trkpt lat="43.655417" lon="-7.602279">
        <ele>72</ele>
        <time>2019-03-16T17:49:48.000Z</time>
      </trkpt>
      <trkpt lat="43.655463" lon="-7.602331">
        <ele>72</ele>
        <time>2019-03-16T17:49:50.000Z</time>
      </trkpt>
      <trkpt lat="43.655497" lon="-7.602389">
        <ele>72</ele>
        <time>2019-03-16T17:49:52.000Z</time>
      </trkpt>
      <trkpt lat="43.655546" lon="-7.602524">
        <ele>71</ele>
        <time>2019-03-16T17:49:56.000Z</time>
      </trkpt>
      <trkpt lat="43.655566" lon="-7.602592">
        <ele>72</ele>
        <time>2019-03-16T17:49:58.000Z</time>
      </trkpt>
      <trkpt lat="43.655589" lon="-7.602661">
        <ele>71</ele>
        <time>2019-03-16T17:50:00.000Z</time>
      </trkpt>
      <trkpt lat="43.655612" lon="-7.602735">
        <ele>71</ele>
        <time>2019-03-16T17:50:02.000Z</time>
      </trkpt>
      <trkpt lat="43.655635" lon="-7.602803">
        <ele>71</ele>
        <time>2019-03-16T17:50:04.000Z</time>
      </trkpt>
      <trkpt lat="43.655666" lon="-7.602879">
        <ele>71</ele>
        <time>2019-03-16T17:50:06.000Z</time>
      </trkpt>
      <trkpt lat="43.655706" lon="-7.60295">
        <ele>71</ele>
        <time>2019-03-16T17:50:08.000Z</time>
      </trkpt>
      <trkpt lat="43.655748" lon="-7.603015">
        <ele>70</ele>
        <time>2019-03-16T17:50:10.000Z</time>
      </trkpt>
      <trkpt lat="43.655812" lon="-7.603096">
        <ele>70</ele>
        <time>2019-03-16T17:50:13.000Z</time>
      </trkpt>
      <trkpt lat="43.655888" lon="-7.603174">
        <ele>70</ele>
        <time>2019-03-16T17:50:16.000Z</time>
      </trkpt>
      <trkpt lat="43.655944" lon="-7.603221">
        <ele>69</ele>
        <time>2019-03-16T17:50:18.000Z</time>
      </trkpt>
      <trkpt lat="43.655996" lon="-7.603254">
        <ele>68</ele>
        <time>2019-03-16T17:50:20.000Z</time>
      </trkpt>
      <trkpt lat="43.656048" lon="-7.603286">
        <ele>68</ele>
        <time>2019-03-16T17:50:22.000Z</time>
      </trkpt>
      <trkpt lat="43.656098" lon="-7.60332">
        <ele>68</ele>
        <time>2019-03-16T17:50:24.000Z</time>
      </trkpt>
      <trkpt lat="43.65615" lon="-7.603356">
        <ele>68</ele>
        <time>2019-03-16T17:50:26.000Z</time>
      </trkpt>
      <trkpt lat="43.656218" lon="-7.603402">
        <ele>68</ele>
        <time>2019-03-16T17:50:29.000Z</time>
      </trkpt>
      <trkpt lat="43.656275" lon="-7.603434">
        <ele>68</ele>
        <time>2019-03-16T17:50:31.000Z</time>
      </trkpt>
      <trkpt lat="43.656364" lon="-7.603475">
        <ele>68</ele>
        <time>2019-03-16T17:50:34.000Z</time>
      </trkpt>
      <trkpt lat="43.656409" lon="-7.603499">
        <ele>69</ele>
        <time>2019-03-16T17:50:36.000Z</time>
      </trkpt>
      <trkpt lat="43.656496" lon="-7.603548">
        <ele>69</ele>
        <time>2019-03-16T17:50:39.000Z</time>
      </trkpt>
      <trkpt lat="43.656551" lon="-7.603581">
        <ele>70</ele>
        <time>2019-03-16T17:50:41.000Z</time>
      </trkpt>
      <trkpt lat="43.656598" lon="-7.603604">
        <ele>70</ele>
        <time>2019-03-16T17:50:43.000Z</time>
      </trkpt>
      <trkpt lat="43.656656" lon="-7.60364">
        <ele>69</ele>
        <time>2019-03-16T17:50:45.000Z</time>
      </trkpt>
      <trkpt lat="43.656725" lon="-7.603669">
        <ele>69</ele>
        <time>2019-03-16T17:50:48.000Z</time>
      </trkpt>
      <trkpt lat="43.656788" lon="-7.603672">
        <ele>70</ele>
        <time>2019-03-16T17:50:50.000Z</time>
      </trkpt>
      <trkpt lat="43.656861" lon="-7.60366">
        <ele>69</ele>
        <time>2019-03-16T17:50:52.000Z</time>
      </trkpt>
      <trkpt lat="43.656913" lon="-7.603649">
        <ele>69</ele>
        <time>2019-03-16T17:50:54.000Z</time>
      </trkpt>
      <trkpt lat="43.656982" lon="-7.603614">
        <ele>68</ele>
        <time>2019-03-16T17:50:56.000Z</time>
      </trkpt>
      <trkpt lat="43.657038" lon="-7.603569">
        <ele>69</ele>
        <time>2019-03-16T17:50:58.000Z</time>
      </trkpt>
      <trkpt lat="43.657087" lon="-7.603513">
        <ele>69</ele>
        <time>2019-03-16T17:51:00.000Z</time>
      </trkpt>
      <trkpt lat="43.657127" lon="-7.603464">
        <ele>68</ele>
        <time>2019-03-16T17:51:02.000Z</time>
      </trkpt>
      <trkpt lat="43.657168" lon="-7.603409">
        <ele>67</ele>
        <time>2019-03-16T17:51:04.000Z</time>
      </trkpt>
      <trkpt lat="43.65721" lon="-7.603342">
        <ele>67</ele>
        <time>2019-03-16T17:51:06.000Z</time>
      </trkpt>
      <trkpt lat="43.65726" lon="-7.603255">
        <ele>67</ele>
        <time>2019-03-16T17:51:09.000Z</time>
      </trkpt>
      <trkpt lat="43.657294" lon="-7.603197">
        <ele>67</ele>
        <time>2019-03-16T17:51:11.000Z</time>
      </trkpt>
      <trkpt lat="43.657351" lon="-7.603102">
        <ele>68</ele>
        <time>2019-03-16T17:51:14.000Z</time>
      </trkpt>
      <trkpt lat="43.657384" lon="-7.603031">
        <ele>68</ele>
        <time>2019-03-16T17:51:16.000Z</time>
      </trkpt>
      <trkpt lat="43.657413" lon="-7.602972">
        <ele>68</ele>
        <time>2019-03-16T17:51:18.000Z</time>
      </trkpt>
      <trkpt lat="43.657453" lon="-7.602899">
        <ele>68</ele>
        <time>2019-03-16T17:51:20.000Z</time>
      </trkpt>
      <trkpt lat="43.657492" lon="-7.602833">
        <ele>68</ele>
        <time>2019-03-16T17:51:22.000Z</time>
      </trkpt>
      <trkpt lat="43.657538" lon="-7.60276">
        <ele>69</ele>
        <time>2019-03-16T17:51:24.000Z</time>
      </trkpt>
      <trkpt lat="43.657602" lon="-7.602691">
        <ele>69</ele>
        <time>2019-03-16T17:51:27.000Z</time>
      </trkpt>
      <trkpt lat="43.657671" lon="-7.602682">
        <ele>70</ele>
        <time>2019-03-16T17:51:30.000Z</time>
      </trkpt>
      <trkpt lat="43.657716" lon="-7.602694">
        <ele>71</ele>
        <time>2019-03-16T17:51:32.000Z</time>
      </trkpt>
      <trkpt lat="43.657783" lon="-7.602726">
        <ele>73</ele>
        <time>2019-03-16T17:51:35.000Z</time>
      </trkpt>
      <trkpt lat="43.657842" lon="-7.602755">
        <ele>73</ele>
        <time>2019-03-16T17:51:37.000Z</time>
      </trkpt>
      <trkpt lat="43.657896" lon="-7.602782">
        <ele>74</ele>
        <time>2019-03-16T17:51:39.000Z</time>
      </trkpt>
      <trkpt lat="43.657972" lon="-7.602821">
        <ele>75</ele>
        <time>2019-03-16T17:51:42.000Z</time>
      </trkpt>
      <trkpt lat="43.658029" lon="-7.60284">
        <ele>75</ele>
        <time>2019-03-16T17:51:44.000Z</time>
      </trkpt>
      <trkpt lat="43.658085" lon="-7.602831">
        <ele>75</ele>
        <time>2019-03-16T17:51:50.000Z</time>
      </trkpt>
      <trkpt lat="43.658134" lon="-7.602734">
        <ele>80</ele>
        <time>2019-03-16T17:51:53.000Z</time>
      </trkpt>
      <trkpt lat="43.658153" lon="-7.602646">
        <ele>88</ele>
        <time>2019-03-16T17:51:54.000Z</time>
      </trkpt>
      <trkpt lat="43.658164" lon="-7.602571">
        <ele>93</ele>
        <time>2019-03-16T17:51:55.000Z</time>
      </trkpt>
      <trkpt lat="43.658172" lon="-7.602442">
        <ele>96</ele>
        <time>2019-03-16T17:51:57.000Z</time>
      </trkpt>
      <trkpt lat="43.658156" lon="-7.602187">
        <ele>101</ele>
        <time>2019-03-16T17:52:00.000Z</time>
      </trkpt>
      <trkpt lat="43.658144" lon="-7.602098">
        <ele>100</ele>
        <time>2019-03-16T17:52:02.000Z</time>
      </trkpt>
      <trkpt lat="43.658121" lon="-7.602014">
        <ele>101</ele>
        <time>2019-03-16T17:52:05.000Z</time>
      </trkpt>
      <trkpt lat="43.658074" lon="-7.601904">
        <ele>101</ele>
        <time>2019-03-16T17:52:09.000Z</time>
      </trkpt>
      <trkpt lat="43.658044" lon="-7.601839">
        <ele>104</ele>
        <time>2019-03-16T17:52:11.000Z</time>
      </trkpt>
      <trkpt lat="43.658004" lon="-7.601741">
        <ele>105</ele>
        <time>2019-03-16T17:52:14.000Z</time>
      </trkpt>
      <trkpt lat="43.657975" lon="-7.601669">
        <ele>104</ele>
        <time>2019-03-16T17:52:16.000Z</time>
      </trkpt>
      <trkpt lat="43.65796" lon="-7.601584">
        <ele>100</ele>
        <time>2019-03-16T17:52:19.000Z</time>
      </trkpt>
      <trkpt lat="43.657954" lon="-7.601494">
        <ele>98</ele>
        <time>2019-03-16T17:52:22.000Z</time>
      </trkpt>
      <trkpt lat="43.657957" lon="-7.601415">
        <ele>97</ele>
        <time>2019-03-16T17:52:24.000Z</time>
      </trkpt>
      <trkpt lat="43.657964" lon="-7.601345">
        <ele>95</ele>
        <time>2019-03-16T17:52:26.000Z</time>
      </trkpt>
      <trkpt lat="43.657971" lon="-7.60128">
        <ele>93</ele>
        <time>2019-03-16T17:52:28.000Z</time>
      </trkpt>
      <trkpt lat="43.657981" lon="-7.601196">
        <ele>92</ele>
        <time>2019-03-16T17:52:30.000Z</time>
      </trkpt>
      <trkpt lat="43.657991" lon="-7.601067">
        <ele>90</ele>
        <time>2019-03-16T17:52:33.000Z</time>
      </trkpt>
      <trkpt lat="43.657989" lon="-7.600952">
        <ele>89</ele>
        <time>2019-03-16T17:52:36.000Z</time>
      </trkpt>
      <trkpt lat="43.657982" lon="-7.600823">
        <ele>89</ele>
        <time>2019-03-16T17:52:39.000Z</time>
      </trkpt>
      <trkpt lat="43.657975" lon="-7.60076">
        <ele>88</ele>
        <time>2019-03-16T17:52:41.000Z</time>
      </trkpt>
      <trkpt lat="43.657964" lon="-7.600688">
        <ele>87</ele>
        <time>2019-03-16T17:52:43.000Z</time>
      </trkpt>
      <trkpt lat="43.657952" lon="-7.600607">
        <ele>85</ele>
        <time>2019-03-16T17:52:45.000Z</time>
      </trkpt>
      <trkpt lat="43.657932" lon="-7.600514">
        <ele>84</ele>
        <time>2019-03-16T17:52:48.000Z</time>
      </trkpt>
      <trkpt lat="43.657902" lon="-7.600393">
        <ele>83</ele>
        <time>2019-03-16T17:52:51.000Z</time>
      </trkpt>
      <trkpt lat="43.657888" lon="-7.600317">
        <ele>82</ele>
        <time>2019-03-16T17:52:53.000Z</time>
      </trkpt>
      <trkpt lat="43.657873" lon="-7.600244">
        <ele>82</ele>
        <time>2019-03-16T17:52:55.000Z</time>
      </trkpt>
      <trkpt lat="43.657854" lon="-7.600143">
        <ele>81</ele>
        <time>2019-03-16T17:52:58.000Z</time>
      </trkpt>
      <trkpt lat="43.65783" lon="-7.600001">
        <ele>81</ele>
        <time>2019-03-16T17:53:01.000Z</time>
      </trkpt>
      <trkpt lat="43.657817" lon="-7.599913">
        <ele>81</ele>
        <time>2019-03-16T17:53:03.000Z</time>
      </trkpt>
      <trkpt lat="43.657803" lon="-7.599848">
        <ele>81</ele>
        <time>2019-03-16T17:53:05.000Z</time>
      </trkpt>
      <trkpt lat="43.657787" lon="-7.59978">
        <ele>81</ele>
        <time>2019-03-16T17:53:07.000Z</time>
      </trkpt>
      <trkpt lat="43.657776" lon="-7.599706">
        <ele>81</ele>
        <time>2019-03-16T17:53:09.000Z</time>
      </trkpt>
      <trkpt lat="43.657766" lon="-7.599608">
        <ele>82</ele>
        <time>2019-03-16T17:53:11.000Z</time>
      </trkpt>
      <trkpt lat="43.657764" lon="-7.599535">
        <ele>82</ele>
        <time>2019-03-16T17:53:13.000Z</time>
      </trkpt>
      <trkpt lat="43.657777" lon="-7.599461">
        <ele>81</ele>
        <time>2019-03-16T17:53:15.000Z</time>
      </trkpt>
      <trkpt lat="43.657808" lon="-7.599363">
        <ele>80</ele>
        <time>2019-03-16T17:53:18.000Z</time>
      </trkpt>
      <trkpt lat="43.657843" lon="-7.599273">
        <ele>80</ele>
        <time>2019-03-16T17:53:20.000Z</time>
      </trkpt>
      <trkpt lat="43.657877" lon="-7.599172">
        <ele>79</ele>
        <time>2019-03-16T17:53:23.000Z</time>
      </trkpt>
      <trkpt lat="43.657904" lon="-7.599105">
        <ele>79</ele>
        <time>2019-03-16T17:53:25.000Z</time>
      </trkpt>
      <trkpt lat="43.65795" lon="-7.599002">
        <ele>79</ele>
        <time>2019-03-16T17:53:28.000Z</time>
      </trkpt>
      <trkpt lat="43.657996" lon="-7.598895">
        <ele>78</ele>
        <time>2019-03-16T17:53:31.000Z</time>
      </trkpt>
      <trkpt lat="43.658042" lon="-7.598792">
        <ele>78</ele>
        <time>2019-03-16T17:53:34.000Z</time>
      </trkpt>
      <trkpt lat="43.658071" lon="-7.598727">
        <ele>77</ele>
        <time>2019-03-16T17:53:36.000Z</time>
      </trkpt>
      <trkpt lat="43.658123" lon="-7.598604">
        <ele>77</ele>
        <time>2019-03-16T17:53:39.000Z</time>
      </trkpt>
      <trkpt lat="43.658165" lon="-7.59851">
        <ele>77</ele>
        <time>2019-03-16T17:53:42.000Z</time>
      </trkpt>
      <trkpt lat="43.65821" lon="-7.598414">
        <ele>78</ele>
        <time>2019-03-16T17:53:45.000Z</time>
      </trkpt>
      <trkpt lat="43.658248" lon="-7.598339">
        <ele>78</ele>
        <time>2019-03-16T17:53:47.000Z</time>
      </trkpt>
      <trkpt lat="43.658282" lon="-7.598266">
        <ele>78</ele>
        <time>2019-03-16T17:53:49.000Z</time>
      </trkpt>
      <trkpt lat="43.658364" lon="-7.598102">
        <ele>75</ele>
        <time>2019-03-16T17:53:52.000Z</time>
      </trkpt>
      <trkpt lat="43.658393" lon="-7.598053">
        <ele>74</ele>
        <time>2019-03-16T17:53:54.000Z</time>
      </trkpt>
      <trkpt lat="43.658434" lon="-7.597978">
        <ele>74</ele>
        <time>2019-03-16T17:53:57.000Z</time>
      </trkpt>
      <trkpt lat="43.658491" lon="-7.597893">
        <ele>74</ele>
        <time>2019-03-16T17:54:00.000Z</time>
      </trkpt>
      <trkpt lat="43.658553" lon="-7.597816">
        <ele>74</ele>
        <time>2019-03-16T17:54:03.000Z</time>
      </trkpt>
      <trkpt lat="43.658596" lon="-7.597764">
        <ele>74</ele>
        <time>2019-03-16T17:54:05.000Z</time>
      </trkpt>
      <trkpt lat="43.658663" lon="-7.597687">
        <ele>73</ele>
        <time>2019-03-16T17:54:08.000Z</time>
      </trkpt>
      <trkpt lat="43.658704" lon="-7.59764">
        <ele>73</ele>
        <time>2019-03-16T17:54:10.000Z</time>
      </trkpt>
      <trkpt lat="43.658747" lon="-7.597591">
        <ele>72</ele>
        <time>2019-03-16T17:54:12.000Z</time>
      </trkpt>
      <trkpt lat="43.6588" lon="-7.59753">
        <ele>72</ele>
        <time>2019-03-16T17:54:14.000Z</time>
      </trkpt>
      <trkpt lat="43.65885" lon="-7.597479">
        <ele>71</ele>
        <time>2019-03-16T17:54:16.000Z</time>
      </trkpt>
      <trkpt lat="43.65889" lon="-7.597436">
        <ele>71</ele>
        <time>2019-03-16T17:54:18.000Z</time>
      </trkpt>
      <trkpt lat="43.658941" lon="-7.59739">
        <ele>71</ele>
        <time>2019-03-16T17:54:20.000Z</time>
      </trkpt>
      <trkpt lat="43.658995" lon="-7.597354">
        <ele>71</ele>
        <time>2019-03-16T17:54:22.000Z</time>
      </trkpt>
      <trkpt lat="43.659043" lon="-7.597327">
        <ele>70</ele>
        <time>2019-03-16T17:54:24.000Z</time>
      </trkpt>
      <trkpt lat="43.659089" lon="-7.597301">
        <ele>70</ele>
        <time>2019-03-16T17:54:26.000Z</time>
      </trkpt>
      <trkpt lat="43.659146" lon="-7.597281">
        <ele>69</ele>
        <time>2019-03-16T17:54:29.000Z</time>
      </trkpt>
      <trkpt lat="43.659209" lon="-7.597269">
        <ele>68</ele>
        <time>2019-03-16T17:54:32.000Z</time>
      </trkpt>
      <trkpt lat="43.659256" lon="-7.597261">
        <ele>68</ele>
        <time>2019-03-16T17:54:34.000Z</time>
      </trkpt>
      <trkpt lat="43.659314" lon="-7.597249">
        <ele>68</ele>
        <time>2019-03-16T17:54:36.000Z</time>
      </trkpt>
      <trkpt lat="43.65941" lon="-7.597223">
        <ele>68</ele>
        <time>2019-03-16T17:54:39.000Z</time>
      </trkpt>
      <trkpt lat="43.659489" lon="-7.597255">
        <ele>69</ele>
        <time>2019-03-16T17:54:43.000Z</time>
      </trkpt>
      <trkpt lat="43.659753" lon="-7.597306">
        <ele>68</ele>
        <time>2019-03-16T17:54:47.000Z</time>
      </trkpt>
      <trkpt lat="43.65985" lon="-7.597262">
        <ele>64</ele>
        <time>2019-03-16T17:54:50.000Z</time>
      </trkpt>
      <trkpt lat="43.659918" lon="-7.597235">
        <ele>63</ele>
        <time>2019-03-16T17:54:52.000Z</time>
      </trkpt>
      <trkpt lat="43.659966" lon="-7.597222">
        <ele>63</ele>
        <time>2019-03-16T17:54:53.000Z</time>
      </trkpt>
      <trkpt lat="43.660056" lon="-7.597222">
        <ele>60</ele>
        <time>2019-03-16T17:54:56.000Z</time>
      </trkpt>
      <trkpt lat="43.660159" lon="-7.597226">
        <ele>60</ele>
        <time>2019-03-16T17:54:59.000Z</time>
      </trkpt>
      <trkpt lat="43.660224" lon="-7.597239">
        <ele>59</ele>
        <time>2019-03-16T17:55:02.000Z</time>
      </trkpt>
      <trkpt lat="43.660286" lon="-7.59725">
        <ele>58</ele>
        <time>2019-03-16T17:55:05.000Z</time>
      </trkpt>
      <trkpt lat="43.660391" lon="-7.597274">
        <ele>59</ele>
        <time>2019-03-16T17:55:07.000Z</time>
      </trkpt>
      <trkpt lat="43.660434" lon="-7.597294">
        <ele>58</ele>
        <time>2019-03-16T17:55:09.000Z</time>
      </trkpt>
      <trkpt lat="43.660523" lon="-7.597306">
        <ele>58</ele>
        <time>2019-03-16T17:55:13.000Z</time>
      </trkpt>
      <trkpt lat="43.660676" lon="-7.597335">
        <ele>57</ele>
        <time>2019-03-16T17:55:17.000Z</time>
      </trkpt>
      <trkpt lat="43.660774" lon="-7.597351">
        <ele>57</ele>
        <time>2019-03-16T17:55:19.000Z</time>
      </trkpt>
      <trkpt lat="43.660821" lon="-7.597351">
        <ele>57</ele>
        <time>2019-03-16T17:55:21.000Z</time>
      </trkpt>
      <trkpt lat="43.660909" lon="-7.597329">
        <ele>58</ele>
        <time>2019-03-16T17:55:25.000Z</time>
      </trkpt>
      <trkpt lat="43.660977" lon="-7.597314">
        <ele>58</ele>
        <time>2019-03-16T17:55:26.000Z</time>
      </trkpt>
      <trkpt lat="43.661035" lon="-7.597327">
        <ele>57</ele>
        <time>2019-03-16T17:55:29.000Z</time>
      </trkpt>
      <trkpt lat="43.661101" lon="-7.597308">
        <ele>57</ele>
        <time>2019-03-16T17:55:32.000Z</time>
      </trkpt>
      <trkpt lat="43.661151" lon="-7.597292">
        <ele>57</ele>
        <time>2019-03-16T17:55:34.000Z</time>
      </trkpt>
      <trkpt lat="43.661206" lon="-7.597273">
        <ele>57</ele>
        <time>2019-03-16T17:55:36.000Z</time>
      </trkpt>
      <trkpt lat="43.661262" lon="-7.597252">
        <ele>57</ele>
        <time>2019-03-16T17:55:38.000Z</time>
      </trkpt>
      <trkpt lat="43.66131" lon="-7.597233">
        <ele>57</ele>
        <time>2019-03-16T17:55:40.000Z</time>
      </trkpt>
      <trkpt lat="43.661394" lon="-7.597185">
        <ele>58</ele>
        <time>2019-03-16T17:55:43.000Z</time>
      </trkpt>
      <trkpt lat="43.66146" lon="-7.597146">
        <ele>58</ele>
        <time>2019-03-16T17:55:45.000Z</time>
      </trkpt>
      <trkpt lat="43.661556" lon="-7.597083">
        <ele>58</ele>
        <time>2019-03-16T17:55:48.000Z</time>
      </trkpt>
      <trkpt lat="43.661604" lon="-7.597049">
        <ele>58</ele>
        <time>2019-03-16T17:55:50.000Z</time>
      </trkpt>
      <trkpt lat="43.661653" lon="-7.597016">
        <ele>58</ele>
        <time>2019-03-16T17:55:52.000Z</time>
      </trkpt>
      <trkpt lat="43.661708" lon="-7.596982">
        <ele>58</ele>
        <time>2019-03-16T17:55:54.000Z</time>
      </trkpt>
      <trkpt lat="43.661761" lon="-7.596948">
        <ele>59</ele>
        <time>2019-03-16T17:55:56.000Z</time>
      </trkpt>
      <trkpt lat="43.66182" lon="-7.59691">
        <ele>59</ele>
        <time>2019-03-16T17:55:58.000Z</time>
      </trkpt>
      <trkpt lat="43.661884" lon="-7.596865">
        <ele>59</ele>
        <time>2019-03-16T17:56:00.000Z</time>
      </trkpt>
      <trkpt lat="43.661943" lon="-7.596834">
        <ele>59</ele>
        <time>2019-03-16T17:56:02.000Z</time>
      </trkpt>
      <trkpt lat="43.661994" lon="-7.596809">
        <ele>59</ele>
        <time>2019-03-16T17:56:04.000Z</time>
      </trkpt>
      <trkpt lat="43.662052" lon="-7.596779">
        <ele>60</ele>
        <time>2019-03-16T17:56:06.000Z</time>
      </trkpt>
      <trkpt lat="43.662112" lon="-7.596746">
        <ele>59</ele>
        <time>2019-03-16T17:56:08.000Z</time>
      </trkpt>
      <trkpt lat="43.662197" lon="-7.596698">
        <ele>60</ele>
        <time>2019-03-16T17:56:11.000Z</time>
      </trkpt>
      <trkpt lat="43.662284" lon="-7.596646">
        <ele>60</ele>
        <time>2019-03-16T17:56:14.000Z</time>
      </trkpt>
      <trkpt lat="43.662336" lon="-7.596611">
        <ele>60</ele>
        <time>2019-03-16T17:56:16.000Z</time>
      </trkpt>
      <trkpt lat="43.662517" lon="-7.596522">
        <ele>59</ele>
        <time>2019-03-16T17:56:19.000Z</time>
      </trkpt>
      <trkpt lat="43.662566" lon="-7.59653">
        <ele>58</ele>
        <time>2019-03-16T17:56:20.000Z</time>
      </trkpt>
      <trkpt lat="43.662566" lon="-7.596456">
        <ele>60</ele>
        <time>2019-03-16T17:56:24.000Z</time>
      </trkpt>
      <trkpt lat="43.662585" lon="-7.596344">
        <ele>60</ele>
        <time>2019-03-16T17:56:28.000Z</time>
      </trkpt>
      <trkpt lat="43.662598" lon="-7.596267">
        <ele>60</ele>
        <time>2019-03-16T17:56:31.000Z</time>
      </trkpt>
      <trkpt lat="43.66263" lon="-7.596193">
        <ele>60</ele>
        <time>2019-03-16T17:56:34.000Z</time>
      </trkpt>
      <trkpt lat="43.662663" lon="-7.59612">
        <ele>60</ele>
        <time>2019-03-16T17:56:36.000Z</time>
      </trkpt>
      <trkpt lat="43.662733" lon="-7.596041">
        <ele>61</ele>
        <time>2019-03-16T17:56:39.000Z</time>
      </trkpt>
      <trkpt lat="43.662799" lon="-7.596009">
        <ele>62</ele>
        <time>2019-03-16T17:56:41.000Z</time>
      </trkpt>
      <trkpt lat="43.66286" lon="-7.595971">
        <ele>62</ele>
        <time>2019-03-16T17:56:43.000Z</time>
      </trkpt>
      <trkpt lat="43.66292" lon="-7.595914">
        <ele>62</ele>
        <time>2019-03-16T17:56:46.000Z</time>
      </trkpt>
      <trkpt lat="43.662973" lon="-7.595866">
        <ele>62</ele>
        <time>2019-03-16T17:56:48.000Z</time>
      </trkpt>
      <trkpt lat="43.663016" lon="-7.595843">
        <ele>63</ele>
        <time>2019-03-16T17:56:50.000Z</time>
      </trkpt>
      <trkpt lat="43.663088" lon="-7.595812">
        <ele>63</ele>
        <time>2019-03-16T17:56:52.000Z</time>
      </trkpt>
      <trkpt lat="43.663152" lon="-7.595776">
        <ele>64</ele>
        <time>2019-03-16T17:56:54.000Z</time>
      </trkpt>
      <trkpt lat="43.663234" lon="-7.595722">
        <ele>65</ele>
        <time>2019-03-16T17:56:57.000Z</time>
      </trkpt>
      <trkpt lat="43.663285" lon="-7.595686">
        <ele>65</ele>
        <time>2019-03-16T17:56:59.000Z</time>
      </trkpt>
      <trkpt lat="43.663339" lon="-7.595651">
        <ele>66</ele>
        <time>2019-03-16T17:57:01.000Z</time>
      </trkpt>
      <trkpt lat="43.663427" lon="-7.595571">
        <ele>65</ele>
        <time>2019-03-16T17:57:04.000Z</time>
      </trkpt>
      <trkpt lat="43.66348" lon="-7.595512">
        <ele>65</ele>
        <time>2019-03-16T17:57:06.000Z</time>
      </trkpt>
      <trkpt lat="43.663525" lon="-7.595453">
        <ele>64</ele>
        <time>2019-03-16T17:57:08.000Z</time>
      </trkpt>
      <trkpt lat="43.663596" lon="-7.595358">
        <ele>64</ele>
        <time>2019-03-16T17:57:11.000Z</time>
      </trkpt>
      <trkpt lat="43.663639" lon="-7.595305">
        <ele>64</ele>
        <time>2019-03-16T17:57:13.000Z</time>
      </trkpt>
      <trkpt lat="43.663686" lon="-7.595267">
        <ele>64</ele>
        <time>2019-03-16T17:57:15.000Z</time>
      </trkpt>
      <trkpt lat="43.663765" lon="-7.595203">
        <ele>64</ele>
        <time>2019-03-16T17:57:18.000Z</time>
      </trkpt>
      <trkpt lat="43.663814" lon="-7.595155">
        <ele>65</ele>
        <time>2019-03-16T17:57:20.000Z</time>
      </trkpt>
      <trkpt lat="43.663865" lon="-7.59511">
        <ele>65</ele>
        <time>2019-03-16T17:57:22.000Z</time>
      </trkpt>
      <trkpt lat="43.663916" lon="-7.595068">
        <ele>65</ele>
        <time>2019-03-16T17:57:24.000Z</time>
      </trkpt>
      <trkpt lat="43.663967" lon="-7.595015">
        <ele>65</ele>
        <time>2019-03-16T17:57:26.000Z</time>
      </trkpt>
      <trkpt lat="43.664008" lon="-7.594976">
        <ele>65</ele>
        <time>2019-03-16T17:57:28.000Z</time>
      </trkpt>
      <trkpt lat="43.664082" lon="-7.594924">
        <ele>65</ele>
        <time>2019-03-16T17:57:32.000Z</time>
      </trkpt>
      <trkpt lat="43.664134" lon="-7.594909">
        <ele>65</ele>
        <time>2019-03-16T17:57:34.000Z</time>
      </trkpt>
      <trkpt lat="43.664193" lon="-7.594898">
        <ele>64</ele>
        <time>2019-03-16T17:57:36.000Z</time>
      </trkpt>
      <trkpt lat="43.664267" lon="-7.59487">
        <ele>65</ele>
        <time>2019-03-16T17:57:38.000Z</time>
      </trkpt>
      <trkpt lat="43.664342" lon="-7.594828">
        <ele>65</ele>
        <time>2019-03-16T17:57:40.000Z</time>
      </trkpt>
      <trkpt lat="43.664436" lon="-7.594758">
        <ele>66</ele>
        <time>2019-03-16T17:57:43.000Z</time>
      </trkpt>
      <trkpt lat="43.664484" lon="-7.594714">
        <ele>67</ele>
        <time>2019-03-16T17:57:45.000Z</time>
      </trkpt>
      <trkpt lat="43.664523" lon="-7.594672">
        <ele>69</ele>
        <time>2019-03-16T17:57:47.000Z</time>
      </trkpt>
      <trkpt lat="43.664567" lon="-7.594626">
        <ele>69</ele>
        <time>2019-03-16T17:57:49.000Z</time>
      </trkpt>
      <trkpt lat="43.664612" lon="-7.594589">
        <ele>70</ele>
        <time>2019-03-16T17:57:51.000Z</time>
      </trkpt>
      <trkpt lat="43.664672" lon="-7.594543">
        <ele>71</ele>
        <time>2019-03-16T17:57:53.000Z</time>
      </trkpt>
      <trkpt lat="43.664728" lon="-7.594504">
        <ele>71</ele>
        <time>2019-03-16T17:57:55.000Z</time>
      </trkpt>
      <trkpt lat="43.664806" lon="-7.594432">
        <ele>71</ele>
        <time>2019-03-16T17:57:58.000Z</time>
      </trkpt>
      <trkpt lat="43.664869" lon="-7.594353">
        <ele>70</ele>
        <time>2019-03-16T17:58:01.000Z</time>
      </trkpt>
      <trkpt lat="43.664924" lon="-7.594322">
        <ele>71</ele>
        <time>2019-03-16T17:58:03.000Z</time>
      </trkpt>
      <trkpt lat="43.664985" lon="-7.594303">
        <ele>70</ele>
        <time>2019-03-16T17:58:05.000Z</time>
      </trkpt>
      <trkpt lat="43.665031" lon="-7.594303">
        <ele>70</ele>
        <time>2019-03-16T17:58:07.000Z</time>
      </trkpt>
      <trkpt lat="43.665084" lon="-7.59431">
        <ele>71</ele>
        <time>2019-03-16T17:58:09.000Z</time>
      </trkpt>
      <trkpt lat="43.665167" lon="-7.594338">
        <ele>71</ele>
        <time>2019-03-16T17:58:12.000Z</time>
      </trkpt>
      <trkpt lat="43.665344" lon="-7.59431">
        <ele>71</ele>
        <time>2019-03-16T17:58:15.000Z</time>
      </trkpt>
      <trkpt lat="43.665414" lon="-7.594282">
        <ele>69</ele>
        <time>2019-03-16T17:58:18.000Z</time>
      </trkpt>
      <trkpt lat="43.66547" lon="-7.59425">
        <ele>69</ele>
        <time>2019-03-16T17:58:20.000Z</time>
      </trkpt>
      <trkpt lat="43.665533" lon="-7.594208">
        <ele>69</ele>
        <time>2019-03-16T17:58:22.000Z</time>
      </trkpt>
      <trkpt lat="43.665621" lon="-7.594148">
        <ele>69</ele>
        <time>2019-03-16T17:58:25.000Z</time>
      </trkpt>
      <trkpt lat="43.665683" lon="-7.594116">
        <ele>69</ele>
        <time>2019-03-16T17:58:27.000Z</time>
      </trkpt>
      <trkpt lat="43.665745" lon="-7.594063">
        <ele>69</ele>
        <time>2019-03-16T17:58:29.000Z</time>
      </trkpt>
      <trkpt lat="43.665777" lon="-7.593991">
        <ele>68</ele>
        <time>2019-03-16T17:58:31.000Z</time>
      </trkpt>
      <trkpt lat="43.665796" lon="-7.593903">
        <ele>68</ele>
        <time>2019-03-16T17:58:33.000Z</time>
      </trkpt>
      <trkpt lat="43.665822" lon="-7.593762">
        <ele>69</ele>
        <time>2019-03-16T17:58:36.000Z</time>
      </trkpt>
      <trkpt lat="43.665847" lon="-7.593637">
        <ele>68</ele>
        <time>2019-03-16T17:58:39.000Z</time>
      </trkpt>
      <trkpt lat="43.66588" lon="-7.593552">
        <ele>69</ele>
        <time>2019-03-16T17:58:41.000Z</time>
      </trkpt>
      <trkpt lat="43.665986" lon="-7.593271">
        <ele>72</ele>
        <time>2019-03-16T17:58:47.000Z</time>
      </trkpt>
      <trkpt lat="43.666101" lon="-7.593041">
        <ele>72</ele>
        <time>2019-03-16T17:58:50.000Z</time>
      </trkpt>
      <trkpt lat="43.666132" lon="-7.592982">
        <ele>72</ele>
        <time>2019-03-16T17:58:52.000Z</time>
      </trkpt>
      <trkpt lat="43.666195" lon="-7.59289">
        <ele>72</ele>
        <time>2019-03-16T17:58:54.000Z</time>
      </trkpt>
      <trkpt lat="43.666238" lon="-7.592838">
        <ele>71</ele>
        <time>2019-03-16T17:58:58.000Z</time>
      </trkpt>
      <trkpt lat="43.666281" lon="-7.592818">
        <ele>72</ele>
        <time>2019-03-16T17:59:02.000Z</time>
      </trkpt>
      <trkpt lat="43.666336" lon="-7.592771">
        <ele>73</ele>
        <time>2019-03-16T17:59:06.000Z</time>
      </trkpt>
      <trkpt lat="43.666378" lon="-7.592728">
        <ele>75</ele>
        <time>2019-03-16T17:59:09.000Z</time>
      </trkpt>
      <trkpt lat="43.666411" lon="-7.592652">
        <ele>76</ele>
        <time>2019-03-16T17:59:12.000Z</time>
      </trkpt>
      <trkpt lat="43.666442" lon="-7.592592">
        <ele>76</ele>
        <time>2019-03-16T17:59:20.000Z</time>
      </trkpt>
    </trkseg>
  </trk>
</gpx>
